JPL-Sats

  Home –  History –  Credit –  Support –  Last_Sats –  Future_Sats –  C95_Ephs –  M58_Ephs –  I98_Ephs(T18) –  Q62_Ephs(T33) –  U94_Ephs(T68) –  Q20_Ephs –  Legal –  Privacy
Home   
History   
Credit   
Support   
Last_Sats   
Future_Sats   
C95_Ephs   
M58_Ephs   
I98_Ephs(T18)   
Q62_Ephs(T33)   
U94_Ephs(T68)   
Q20_Ephs   
Legal   
Privacy   

Index of all used observable objects

TESS (-95) Chandra Observatory (-151) James Webb Space Telescope (-170) INTEGRAL (-198) Spektr-R Observatory (-557) Euclid (-680) CAPSTONE (-1176) Titan-3C RB (-102770) Gaia (-139479) MMS-1 (-140482) MMS-2 (-140483) MMS-3 (-140484) MMS-4 (-140485)

Missions with actual ephemerides

The ephemeris are downloaded by JPL Horizont:

  • Start of interval: 2024-06-19 00:00:00.
  • End of interval: 2024-07-01 00:00:00.
  • Time of interval: 10 min.
  • Station: U94.
  • Created: 2024-Jun-19 03:34:48 UTC.

TESS (JPL-ID: -95)

   Date (UTC) HH:MM   RA              Dec         delta   r     elong SM  mag  '/hr    PA   alt  az moo ill
   ---- -- -- -----  -------------   -----------  ------ ------ ----- --  --- ------ ------ --- --- --- ---
   2024 06 19 03:10  16 22 18.55    -01 57 45.3   158210 1.0170 149.5 Cm  13? 126.41 146.8   32 123  25  90
   2024 06 19 03:20  16 23 04.18    -02 15 24.5   158328 1.0170 149.9 Cm  13? 125.75 147.1   34 126  25  90
   2024 06 19 03:30  16 23 49.21    -02 33 01.7   158453 1.0170 150.2 Cm  13? 125.10 147.4   35 128  25  91
   2024 06 19 03:40  16 24 33.65    -02 50 36.8   158587 1.0170 150.6 Nm  13? 124.45 147.7   36 131  25  91
   2024 06 19 03:50  16 25 17.54    -03 08 09.7   158728 1.0170 150.9 Nm  13? 123.81 148.0   37 133  25  91
   2024 06 19 04:00  16 26 00.90    -03 25 40.1   158877 1.0170 151.2 Nm  13? 123.18 148.2   38 136  24  91
   2024 06 19 04:10  16 26 43.76    -03 43 08.0   159035 1.0170 151.5 Nm  13? 122.55 148.5   39 138  24  91
   2024 06 19 04:20  16 27 26.14    -04 00 33.0   159202 1.0170 151.9 Am  13? 121.94 148.7   40 141  24  91
   2024 06 19 04:30  16 28 08.07    -04 17 55.0   159377 1.0170 152.2 Am  13? 121.33 148.9   41 144  24  91
   2024 06 19 04:40  16 28 49.58    -04 35 13.9   159561 1.0170 152.5 Am  13? 120.72 149.1   42 147  24  91
   2024 06 19 04:50  16 29 30.71    -04 52 29.5   159754 1.0170 152.8 Am  13? 120.13 149.2   43 150  24  91
   2024 06 19 05:00  16 30 11.47    -05 09 41.5   159956 1.0170 153.2  m  13? 119.54 149.3   43 153  24  91
   2024 06 19 05:10  16 30 51.89    -05 26 49.8   160167 1.0171 153.5  m  13? 118.96 149.5   44 157  24  91
   2024 06 19 05:20  16 31 32.02    -05 43 54.2   160388 1.0171 153.8  m  13? 118.38 149.6   44 160  24  91
   2024 06 19 05:30  16 32 11.87    -06 00 54.6   160617 1.0171 154.1  m  13? 117.82 149.6   44 163  23  91
   2024 06 19 05:40  16 32 51.49    -06 17 50.7   160857 1.0171 154.4  m  13? 117.26 149.7   45 166  23  91
   2024 06 19 05:50  16 33 30.89    -06 34 42.3   161105 1.0171 154.7  m  13? 116.70 149.7   45 170  23  91
   2024 06 19 06:00  16 34 10.12    -06 51 29.4   161363 1.0171 155.0  e  13? 116.16 149.7   45 173  23  91
   2024 06 19 06:10  16 34 49.19    -07 08 11.7   161631 1.0171 155.3  m  13? 115.62 149.7   45 176  23  91
   2024 06 19 06:20  16 35 28.15    -07 24 49.1   161908 1.0171 155.6  t  13? 115.10 149.6   44 180  23  91
   2024 06 19 06:30  16 36 07.03    -07 41 21.4   162195 1.0171 155.9  m  13? 114.58 149.6   44 183  23  91
   2024 06 19 06:40  16 36 45.85    -07 57 48.4   162491 1.0171 156.2  m  13? 114.07 149.5   44 186  23  91
   2024 06 19 06:50  16 37 24.64    -08 14 10.1   162796 1.0171 156.5  m  13? 113.58 149.4   43 189  23  91
   2024 06 19 07:00  16 38 03.44    -08 30 26.2   163111 1.0171 156.8  m  13? 113.09 149.2   42 192  22  91
   2024 06 19 07:10  16 38 42.28    -08 46 36.7   163435 1.0171 157.1  m  13? 112.62 149.1   42 195  22  91
   2024 06 19 07:20  16 39 21.18    -09 02 41.4   163768 1.0171 157.4  m  13? 112.15 148.9   41 198  22  91
   2024 06 19 07:30  16 40 00.17    -09 18 40.3   164110 1.0171 157.7  m  13? 111.71 148.7   40 201  22  91
   2024 06 19 07:40  16 40 39.29    -09 34 33.1   164460 1.0171 158.0  m  13? 111.27 148.4   39 204  22  91
   2024 06 19 07:50  16 41 18.56    -09 50 19.8   164820 1.0171 158.3  m  13? 110.85 148.2   38 207  22  91
   2024 06 19 08:00  16 41 58.02    -10 06 00.3   165188 1.0171 158.6  m  13? 110.45 147.9   37 209  22  91
   2024 06 19 08:10  16 42 37.68    -10 21 34.5   165565 1.0171 158.8  m  13? 110.06 147.6   36 212  22  91
   2024 06 19 08:20  16 43 17.57    -10 37 02.4   165950 1.0171 159.1  m  13? 109.69 147.3   34 214  22  91
   2024 06 19 08:30  16 43 57.72    -10 52 23.9   166343 1.0172 159.4  m  13? 109.33 146.9   33 216  22  91
   2024 06 19 08:40  16 44 38.16    -11 07 38.8   166744 1.0172 159.7  m  13? 109.00 146.6   32 218  22  91
   2024 06 19 08:50  16 45 18.90    -11 22 47.3   167153 1.0172 160.0  m  13? 108.68 146.2   30 221  22  91
   2024 06 19 09:00  16 45 59.98    -11 37 49.2   167569 1.0172 160.3  m  13? 108.39 145.8   29 223  22  91
   2024 06 19 09:10  16 46 41.41    -11 52 44.5   167992 1.0172 160.5  m  14? 108.11 145.4   27 225  22  91
   2024 06 19 09:20  16 47 23.21    -12 07 33.2   168423 1.0172 160.8  m  14? 107.86 145.0   26 227  22  91
   2024 06 19 09:30  16 48 05.41    -12 22 15.3   168860 1.0172 161.1  m  14? 107.62 144.6   24 228  21  91
   2024 06 19 09:40  16 48 48.03    -12 36 50.7   169303 1.0172 161.4  m  14? 107.41 144.1   23 230  21  91
   2024 06 19 09:50  16 49 31.08    -12 51 19.6   169753 1.0172 161.7  m  14? 107.22 143.6   21 232  21  92
   2024 06 19 10:00  16 50 14.59    -13 05 41.8   170208 1.0172 162.0  m  14? 107.06 143.2   19 234  21  92
   2024 06 19 10:10  16 50 58.56    -13 19 57.5   170670 1.0172 162.2     14? 106.91 142.7   18 235  21  92
   2024 06 19 10:20  16 51 43.02    -13 34 06.7   171136 1.0172 162.5 A   14? 106.79 142.2   16 237  21  92
   2024 06 19 10:30  16 52 27.97    -13 48 09.4   171608 1.0172 162.8 A   14? 106.70 141.7   14 238  21  92
   2024 06 19 10:40  16 53 13.44    -14 02 05.6   172084 1.0172 163.1 A   14? 106.62 141.2   13 240  21  92
   2024 06 19 10:50  16 53 59.43    -14 15 55.5   172564 1.0172 163.4 A   14? 106.57 140.7   11 241  21  92
   2024 06 19 11:00  16 54 45.96    -14 29 39.1   173049 1.0172 163.6 A   14? 106.54 140.2    9 243  21  92
   2024 06 19 11:10  16 55 33.03    -14 43 16.5   173538 1.0172 163.9 N   14? 106.53 139.7    7 244  21  92
   2024 06 19 11:20  16 56 20.66    -14 56 47.7   174030 1.0172 164.2 N   14? 106.55 139.1    5 245  21  92
   2024 06 19 11:30  16 57 08.85    -15 10 12.8   174525 1.0172 164.5 N   14? 106.58 138.6    4 247  21  92
   2024 06 19 11:40  16 57 57.61    -15 23 32.0   175023 1.0172 164.8 N   14? 106.64 138.1    2 248  21  92
   2024 06 19 11:50  16 58 46.94    -15 36 45.4   175523 1.0172 165.0 C   14? 106.71 137.6    0 249  21  92
   ................
   2024 06 20 04:30  18 36 43.67    -34 40 34.7   207565 1.0175 165.6 Am  14?  80.19 139.5    0 136  31  96
   2024 06 20 04:40  18 37 25.42    -34 50 43.9   207771 1.0175 165.4 Am  14?  79.29 139.7    1 137  31  96
   2024 06 20 04:50  18 38 06.63    -35 00 47.9   207981 1.0175 165.1 Am  14?  78.39 139.9    2 139  31  96
   2024 06 20 05:00  18 38 47.31    -35 10 46.4   208196 1.0175 164.9  m  14?  77.50 140.0    3 141  31  96
   2024 06 20 05:10  18 39 27.47    -35 20 39.4   208415 1.0175 164.7  m  14?  76.60 140.2    4 142  31  96
   2024 06 20 05:20  18 40 07.14    -35 30 26.7   208640 1.0175 164.5  m  14?  75.70 140.3    5 144  32  96
   2024 06 20 05:30  18 40 46.32    -35 40 08.0   208869 1.0175 164.3  m  14?  74.81 140.4    6 146  32  96
   2024 06 20 05:40  18 41 25.05    -35 49 43.1   209104 1.0175 164.1  m  14?  73.93 140.5    7 147  32  96
   2024 06 20 05:50  18 42 03.33    -35 59 12.1   209344 1.0175 163.9  m  14?  73.05 140.5    8 149  32  96
   2024 06 20 06:00  18 42 41.20    -36 08 34.6   209589 1.0175 163.7  m  14?  72.17 140.6    9 151  32  96
   2024 06 20 06:10  18 43 18.66    -36 17 50.6   209840 1.0175 163.5  m  14?  71.31 140.6    9 153  32  96
   2024 06 20 06:20  18 43 55.75    -36 26 59.9   210097 1.0175 163.3  m  14?  70.45 140.6   10 154  32  96
   2024 06 20 06:30  18 44 32.49    -36 36 02.3   210360 1.0175 163.1  m  14?  69.60 140.5   11 156  32  96
   2024 06 20 06:40  18 45 08.90    -36 44 57.8   210629 1.0175 162.9  m  14?  68.76 140.5   11 158  32  96
   2024 06 20 06:50  18 45 45.01    -36 53 46.2   210904 1.0175 162.8  m  14?  67.94 140.4   12 160  32  96
   2024 06 20 07:00  18 46 20.83    -37 02 27.4   211185 1.0175 162.6  m  14?  67.13 140.2   12 162  32  96
   2024 06 20 07:10  18 46 56.41    -37 11 01.4   211473 1.0175 162.4  m  14?  66.33 140.1   12 164  33  96
   2024 06 20 07:20  18 47 31.76    -37 19 27.9   211766 1.0175 162.2  m  14?  65.55 139.9   13 166  33  96
   2024 06 20 07:30  18 48 06.91    -37 27 47.1   212067 1.0175 162.0  m  14?  64.78 139.7   13 168  33  96
   2024 06 20 07:40  18 48 41.90    -37 35 58.6   212373 1.0175 161.9  m  14?  64.03 139.4   13 170  33  96
   2024 06 20 07:50  18 49 16.74    -37 44 02.6   212686 1.0175 161.7  m  14?  63.31 139.1   14 171  33  96
   2024 06 20 08:00  18 49 51.46    -37 51 58.9   213005 1.0175 161.5  m  14?  62.60 138.8   14 173  33  96
   2024 06 20 08:10  18 50 26.10    -37 59 47.5   213331 1.0175 161.4  m  14?  61.92 138.4   14 175  33  96
   2024 06 20 08:20  18 51 00.69    -38 07 28.4   213663 1.0175 161.2  e  14?  61.26 138.0   14 177  33  96
   2024 06 20 08:30  18 51 35.24    -38 15 01.6   214002 1.0175 161.0  m  14?  60.62 137.6   14 179  33  96
   2024 06 20 08:40  18 52 09.80    -38 22 26.9   214346 1.0175 160.9  t  14?  60.01 137.1   13 181  33  96
   2024 06 20 08:50  18 52 44.39    -38 29 44.5   214698 1.0175 160.7  m  14?  59.43 136.6   13 183  33  96
   2024 06 20 09:00  18 53 19.04    -38 36 54.4   215055 1.0175 160.5  m  14?  58.88 136.1   13 185  33  96
   2024 06 20 09:10  18 53 53.77    -38 43 56.5   215419 1.0175 160.4  m  14?  58.36 135.5   13 187  33  96
   2024 06 20 09:20  18 54 28.63    -38 50 50.8   215789 1.0175 160.2  m  14?  57.88 135.0   12 189  33  96
   2024 06 20 09:30  18 55 03.63    -38 57 37.5   216164 1.0175 160.1  m  14?  57.42 134.3   12 190  34  96
   2024 06 20 09:40  18 55 38.80    -39 04 16.6   216546 1.0175 159.9  m  14?  57.00 133.7   11 192  34  96
   2024 06 20 09:50  18 56 14.17    -39 10 48.1   216934 1.0175 159.8  m  14?  56.62 133.0   11 194  34  96
   2024 06 20 10:00  18 56 49.78    -39 17 12.1   217327 1.0175 159.6  m  14?  56.27 132.3   10 196  34  96
   2024 06 20 10:10  18 57 25.64    -39 23 28.6   217726 1.0175 159.4  m  14?  55.96 131.6   10 197  34  96
   2024 06 20 10:20  18 58 01.78    -39 29 37.8   218131 1.0175 159.3 Am  14?  55.69 130.8    9 199  34  96
   2024 06 20 10:30  18 58 38.23    -39 35 39.8   218541 1.0175 159.1 Am  14?  55.46 130.0    8 201  34  96
   2024 06 20 10:40  18 59 15.02    -39 41 34.6   218956 1.0175 159.0 Am  14?  55.26 129.2    7 203  34  96
   2024 06 20 10:50  18 59 52.16    -39 47 22.4   219376 1.0175 158.9 A   14?  55.11 128.4    6 204  34  96
   2024 06 20 11:00  19 00 29.68    -39 53 03.3   219801 1.0175 158.7 A   14?  54.99 127.6    6 206  34  96
   2024 06 20 11:10  19 01 07.61    -39 58 37.4   220231 1.0175 158.6 N   14?  54.92 126.8    5 207  34  96
   2024 06 20 11:20  19 01 45.97    -40 04 04.9   220665 1.0175 158.4 N   14?  54.88 126.0    4 209  34  96
   2024 06 20 11:30  19 02 24.77    -40 09 25.8   221104 1.0175 158.3 N   14?  54.89 125.2    3 210  34  96
   2024 06 20 11:40  19 03 04.04    -40 14 40.5   221546 1.0175 158.1 N   14?  54.93 124.3    2 212  34  96
   2024 06 20 11:50  19 03 43.81    -40 19 48.9   221993 1.0175 158.0 C   14?  55.01 123.5    1 213  34  96
   2024 06 20 12:00  19 04 24.07    -40 24 51.4   222443 1.0175 157.8 C   14?  55.13 122.7    0 215  35  96
   ................
   2024 06 21 08:50  20 59 12.06    -49 21 33.5   260644 1.0175 136.6  m  14?  39.18 117.9    0 163  46  99
   2024 06 21 09:00  20 59 47.27    -49 24 35.1   260872 1.0175 136.5  m  14?  38.58 117.3    0 164  46  99
   2024 06 21 09:10  21 00 22.17    -49 27 30.3   261103 1.0175 136.4  m  14?  38.01 116.7    0 166  46  99
   2024 06 21 09:20  21 00 56.78    -49 30 19.3   261340 1.0175 136.3  m  14?  37.46 116.1    1 167  46  99
   2024 06 21 09:30  21 01 31.15    -49 33 01.8   261581 1.0175 136.2  m  14?  36.94 115.4    1 169  46  99
   2024 06 21 09:40  21 02 05.28    -49 35 37.9   261826 1.0175 136.1  m  14?  36.44 114.6    1 170  46  99
   2024 06 21 09:50  21 02 39.20    -49 38 07.5   262077 1.0175 136.0  m  14?  35.98 113.8    2 172  46  99
   2024 06 21 10:00  21 03 12.96    -49 40 30.6   262332 1.0175 135.9  m  14?  35.55 112.9    2 173  46  99
   2024 06 21 10:10  21 03 46.57    -49 42 47.1   262593 1.0175 135.8  m  14?  35.16 112.1    2 175  46  99
   2024 06 21 10:20  21 04 20.06    -49 44 57.0   262858 1.0175 135.7 Am  14?  34.80 111.1    2 176  46  99
   2024 06 21 10:30  21 04 53.46    -49 47 00.3   263128 1.0175 135.6 Am  14?  34.47 110.2    2 178  46  99
   2024 06 21 10:40  21 05 26.80    -49 48 57.0   263403 1.0175 135.5 Ae  14?  34.19 109.2    2 179  46  99
   2024 06 21 10:50  21 06 00.11    -49 50 47.1   263683 1.0175 135.4 At  14?  33.94 108.1    2 181  46  99
   2024 06 21 11:00  21 06 33.41    -49 52 30.6   263968 1.0175 135.3 Am  14?  33.73 107.1    2 182  46  99
   2024 06 21 11:10  21 07 06.75    -49 54 07.6   264258 1.0175 135.2 Nm  14?  33.56 106.0    2 184  46  99
   2024 06 21 11:20  21 07 40.13    -49 55 38.1   264552 1.0175 135.2 Nm  14?  33.43 104.9    2 185  46  99
   2024 06 21 11:30  21 08 13.60    -49 57 02.1   264851 1.0175 135.1 Nm  14?  33.34 103.8    1 187  46  99
   2024 06 21 11:40  21 08 47.17    -49 58 19.8   265155 1.0175 135.0 N   14?  33.30 102.7    1 188  46  99
   2024 06 21 11:50  21 09 20.89    -49 59 31.0   265464 1.0175 134.9 C   14?  33.29 101.6    1 190  46  99
   2024 06 21 12:00  21 09 54.77    -50 00 36.1   265778 1.0175 134.8 C   14?  33.33 100.5    0 191  46  99
   ................
   2024 06 22 11:00  22 58 17.02    -50 32 32.6   298462 1.0172 118.3 Am  14?  25.02  86.9    0 165  54  99
   2024 06 22 11:10  22 58 43.09    -50 32 16.9   298611 1.0172 118.2 Nm  14?  24.78  85.7    0 167  54  99
   2024 06 22 11:20  22 59 08.88    -50 31 56.0   298766 1.0172 118.2 Nm  14?  24.58  84.5    0 168  54  99
   2024 06 22 11:30  22 59 34.42    -50 31 29.9   298925 1.0172 118.1 Nm  14?  24.42  83.2    0 170  54  99
   2024 06 22 11:40  22 59 59.75    -50 30 58.6   299089 1.0172 118.0 Nm  14?  24.30  81.9    1 171  54  99
   2024 06 22 11:50  23 00 24.88    -50 30 21.9   299257 1.0172 118.0 Cm  14?  24.21  80.6    1 173  54  99
   2024 06 22 12:00  23 00 49.84    -50 29 39.9   299431 1.0172 117.9 Cm  14?  24.16  79.3    1 174  54  99
   ................
   2024 06 23 11:20  00 23 35.62    -46 22 52.3   321902 1.0169 104.3 Nm  13?  21.19  69.1    0 154  59  97
   2024 06 23 11:30  00 23 54.56    -46 21 34.8   321933 1.0169 104.3 Nm  13?  20.97  67.8    0 156  59  97
   2024 06 23 11:40  00 24 13.14    -46 20 13.5   321967 1.0169 104.2 Nm  13?  20.79  66.4    1 157  59  97
   2024 06 23 11:50  00 24 31.36    -46 18 48.3   322007 1.0169 104.2 Cm  13?  20.64  65.0    1 159  59  97
   2024 06 23 12:00  00 24 49.26    -46 17 19.1   322050 1.0169 104.1 Cm  13?  20.53  63.6    2 160  59  97
   ................
   2024 06 24 11:30  01 26 11.64    -39 57 12.1   333771 1.0165  92.0 Nm  13?  20.51  57.2    0 144  62  92
   2024 06 24 11:40  01 26 26.43    -39 55 19.5   333687 1.0165  91.9 Nm  13?  20.28  55.9    1 145  62  92
   2024 06 24 11:50  01 26 40.82    -39 53 24.3   333607 1.0165  91.9 Cm  13?  20.09  54.6    2 147  62  92
   2024 06 24 12:00  01 26 54.85    -39 51 26.1   333531 1.0165  91.8 Cm  13?  19.92  53.2    3 148  62  92
   ................
   2024 06 25 11:30  02 15 08.76    -32 14 28.3   334544 1.0161  80.2 Nm  13?  22.29  50.0    0 132  64  85
   2024 06 25 11:40  02 15 22.00    -32 12 03.9   334349 1.0161  80.2 Nm  13?  22.03  48.8    1 133  64  85
   2024 06 25 11:50  02 15 34.84    -32 09 37.6   334157 1.0161  80.1 Cm  13?  21.79  47.6    2 135  64  85
   2024 06 25 12:00  02 15 47.29    -32 07 09.3   333968 1.0161  80.0 Cm  13?  21.58  46.3    4 136  64  85
   ................
   2024 06 26 11:30  02 57 24.79    -23 20 01.7   324290 1.0157  68.1 Nm  14?  26.49  45.1    0 119  64  76
   2024 06 26 11:40  02 57 38.18    -23 16 53.7   323990 1.0157  68.0 Nm  14?  26.20  44.0    1 121  64  76
   2024 06 26 11:50  02 57 51.17    -23 13 44.3   323692 1.0157  68.0 Cm  14?  25.92  43.0    3 122  64  76
   2024 06 26 12:00  02 58 03.76    -23 10 33.6   323397 1.0157  67.9 Cm  14?  25.67  41.9    4 124  64  76
   ................
   2024 06 27 11:30  03 38 11.27    -12 51 10.9   302960 1.0154  54.6 Nr  14?  34.23  42.0    0 106  64  66
   2024 06 27 11:40  03 38 26.69    -12 46 55.5   302561 1.0154  54.6 Nm  14?  33.91  41.1    1 107  64  66
   2024 06 27 11:50  03 38 41.69    -12 42 39.1   302164 1.0154  54.5 Cm  14?  33.61  40.2    3 109  64  66
   2024 06 27 12:00  03 38 56.30    -12 38 21.6   301769 1.0154  54.4 Cm  14?  33.32  39.4    5 110  64  66
   ................
   2024 06 28 11:30  04 23 24.66    +00 04 33.7   270594 1.0152  38.5 Nr  14?  48.33  41.0    0  89  64  55
   2024 06 28 11:40  04 23 45.51    +00 10 40.1   270110 1.0152  38.3 Nm  14?  48.02  40.3    1  91  64  54
   2024 06 28 11:50  04 24 05.95    +00 16 47.6   269627 1.0152  38.2 Cm  14?  47.71  39.6    3  92  64  54
   2024 06 28 12:00  04 24 25.97    +00 22 56.5   269144 1.0152  38.1 Cm  14?  47.42  38.9    5  93  64  54
   ................
   2024 06 29 11:40  05 25 47.14    +17 10 24.9   227556 1.0152  17.1 Nm  14?  75.41  43.3    1  68  66  43
   2024 06 29 11:50  05 26 22.96    +17 19 36.1   227025 1.0152  16.9 Cm  14?  75.21  42.9    2  70  66  43
   2024 06 29 12:00  05 26 58.41    +17 28 49.9   226493 1.0152  16.7 Cm  14?  75.00  42.4    4  71  66  43
   ................
   2024 06 30 11:50  07 30 31.45    +39 15 27.5   179445 1.0155  19.5 Cm  14? 130.23  59.3    0  36  78  32
   2024 06 30 12:00  07 32 07.86    +39 26 36.2   178997 1.0155  19.8 Cm  14? 130.37  59.2    0  37  78  32
   ................
   

Chandra Observatory (JPL-ID: -151)

   Date (UTC) HH:MM   RA              Dec         delta   r     elong SM  mag  '/hr    PA   alt  az moo ill
   ---- -- -- -----  -------------   -----------  ------ ------ ----- --  --- ------ ------ --- --- --- ---
   2024 06 19 03:10  17 31 20.38    +39 13 05.2   119423 1.0164 117.1 Cm  14?  45.20  80.2   42  68  68  90
   2024 06 19 03:20  17 31 57.98    +39 14 17.3   119911 1.0164 117.1 Cm  14?  43.37  80.7   44  68  69  90
   2024 06 19 03:30  17 32 34.12    +39 15 22.6   120395 1.0164 117.1 Cm  14?  41.60  81.3   46  69  69  91
   2024 06 19 03:40  17 33 08.84    +39 16 20.8   120873 1.0165 117.1 Nm  14?  39.89  82.0   48  70  69  91
   2024 06 19 03:50  17 33 42.19    +39 17 11.7   121348 1.0165 117.1 Nm  14?  38.24  82.7   49  71  69  91
   2024 06 19 04:00  17 34 14.22    +39 17 55.2   121818 1.0165 117.1 Nm  14?  36.65  83.6   51  71  69  91
   2024 06 19 04:10  17 34 44.99    +39 18 31.0   122285 1.0165 117.1 Nm  14?  35.13  84.6   53  72  69  91
   2024 06 19 04:20  17 35 14.53    +39 18 59.0   122749 1.0165 117.1 Am  14?  33.68  85.7   55  73  69  91
   2024 06 19 04:30  17 35 42.90    +39 19 19.0   123209 1.0165 117.1 Am  14?  32.31  87.0   57  73  69  91
   2024 06 19 04:40  17 36 10.16    +39 19 30.8   123666 1.0165 117.1 Am  14?  31.01  88.4   58  74  69  91
   2024 06 19 04:50  17 36 36.35    +39 19 34.3   124120 1.0165 117.1 Am  14?  29.80  90.0   60  75  69  91
   2024 06 19 05:00  17 37 01.54    +39 19 29.4   124573 1.0165 117.1  m  14?  28.68  91.7   62  75  69  91
   2024 06 19 05:10  17 37 25.77    +39 19 15.8   125023 1.0165 117.1  m  14?  27.65  93.5   64  76  69  91
   2024 06 19 05:20  17 37 49.11    +39 18 53.6   125471 1.0165 117.1  m  14?  26.71  95.6   66  76  69  91
   2024 06 19 05:30  17 38 11.60    +39 18 22.5   125917 1.0165 117.1  m  14?  25.88  97.7   68  77  69  91
   2024 06 19 05:40  17 38 33.30    +39 17 42.5   126362 1.0165 117.2  m  14?  25.16 100.0   69  77  69  91
   2024 06 19 05:50  17 38 54.27    +39 16 53.6   126805 1.0165 117.2  m  14?  24.54 102.4   71  77  69  91
   2024 06 19 06:00  17 39 14.58    +39 15 55.7   127248 1.0165 117.2  m  14?  24.03 104.8   73  78  69  91
   2024 06 19 06:10  17 39 34.26    +39 14 48.7   127689 1.0165 117.2  m  15?  23.64 107.4   75  78  69  91
   2024 06 19 06:20  17 39 53.39    +39 13 32.6   128130 1.0165 117.2  m  15?  23.36 110.0   77  78  69  91
   2024 06 19 06:30  17 40 12.01    +39 12 07.3   128570 1.0165 117.3  m  15?  23.19 112.6   79  78  69  91
   2024 06 19 06:40  17 40 30.20    +39 10 33.0   129010 1.0165 117.3  m  15?  23.13 115.1   81  77  69  91
   2024 06 19 06:50  17 40 47.99    +39 08 49.6   129449 1.0165 117.3  m  15?  23.17 117.6   83  75  69  91
   2024 06 19 07:00  17 41 05.46    +39 06 57.1   129888 1.0165 117.4  m  15?  23.31 119.9   84  72  69  91
   2024 06 19 07:10  17 41 22.65    +39 04 55.6   130327 1.0165 117.4  m  15?  23.54 122.1   86  64  69  91
   2024 06 19 07:20  17 41 39.62    +39 02 45.1   130766 1.0165 117.4  m  15?  23.85 124.2   88  38  69  91
   2024 06 19 07:30  17 41 56.43    +39 00 25.8   131205 1.0165 117.5  t  15?  24.24 126.1   88 325  69  91
   2024 06 19 07:40  17 42 13.13    +38 57 57.7   131643 1.0165 117.5  m  15?  24.70 127.9   86 294  69  91
   2024 06 19 07:50  17 42 29.78    +38 55 21.0   132082 1.0165 117.6  m  15?  25.22 129.5   85 285  69  91
   2024 06 19 08:00  17 42 46.42    +38 52 35.7   132522 1.0165 117.6  m  15?  25.80 130.8   83 282  69  91
   2024 06 19 08:10  17 43 03.12    +38 49 42.0   132961 1.0165 117.7  m  15?  26.43 132.1   81 280  69  91
   2024 06 19 08:20  17 43 19.91    +38 46 40.1   133400 1.0165 117.7  m  15?  27.10 133.1   79 279  69  91
   2024 06 19 08:30  17 43 36.85    +38 43 30.1   133840 1.0165 117.8  m  15?  27.81 134.0   77 279  69  91
   2024 06 19 08:40  17 43 53.99    +38 40 12.3   134280 1.0165 117.8  m  15?  28.55 134.7   75 279  69  91
   2024 06 19 08:50  17 44 11.37    +38 36 46.7   134720 1.0165 117.9  m  15?  29.32 135.3   73 279  69  91
   2024 06 19 09:00  17 44 29.04    +38 33 13.6   135160 1.0165 117.9  m  15?  30.12 135.8   71 279  69  91
   2024 06 19 09:10  17 44 47.05    +38 29 33.3   135600 1.0165 118.0  m  15?  30.94 136.1   69 280  69  91
   2024 06 19 09:20  17 45 05.42    +38 25 45.9   136040 1.0165 118.1  m  15?  31.77 136.4   68 280  69  91
   2024 06 19 09:30  17 45 24.21    +38 21 51.7   136479 1.0165 118.1  m  15?  32.62 136.5   66 280  69  91
   2024 06 19 09:40  17 45 43.46    +38 17 50.9   136919 1.0165 118.2  m  15?  33.49 136.5   64 281  69  91
   2024 06 19 09:50  17 46 03.20    +38 13 43.9   137358 1.0165 118.3  m  15?  34.36 136.5   62 282  69  92
   2024 06 19 10:00  17 46 23.46    +38 09 30.7   137797 1.0165 118.4  m  15?  35.25 136.4   60 282  69  92
   2024 06 19 10:10  17 46 44.28    +38 05 11.9   138235 1.0166 118.4     15?  36.14 136.2   58 283  69  92
   2024 06 19 10:20  17 47 05.69    +38 00 47.5   138672 1.0166 118.5 A   15?  37.04 135.9   56 283  69  92
   2024 06 19 10:30  17 47 27.72    +37 56 17.9   139109 1.0166 118.6 A   15?  37.94 135.6   54 284  69  92
   2024 06 19 10:40  17 47 50.40    +37 51 43.4   139544 1.0166 118.7 A   15?  38.85 135.2   53 285  69  92
   2024 06 19 10:50  17 48 13.75    +37 47 04.3   139978 1.0166 118.7 A   15?  39.76 134.8   51 285  69  92
   2024 06 19 11:00  17 48 37.80    +37 42 20.8   140411 1.0166 118.8 A   15?  40.67 134.4   49 286  69  92
   2024 06 19 11:10  17 49 02.57    +37 37 33.4   140842 1.0166 118.9 N   15?  41.58 133.9   47 287  69  92
   2024 06 19 11:20  17 49 28.08    +37 32 42.2   141272 1.0166 119.0 N   15?  42.50 133.4   45 288  69  92
   2024 06 19 11:30  17 49 54.35    +37 27 47.5   141699 1.0166 119.1 N   15?  43.41 132.8   43 288  69  92
   2024 06 19 11:40  17 50 21.39    +37 22 49.8   142125 1.0166 119.1 N   15?  44.32 132.2   42 289  68  92
   2024 06 19 11:50  17 50 49.22    +37 17 49.2   142547 1.0166 119.2 C   15?  45.23 131.6   40 290  68  92
   2024 06 19 12:00  17 51 17.85    +37 12 46.2   142967 1.0166 119.3 C   15?  46.14 131.0   38 291  68  92
   ................
   2024 06 20 03:10  19 01 22.76    +32 44 26.3   145121 1.0167 121.6 Cm  15?  39.91  96.5   24  66  71  95
   2024 06 20 03:20  19 01 53.73    +32 43 39.2   144700 1.0167 121.6 Cm  15?  38.82  97.0   26  67  71  95
   2024 06 20 03:30  19 02 23.82    +32 42 49.9   144275 1.0167 121.6 Cm  15?  37.75  97.5   27  68  71  95
   2024 06 20 03:40  19 02 53.02    +32 41 58.1   143845 1.0167 121.6 Nm  15?  36.69  98.2   29  69  71  95
   2024 06 20 03:50  19 03 21.34    +32 41 03.7   143411 1.0167 121.5 Nm  15?  35.64  98.9   31  70  71  95
   2024 06 20 04:00  19 03 48.79    +32 40 06.3   142973 1.0167 121.5 Nm  15?  34.62  99.7   33  71  71  95
   2024 06 20 04:10  19 04 15.37    +32 39 05.5   142531 1.0167 121.5 Nm  15?  33.61 100.5   34  73  71  96
   2024 06 20 04:20  19 04 41.10    +32 38 01.2   142086 1.0167 121.5 Am  15?  32.64 101.5   36  74  71  96
   2024 06 20 04:30  19 05 05.97    +32 36 52.9   141638 1.0167 121.5 Am  15?  31.69 102.6   38  75  71  96
   2024 06 20 04:40  19 05 30.01    +32 35 40.4   141186 1.0167 121.5 Am  15?  30.78 103.8   40  76  71  96
   2024 06 20 04:50  19 05 53.24    +32 34 23.4   140732 1.0167 121.5 Am  15?  29.91 105.2   42  77  71  96
   2024 06 20 05:00  19 06 15.65    +32 33 01.5   140276 1.0167 121.5  m  15?  29.09 106.7   44  78  71  96
   2024 06 20 05:10  19 06 37.28    +32 31 34.6   139818 1.0167 121.5  m  15?  28.32 108.2   46  79  71  96
   2024 06 20 05:20  19 06 58.15    +32 30 02.2   139358 1.0167 121.5  m  15?  27.61 110.0   47  80  71  96
   2024 06 20 05:30  19 07 18.26    +32 28 24.1   138896 1.0167 121.5  m  15?  26.96 111.8   49  82  71  96
   2024 06 20 05:40  19 07 37.66    +32 26 40.1   138433 1.0167 121.5  m  15?  26.38 113.8   51  83  71  96
   2024 06 20 05:50  19 07 56.35    +32 24 49.7   137968 1.0167 121.5  m  15?  25.87 115.8   53  84  71  96
   2024 06 20 06:00  19 08 14.38    +32 22 52.8   137503 1.0167 121.5  m  15?  25.44 118.0   55  85  71  96
   2024 06 20 06:10  19 08 31.76    +32 20 49.1   137036 1.0167 121.5  m  15?  25.09 120.3   57  87  71  96
   2024 06 20 06:20  19 08 48.52    +32 18 38.2   136569 1.0167 121.6  m  15?  24.84 122.6   59  88  71  96
   2024 06 20 06:30  19 09 04.71    +32 16 20.0   136102 1.0167 121.6  m  15?  24.67 124.9   61  90  71  96
   2024 06 20 06:40  19 09 20.34    +32 13 54.2   135634 1.0166 121.6  m  15?  24.59 127.3   63  91  71  96
   2024 06 20 06:50  19 09 35.46    +32 11 20.5   135167 1.0166 121.6  m  15?  24.60 129.7   65  93  71  96
   2024 06 20 07:00  19 09 50.11    +32 08 38.7   134699 1.0166 121.6  m  15?  24.71 132.0   66  95  71  96
   2024 06 20 07:10  19 10 04.31    +32 05 48.5   134231 1.0166 121.7  m  15?  24.91 134.2   68  97  71  96
   2024 06 20 07:20  19 10 18.12    +32 02 49.9   133764 1.0166 121.7  m  15?  25.20 136.4   70 100  71  96
   2024 06 20 07:30  19 10 31.56    +31 59 42.4   133297 1.0166 121.7  m  15?  25.57 138.4   72 103  71  96
   2024 06 20 07:40  19 10 44.69    +31 56 26.0   132831 1.0166 121.8  m  15?  26.02 140.4   74 106  71  96
   2024 06 20 07:50  19 10 57.54    +31 53 00.4   132365 1.0166 121.8  m  15?  26.55 142.2   76 110  71  96
   2024 06 20 08:00  19 11 10.17    +31 49 25.5   131899 1.0166 121.9  m  15?  27.15 143.8   78 115  71  96
   2024 06 20 08:10  19 11 22.61    +31 45 41.1   131435 1.0166 121.9  m  15?  27.82 145.3   79 122  71  96
   2024 06 20 08:20  19 11 34.91    +31 41 47.1   130971 1.0166 122.0  m  15?  28.55 146.6   81 130  71  96
   2024 06 20 08:30  19 11 47.12    +31 37 43.3   130508 1.0166 122.0  m  15?  29.34 147.8   82 142  71  96
   2024 06 20 08:40  19 11 59.29    +31 33 29.6   130046 1.0166 122.1  m  15?  30.18 148.8   83 158  71  96
   2024 06 20 08:50  19 12 11.47    +31 29 05.8   129584 1.0166 122.1  m  15?  31.08 149.7   83 176  70  96
   2024 06 20 09:00  19 12 23.70    +31 24 32.0   129123 1.0166 122.2  t  15?  32.02 150.4   83 195  70  96
   2024 06 20 09:10  19 12 36.04    +31 19 47.9   128663 1.0166 122.2  m  15?  33.00 151.0   82 211  70  96
   2024 06 20 09:20  19 12 48.54    +31 14 53.6   128203 1.0166 122.3  m  15?  34.03 151.5   81 223  70  96
   2024 06 20 09:30  19 13 01.25    +31 09 48.9   127744 1.0166 122.4  m  15?  35.09 151.8   79 232  70  96
   2024 06 20 09:40  19 13 14.21    +31 04 33.8   127286 1.0166 122.4  m  15?  36.19 152.1   78 239  70  96
   2024 06 20 09:50  19 13 27.49    +30 59 08.3   126828 1.0166 122.5  m  15?  37.32 152.2   76 244  70  96
   2024 06 20 10:00  19 13 41.13    +30 53 32.3   126370 1.0166 122.6  m  15?  38.49 152.2   74 248  70  96
   2024 06 20 10:10  19 13 55.18    +30 47 45.9   125912 1.0166 122.6  m  15?  39.69 152.2   72 252  70  96
   2024 06 20 10:20  19 14 09.70    +30 41 49.0   125455 1.0166 122.7 Am  15?  40.91 152.1   70 255  70  96
   2024 06 20 10:30  19 14 24.74    +30 35 41.7   124997 1.0166 122.8 Am  15?  42.17 151.9   68 257  70  96
   2024 06 20 10:40  19 14 40.34    +30 29 24.0   124539 1.0166 122.9 Am  15?  43.46 151.6   66 259  70  96
   2024 06 20 10:50  19 14 56.56    +30 22 55.9   124080 1.0166 123.0 A   15?  44.77 151.2   65 261  70  96
   2024 06 20 11:00  19 15 13.44    +30 16 17.5   123621 1.0166 123.0 A   15?  46.12 150.9   63 263  69  96
   2024 06 20 11:10  19 15 31.04    +30 09 28.8   123161 1.0166 123.1 N   15?  47.49 150.4   61 265  69  96
   2024 06 20 11:20  19 15 49.40    +30 02 29.9   122700 1.0166 123.2 N   15?  48.90 149.9   59 266  69  96
   2024 06 20 11:30  19 16 08.57    +29 55 20.9   122237 1.0166 123.3 N   15?  50.33 149.4   57 268  69  96
   2024 06 20 11:40  19 16 28.60    +29 48 01.8   121773 1.0166 123.4 N   15?  51.79 148.8   55 269  69  96
   2024 06 20 11:50  19 16 49.53    +29 40 32.8   121307 1.0166 123.5 C   15?  53.28 148.2   53 270  69  96
   2024 06 20 12:00  19 17 11.42    +29 32 53.9   120839 1.0166 123.6 C   15?  54.80 147.6   51 271  69  96
   ................
   2024 06 21 04:10  10 00 47.95    -01 49 32.9    12107 1.0162  63.7 Nr   9? 6747.3  48.2   15 254 104  98
   2024 06 21 04:20  10 49 31.47    +08 59 56.4    13688 1.0162  70.3 Am   9? 5017.0  48.9   30 257  99  98
   2024 06 21 04:30  11 27 11.43    +16 45 07.3    15661 1.0162  76.1 Am  10? 3705.2  51.0   40 259  95  98
   2024 06 21 04:40  11 57 12.31    +22 14 32.3    17815 1.0162  80.7 Am  10? 2796.9  53.5   47 262  91  98
   2024 06 21 04:50  12 21 45.23    +26 11 43.4    20037 1.0162  84.4 Am  10? 2173.8  56.1   52 264  88  99
   2024 06 21 05:00  12 42 16.39    +29 06 40.6    22268 1.0162  87.3  m  10? 1737.7  58.5   55 267  86  99
   2024 06 21 05:10  12 59 44.23    +31 18 51.5    24479 1.0162  89.7  m  10? 1424.0  60.9   57 269  85  99
   2024 06 21 05:20  13 14 49.64    +33 00 52.8    26654 1.0162  91.7  m  11? 1191.8  63.0   59 272  83  99
   2024 06 21 05:30  13 28 02.07    +34 21 04.0    28788 1.0162  93.4  m  11? 1015.5  65.0   60 274  82  99
   2024 06 21 05:40  13 39 43.25    +35 25 03.2    30877 1.0163  94.8  m  11? 878.56  66.9   61 276  81  99
   2024 06 21 05:50  13 50 09.58    +36 16 45.0    32920 1.0163  96.1  m  11? 769.99  68.7   61 277  80  99
   2024 06 21 06:00  13 59 33.71    +36 58 56.5    34920 1.0163  97.2  e  11? 682.42  70.3   61 279  80  99
   2024 06 21 06:10  14 08 05.50    +37 33 39.1    36877 1.0163  98.2  m  11? 610.72  71.9   61 280  79  99
   2024 06 21 06:20  14 15 52.83    +38 02 22.6    38792 1.0163  99.1  m  11? 551.23  73.4   60 281  78  99
   2024 06 21 06:30  14 23 02.03    +38 26 15.2    40669 1.0163  99.9  m  12? 501.31  74.8   60 282  78  99
   2024 06 21 06:40  14 29 38.28    +38 46 09.0    42508 1.0163 100.6  m  12? 458.99  76.2   59 283  77  99
   2024 06 21 06:50  14 35 45.83    +39 02 44.9    44312 1.0163 101.3  m  12? 422.79  77.5   59 284  77  99
   2024 06 21 07:00  14 41 28.24    +39 16 34.9    46083 1.0163 101.9  m  12? 391.58  78.8   58 285  77  99
   2024 06 21 07:10  14 46 48.50    +39 28 04.8    47821 1.0163 102.5  m  12? 364.48  80.0   57 286  76  99
   2024 06 21 07:20  14 51 49.14    +39 37 35.4    49529 1.0163 103.1  m  12? 340.82  81.2   56 286  76  99
   2024 06 21 07:30  14 56 32.33    +39 45 23.7    51209 1.0163 103.6  m  12? 320.02  82.3   55 287  76  99
   2024 06 21 07:40  15 00 59.91    +39 51 43.7    52861 1.0163 104.1  m  12? 301.67  83.4   54 287  75  99
   2024 06 21 07:50  15 05 13.50    +39 56 47.0    54487 1.0163 104.6  m  12? 285.39  84.5   53 288  75  99
   2024 06 21 08:00  15 09 14.49    +40 00 43.5    56088 1.0163 105.0  m  12? 270.90  85.5   52 288  75  99
   2024 06 21 08:10  15 13 04.11    +40 03 41.5    57665 1.0163 105.4  m  12? 257.95  86.5   51 289  74  99
   2024 06 21 08:20  15 16 43.42    +40 05 48.0    59219 1.0164 105.9  m  13? 246.33  87.5   50 289  74  99
   2024 06 21 08:30  15 20 13.39    +40 07 09.0    60751 1.0164 106.2  m  13? 235.88  88.4   48 290  74  99
   2024 06 21 08:40  15 23 34.83    +40 07 49.8    62263 1.0164 106.6  m  13? 226.46  89.3   47 291  74  99
   2024 06 21 08:50  15 26 48.52    +40 07 54.9    63753 1.0164 107.0  m  13? 217.94  90.2   46 291  73  99
   2024 06 21 09:00  15 29 55.10    +40 07 28.3    65225 1.0164 107.3  m  13? 210.21  91.0   45 292  73  99
   2024 06 21 09:10  15 32 55.18    +40 06 33.4    66677 1.0164 107.7  m  13? 203.18  91.8   43 292  73  99
   2024 06 21 09:20  15 35 49.29    +40 05 13.2    68111 1.0164 108.0  m  13? 196.79  92.5   42 293  73  99
   2024 06 21 09:30  15 38 37.91    +40 03 30.6    69527 1.0164 108.4  m  13? 190.95  93.3   41 293  72  99
   2024 06 21 09:40  15 41 21.48    +40 01 27.9    70926 1.0164 108.7  m  13? 185.61  93.9   39 294  72  99
   2024 06 21 09:50  15 44 00.40    +39 59 07.3    72308 1.0164 109.0  m  13? 180.72  94.6   38 294  72  99
   2024 06 21 10:00  15 46 35.01    +39 56 30.7    73674 1.0164 109.3  m  13? 176.23  95.2   37 295  72  99
   2024 06 21 10:10  15 49 05.65    +39 53 39.9    75024 1.0164 109.6  m  13? 172.11  95.8   35 296  72  99
   2024 06 21 10:20  15 51 32.61    +39 50 36.5    76359 1.0164 109.9 Am  13? 168.30  96.3   34 296  71  99
   2024 06 21 10:30  15 53 56.15    +39 47 21.9    77678 1.0164 110.1 Am  13? 164.80  96.8   33 297  71  99
   2024 06 21 10:40  15 56 16.53    +39 43 57.4    78982 1.0164 110.4 Am  13? 161.55  97.3   31 298  71  99
   2024 06 21 10:50  15 58 33.96    +39 40 24.2    80271 1.0164 110.7 Am  13? 158.55  97.7   30 298  71  99
   2024 06 21 11:00  16 00 48.65    +39 36 43.4    81546 1.0164 110.9 Am  13? 155.76  98.1   29 299  71  99
   2024 06 21 11:10  16 03 00.79    +39 32 56.1    82807 1.0164 111.2 Nm  13? 153.17  98.5   27 300  70  99
   2024 06 21 11:20  16 05 10.55    +39 29 03.1    84054 1.0164 111.5 Nm  13? 150.75  98.8   26 300  70  99
   2024 06 21 11:30  16 07 18.08    +39 25 05.4    85287 1.0165 111.7 Nm  13? 148.50  99.1   24 301  70  99
   2024 06 21 11:40  16 09 23.53    +39 21 03.7    86506 1.0165 112.0 N   14? 146.40  99.4   23 302  70  99
   2024 06 21 11:50  16 11 27.04    +39 16 58.7    87711 1.0165 112.2 C   14? 144.43  99.7   22 303  70  99
   2024 06 21 12:00  16 13 28.71    +39 12 51.2    88903 1.0165 112.4 C   14? 142.57  99.9   20 304  70  99
   ................
   2024 06 22 03:10  18 08 43.61    +37 14 58.1   142565 1.0167 119.3 C   15?  32.64  84.7   37  68  66  99
   2024 06 22 03:20  18 09 10.28    +37 15 25.2   142688 1.0167 119.2 Cm  15?  31.30  85.2   39  69  66  99
   2024 06 22 03:30  18 09 35.88    +37 15 48.4   142808 1.0167 119.2 Cm  15?  29.99  85.8   41  70  66  99
   2024 06 22 03:40  18 10 00.41    +37 16 07.2   142925 1.0167 119.2 Nm  15?  28.71  86.5   42  70  66  99
   2024 06 22 03:50  18 10 23.91    +37 16 21.4   143039 1.0167 119.2 Nm  15?  27.47  87.3   44  71  66  99
   2024 06 22 04:00  18 10 46.41    +37 16 30.8   143151 1.0168 119.2 Nm  15?  26.27  88.3   46  72  66  99
   2024 06 22 04:10  18 11 07.92    +37 16 35.2   143261 1.0168 119.2 Nm  15?  25.11  89.4   48  73  66  99
   2024 06 22 04:20  18 11 28.49    +37 16 34.1   143369 1.0168 119.2 Am  15?  23.99  90.7   50  74  66  99
   2024 06 22 04:30  18 11 48.13    +37 16 27.5   143475 1.0168 119.2 Am  15?  22.94  92.2   51  75  66  99
   2024 06 22 04:40  18 12 06.89    +37 16 15.1   143580 1.0168 119.2 Am  15?  21.93  93.9   53  76  66  99
   2024 06 22 04:50  18 12 24.80    +37 15 56.7   143685 1.0168 119.2 Am  15?  21.00  95.7   55  77  66  99
   2024 06 22 05:00  18 12 41.90    +37 15 31.9   143788 1.0168 119.2  m  15?  20.13  97.8   57  77  66  99
   2024 06 22 05:10  18 12 58.21    +37 15 00.7   143891 1.0168 119.2  m  15?  19.34 100.1   59  78  66  99
   2024 06 22 05:20  18 13 13.79    +37 14 22.9   143993 1.0168 119.2  m  15?  18.63 102.6   61  79  66  99
   2024 06 22 05:30  18 13 28.66    +37 13 38.1   144096 1.0168 119.3  m  15?  18.02 105.3   63  80  66  99
   2024 06 22 05:40  18 13 42.87    +37 12 46.4   144198 1.0168 119.3  m  15?  17.50 108.2   65  81  66  99
   2024 06 22 05:50  18 13 56.47    +37 11 47.4   144301 1.0168 119.3  m  15?  17.08 111.3   67  82  66  99
   2024 06 22 06:00  18 14 09.48    +37 10 41.1   144404 1.0168 119.3  m  15?  16.76 114.5   68  83  66  99
   2024 06 22 06:10  18 14 21.97    +37 09 27.3   144508 1.0168 119.3  m  15?  16.55 117.7   70  84  66  99
   2024 06 22 06:20  18 14 33.96    +37 08 05.9   144612 1.0168 119.3  m  15?  16.45 121.0   72  85  66  99
   2024 06 22 06:30  18 14 45.51    +37 06 36.8   144718 1.0168 119.4  m  15?  16.45 124.2   74  86  66  99
   2024 06 22 06:40  18 14 56.67    +37 04 59.9   144824 1.0168 119.4  m  15?  16.56 127.3   76  87  66  99
   2024 06 22 06:50  18 15 07.47    +37 03 15.0   144932 1.0168 119.4  m  15?  16.76 130.3   78  89  66  99
   2024 06 22 07:00  18 15 17.97    +37 01 22.2   145041 1.0168 119.4  m  15?  17.04 133.0   80  90  66  99
   2024 06 22 07:10  18 15 28.22    +36 59 21.4   145151 1.0168 119.5  m  15?  17.41 135.6   82  92  66  99
   2024 06 22 07:20  18 15 38.25    +36 57 12.5   145263 1.0168 119.5  m  15?  17.85 137.9   84  96  66  99
   2024 06 22 07:30  18 15 48.13    +36 54 55.6   145376 1.0168 119.5  m  15?  18.36 139.9   86 101  66  99
   2024 06 22 07:40  18 15 57.89    +36 52 30.5   145491 1.0168 119.6  m  15?  18.93 141.7   88 118  66  99
   2024 06 22 07:50  18 16 07.58    +36 49 57.5   145607 1.0168 119.6  t  15?  19.54 143.3   89 205  66  99
   2024 06 22 08:00  18 16 17.26    +36 47 16.3   145725 1.0168 119.7  m  15?  20.20 144.6   87 249  66  99
   2024 06 22 08:10  18 16 26.97    +36 44 27.2   145845 1.0168 119.7  m  15?  20.90 145.7   85 258  66  99
   2024 06 22 08:20  18 16 36.75    +36 41 30.1   145966 1.0168 119.8  m  15?  21.63 146.6   83 263  65  99
   2024 06 22 08:30  18 16 46.65    +36 38 25.1   146089 1.0168 119.8  m  15?  22.39 147.3   81 265  65  99
   2024 06 22 08:40  18 16 56.73    +36 35 12.4   146213 1.0168 119.9  m  15?  23.17 147.9   79 267  65  99
   2024 06 22 08:50  18 17 07.01    +36 31 51.9   146339 1.0168 119.9  m  15?  23.97 148.2   77 269  65  99
   2024 06 22 09:00  18 17 17.56    +36 28 23.9   146466 1.0168 120.0  m  15?  24.79 148.5   75 270  65  99
   2024 06 22 09:10  18 17 28.41    +36 24 48.4   146595 1.0168 120.0  m  15?  25.63 148.5   73 271  65  99
   2024 06 22 09:20  18 17 39.60    +36 21 05.6   146726 1.0168 120.1  m  15?  26.49 148.5   71 272  65  99
   2024 06 22 09:30  18 17 51.18    +36 17 15.6   146857 1.0168 120.2  m  15?  27.35 148.4   69 273  65  99
   2024 06 22 09:40  18 18 03.18    +36 13 18.7   146990 1.0168 120.2  m  15?  28.23 148.2   67 274  65  99
   2024 06 22 09:50  18 18 15.65    +36 09 14.9   147123 1.0168 120.3  m  15?  29.12 147.9   66 275  65  99
   2024 06 22 10:00  18 18 28.63    +36 05 04.5   147258 1.0168 120.4  m  15?  30.02 147.5   64 276  65  99
   2024 06 22 10:10  18 18 42.14    +36 00 47.6   147393 1.0168 120.4  m  15?  30.92 147.0   62 277  65  99
   2024 06 22 10:20  18 18 56.23    +35 56 24.5   147529 1.0168 120.5 Am  15?  31.84 146.5   60 278  65  99
   2024 06 22 10:30  18 19 10.93    +35 51 55.4   147665 1.0168 120.6 Am  15?  32.76 145.9   58 279  65  99
   2024 06 22 10:40  18 19 26.27    +35 47 20.6   147802 1.0168 120.6 Am  15?  33.69 145.3   56 279  64  99
   2024 06 22 10:50  18 19 42.28    +35 42 40.1   147938 1.0168 120.7 Am  15?  34.62 144.7   54 280  64  99
   2024 06 22 11:00  18 19 58.99    +35 37 54.4   148074 1.0168 120.8 Am  15?  35.56 144.0   52 281  64  99
   2024 06 22 11:10  18 20 16.44    +35 33 03.6   148210 1.0168 120.9 Nm  15?  36.51 143.2   50 282  64  99
   2024 06 22 11:20  18 20 34.63    +35 28 07.9   148346 1.0168 120.9 Nm  15?  37.46 142.5   48 283  64  99
   2024 06 22 11:30  18 20 53.61    +35 23 07.7   148480 1.0168 121.0 Nm  15?  38.41 141.7   46 284  64  99
   2024 06 22 11:40  18 21 13.39    +35 18 03.2   148614 1.0168 121.1 Nm  15?  39.37 140.9   44 285  64  99
   2024 06 22 11:50  18 21 33.99    +35 12 54.7   148746 1.0168 121.2 Cm  15?  40.34 140.1   43 285  64  99
   2024 06 22 12:00  18 21 55.43    +35 07 42.4   148876 1.0168 121.3 Cm  15?  41.31 139.3   41 286  64  99
   ................
   2024 06 23 03:10  19 34 08.20    +28 51 48.4   124747 1.0168 123.7 C   15?  60.30 106.8   18  67  57  98
   2024 06 23 03:20  19 34 51.77    +28 48 50.5   123982 1.0168 123.7 C   15?  59.59 107.4   20  68  57  98
   2024 06 23 03:30  19 35 34.65    +28 45 48.6   123209 1.0168 123.7 C   15?  58.88 108.0   21  69  57  98
   2024 06 23 03:40  19 36 16.85    +28 42 42.3   122429 1.0168 123.6 N   15?  58.20 108.7   23  70  57  98
   2024 06 23 03:50  19 36 58.35    +28 39 31.3   121642 1.0168 123.6 N   15?  57.54 109.5   25  72  57  98
   2024 06 23 04:00  19 37 39.18    +28 36 15.1   120849 1.0168 123.6 N   15?  56.90 110.3   27  73  56  98
   2024 06 23 04:10  19 38 19.32    +28 32 53.3   120048 1.0168 123.6 Nm  15?  56.30 111.1   28  74  56  98
   2024 06 23 04:20  19 38 58.78    +28 29 25.5   119242 1.0168 123.6 Am  15?  55.72 112.0   30  75  56  98
   2024 06 23 04:30  19 39 37.57    +28 25 51.4   118430 1.0168 123.6 Am  15?  55.19 113.0   32  77  56  98
   2024 06 23 04:40  19 40 15.70    +28 22 10.4   117611 1.0168 123.6 Am  15?  54.71 114.0   34  78  56  98
   2024 06 23 04:50  19 40 53.17    +28 18 22.1   116787 1.0168 123.6 Am  14?  54.27 115.1   35  79  56  97
   2024 06 23 05:00  19 41 30.00    +28 14 26.2   115958 1.0168 123.6  m  14?  53.89 116.3   37  80  56  97
   2024 06 23 05:10  19 42 06.20    +28 10 22.1   115123 1.0168 123.6  m  14?  53.56 117.4   39  82  56  97
   2024 06 23 05:20  19 42 41.78    +28 06 09.4   114283 1.0168 123.6  m  14?  53.30 118.7   41  83  56  97
   2024 06 23 05:30  19 43 16.77    +28 01 47.6   113438 1.0168 123.6  m  14?  53.11 119.9   43  84  56  97
   2024 06 23 05:40  19 43 51.19    +27 57 16.2   112588 1.0168 123.7  m  14?  53.00 121.2   45  86  56  97
   2024 06 23 05:50  19 44 25.05    +27 52 34.8   111734 1.0168 123.7  m  14?  52.96 122.6   46  87  56  97
   2024 06 23 06:00  19 44 58.38    +27 47 42.9   110875 1.0168 123.7  m  14?  53.01 123.9   48  89  56  97
   2024 06 23 06:10  19 45 31.21    +27 42 39.9   110012 1.0168 123.7  m  14?  53.15 125.3   50  90  56  97
   2024 06 23 06:20  19 46 03.57    +27 37 25.5   109144 1.0168 123.7  m  14?  53.38 126.7   52  92  56  97
   2024 06 23 06:30  19 46 35.48    +27 31 58.9   108273 1.0168 123.8  m  14?  53.71 128.1   54  94  55  97
   2024 06 23 06:40  19 47 06.98    +27 26 19.8   107397 1.0168 123.8  m  14?  54.14 129.5   56  95  55  97
   2024 06 23 06:50  19 47 38.11    +27 20 27.7   106518 1.0168 123.8  m  14?  54.67 130.8   57  97  55  97
   2024 06 23 07:00  19 48 08.90    +27 14 21.9   105634 1.0168 123.9  m  14?  55.31 132.2   59 100  55  97
   2024 06 23 07:10  19 48 39.39    +27 08 01.9   104747 1.0168 123.9  m  14?  56.05 133.5   61 102  55  97
   2024 06 23 07:20  19 49 09.63    +27 01 27.2   103856 1.0168 124.0  m  14?  56.91 134.8   63 104  55  97
   2024 06 23 07:30  19 49 39.67    +26 54 37.3   102961 1.0167 124.0  m  14?  57.88 136.0   64 107  55  97
   2024 06 23 07:40  19 50 09.54    +26 47 31.5   102063 1.0167 124.1  m  14?  58.96 137.2   66 110  55  97
   2024 06 23 07:50  19 50 39.30    +26 40 09.2   101161 1.0167 124.1  m  14?  60.15 138.3   68 114  55  97
   2024 06 23 08:00  19 51 09.01    +26 32 30.0   100255 1.0167 124.2  m  14?  61.46 139.4   69 118  54  97
   2024 06 23 08:10  19 51 38.71    +26 24 33.2    99346 1.0167 124.3  m  14?  62.89 140.4   71 122  54  97
   2024 06 23 08:20  19 52 08.47    +26 16 18.2    98432 1.0167 124.3  m  14?  64.43 141.3   72 127  54  97
   2024 06 23 08:30  19 52 38.35    +26 07 44.3    97515 1.0167 124.4  m  14?  66.09 142.2   74 133  54  97
   2024 06 23 08:40  19 53 08.40    +25 58 51.0    96594 1.0167 124.5  m  14?  67.86 143.0   75 140  54  97
   2024 06 23 08:50  19 53 38.70    +25 49 37.6    95669 1.0167 124.6  m  14?  69.76 143.7   76 148  54  97
   2024 06 23 09:00  19 54 09.30    +25 40 03.5    94739 1.0167 124.6  m  14?  71.78 144.4   77 157  54  97
   2024 06 23 09:10  19 54 40.30    +25 30 07.8    93806 1.0167 124.7  m  14?  73.92 145.0   77 166  53  97
   2024 06 23 09:20  19 55 11.74    +25 19 50.1    92867 1.0167 124.8  e  14?  76.18 145.5   77 176  53  97
   2024 06 23 09:30  19 55 43.72    +25 09 09.5    91924 1.0167 124.9  t  14?  78.58 145.9   77 186  53  97
   2024 06 23 09:40  19 56 16.30    +24 58 05.2    90976 1.0167 125.0  m  14?  81.10 146.3   76 196  53  97
   2024 06 23 09:50  19 56 49.58    +24 46 36.6    90023 1.0167 125.1  m  14?  83.75 146.6   76 204  53  97
   2024 06 23 10:00  19 57 23.62    +24 34 42.9    89065 1.0167 125.2  m  14?  86.55 146.9   74 212  52  97
   2024 06 23 10:10  19 57 58.53    +24 22 23.1    88101 1.0167 125.4  m  14?  89.48 147.1   73 218  52  97
   2024 06 23 10:20  19 58 34.39    +24 09 36.4    87131 1.0167 125.5 Am  14?  92.56 147.3   72 224  52  97
   2024 06 23 10:30  19 59 11.29    +23 56 21.9    86154 1.0167 125.6 Am  14?  95.79 147.4   70 229  52  97
   2024 06 23 10:40  19 59 49.32    +23 42 38.6    85171 1.0167 125.7 Am  14?  99.19 147.5   69 233  52  97
   2024 06 23 10:50  20 00 28.59    +23 28 25.5    84181 1.0167 125.8 Am  14? 102.74 147.5   67 236  51  97
   2024 06 23 11:00  20 01 09.20    +23 13 41.6    83184 1.0167 126.0 Am  14? 106.48 147.5   65 240  51  97
   2024 06 23 11:10  20 01 51.25    +22 58 25.7    82179 1.0167 126.1 Nm  14? 110.40 147.4   63 242  51  97
   2024 06 23 11:20  20 02 34.86    +22 42 36.5    81165 1.0167 126.2 Nm  14? 114.51 147.4   62 245  50  97
   2024 06 23 11:30  20 03 20.13    +22 26 12.8    80143 1.0167 126.4 Nm  14? 118.83 147.3   60 247  50  97
   2024 06 23 11:40  20 04 07.18    +22 09 13.1    79112 1.0167 126.5 Nm  14? 123.37 147.1   58 249  50  97
   2024 06 23 11:50  20 04 56.14    +21 51 36.0    78071 1.0167 126.7 Cm  14? 128.15 147.0   56 251  50  97
   2024 06 23 12:00  20 05 47.13    +21 33 19.8    77019 1.0167 126.8 Cm  14? 133.17 146.8   54 253  49  97
   ................
   2024 06 24 03:10  16 38 41.97    +40 58 37.7    84047 1.0166 112.0 C   13?  85.93  79.7   56  70  83  94
   2024 06 24 03:20  16 39 55.23    +41 00 59.4    85018 1.0166 112.1 C   13?  82.40  80.6   58  71  83  94
   2024 06 24 03:30  16 41 05.71    +41 03 03.6    85979 1.0166 112.1 C   14?  79.06  81.4   60  71  83  94
   2024 06 24 03:40  16 42 13.56    +41 04 50.6    86929 1.0166 112.2 N   14?  75.92  82.4   61  71  82  94
   2024 06 24 03:50  16 43 18.91    +41 06 20.8    87869 1.0166 112.2 N   14?  72.97  83.4   63  71  82  94
   2024 06 24 04:00  16 44 21.91    +41 07 34.7    88800 1.0166 112.3 N   14?  70.20  84.5   65  72  82  94
   2024 06 24 04:10  16 45 22.67    +41 08 32.6    89722 1.0166 112.3 N   14?  67.62  85.6   66  72  82  93
   2024 06 24 04:20  16 46 21.34    +41 09 14.9    90636 1.0166 112.4 A   14?  65.21  86.8   68  72  82  93
   2024 06 24 04:30  16 47 18.03    +41 09 41.8    91541 1.0166 112.4 A   14?  62.98  88.1   70  72  82  93
   2024 06 24 04:40  16 48 12.87    +41 09 53.8    92439 1.0166 112.5 A   14?  60.92  89.4   71  72  82  93
   2024 06 24 04:50  16 49 05.97    +41 09 51.1    93329 1.0166 112.6 A   14?  59.03  90.8   73  71  82  93
   2024 06 24 05:00  16 49 57.44    +41 09 34.0    94212 1.0167 112.6  m  14?  57.31  92.3   75  70  82  93
   2024 06 24 05:10  16 50 47.40    +41 09 02.8    95089 1.0167 112.7  m  14?  55.75  93.8   77  69  82  93
   2024 06 24 05:20  16 51 35.95    +41 08 17.8    95959 1.0167 112.7  m  14?  54.34  95.3   78  68  82  93
   2024 06 24 05:30  16 52 23.20    +41 07 19.3    96823 1.0167 112.8  m  14?  53.09  96.9   80  65  82  93
   2024 06 24 05:40  16 53 09.25    +41 06 07.6    97681 1.0167 112.9  m  14?  52.00  98.5   82  62  81  93
   2024 06 24 05:50  16 53 54.20    +41 04 43.0    98534 1.0167 112.9  m  14?  51.05 100.0   83  56  81  93
   2024 06 24 06:00  16 54 38.13    +41 03 05.7    99381 1.0167 113.0  m  14?  50.24 101.7   85  46  81  93
   2024 06 24 06:10  16 55 21.15    +41 01 16.2   100224 1.0167 113.1  m  14?  49.57 103.3   86  28  81  93
   2024 06 24 06:20  16 56 03.35    +40 59 14.6   101061 1.0167 113.2  m  14?  49.03 104.9   86   0  81  93
   2024 06 24 06:30  16 56 44.80    +40 57 01.3   101894 1.0167 113.2  t  14?  48.61 106.4   86 331  81  93
   2024 06 24 06:40  16 57 25.60    +40 54 36.5   102723 1.0167 113.3  m  14?  48.31 107.9   85 312  81  93
   2024 06 24 06:50  16 58 05.82    +40 52 00.7   103547 1.0167 113.4  m  14?  48.11 109.4   83 301  81  93
   2024 06 24 07:00  16 58 45.54    +40 49 14.1   104367 1.0167 113.5  m  14?  48.02 110.8   82 295  81  93
   2024 06 24 07:10  16 59 24.85    +40 46 17.1   105183 1.0167 113.6  m  14?  48.03 112.1   80 291  81  93
   2024 06 24 07:20  17 00 03.81    +40 43 09.9   105995 1.0167 113.6  m  14?  48.12 113.3   78 289  81  93
   2024 06 24 07:30  17 00 42.49    +40 39 53.0   106803 1.0167 113.7  m  14?  48.29 114.5   77 287  80  93
   2024 06 24 07:40  17 01 20.95    +40 36 26.7   107608 1.0167 113.8  m  14?  48.54 115.5   75 286  80  93
   2024 06 24 07:50  17 01 59.28    +40 32 51.2   108409 1.0167 113.9  m  14?  48.85 116.5   73 286  80  93
   2024 06 24 08:00  17 02 37.51    +40 29 07.0   109206 1.0167 114.0  m  14?  49.22 117.4   71 285  80  93
   2024 06 24 08:10  17 03 15.72    +40 25 14.5   110000 1.0167 114.1  m  14?  49.64 118.2   69 285  80  93
   2024 06 24 08:20  17 03 53.97    +40 21 13.9   110791 1.0167 114.2  m  14?  50.12 119.0   68 285  80  93
   2024 06 24 08:30  17 04 32.29    +40 17 05.7   111578 1.0167 114.3  m  14?  50.63 119.6   66 285  80  93
   2024 06 24 08:40  17 05 10.75    +40 12 50.2   112362 1.0167 114.4  m  14?  51.19 120.2   64 285  80  93
   2024 06 24 08:50  17 05 49.39    +40 08 27.8   113142 1.0167 114.5  m  14?  51.77 120.7   62 286  80  93
   2024 06 24 09:00  17 06 28.26    +40 03 58.8   113919 1.0167 114.6  m  14?  52.39 121.1   60 286  79  93
   2024 06 24 09:10  17 07 07.40    +39 59 23.7   114692 1.0167 114.7  m  14?  53.03 121.4   59 286  79  93
   2024 06 24 09:20  17 07 46.85    +39 54 42.8   115462 1.0167 114.8  m  14?  53.69 121.7   57 287  79  93
   2024 06 24 09:30  17 08 26.65    +39 49 56.4   116228 1.0167 114.9  m  14?  54.37 121.9   55 287  79  93
   2024 06 24 09:40  17 09 06.82    +39 45 05.0   116990 1.0168 115.1  m  14?  55.06 122.0   53 288  79  93
   2024 06 24 09:50  17 09 47.41    +39 40 09.0   117749 1.0168 115.2  m  14?  55.77 122.1   52 288  79  93
   2024 06 24 10:00  17 10 28.45    +39 35 08.6   118504 1.0168 115.3  m  14?  56.48 122.2   50 289  79  92
   2024 06 24 10:10  17 11 09.96    +39 30 04.3   119254 1.0168 115.4  m  14?  57.20 122.1   48 289  79  92
   2024 06 24 10:20  17 11 51.96    +39 24 56.4   120001 1.0168 115.5 Am  14?  57.93 122.1   46 290  78  92
   2024 06 24 10:30  17 12 34.48    +39 19 45.4   120744 1.0168 115.6 Am  14?  58.66 122.0   45 291  78  92
   2024 06 24 10:40  17 13 17.54    +39 14 31.5   121482 1.0168 115.8 Am  14?  59.40 121.8   43 291  78  92
   2024 06 24 10:50  17 14 01.15    +39 09 15.1   122216 1.0168 115.9 Am  14?  60.13 121.7   41 292  78  92
   2024 06 24 11:00  17 14 45.34    +39 03 56.6   122945 1.0168 116.0 Am  14?  60.86 121.4   39 293  78  92
   2024 06 24 11:10  17 15 30.11    +38 58 36.3   123670 1.0168 116.1 Nm  14?  61.58 121.2   38 293  78  92
   2024 06 24 11:20  17 16 15.48    +38 53 14.6   124389 1.0168 116.2 Nm  14?  62.31 120.9   36 294  78  92
   2024 06 24 11:30  17 17 01.45    +38 47 51.8   125104 1.0168 116.4 Nm  14?  63.02 120.6   34 295  77  92
   2024 06 24 11:40  17 17 48.04    +38 42 28.2   125813 1.0168 116.5 Nm  14?  63.73 120.3   33 296  77  92
   2024 06 24 11:50  17 18 35.25    +38 37 04.2   126517 1.0168 116.6 Cm  14?  64.44 120.0   31 296  77  92
   2024 06 24 12:00  17 19 23.08    +38 31 40.1   127215 1.0168 116.7 Cm  14?  65.13 119.6   29 297  77  92
   ................
   2024 06 25 03:10  18 38 05.02    +35 01 11.7   149539 1.0170 121.3 C   15?  31.38  91.6   33  68  67  87
   2024 06 25 03:20  18 38 30.08    +35 01 00.8   149363 1.0170 121.3 C   15?  30.23  92.2   35  69  67  87
   2024 06 25 03:30  18 38 54.19    +35 00 46.9   149184 1.0170 121.3 C   15?  29.09  92.9   36  70  67  87
   2024 06 25 03:40  18 39 17.38    +35 00 29.5   149002 1.0170 121.3 N   15?  27.98  93.8   38  71  67  87
   2024 06 25 03:50  18 39 39.64    +35 00 08.5   148817 1.0170 121.3 N   15?  26.90  94.7   40  72  67  87
   2024 06 25 04:00  18 40 01.01    +34 59 43.6   148630 1.0170 121.3 N   15?  25.85  95.8   42  73  67  87
   2024 06 25 04:10  18 40 21.49    +34 59 14.5   148441 1.0170 121.3 N   15?  24.84  97.1   44  74  67  87
   2024 06 25 04:20  18 40 41.12    +34 58 40.8   148251 1.0170 121.3 A   15?  23.87  98.5   46  75  67  87
   2024 06 25 04:30  18 40 59.90    +34 58 02.5   148059 1.0170 121.3 A   15?  22.95 100.0   47  77  67  87
   2024 06 25 04:40  18 41 17.87    +34 57 19.1   147865 1.0170 121.3 A   15?  22.08 101.8   49  78  67  87
   2024 06 25 04:50  18 41 35.05    +34 56 30.4   147671 1.0170 121.3 A   15?  21.28 103.8   51  79  67  87
   2024 06 25 05:00  18 41 51.47    +34 55 36.2   147476 1.0170 121.3     15?  20.54 105.9   53  80  67  87
   2024 06 25 05:10  18 42 07.15    +34 54 36.3   147281 1.0170 121.3     15?  19.87 108.2   55  81  67  87
   2024 06 25 05:20  18 42 22.12    +34 53 30.3   147085 1.0170 121.4     15?  19.28 110.8   57  82  67  87
   2024 06 25 05:30  18 42 36.43    +34 52 18.1   146889 1.0170 121.4     15?  18.78 113.5   59  83  67  87
   2024 06 25 05:40  18 42 50.09    +34 50 59.5   146693 1.0170 121.4  m  15?  18.37 116.3   61  84  67  87
   2024 06 25 05:50  18 43 03.14    +34 49 34.2   146498 1.0170 121.4  m  15?  18.05 119.2   63  85  66  87
   2024 06 25 06:00  18 43 15.63    +34 48 02.0   146303 1.0170 121.4  m  15?  17.83 122.3   65  87  66  87
   2024 06 25 06:10  18 43 27.58    +34 46 22.7   146109 1.0170 121.5  m  15?  17.70 125.3   66  88  66  86
   2024 06 25 06:20  18 43 39.03    +34 44 36.3   145916 1.0170 121.5  m  15?  17.68 128.3   68  90  66  86
   2024 06 25 06:30  18 43 50.03    +34 42 42.4   145723 1.0170 121.5  m  15?  17.75 131.3   70  91  66  86
   2024 06 25 06:40  18 44 00.61    +34 40 40.9   145532 1.0170 121.5  m  15?  17.92 134.1   72  93  66  86
   2024 06 25 06:50  18 44 10.82    +34 38 31.7   145342 1.0170 121.6  m  15?  18.18 136.8   74  95  66  86
   2024 06 25 07:00  18 44 20.70    +34 36 14.7   145154 1.0170 121.6  m  15?  18.52 139.4   76  98  66  86
   2024 06 25 07:10  18 44 30.29    +34 33 49.8   144966 1.0170 121.6  m  15?  18.93 141.7   78 101  66  86
   2024 06 25 07:20  18 44 39.63    +34 31 16.7   144781 1.0170 121.7  m  15?  19.42 143.8   80 106  66  86
   2024 06 25 07:30  18 44 48.78    +34 28 35.5   144597 1.0170 121.7  m  15?  19.97 145.7   82 112  66  86
   2024 06 25 07:40  18 44 57.77    +34 25 46.1   144415 1.0170 121.8  m  15?  20.57 147.3   83 121  66  86
   2024 06 25 07:50  18 45 06.65    +34 22 48.4   144234 1.0170 121.8  m  15?  21.23 148.7   85 136  66  86
   2024 06 25 08:00  18 45 15.48    +34 19 42.4   144055 1.0170 121.9  m  15?  21.93 150.0   86 162  66  86
   2024 06 25 08:10  18 45 24.28    +34 16 28.0   143878 1.0170 121.9  t  15?  22.67 151.0   86 195  66  86
   2024 06 25 08:20  18 45 33.12    +34 13 05.2   143703 1.0170 122.0  m  15?  23.44 151.8   85 221  66  86
   2024 06 25 08:30  18 45 42.04    +34 09 34.0   143530 1.0170 122.0  m  15?  24.25 152.5   83 236  66  86
   2024 06 25 08:40  18 45 51.08    +34 05 54.5   143358 1.0170 122.1  m  15?  25.08 152.9   82 245  66  86
   2024 06 25 08:50  18 46 00.29    +34 02 06.5   143188 1.0170 122.1  m  15?  25.93 153.3   80 250  66  86
   2024 06 25 09:00  18 46 09.72    +33 58 10.3   143019 1.0170 122.2  m  15?  26.81 153.5   78 255  66  86
   2024 06 25 09:10  18 46 19.41    +33 54 05.8   142852 1.0170 122.3  m  15?  27.71 153.6   76 258  66  86
   2024 06 25 09:20  18 46 29.41    +33 49 53.2   142687 1.0170 122.3  m  15?  28.63 153.5   74 261  66  86
   2024 06 25 09:30  18 46 39.76    +33 45 32.4   142523 1.0170 122.4  m  15?  29.56 153.4   72 263  66  86
   2024 06 25 09:40  18 46 50.51    +33 41 03.6   142360 1.0170 122.5  m  15?  30.52 153.2   70 265  65  86
   2024 06 25 09:50  18 47 01.70    +33 36 26.9   142198 1.0170 122.5  m  15?  31.48 152.8   68 266  65  86
   2024 06 25 10:00  18 47 13.37    +33 31 42.4   142038 1.0170 122.6  m  15?  32.46 152.4   66 268  65  86
   2024 06 25 10:10  18 47 25.57    +33 26 50.3   141878 1.0170 122.7  m  15?  33.46 152.0   64 269  65  86
   2024 06 25 10:20  18 47 38.34    +33 21 50.7   141719 1.0170 122.8 Am  15?  34.46 151.5   62 270  65  86
   2024 06 25 10:30  18 47 51.71    +33 16 43.7   141560 1.0170 122.8 Am  15?  35.49 150.9   60 272  65  86
   2024 06 25 10:40  18 48 05.72    +33 11 29.6   141402 1.0170 122.9 Am  15?  36.52 150.2   58 273  65  85
   2024 06 25 10:50  18 48 20.41    +33 06 08.4   141244 1.0170 123.0 Am  15?  37.57 149.6   56 274  65  85
   2024 06 25 11:00  18 48 35.82    +33 00 40.4   141086 1.0170 123.1 Am  15?  38.63 148.9   54 275  65  85
   2024 06 25 11:10  18 48 51.98    +32 55 05.7   140927 1.0170 123.2 Nm  15?  39.70 148.1   52 276  65  85
   2024 06 25 11:20  18 49 08.93    +32 49 24.6   140768 1.0170 123.3 Nm  15?  40.78 147.4   51 277  65  85
   2024 06 25 11:30  18 49 26.69    +32 43 37.3   140608 1.0170 123.3 Nm  15?  41.88 146.6   49 278  64  85
   2024 06 25 11:40  18 49 45.30    +32 37 44.0   140447 1.0170 123.4 Nm  15?  42.99 145.8   47 279  64  85
   2024 06 25 11:50  18 50 04.79    +32 31 44.8   140285 1.0170 123.5 Cm  15?  44.11 144.9   45 280  64  85
   2024 06 25 12:00  18 50 25.18    +32 25 40.1   140121 1.0170 123.6 Cm  15?  45.24 144.1   43 281  64  85
   ................
   2024 06 26 03:10  20 27 18.60    +20 40 31.2    83356 1.0168 126.1 C   14? 161.96 119.5    6  68  44  79
   2024 06 26 03:20  20 28 59.58    +20 26 54.6    82047 1.0168 126.1 C   14? 165.39 120.0    7  69  43  79
   2024 06 26 03:30  20 30 42.03    +20 12 46.1    80722 1.0168 126.0 C   14? 169.09 120.6    8  71  43  79
   2024 06 26 03:40  20 32 26.05    +19 58 03.4    79380 1.0168 126.0 N   14? 173.10 121.2   10  72  43  79
   2024 06 26 03:50  20 34 11.78    +19 42 43.9    78021 1.0168 125.9 N   14? 177.44 121.8   11  73  42  79
   2024 06 26 04:00  20 35 59.35    +19 26 44.9    76645 1.0168 125.9 N   14? 182.14 122.4   13  75  42  79
   2024 06 26 04:10  20 37 48.94    +19 10 03.2    75252 1.0168 125.8 N   14? 187.25 123.0   14  76  41  79
   2024 06 26 04:20  20 39 40.70    +18 52 35.5    73841 1.0168 125.8 A   14? 192.80 123.6   15  78  41  79
   2024 06 26 04:30  20 41 34.83    +18 34 18.2    72413 1.0168 125.7 A   14? 198.84 124.2   17  79  40  79
   2024 06 26 04:40  20 43 31.55    +18 15 07.3    70967 1.0168 125.7 A   13? 205.43 124.9   18  80  40  78
   2024 06 26 04:50  20 45 31.09    +17 54 58.3    69502 1.0168 125.6 A   13? 212.63 125.5   20  82  39  78
   2024 06 26 05:00  20 47 33.73    +17 33 46.3    68019 1.0168 125.5     13? 220.51 126.1   21  83  39  78
   2024 06 26 05:10  20 49 39.76    +17 11 25.8    66517 1.0168 125.5     13? 229.14 126.8   22  85  38  78
   2024 06 26 05:20  20 51 49.51    +16 47 50.8    64996 1.0168 125.4     13? 238.62 127.4   24  86  38  78
   2024 06 26 05:30  20 54 03.36    +16 22 54.4    63455 1.0168 125.4     13? 249.06 128.0   25  88  37  78
   2024 06 26 05:40  20 56 21.74    +15 56 29.0    61894 1.0168 125.3     13? 260.57 128.6   26  89  36  78
   2024 06 26 05:50  20 58 45.14    +15 28 25.9    60312 1.0167 125.2     13? 273.30 129.3   28  91  36  78
   2024 06 26 06:00  21 01 14.08    +14 58 35.5    58709 1.0167 125.1     13? 287.41 129.9   29  93  35  78
   2024 06 26 06:10  21 03 49.21    +14 26 46.4    57084 1.0167 125.0  m  13? 303.11 130.4   30  94  34  78
   2024 06 26 06:20  21 06 31.24    +13 52 45.9    55436 1.0167 124.9  m  13? 320.64 131.0   31  96  33  78
   2024 06 26 06:30  21 09 20.99    +13 16 19.4    53765 1.0167 124.8  m  13? 340.26 131.6   32  98  32  78
   2024 06 26 06:40  21 12 19.42    +12 37 09.6    52070 1.0167 124.7  m  13? 362.33 132.1   33 100  32  78
   2024 06 26 06:50  21 15 27.67    +11 54 56.9    50350 1.0167 124.6  m  13? 387.26 132.7   34 102  31  78
   2024 06 26 07:00  21 18 47.04    +11 09 17.8    48603 1.0167 124.5  m  13? 415.56 133.2   35 104  30  78
   2024 06 26 07:10  21 22 19.11    +10 19 44.7    46831 1.0167 124.3  m  13? 447.86 133.7   36 106  28  78
   2024 06 26 07:20  21 26 05.74    +09 25 44.7    45030 1.0167 124.1  m  12? 484.96 134.1   36 108  27  78
   2024 06 26 07:30  21 30 09.20    +08 26 38.2    43201 1.0167 123.9  m  12? 527.86 134.6   37 110  26  77
   2024 06 26 07:40  21 34 32.26    +07 21 37.2    41342 1.0167 123.6  m  12? 577.84 135.0   37 112  24  77
   2024 06 26 07:50  21 39 18.34    +06 09 42.9    39453 1.0167 123.3  m  12? 636.55 135.4   37 114  23  77
   2024 06 26 08:00  21 44 31.72    +04 49 42.4    37533 1.0167 122.9  e  12? 706.19 135.8   37 117  21  77
   2024 06 26 08:10  21 50 17.88    +03 20 04.4    35581 1.0167 122.5  m  12? 789.66 136.1   37 119  19  77
   2024 06 26 08:20  21 56 43.93    +01 38 53.1    33597 1.0166 121.9  m  12? 890.90 136.4   36 121  17  77
   2024 06 26 08:30  22 03 59.26    -00 16 20.2    31583 1.0166 121.3  m  12? 1015.3 136.6   35 123  15  77
   2024 06 26 08:40  22 12 16.64    -02 28 48.4    29540 1.0166 120.4  m  11? 1170.5 136.8   34 125  12  77
   2024 06 26 08:50  22 21 53.90    -05 02 45.4    27473 1.0166 119.3  m  11? 1367.1 136.8   32 127  10  77
   2024 06 26 09:00  22 33 16.73    -08 03 47.5    25390 1.0166 117.9  m  11? 1620.6 136.7   29 129   7  77
   2024 06 26 09:10  22 47 03.67    -11 39 20.2    23303 1.0166 116.0  m  11? 1953.3 136.3   26 131   7  77
   2024 06 26 09:20  23 04 15.24    -15 59 03.4    21236 1.0166 113.6  m  11? 2397.3 135.5   21 132  10  77
   2024 06 26 09:30  23 26 31.65    -21 14 42.1    19228 1.0166 110.2  m  10? 2996.3 134.1   15 133  16  77
   2024 06 26 09:40  23 56 48.84    -27 37 35.8    17344 1.0166 105.7  m  10? 3802.3 131.3    7 134  25  77
   ................
   2024 06 27 03:10  17 38 31.00    +39 10 17.8   124731 1.0169 116.5 C   14?  37.37  83.5   47  70  88  69
   2024 06 27 03:20  17 39 02.30    +39 10 55.3   125152 1.0169 116.6 C   14?  35.81  84.4   49  70  88  69
   2024 06 27 03:30  17 39 32.34    +39 11 25.9   125568 1.0169 116.6 C   14?  34.32  85.3   50  71  88  69
   2024 06 27 03:40  17 40 01.17    +39 11 49.4   125981 1.0169 116.6 N   14?  32.89  86.4   52  72  88  69
   2024 06 27 03:50  17 40 28.83    +39 12 05.7   126392 1.0169 116.6 N   14?  31.52  87.6   54  73  88  69
   2024 06 27 04:00  17 40 55.37    +39 12 14.4   126799 1.0169 116.6 N   14?  30.23  88.9   56  73  88  69
   2024 06 27 04:10  17 41 20.85    +39 12 15.4   127204 1.0169 116.6 N   14?  29.01  90.4   58  74  88  69
   2024 06 27 04:20  17 41 45.31    +39 12 08.6   127606 1.0169 116.6 A   14?  27.88  92.0   59  75  88  69
   2024 06 27 04:30  17 42 08.80    +39 11 53.8   128007 1.0169 116.7 A   14?  26.83  93.9   61  75  88  69
   2024 06 27 04:40  17 42 31.37    +39 11 30.8   128405 1.0169 116.7 A   15?  25.87  95.8   63  76  88  69
   2024 06 27 04:50  17 42 53.07    +39 10 59.5   128802 1.0169 116.7 A   15?  25.01  98.0   65  76  88  68
   2024 06 27 05:00  17 43 13.97    +39 10 19.8   129198 1.0169 116.7     15?  24.25 100.2   67  77  88  68
   2024 06 27 05:10  17 43 34.10    +39 09 31.7   129592 1.0169 116.7     15?  23.59 102.6   69  77  88  68
   2024 06 27 05:20  17 43 53.53    +39 08 34.9   129986 1.0169 116.8     15?  23.04 105.2   71  78  88  68
   2024 06 27 05:30  17 44 12.31    +39 07 29.4   130379 1.0170 116.8     15?  22.60 107.8   73  78  88  68
   2024 06 27 05:40  17 44 30.50    +39 06 15.2   130771 1.0170 116.8     15?  22.27 110.4   74  78  88  68
   2024 06 27 05:50  17 44 48.14    +39 04 52.2   131162 1.0170 116.9     15?  22.06 113.1   76  79  88  68
   2024 06 27 06:00  17 45 05.30    +39 03 20.3   131554 1.0170 116.9     15?  21.95 115.8   78  78  88  68
   2024 06 27 06:10  17 45 22.03    +39 01 39.6   131945 1.0170 116.9     15?  21.95 118.4   80  78  88  68
   2024 06 27 06:20  17 45 38.38    +38 59 50.1   132336 1.0170 117.0     15?  22.04 120.9   82  77  88  68
   2024 06 27 06:30  17 45 54.42    +38 57 51.7   132727 1.0170 117.0     15?  22.23 123.3   84  75  88  68
   2024 06 27 06:40  17 46 10.19    +38 55 44.6   133119 1.0170 117.0  m  15?  22.51 125.5   86  70  88  68
   2024 06 27 06:50  17 46 25.74    +38 53 28.7   133510 1.0170 117.1  m  15?  22.87 127.6   87  55  88  68
   2024 06 27 07:00  17 46 41.15    +38 51 04.1   133902 1.0170 117.1  t  15?  23.30 129.5   88 347  88  67
   2024 06 27 07:10  17 46 56.44    +38 48 30.8   134294 1.0170 117.2  m  15?  23.80 131.2   87 297  88  67
   2024 06 27 07:20  17 47 11.69    +38 45 49.1   134687 1.0170 117.2  m  15?  24.35 132.7   85 285  88  67
   2024 06 27 07:30  17 47 26.94    +38 42 59.0   135080 1.0170 117.3  m  15?  24.96 134.1   83 281  88  67
   2024 06 27 07:40  17 47 42.24    +38 40 00.6   135474 1.0170 117.4  m  15?  25.61 135.2   82 279  88  67
   2024 06 27 07:50  17 47 57.64    +38 36 54.0   135868 1.0170 117.4  m  15?  26.30 136.2   80 278  88  67
   2024 06 27 08:00  17 48 13.19    +38 33 39.4   136262 1.0170 117.5  m  15?  27.03 137.0   78 278  88  67
   2024 06 27 08:10  17 48 28.93    +38 30 17.0   136657 1.0170 117.5  m  15?  27.79 137.7   76 278  88  67
   2024 06 27 08:20  17 48 44.92    +38 26 47.0   137052 1.0170 117.6  m  15?  28.57 138.2   74 278  88  67
   2024 06 27 08:30  17 49 01.20    +38 23 09.5   137448 1.0170 117.7  m  15?  29.37 138.6   72 278  88  67
   2024 06 27 08:40  17 49 17.82    +38 19 24.7   137844 1.0170 117.7  m  15?  30.20 138.9   70 279  88  67
   2024 06 27 08:50  17 49 34.80    +38 15 32.9   138240 1.0170 117.8  m  15?  31.04 139.1   68 279  88  67
   2024 06 27 09:00  17 49 52.20    +38 11 34.3   138636 1.0170 117.9  m  15?  31.89 139.1   66 280  88  67
   2024 06 27 09:10  17 50 10.06    +38 07 29.1   139033 1.0170 118.0  m  15?  32.76 139.1   64 280  87  67
   2024 06 27 09:20  17 50 28.40    +38 03 17.5   139429 1.0170 118.0  m  15?  33.63 139.0   62 281  87  67
   2024 06 27 09:30  17 50 47.28    +37 58 59.9   139825 1.0170 118.1  m  15?  34.52 138.8   61 282  87  67
   2024 06 27 09:40  17 51 06.71    +37 54 36.4   140221 1.0170 118.2  m  15?  35.41 138.5   59 282  87  66
   2024 06 27 09:50  17 51 26.73    +37 50 07.4   140616 1.0170 118.3  m  15?  36.31 138.2   57 283  87  66
   2024 06 27 10:00  17 51 47.38    +37 45 33.1   141010 1.0170 118.4  m  15?  37.21 137.9   55 283  87  66
   2024 06 27 10:10  17 52 08.67    +37 40 53.8   141404 1.0170 118.5  m  15?  38.12 137.4   53 284  87  66
   2024 06 27 10:20  17 52 30.64    +37 36 09.8   141797 1.0170 118.5  m  15?  39.03 137.0   51 285  87  66
   2024 06 27 10:30  17 52 53.32    +37 31 21.3   142188 1.0170 118.6 Am  15?  39.94 136.5   49 286  87  66
   2024 06 27 10:40  17 53 16.71    +37 26 28.7   142579 1.0170 118.7 Am  15?  40.85 135.9   47 286  87  66
   2024 06 27 10:50  17 53 40.86    +37 21 32.3   142967 1.0170 118.8 Am  15?  41.76 135.4   46 287  87  66
   2024 06 27 11:00  17 54 05.76    +37 16 32.3   143354 1.0170 118.9 Am  15?  42.68 134.8   44 288  87  66
   2024 06 27 11:10  17 54 31.45    +37 11 29.1   143739 1.0170 119.0 Nm  15?  43.59 134.1   42 289  87  66
   2024 06 27 11:20  17 54 57.93    +37 06 22.9   144122 1.0170 119.1 Nm  15?  44.50 133.5   40 289  87  66
   2024 06 27 11:30  17 55 25.22    +37 01 14.1   144502 1.0170 119.2 Nm  15?  45.41 132.8   38 290  86  66
   2024 06 27 11:40  17 55 53.33    +36 56 02.9   144880 1.0170 119.3 Nm  15?  46.31 132.2   37 291  86  66
   2024 06 27 11:50  17 56 22.27    +36 50 49.7   145255 1.0170 119.4 Cm  15?  47.21 131.5   35 292  86  66
   2024 06 27 12:00  17 56 52.05    +36 45 34.7   145626 1.0170 119.5 Cm  15?  48.11 130.8   33 293  86  66
   ................
   2024 06 28 03:10  19 06 37.41    +32 11 21.7   141892 1.0171 123.8 C   15?  38.31 100.3   28  69  75  58
   2024 06 28 03:20  19 07 06.64    +32 10 10.2   141416 1.0171 123.8 C   15?  37.30 101.1   30  71  75  58
   2024 06 28 03:30  19 07 35.02    +32 08 55.6   140936 1.0171 123.8 C   15?  36.30 101.9   32  72  75  58
   2024 06 28 03:40  19 08 02.54    +32 07 37.6   140452 1.0171 123.8 N   15?  35.33 102.9   34  73  75  58
   2024 06 28 03:50  19 08 29.21    +32 06 15.9   139964 1.0171 123.8 N   15?  34.39 103.9   36  74  75  58
   2024 06 28 04:00  19 08 55.05    +32 04 50.1   139473 1.0171 123.8 N   15?  33.48 105.0   37  75  75  58
   2024 06 28 04:10  19 09 20.06    +32 03 19.9   138979 1.0171 123.8 N   15?  32.61 106.3   39  76  75  58
   2024 06 28 04:20  19 09 44.25    +32 01 45.1   138482 1.0171 123.8 A   15?  31.78 107.6   41  77  75  58
   2024 06 28 04:30  19 10 07.65    +32 00 05.3   137983 1.0171 123.8 A   15?  31.00 109.1   43  79  75  58
   2024 06 28 04:40  19 10 30.27    +31 58 20.2   137481 1.0171 123.8 A   15?  30.28 110.7   45  80  75  58
   2024 06 28 04:50  19 10 52.12    +31 56 29.5   136977 1.0171 123.8 A   15?  29.61 112.4   47  81  75  57
   2024 06 28 05:00  19 11 13.23    +31 54 33.0   136471 1.0171 123.9     15?  29.00 114.2   49  82  75  57
   2024 06 28 05:10  19 11 33.63    +31 52 30.3   135964 1.0171 123.9     15?  28.47 116.1   50  83  75  57
   2024 06 28 05:20  19 11 53.33    +31 50 21.0   135455 1.0171 123.9     15?  28.01 118.0   52  85  75  57
   2024 06 28 05:30  19 12 12.36    +31 48 05.1   134944 1.0171 123.9     15?  27.62 120.1   54  86  75  57
   2024 06 28 05:40  19 12 30.75    +31 45 42.0   134433 1.0171 124.0     15?  27.33 122.3   56  87  75  57
   2024 06 28 05:50  19 12 48.52    +31 43 11.6   133921 1.0171 124.0     15?  27.11 124.5   58  89  75  57
   2024 06 28 06:00  19 13 05.72    +31 40 33.6   133408 1.0171 124.0     15?  26.99 126.7   60  91  75  57
   2024 06 28 06:10  19 13 22.36    +31 37 47.7   132894 1.0171 124.0     15?  26.96 128.9   62  92  75  57
   2024 06 28 06:20  19 13 38.50    +31 34 53.7   132380 1.0171 124.1     15?  27.01 131.1   64  94  75  57
   2024 06 28 06:30  19 13 54.15    +31 31 51.2   131866 1.0171 124.1     15?  27.16 133.2   66  96  75  57
   2024 06 28 06:40  19 14 09.37    +31 28 40.1   131352 1.0171 124.2     15?  27.40 135.3   68  98  75  56
   2024 06 28 06:50  19 14 24.18    +31 25 20.1   130838 1.0171 124.2     15?  27.73 137.3   69 101  75  56
   2024 06 28 07:00  19 14 38.64    +31 21 51.0   130324 1.0171 124.3     15?  28.14 139.2   71 104  75  56
   2024 06 28 07:10  19 14 52.77    +31 18 12.6   129810 1.0171 124.3  m  15?  28.63 141.0   73 107  75  56
   2024 06 28 07:20  19 15 06.64    +31 14 24.6   129296 1.0171 124.4  m  15?  29.20 142.7   75 111  75  56
   2024 06 28 07:30  19 15 20.27    +31 10 26.9   128783 1.0171 124.4  m  15?  29.84 144.2   77 116  75  56
   2024 06 28 07:40  19 15 33.72    +31 06 19.3   128270 1.0171 124.5  m  15?  30.55 145.6   78 122  75  56
   2024 06 28 07:50  19 15 47.03    +31 02 01.6   127758 1.0171 124.5  m  15?  31.32 146.8   80 131  75  56
   2024 06 28 08:00  19 16 00.25    +30 57 33.6   127246 1.0171 124.6  m  15?  32.16 148.0   81 141  75  56
   2024 06 28 08:10  19 16 13.43    +30 52 55.2   126734 1.0171 124.7  m  15?  33.05 148.9   82 155  75  56
   2024 06 28 08:20  19 16 26.61    +30 48 06.3   126223 1.0171 124.7  m  15?  33.99 149.8   83 171  75  56
   2024 06 28 08:30  19 16 39.86    +30 43 06.7   125713 1.0171 124.8  t  15?  34.98 150.5   82 189  75  56
   2024 06 28 08:40  19 16 53.22    +30 37 56.4   125202 1.0171 124.9  m  15?  36.02 151.0   82 204  75  56
   2024 06 28 08:50  19 17 06.74    +30 32 35.1   124692 1.0171 125.0  m  15?  37.11 151.5   81 217  75  56
   2024 06 28 09:00  19 17 20.48    +30 27 02.9   124183 1.0171 125.0  m  15?  38.23 151.8   79 227  75  55
   2024 06 28 09:10  19 17 34.48    +30 21 19.7   123673 1.0171 125.1  m  15?  39.40 152.1   78 234  75  55
   2024 06 28 09:20  19 17 48.81    +30 15 25.3   123164 1.0171 125.2  m  15?  40.60 152.2   76 240  74  55
   2024 06 28 09:30  19 18 03.50    +30 09 19.9   122655 1.0171 125.3  m  15?  41.84 152.3   74 245  74  55
   2024 06 28 09:40  19 18 18.62    +30 03 03.2   122145 1.0171 125.4  m  15?  43.11 152.3   72 248  74  55
   2024 06 28 09:50  19 18 34.22    +29 56 35.3   121635 1.0171 125.5  m  15?  44.42 152.2   71 252  74  55
   2024 06 28 10:00  19 18 50.36    +29 49 56.1   121125 1.0171 125.6  m  15?  45.77 152.0   69 254  74  55
   2024 06 28 10:10  19 19 07.07    +29 43 05.8   120614 1.0171 125.7  m  15?  47.14 151.7   67 257  74  55
   2024 06 28 10:20  19 19 24.43    +29 36 04.2   120102 1.0171 125.8  m  15?  48.55 151.4   65 259  74  55
   2024 06 28 10:30  19 19 42.47    +29 28 51.3   119589 1.0171 125.9 Am  15?  50.00 151.1   63 261  74  55
   2024 06 28 10:40  19 20 01.25    +29 21 27.3   119075 1.0171 126.0 Am  15?  51.47 150.7   61 262  74  55
   2024 06 28 10:50  19 20 20.82    +29 13 52.1   118560 1.0171 126.1 Am  15?  52.98 150.2   59 264  74  55
   2024 06 28 11:00  19 20 41.24    +29 06 05.8   118042 1.0171 126.2 Am  15?  54.53 149.7   57 266  74  55
   2024 06 28 11:10  19 21 02.54    +28 58 08.4   117523 1.0171 126.3 Nm  15?  56.11 149.2   55 267  74  55
   2024 06 28 11:20  19 21 24.79    +28 50 00.0   117001 1.0171 126.4 Nm  15?  57.72 148.6   53 268  74  55
   2024 06 28 11:30  19 21 48.02    +28 41 40.6   116477 1.0171 126.5 Nm  15?  59.37 148.1   51 270  74  55
   2024 06 28 11:40  19 22 12.29    +28 33 10.3   115950 1.0171 126.6 Nm  15?  61.06 147.4   49 271  74  54
   2024 06 28 11:50  19 22 37.65    +28 24 29.2   115420 1.0171 126.8 Cm  15?  62.78 146.8   47 272  74  54
   2024 06 28 12:00  19 23 04.13    +28 15 37.3   114887 1.0171 126.9 Cm  15?  64.54 146.2   45 273  73  54
   ................
   2024 06 29 03:10  12 28 16.44    +26 42 29.7    18801 1.0166  78.8 C   10? 2231.4  54.8   66 248 149  47
   2024 06 29 03:20  12 48 59.73    +29 46 24.8    21095 1.0166  81.9 C   10? 1755.6  57.4   70 251 146  47
   2024 06 29 03:30  13 06 27.77    +32 03 29.3    23355 1.0166  84.5 C   10? 1422.0  59.8   72 255 143  47
   2024 06 29 03:40  13 21 26.84    +33 48 18.4    25569 1.0166  86.6 N   10? 1179.8  62.0   74 260 141  47
   2024 06 29 03:50  13 34 29.33    +35 10 11.2    27732 1.0166  88.4 N   11? 998.44  64.0   75 264 139  47
   2024 06 29 04:00  13 45 58.60    +36 15 16.3    29842 1.0166  89.9 N   11? 859.05  65.9   76 268 137  47
   2024 06 29 04:10  13 56 12.02    +37 07 44.6    31901 1.0166  91.2 N   11? 749.44  67.7   76 272 135  46
   2024 06 29 04:20  14 05 22.75    +37 50 31.5    33909 1.0166  92.4 Ae  11? 661.58  69.4   76 275 134  46
   2024 06 29 04:30  14 13 40.98    +38 25 43.4    35870 1.0166  93.4 A   11? 589.96  70.9   75 277 132  46
   2024 06 29 04:40  14 21 14.74    +38 54 52.7    37786 1.0166  94.4 A   11? 530.76  72.4   75 279 131  46
   2024 06 29 04:50  14 28 10.48    +39 19 09.0    39660 1.0167  95.3 A   11? 481.20  73.9   74 281 130  46
   2024 06 29 05:00  14 34 33.40    +39 39 25.1    41493 1.0167  96.0     12? 439.27  75.2   74 282 129  46
   2024 06 29 05:10  14 40 27.80    +39 56 22.1    43289 1.0167  96.8     12? 403.45  76.6   73 283 128  46
   2024 06 29 05:20  14 45 57.24    +40 10 32.3    45049 1.0167  97.4     12? 372.61  77.9   72 284 127  46
   2024 06 29 05:30  14 51 04.68    +40 22 21.4    46775 1.0167  98.0     12? 345.87  79.1   71 285 127  46
   2024 06 29 05:40  14 55 52.67    +40 32 10.2    48469 1.0167  98.6     12? 322.52  80.3   70 285 126  46
   2024 06 29 05:50  15 00 23.34    +40 40 15.4    50134 1.0167  99.2     12? 302.02  81.5   69 286 125  45
   2024 06 29 06:00  15 04 38.55    +40 46 51.1    51770 1.0167  99.7     12? 283.94  82.7   68 286 125  45
   2024 06 29 06:10  15 08 39.89    +40 52 08.8    53379 1.0167 100.2     12? 267.92  83.8   67 286 124  45
   2024 06 29 06:20  15 12 28.75    +40 56 18.2    54962 1.0167 100.7     12? 253.67  84.9   66 287 124  45
   2024 06 29 06:30  15 16 06.35    +40 59 27.4    56521 1.0167 101.1     12? 240.95  86.0   64 287 123  45
   2024 06 29 06:40  15 19 33.75    +41 01 43.5    58056 1.0167 101.5     12? 229.56  87.1   63 287 123  45
   2024 06 29 06:50  15 22 51.89    +41 03 12.3    59570 1.0167 102.0     12? 219.33  88.1   62 288 122  45
   2024 06 29 07:00  15 26 01.62    +41 03 59.0    61062 1.0167 102.4     13? 210.12  89.1   61 288 122  45
   2024 06 29 07:10  15 29 03.68    +41 04 08.1    62534 1.0167 102.7     13? 201.81  90.1   59 288 121  45
   2024 06 29 07:20  15 31 58.73    +41 03 43.5    63986 1.0167 103.1     13? 194.29  91.0   58 288 121  45
   2024 06 29 07:30  15 34 47.37    +41 02 48.6    65420 1.0167 103.5  m  13? 187.49  92.0   57 289 120  45
   2024 06 29 07:40  15 37 30.13    +41 01 26.4    66835 1.0168 103.8  m  13? 181.31  92.8   55 289 120  45
   2024 06 29 07:50  15 40 07.51    +40 59 39.7    68234 1.0168 104.2  m  13? 175.70  93.7   54 289 120  44
   2024 06 29 08:00  15 42 39.94    +40 57 30.9    69615 1.0168 104.5  m  13? 170.59  94.5   52 290 119  44
   2024 06 29 08:10  15 45 07.82    +40 55 02.0    70981 1.0168 104.8  m  13? 165.93  95.3   51 290 119  44
   2024 06 29 08:20  15 47 31.50    +40 52 15.1    72330 1.0168 105.2  m  13? 161.68  96.1   50 291 119  44
   2024 06 29 08:30  15 49 51.33    +40 49 11.8    73665 1.0168 105.5  m  13? 157.80  96.8   48 291 118  44
   2024 06 29 08:40  15 52 07.59    +40 45 53.9    74984 1.0168 105.8  m  13? 154.25  97.5   47 292 118  44
   2024 06 29 08:50  15 54 20.55    +40 42 22.6    76290 1.0168 106.1  m  13? 151.00  98.1   45 292 118  44
   2024 06 29 09:00  15 56 30.48    +40 38 39.5    77581 1.0168 106.4  m  13? 148.02  98.7   44 293 118  44
   2024 06 29 09:10  15 58 37.60    +40 34 45.6    78859 1.0168 106.7  m  13? 145.28  99.3   42 293 117  44
   2024 06 29 09:20  16 00 42.12    +40 30 42.2    80123 1.0168 107.0  m  13? 142.76  99.8   41 294 117  44
   2024 06 29 09:30  16 02 44.23    +40 26 30.2    81374 1.0168 107.2  m  13? 140.45 100.3   40 294 117  44
   2024 06 29 09:40  16 04 44.11    +40 22 10.6    82612 1.0168 107.5  m  13? 138.31 100.8   38 295 116  44
   2024 06 29 09:50  16 06 41.92    +40 17 44.4    83837 1.0168 107.8  m  13? 136.35 101.2   37 296 116  44
   2024 06 29 10:00  16 08 37.81    +40 13 12.3    85050 1.0168 108.1  m  13? 134.53 101.6   35 296 116  43
   2024 06 29 10:10  16 10 31.92    +40 08 35.1    86251 1.0168 108.3  m  13? 132.84 101.9   34 297 116  43
   2024 06 29 10:20  16 12 24.37    +40 03 53.6    87439 1.0168 108.6  m  13? 131.28 102.3   32 297 115  43
   2024 06 29 10:30  16 14 15.28    +39 59 08.5    88615 1.0168 108.9 Am  13? 129.83 102.6   31 298 115  43
   2024 06 29 10:40  16 16 04.76    +39 54 20.3    89780 1.0168 109.1 Am  14? 128.49 102.8   29 299 115  43
   2024 06 29 10:50  16 17 52.90    +39 49 29.7    90932 1.0168 109.4 Am  14? 127.23 103.0   28 300 115  43
   2024 06 29 11:00  16 19 39.79    +39 44 37.3    92073 1.0168 109.6 Am  14? 126.06 103.2   26 300 114  43
   2024 06 29 11:10  16 21 25.52    +39 39 43.6    93201 1.0168 109.9 Nm  14? 124.96 103.4   25 301 114  43
   2024 06 29 11:20  16 23 10.17    +39 34 49.1    94318 1.0169 110.1 Nm  14? 123.93 103.6   24 302 114  43
   2024 06 29 11:30  16 24 53.79    +39 29 54.2    95424 1.0169 110.4 Nm  14? 122.96 103.7   22 303 114  43
   2024 06 29 11:40  16 26 36.46    +39 24 59.5    96517 1.0169 110.6 Nm  14? 122.05 103.8   21 304 114  43
   2024 06 29 11:50  16 28 18.23    +39 20 05.3    97599 1.0169 110.8 Cm  14? 121.19 103.8   19 304 113  43
   2024 06 29 12:00  16 29 59.15    +39 15 12.1    98670 1.0169 111.1 Cm  14? 120.37 103.9   18 305 113  43
   ................
   2024 06 30 03:10  18 13 40.12    +37 02 18.8   144508 1.0171 119.5 C   15?  28.18  88.3   42  71  98  36
   2024 06 30 03:20  18 14 03.14    +37 02 24.2   144581 1.0171 119.5 C   15?  26.97  89.2   44  71  98  36
   2024 06 30 03:30  18 14 25.17    +37 02 24.9   144653 1.0171 119.5 C   15?  25.80  90.2   45  72  98  36
   2024 06 30 03:40  18 14 46.25    +37 02 20.6   144722 1.0171 119.5 N   15?  24.68  91.4   47  73  98  36
   2024 06 30 03:50  18 15 06.39    +37 02 11.2   144789 1.0171 119.5 N   15?  23.60  92.8   49  74  98  36
   2024 06 30 04:00  18 15 25.62    +37 01 56.4   144855 1.0171 119.5 N   15?  22.57  94.3   51  75  98  35
   2024 06 30 04:10  18 15 43.99    +37 01 35.9   144920 1.0171 119.6 N   15?  21.61  96.1   53  76  98  35
   2024 06 30 04:20  18 16 01.51    +37 01 09.5   144984 1.0171 119.6 A   15?  20.71  98.0   55  77  98  35
   2024 06 30 04:30  18 16 18.23    +37 00 37.0   145047 1.0171 119.6 A   15?  19.88 100.1   57  78  98  35
   2024 06 30 04:40  18 16 34.18    +36 59 58.1   145110 1.0171 119.6 A   15?  19.13 102.5   58  79  98  35
   2024 06 30 04:50  18 16 49.40    +36 59 12.7   145172 1.0171 119.6 A   15?  18.46 105.1   60  79  98  35
   2024 06 30 05:00  18 17 03.92    +36 58 20.6   145235 1.0171 119.6     15?  17.89 107.9   62  80  98  35
   2024 06 30 05:10  18 17 17.78    +36 57 21.6   145297 1.0171 119.7     15?  17.41 110.8   64  81  98  35
   2024 06 30 05:20  18 17 31.03    +36 56 15.5   145360 1.0171 119.7     15?  17.03 113.9   66  82  98  35
   2024 06 30 05:30  18 17 43.71    +36 55 02.2   145424 1.0171 119.7     15?  16.75 117.1   68  83  98  35
   2024 06 30 05:40  18 17 55.86    +36 53 41.5   145488 1.0172 119.7     15?  16.58 120.4   70  84  98  34
   2024 06 30 05:50  18 18 07.52    +36 52 13.2   145553 1.0172 119.8     15?  16.52 123.6   72  85  98  34
   2024 06 30 06:00  18 18 18.74    +36 50 37.4   145618 1.0172 119.8     15?  16.56 126.8   74  87  99  34
   2024 06 30 06:10  18 18 29.56    +36 48 53.8   145685 1.0172 119.8     15?  16.70 129.9   76  88  99  34
   2024 06 30 06:20  18 18 40.03    +36 47 02.4   145754 1.0172 119.8     15?  16.92 132.8   78  90  99  34
   2024 06 30 06:30  18 18 50.20    +36 45 03.1   145823 1.0172 119.9     15?  17.24 135.4   80  91  99  34
   2024 06 30 06:40  18 19 00.10    +36 42 55.8   145894 1.0172 119.9     15?  17.63 137.9   82  94  99  34
   2024 06 30 06:50  18 19 09.80    +36 40 40.5   145967 1.0172 120.0     15?  18.10 140.1   84  97  99  34
   2024 06 30 07:00  18 19 19.32    +36 38 17.2   146041 1.0172 120.0     15?  18.62 142.1   85 104  99  34
   2024 06 30 07:10  18 19 28.74    +36 35 45.9   146117 1.0172 120.0     15?  19.20 143.8   87 119  99  34
   2024 06 30 07:20  18 19 38.08    +36 33 06.5   146194 1.0172 120.1  t  15?  19.83 145.3   88 181  99  34
   2024 06 30 07:30  18 19 47.40    +36 30 19.0   146273 1.0172 120.1     15?  20.50 146.5   87 239  99  33
   2024 06 30 07:40  18 19 56.74    +36 27 23.6   146354 1.0172 120.2     15?  21.21 147.6   85 253  99  33
   2024 06 30 07:50  18 20 06.15    +36 24 20.2   146437 1.0172 120.2     15?  21.94 148.4   83 259  99  33
   2024 06 30 08:00  18 20 15.68    +36 21 08.9   146521 1.0172 120.3  m  15?  22.71 149.1   81 263  99  33
   2024 06 30 08:10  18 20 25.38    +36 17 49.8   146607 1.0172 120.4  m  15?  23.50 149.5   80 265  99  33
   2024 06 30 08:20  18 20 35.28    +36 14 23.0   146695 1.0172 120.4  m  15?  24.30 149.9   78 267  99  33
   2024 06 30 08:30  18 20 45.44    +36 10 48.6   146784 1.0172 120.5  m  15?  25.13 150.0   76 268  99  33
   2024 06 30 08:40  18 20 55.89    +36 07 06.6   146874 1.0172 120.5  m  15?  25.97 150.1   74 270  99  33
   2024 06 30 08:50  18 21 06.68    +36 03 17.3   146967 1.0172 120.6  m  15?  26.83 150.0   72 271  99  33
   2024 06 30 09:00  18 21 17.86    +35 59 20.8   147060 1.0172 120.7  m  15?  27.70 149.9   70 272  99  33
   2024 06 30 09:10  18 21 29.45    +35 55 17.2   147155 1.0172 120.8  m  15?  28.58 149.6   68 273  99  33
   2024 06 30 09:20  18 21 41.51    +35 51 06.7   147250 1.0172 120.8  m  15?  29.47 149.3   66 274  99  33
   2024 06 30 09:30  18 21 54.06    +35 46 49.5   147347 1.0172 120.9  m  15?  30.37 148.9   64 275  99  33
   2024 06 30 09:40  18 22 07.16    +35 42 25.7   147444 1.0172 121.0  m  15?  31.27 148.4   62 276  99  32
   2024 06 30 09:50  18 22 20.83    +35 37 55.6   147543 1.0172 121.1  m  15?  32.19 147.9   60 277  99  32
   2024 06 30 10:00  18 22 35.10    +35 33 19.4   147641 1.0172 121.1  m  15?  33.11 147.3   58 278  99  32
   2024 06 30 10:10  18 22 50.01    +35 28 37.3   147740 1.0172 121.2  m  15?  34.04 146.6   56 279  99  32
   2024 06 30 10:20  18 23 05.60    +35 23 49.5   147839 1.0172 121.3  m  15?  34.98 145.9   54 280  99  32
   2024 06 30 10:30  18 23 21.89    +35 18 56.3   147938 1.0172 121.4 Am  15?  35.92 145.2   52 280  99  32
   2024 06 30 10:40  18 23 38.90    +35 13 57.8   148037 1.0172 121.5 Am  15?  36.87 144.5   50 281  99  32
   2024 06 30 10:50  18 23 56.67    +35 08 54.4   148135 1.0172 121.6 Am  15?  37.83 143.7   48 282  99  32
   2024 06 30 11:00  18 24 15.23    +35 03 46.3   148232 1.0172 121.6 Am  15?  38.79 142.9   47 283  99  32
   2024 06 30 11:10  18 24 34.58    +34 58 33.8   148329 1.0172 121.7 Nm  15?  39.76 142.1   45 284  99  32
   2024 06 30 11:20  18 24 54.76    +34 53 17.0   148424 1.0172 121.8 Nm  15?  40.73 141.3   43 285  99  32
   2024 06 30 11:30  18 25 15.79    +34 47 56.3   148517 1.0172 121.9 Nm  15?  41.70 140.5   41 286  99  32
   2024 06 30 11:40  18 25 37.68    +34 42 32.0   148609 1.0172 122.0 Nm  15?  42.68 139.6   39 287  99  32
   2024 06 30 11:50  18 26 00.45    +34 37 04.2   148699 1.0172 122.1 Cm  15?  43.66 138.8   37 288  99  32
   2024 06 30 12:00  18 26 24.12    +34 31 33.3   148787 1.0172 122.2 Cm  15?  44.64 137.9   35 288  99  32
   ................
   

James Webb Space Telescope (JPL-ID: -170)

   Date (UTC) HH:MM   RA              Dec         delta   r     elong SM  mag  '/hr    PA   alt  az moo ill
   ---- -- -- -----  -------------   -----------  ------ ------ ----- --  --- ------ ------ --- --- --- ---
   2024 06 19 04:20  18 10 05.12    -36 53 48.8   0.0117 1.0274 165.9 Am  16?   1.94 218.9    0 139  39  91
   2024 06 19 04:30  18 10 04.06    -36 54 03.6   0.0117 1.0274 165.9 Am  16?   1.97 221.7    1 141  39  91
   2024 06 19 04:40  18 10 02.93    -36 54 18.0   0.0117 1.0274 165.9 Am  16?   1.99 224.4    2 143  39  91
   2024 06 19 04:50  18 10 01.73    -36 54 32.0   0.0117 1.0274 165.9 Am  16?   2.02 227.1    4 144  39  91
   2024 06 19 05:00  18 10 00.45    -36 54 45.4   0.0117 1.0274 165.9  m  16?   2.05 229.6    5 146  38  91
   2024 06 19 05:10  18 09 59.11    -36 54 58.4   0.0117 1.0274 165.9  m  16?   2.08 232.0    6 148  38  91
   2024 06 19 05:20  18 09 57.71    -36 55 10.9   0.0117 1.0274 165.9  m  16?   2.11 234.4    7 149  38  91
   2024 06 19 05:30  18 09 56.25    -36 55 22.8   0.0117 1.0274 165.9  m  16?   2.13 236.7    8 151  38  91
   2024 06 19 05:40  18 09 54.74    -36 55 34.2   0.0117 1.0274 165.9  m  16?   2.16 238.9    9 153  38  91
   2024 06 19 05:50  18 09 53.17    -36 55 45.0   0.0117 1.0274 165.9  m  16?   2.18 241.0    9 155  38  91
   2024 06 19 06:00  18 09 51.55    -36 55 55.2   0.0117 1.0274 165.9  m  16?   2.20 243.1   10 157  38  91
   2024 06 19 06:10  18 09 49.88    -36 56 04.8   0.0117 1.0274 165.9  m  16?   2.22 245.1   11 158  38  91
   2024 06 19 06:20  18 09 48.18    -36 56 13.7   0.0117 1.0274 165.9  m  16?   2.24 247.1   12 160  38  91
   2024 06 19 06:30  18 09 46.43    -36 56 22.1   0.0117 1.0274 165.9  m  16?   2.26 249.0   12 162  38  91
   2024 06 19 06:40  18 09 44.65    -36 56 29.8   0.0117 1.0275 165.9  m  16?   2.27 250.8   13 164  38  91
   2024 06 19 06:50  18 09 42.84    -36 56 36.8   0.0117 1.0275 165.9  m  16?   2.29 252.7   13 166  38  91
   2024 06 19 07:00  18 09 41.01    -36 56 43.2   0.0117 1.0275 165.9  m  16?   2.30 254.5   14 168  38  91
   2024 06 19 07:10  18 09 39.15    -36 56 48.9   0.0117 1.0275 165.9  m  16?   2.30 256.3   14 170  38  91
   2024 06 19 07:20  18 09 37.27    -36 56 54.0   0.0117 1.0275 165.9  m  16?   2.31 258.0   14 172  38  91
   2024 06 19 07:30  18 09 35.38    -36 56 58.3   0.0117 1.0275 165.9  m  16?   2.31 259.8   15 175  38  91
   2024 06 19 07:40  18 09 33.48    -36 57 02.0   0.0117 1.0275 165.9  m  16?   2.31 261.5   15 177  37  91
   2024 06 19 07:50  18 09 31.58    -36 57 05.0   0.0117 1.0275 165.9  m  16?   2.30 263.2   15 179  37  91
   2024 06 19 08:00  18 09 29.67    -36 57 07.3   0.0117 1.0275 165.9  t  16?   2.29 264.9   15 181  37  91
   2024 06 19 08:10  18 09 27.77    -36 57 08.9   0.0117 1.0275 165.9  m  16?   2.28 266.6   15 183  37  91
   2024 06 19 08:20  18 09 25.87    -36 57 09.8   0.0117 1.0275 165.9  m  16?   2.27 268.3   15 185  37  91
   2024 06 19 08:30  18 09 23.99    -36 57 10.0   0.0117 1.0275 165.9  m  16?   2.25 270.0   14 187  37  91
   2024 06 19 08:40  18 09 22.11    -36 57 09.6   0.0117 1.0275 165.9  m  16?   2.23 271.8   14 189  37  91
   2024 06 19 08:50  18 09 20.26    -36 57 08.5   0.0117 1.0275 165.9  m  16?   2.21 273.5   14 191  37  91
   2024 06 19 09:00  18 09 18.44    -36 57 06.7   0.0117 1.0275 165.9  m  16?   2.19 275.3   13 193  37  91
   2024 06 19 09:10  18 09 16.64    -36 57 04.2   0.0117 1.0275 165.9  m  16?   2.16 277.2   13 195  37  91
   2024 06 19 09:20  18 09 14.87    -36 57 01.2   0.0117 1.0275 165.9  m  16?   2.13 279.0   12 197  37  91
   2024 06 19 09:30  18 09 13.13    -36 56 57.4   0.0117 1.0275 165.9  m  16?   2.09 280.9   12 199  37  91
   2024 06 19 09:40  18 09 11.44    -36 56 53.1   0.0117 1.0275 166.0  m  16?   2.06 282.9   11 201  37  91
   2024 06 19 09:50  18 09 09.79    -36 56 48.1   0.0117 1.0275 166.0  m  16?   2.02 284.9   10 203  37  92
   2024 06 19 10:00  18 09 08.19    -36 56 42.5   0.0117 1.0275 166.0  m  16?   1.98 287.0    9 205  36  92
   2024 06 19 10:10  18 09 06.63    -36 56 36.4   0.0117 1.0275 166.0     16?   1.94 289.2    8 207  36  92
   2024 06 19 10:20  18 09 05.13    -36 56 29.6   0.0117 1.0275 166.0 A   16?   1.90 291.4    7 208  36  92
   2024 06 19 10:30  18 09 03.69    -36 56 22.4   0.0117 1.0275 166.0 A   16?   1.85 293.8    6 210  36  92
   2024 06 19 10:40  18 09 02.31    -36 56 14.6   0.0117 1.0275 166.0 A   16?   1.81 296.2    5 212  36  92
   2024 06 19 10:50  18 09 00.99    -36 56 06.3   0.0117 1.0275 166.0 A   16?   1.76 298.8    4 214  36  92
   2024 06 19 11:00  18 08 59.74    -36 55 57.5   0.0117 1.0275 166.0 A   16?   1.72 301.6    3 215  36  92
   2024 06 19 11:10  18 08 58.56    -36 55 48.2   0.0117 1.0275 166.0 N   16?   1.67 304.4    2 217  36  92
   2024 06 19 11:20  18 08 57.45    -36 55 38.5   0.0117 1.0275 166.0 N   16?   1.62 307.5    1 218  36  92
   2024 06 19 11:30  18 08 56.42    -36 55 28.3   0.0117 1.0275 166.0 N   16?   1.58 310.7    0 220  36  92
   ................
   2024 06 20 04:10  18 10 44.29    -36 59 18.5   0.0117 1.0275 166.0 Nr  16?   1.90 217.3    0 138  26  96
   2024 06 20 04:20  18 10 43.28    -36 59 33.4   0.0117 1.0275 166.0 Am  16?   1.93 220.2    0 140  26  96
   2024 06 20 04:30  18 10 42.20    -36 59 47.8   0.0117 1.0275 166.0 Am  16?   1.96 223.0    1 141  26  96
   2024 06 20 04:40  18 10 41.05    -37 00 01.9   0.0117 1.0275 166.0 Am  16?   1.98 225.7    3 143  26  96
   2024 06 20 04:50  18 10 39.82    -37 00 15.4   0.0117 1.0275 166.0 Am  16?   2.01 228.3    4 145  26  96
   2024 06 20 05:00  18 10 38.53    -37 00 28.5   0.0117 1.0275 166.0  m  16?   2.04 230.8    5 146  26  96
   2024 06 20 05:10  18 10 37.17    -37 00 41.1   0.0117 1.0275 166.0  m  16?   2.07 233.3    6 148  26  96
   2024 06 20 05:20  18 10 35.75    -37 00 53.1   0.0117 1.0275 166.0  m  16?   2.10 235.6    7 150  26  96
   2024 06 20 05:30  18 10 34.27    -37 01 04.6   0.0117 1.0275 166.0  m  16?   2.12 237.9    8 152  26  96
   2024 06 20 05:40  18 10 32.74    -37 01 15.6   0.0117 1.0275 166.0  m  16?   2.15 240.1    9 153  26  96
   2024 06 20 05:50  18 10 31.16    -37 01 26.0   0.0117 1.0275 166.0  m  16?   2.17 242.2   10 155  26  96
   2024 06 20 06:00  18 10 29.52    -37 01 35.7   0.0117 1.0275 166.0  m  16?   2.20 244.3   10 157  26  96
   2024 06 20 06:10  18 10 27.85    -37 01 44.9   0.0117 1.0275 166.0  m  16?   2.22 246.3   11 159  26  96
   2024 06 20 06:20  18 10 26.13    -37 01 53.4   0.0117 1.0275 166.0  m  16?   2.24 248.2   12 161  26  96
   2024 06 20 06:30  18 10 24.37    -37 02 01.3   0.0117 1.0275 166.0  m  16?   2.25 250.1   12 163  26  96
   2024 06 20 06:40  18 10 22.59    -37 02 08.6   0.0117 1.0275 166.0  m  16?   2.27 252.0   13 165  26  96
   2024 06 20 06:50  18 10 20.77    -37 02 15.1   0.0117 1.0275 166.0  m  16?   2.28 253.8   13 167  25  96
   2024 06 20 07:00  18 10 18.93    -37 02 21.1   0.0117 1.0275 166.0  m  16?   2.29 255.6   14 169  25  96
   2024 06 20 07:10  18 10 17.06    -37 02 26.3   0.0117 1.0275 166.0  m  16?   2.29 257.4   14 171  25  96
   2024 06 20 07:20  18 10 15.18    -37 02 30.9   0.0117 1.0275 166.0  m  16?   2.30 259.2   14 173  25  96
   2024 06 20 07:30  18 10 13.29    -37 02 34.8   0.0117 1.0275 166.0  m  16?   2.30 260.9   15 175  25  96
   2024 06 20 07:40  18 10 11.39    -37 02 38.0   0.0117 1.0275 166.0  m  16?   2.30 262.6   15 177  25  96
   2024 06 20 07:50  18 10 09.49    -37 02 40.5   0.0117 1.0275 166.0  m  16?   2.29 264.4   15 179  25  96
   2024 06 20 08:00  18 10 07.58    -37 02 42.3   0.0117 1.0275 166.0  t  16?   2.28 266.1   15 181  25  96
   2024 06 20 08:10  18 10 05.68    -37 02 43.4   0.0117 1.0275 166.0  m  16?   2.27 267.8   15 184  25  96
   2024 06 20 08:20  18 10 03.79    -37 02 43.9   0.0117 1.0275 166.0  m  16?   2.26 269.5   14 186  25  96
   2024 06 20 08:30  18 10 01.91    -37 02 43.6   0.0117 1.0275 166.0  m  16?   2.24 271.3   14 188  25  96
   2024 06 20 08:40  18 10 00.04    -37 02 42.7   0.0117 1.0275 166.0  m  16?   2.22 273.0   14 190  25  96
   2024 06 20 08:50  18 09 58.20    -37 02 41.1   0.0117 1.0275 166.0  m  16?   2.20 274.8   13 192  25  96
   2024 06 20 09:00  18 09 56.38    -37 02 38.9   0.0117 1.0275 166.0  m  16?   2.18 276.6   13 194  25  96
   2024 06 20 09:10  18 09 54.59    -37 02 35.9   0.0117 1.0275 166.0  m  16?   2.15 278.5   12 196  25  96
   2024 06 20 09:20  18 09 52.84    -37 02 32.4   0.0117 1.0275 166.0  m  16?   2.12 280.3   12 198  25  96
   2024 06 20 09:30  18 09 51.12    -37 02 28.2   0.0117 1.0275 166.0  m  16?   2.08 282.3   11 200  24  96
   2024 06 20 09:40  18 09 49.44    -37 02 23.4   0.0117 1.0275 166.0  m  16?   2.05 284.3   11 202  24  96
   2024 06 20 09:50  18 09 47.81    -37 02 17.9   0.0117 1.0275 166.1  m  16?   2.01 286.3   10 203  24  96
   2024 06 20 10:00  18 09 46.22    -37 02 11.9   0.0117 1.0275 166.1  m  16?   1.97 288.5    9 205  24  96
   2024 06 20 10:10  18 09 44.69    -37 02 05.3   0.0117 1.0275 166.1  m  16?   1.93 290.7    8 207  24  96
   2024 06 20 10:20  18 09 43.21    -37 01 58.1   0.0117 1.0275 166.1 Am  16?   1.89 293.0    7 209  24  96
   2024 06 20 10:30  18 09 41.79    -37 01 50.4   0.0117 1.0275 166.1 Am  16?   1.85 295.4    6 211  24  96
   2024 06 20 10:40  18 09 40.43    -37 01 42.2   0.0117 1.0275 166.1 Am  16?   1.80 297.9    5 212  24  96
   2024 06 20 10:50  18 09 39.13    -37 01 33.5   0.0117 1.0275 166.1 A   16?   1.76 300.5    4 214  24  96
   2024 06 20 11:00  18 09 37.90    -37 01 24.2   0.0117 1.0275 166.1 A   16?   1.71 303.3    3 216  24  96
   2024 06 20 11:10  18 09 36.75    -37 01 14.6   0.0117 1.0275 166.1 N   16?   1.67 306.2    2 217  24  96
   2024 06 20 11:20  18 09 35.67    -37 01 04.4   0.0117 1.0275 166.1 N   16?   1.62 309.3    0 219  24  96
   2024 06 20 11:30  18 09 34.66    -37 00 53.9   0.0117 1.0275 166.1 N   16?   1.58 312.6    0 220  24  96
   ................
   2024 06 21 04:10  18 11 22.76    -37 04 27.6   0.0117 1.0276 166.1 Nm  16?   1.89 218.6    0 139  15  98
   2024 06 21 04:20  18 11 21.73    -37 04 42.2   0.0117 1.0276 166.1 Am  16?   1.92 221.5    1 140  15  98
   2024 06 21 04:30  18 11 20.63    -37 04 56.3   0.0117 1.0276 166.1 Am  16?   1.95 224.3    2 142  14  98
   2024 06 21 04:40  18 11 19.45    -37 05 09.9   0.0117 1.0276 166.1 Am  16?   1.98 227.0    3 144  14  98
   2024 06 21 04:50  18 11 18.20    -37 05 23.1   0.0117 1.0276 166.1 Am  16?   2.01 229.6    4 145  14  99
   2024 06 21 05:00  18 11 16.89    -37 05 35.8   0.0117 1.0276 166.1  m  16?   2.04 232.1    5 147  14  99
   2024 06 21 05:10  18 11 15.51    -37 05 48.0   0.0117 1.0276 166.1  m  16?   2.06 234.5    6 149  14  99
   2024 06 21 05:20  18 11 14.07    -37 05 59.6   0.0117 1.0276 166.1  m  16?   2.09 236.9    7 151  14  99
   2024 06 21 05:30  18 11 12.58    -37 06 10.7   0.0117 1.0276 166.1  m  16?   2.12 239.1    8 152  14  99
   2024 06 21 05:40  18 11 11.03    -37 06 21.2   0.0117 1.0276 166.1  m  16?   2.15 241.3    9 154  14  99
   2024 06 21 05:50  18 11 09.43    -37 06 31.1   0.0117 1.0276 166.1  m  16?   2.17 243.4   10 156  14  99
   2024 06 21 06:00  18 11 07.78    -37 06 40.5   0.0117 1.0276 166.1  m  16?   2.19 245.5   11 158  14  99
   2024 06 21 06:10  18 11 06.09    -37 06 49.2   0.0117 1.0276 166.1  m  16?   2.21 247.5   11 160  14  99
   2024 06 21 06:20  18 11 04.36    -37 06 57.3   0.0117 1.0276 166.1  m  16?   2.23 249.4   12 162  14  99
   2024 06 21 06:30  18 11 02.59    -37 07 04.7   0.0117 1.0276 166.1  m  16?   2.25 251.3   13 164  14  99
   2024 06 21 06:40  18 11 00.79    -37 07 11.5   0.0117 1.0276 166.1  m  16?   2.26 253.2   13 166  14  99
   2024 06 21 06:50  18 10 58.97    -37 07 17.6   0.0117 1.0276 166.1  m  16?   2.27 255.0   13 168  14  99
   2024 06 21 07:00  18 10 57.12    -37 07 23.1   0.0117 1.0276 166.1  m  16?   2.28 256.8   14 170  14  99
   2024 06 21 07:10  18 10 55.25    -37 07 27.9   0.0117 1.0276 166.1  m  16?   2.29 258.6   14 172  14  99
   2024 06 21 07:20  18 10 53.36    -37 07 32.0   0.0117 1.0276 166.1  m  16?   2.29 260.3   14 174  13  99
   2024 06 21 07:30  18 10 51.47    -37 07 35.4   0.0117 1.0276 166.1  m  16?   2.29 262.1   15 176  13  99
   2024 06 21 07:40  18 10 49.57    -37 07 38.1   0.0117 1.0276 166.1  m  16?   2.29 263.8   15 178  13  99
   2024 06 21 07:50  18 10 47.66    -37 07 40.2   0.0117 1.0276 166.1  t  16?   2.29 265.5   15 180  13  99
   2024 06 21 08:00  18 10 45.76    -37 07 41.5   0.0117 1.0276 166.1  m  16?   2.28 267.3   15 182  13  99
   2024 06 21 08:10  18 10 43.86    -37 07 42.2   0.0117 1.0276 166.1  m  16?   2.27 269.0   14 184  13  99
   2024 06 21 08:20  18 10 41.97    -37 07 42.1   0.0117 1.0276 166.1  m  16?   2.25 270.7   14 186  13  99
   2024 06 21 08:30  18 10 40.09    -37 07 41.4   0.0117 1.0276 166.1  m  16?   2.24 272.5   14 188  13  99
   2024 06 21 08:40  18 10 38.23    -37 07 40.0   0.0117 1.0276 166.1  m  16?   2.22 274.3   14 190  13  99
   2024 06 21 08:50  18 10 36.40    -37 07 38.0   0.0117 1.0276 166.1  m  16?   2.19 276.1   13 192  13  99
   2024 06 21 09:00  18 10 34.59    -37 07 35.2   0.0117 1.0276 166.1  m  16?   2.17 277.9   13 194  13  99
   2024 06 21 09:10  18 10 32.81    -37 07 31.9   0.0117 1.0276 166.1  m  16?   2.14 279.8   12 196  13  99
   2024 06 21 09:20  18 10 31.07    -37 07 27.8   0.0117 1.0276 166.1  m  16?   2.11 281.7   12 198  13  99
   2024 06 21 09:30  18 10 29.36    -37 07 23.2   0.0117 1.0276 166.1  m  16?   2.08 283.6   11 200  13  99
   2024 06 21 09:40  18 10 27.70    -37 07 17.9   0.0117 1.0276 166.1  m  16?   2.04 285.6   10 202  13  99
   2024 06 21 09:50  18 10 26.08    -37 07 12.0   0.0117 1.0276 166.1  m  16?   2.01 287.7    9 204  13  99
   2024 06 21 10:00  18 10 24.51    -37 07 05.5   0.0117 1.0276 166.1  m  16?   1.97 289.9    9 206  13  99
   2024 06 21 10:10  18 10 22.99    -37 06 58.5   0.0117 1.0276 166.1  m  16?   1.93 292.1    8 208  13  99
   2024 06 21 10:20  18 10 21.53    -37 06 50.9   0.0117 1.0276 166.1 Am  16?   1.89 294.5    7 209  13  99
   2024 06 21 10:30  18 10 20.13    -37 06 42.7   0.0117 1.0276 166.1 Am  16?   1.84 296.9    6 211  12  99
   2024 06 21 10:40  18 10 18.79    -37 06 34.1   0.0117 1.0276 166.1 Am  16?   1.80 299.5    5 213  12  99
   2024 06 21 10:50  18 10 17.52    -37 06 24.9   0.0117 1.0276 166.1 Am  16?   1.76 302.2    3 215  12  99
   2024 06 21 11:00  18 10 16.31    -37 06 15.3   0.0117 1.0276 166.1 Am  16?   1.71 305.0    2 216  12  99
   2024 06 21 11:10  18 10 15.18    -37 06 05.2   0.0117 1.0276 166.1 Nm  16?   1.67 308.0    1 218  12  99
   2024 06 21 11:20  18 10 14.12    -37 05 54.7   0.0117 1.0276 166.1 Nm  16?   1.63 311.1    0 219  12  99
   ................
   2024 06 22 04:10  18 12 01.24    -37 09 01.3   0.0117 1.0277 166.1 Nm  16?   1.88 220.1    0 139   8  99
   2024 06 22 04:20  18 12 00.18    -37 09 15.5   0.0117 1.0277 166.1 Am  16?   1.91 222.9    1 141   8  99
   2024 06 22 04:30  18 11 59.05    -37 09 29.2   0.0117 1.0277 166.1 Am  16?   1.94 225.7    2 143   8  99
   2024 06 22 04:40  18 11 57.85    -37 09 42.5   0.0117 1.0277 166.1 Am  16?   1.97 228.4    3 144   8  99
   2024 06 22 04:50  18 11 56.57    -37 09 55.3   0.0117 1.0277 166.1 Am  16?   2.00 231.0    4 146   8  99
   2024 06 22 05:00  18 11 55.24    -37 10 07.5   0.0117 1.0277 166.1  m  16?   2.03 233.5    5 148   8  99
   2024 06 22 05:10  18 11 53.84    -37 10 19.3   0.0117 1.0277 166.1  m  16?   2.06 235.9    7 149   8  99
   2024 06 22 05:20  18 11 52.38    -37 10 30.5   0.0117 1.0277 166.1  m  16?   2.09 238.2    7 151   8  99
   2024 06 22 05:30  18 11 50.86    -37 10 41.2   0.0117 1.0277 166.1  m  16?   2.12 240.4    8 153   8  99
   2024 06 22 05:40  18 11 49.29    -37 10 51.3   0.0117 1.0277 166.1  m  16?   2.14 242.6    9 155   8  99
   2024 06 22 05:50  18 11 47.67    -37 11 00.8   0.0117 1.0277 166.1  m  16?   2.17 244.7   10 157   8  99
   2024 06 22 06:00  18 11 46.00    -37 11 09.7   0.0117 1.0277 166.1  m  16?   2.19 246.7   11 159   8  99
   2024 06 22 06:10  18 11 44.30    -37 11 18.0   0.0117 1.0277 166.1  m  16?   2.21 248.7   11 160   8  99
   2024 06 22 06:20  18 11 42.55    -37 11 25.6   0.0117 1.0277 166.1  m  16?   2.23 250.6   12 162   8  99
   2024 06 22 06:30  18 11 40.77    -37 11 32.6   0.0117 1.0277 166.1  m  16?   2.25 252.5   13 164   8  99
   2024 06 22 06:40  18 11 38.96    -37 11 39.0   0.0117 1.0277 166.1  m  16?   2.26 254.4   13 166   8  99
   2024 06 22 06:50  18 11 37.13    -37 11 44.6   0.0117 1.0277 166.1  m  16?   2.27 256.2   14 168   8  99
   2024 06 22 07:00  18 11 35.27    -37 11 49.6   0.0117 1.0277 166.1  m  16?   2.28 258.0   14 170   8  99
   2024 06 22 07:10  18 11 33.39    -37 11 54.0   0.0117 1.0277 166.1  m  16?   2.29 259.8   14 172   8  99
   2024 06 22 07:20  18 11 31.50    -37 11 57.6   0.0117 1.0277 166.1  m  16?   2.29 261.5   14 175   8  99
   2024 06 22 07:30  18 11 29.60    -37 12 00.5   0.0117 1.0277 166.1  m  16?   2.29 263.3   14 177   8  99
   2024 06 22 07:40  18 11 27.69    -37 12 02.8   0.0117 1.0277 166.1  m  16?   2.29 265.0   15 179   8  99
   2024 06 22 07:50  18 11 25.78    -37 12 04.4   0.0117 1.0277 166.1  t  16?   2.28 266.7   15 181   8  99
   2024 06 22 08:00  18 11 23.87    -37 12 05.2   0.0117 1.0277 166.1  m  16?   2.27 268.4   14 183   8  99
   2024 06 22 08:10  18 11 21.97    -37 12 05.4   0.0117 1.0277 166.1  m  16?   2.26 270.2   14 185   8  99
   2024 06 22 08:20  18 11 20.09    -37 12 04.9   0.0117 1.0277 166.1  m  16?   2.25 271.9   14 187   8  99
   2024 06 22 08:30  18 11 18.21    -37 12 03.7   0.0117 1.0277 166.1  m  16?   2.23 273.7   14 189   8  99
   2024 06 22 08:40  18 11 16.36    -37 12 01.9   0.0117 1.0277 166.1  m  16?   2.21 275.5   13 191   8  99
   2024 06 22 08:50  18 11 14.53    -37 11 59.3   0.0117 1.0277 166.1  m  16?   2.19 277.3   13 193   8  99
   2024 06 22 09:00  18 11 12.73    -37 11 56.1   0.0117 1.0277 166.1  m  16?   2.16 279.1   13 195   8  99
   2024 06 22 09:10  18 11 10.96    -37 11 52.3   0.0117 1.0277 166.1  m  16?   2.14 281.0   12 197   8  99
   2024 06 22 09:20  18 11 09.22    -37 11 47.8   0.0117 1.0277 166.1  m  16?   2.11 283.0   11 199   8  99
   2024 06 22 09:30  18 11 07.52    -37 11 42.7   0.0117 1.0277 166.1  m  16?   2.07 285.0   11 201   8  99
   2024 06 22 09:40  18 11 05.87    -37 11 36.9   0.0117 1.0277 166.1  m  16?   2.04 287.0   10 203   8  99
   2024 06 22 09:50  18 11 04.26    -37 11 30.6   0.0117 1.0277 166.1  m  16?   2.00 289.1    9 205   8  99
   2024 06 22 10:00  18 11 02.71    -37 11 23.7   0.0117 1.0277 166.1  m  16?   1.96 291.3    8 206   8  99
   2024 06 22 10:10  18 11 01.21    -37 11 16.2   0.0117 1.0277 166.1  m  16?   1.93 293.6    7 208   8  99
   2024 06 22 10:20  18 10 59.76    -37 11 08.1   0.0117 1.0277 166.1 Am  16?   1.88 296.0    6 210   9  99
   2024 06 22 10:30  18 10 58.38    -37 10 59.6   0.0117 1.0277 166.1 Am  16?   1.84 298.4    5 212   9  99
   2024 06 22 10:40  18 10 57.06    -37 10 50.5   0.0117 1.0277 166.1 Am  16?   1.80 301.0    4 213   9  99
   2024 06 22 10:50  18 10 55.80    -37 10 40.9   0.0117 1.0277 166.1 Am  16?   1.76 303.7    3 215   9  99
   2024 06 22 11:00  18 10 54.62    -37 10 30.8   0.0117 1.0277 166.1 Am  16?   1.71 306.6    2 217   9  99
   2024 06 22 11:10  18 10 53.51    -37 10 20.4   0.0117 1.0277 166.2 Nm  16?   1.67 309.6    1 218   9  99
   2024 06 22 11:20  18 10 52.47    -37 10 09.4   0.0117 1.0277 166.2 Nm  16?   1.63 312.8    0 220   9  99
   ................
   2024 06 23 04:10  18 12 39.34    -37 12 59.6   0.0117 1.0277 166.1 Nm  16?   1.88 221.6    0 140  16  98
   2024 06 23 04:20  18 12 38.26    -37 13 13.4   0.0117 1.0277 166.1 Am  16?   1.91 224.4    1 142  16  98
   2024 06 23 04:30  18 12 37.10    -37 13 26.8   0.0117 1.0277 166.1 Am  16?   1.94 227.2    2 143  16  98
   2024 06 23 04:40  18 12 35.86    -37 13 39.7   0.0117 1.0277 166.1 Am  16?   1.97 229.9    4 145  16  98
   2024 06 23 04:50  18 12 34.57    -37 13 52.1   0.0117 1.0277 166.1 Am  16?   2.00 232.4    5 147  16  97
   2024 06 23 05:00  18 12 33.20    -37 14 04.0   0.0117 1.0277 166.1  m  16?   2.03 234.9    6 148  16  97
   2024 06 23 05:10  18 12 31.78    -37 14 15.3   0.0117 1.0277 166.1  m  16?   2.06 237.2    7 150  16  97
   2024 06 23 05:20  18 12 30.29    -37 14 26.1   0.0117 1.0277 166.1  m  16?   2.09 239.5    8 152  16  97
   2024 06 23 05:30  18 12 28.75    -37 14 36.4   0.0117 1.0277 166.1  m  16?   2.12 241.7    9 154  16  97
   2024 06 23 05:40  18 12 27.16    -37 14 46.1   0.0117 1.0277 166.1  m  16?   2.15 243.9    9 155  16  97
   2024 06 23 05:50  18 12 25.52    -37 14 55.1   0.0117 1.0277 166.1  m  16?   2.17 246.0   10 157  16  97
   2024 06 23 06:00  18 12 23.84    -37 15 03.6   0.0117 1.0277 166.1  m  16?   2.19 248.0   11 159  16  97
   2024 06 23 06:10  18 12 22.11    -37 15 11.4   0.0117 1.0277 166.1  m  16?   2.21 249.9   12 161  17  97
   2024 06 23 06:20  18 12 20.35    -37 15 18.6   0.0117 1.0277 166.1  m  16?   2.23 251.9   12 163  17  97
   2024 06 23 06:30  18 12 18.55    -37 15 25.2   0.0117 1.0277 166.1  m  16?   2.25 253.7   13 165  17  97
   2024 06 23 06:40  18 12 16.73    -37 15 31.0   0.0117 1.0277 166.1  m  16?   2.26 255.6   13 167  17  97
   2024 06 23 06:50  18 12 14.88    -37 15 36.2   0.0117 1.0277 166.1  m  16?   2.28 257.4   14 169  17  97
   2024 06 23 07:00  18 12 13.00    -37 15 40.8   0.0117 1.0277 166.1  m  16?   2.28 259.2   14 171  17  97
   2024 06 23 07:10  18 12 11.12    -37 15 44.6   0.0117 1.0277 166.1  m  16?   2.29 261.0   14 173  17  97
   2024 06 23 07:20  18 12 09.22    -37 15 47.8   0.0117 1.0277 166.1  m  16?   2.29 262.7   14 175  17  97
   2024 06 23 07:30  18 12 07.31    -37 15 50.3   0.0117 1.0277 166.1  m  16?   2.29 264.4   14 177  17  97
   2024 06 23 07:40  18 12 05.39    -37 15 52.1   0.0117 1.0277 166.1  m  16?   2.29 266.2   15 179  17  97
   2024 06 23 07:50  18 12 03.48    -37 15 53.2   0.0117 1.0277 166.1  t  16?   2.28 267.9   14 181  17  97
   2024 06 23 08:00  18 12 01.57    -37 15 53.6   0.0117 1.0277 166.1  m  16?   2.28 269.6   14 183  17  97
   2024 06 23 08:10  18 11 59.67    -37 15 53.3   0.0117 1.0277 166.1  m  16?   2.26 271.4   14 186  17  97
   2024 06 23 08:20  18 11 57.78    -37 15 52.3   0.0117 1.0277 166.1  m  16?   2.25 273.1   14 188  17  97
   2024 06 23 08:30  18 11 55.90    -37 15 50.6   0.0117 1.0277 166.1  m  16?   2.23 274.9   14 190  17  97
   2024 06 23 08:40  18 11 54.05    -37 15 48.3   0.0117 1.0277 166.1  m  16?   2.21 276.7   13 192  17  97
   2024 06 23 08:50  18 11 52.22    -37 15 45.3   0.0117 1.0277 166.1  m  16?   2.19 278.5   13 194  18  97
   2024 06 23 09:00  18 11 50.43    -37 15 41.6   0.0117 1.0277 166.1  m  16?   2.17 280.4   12 196  18  97
   2024 06 23 09:10  18 11 48.66    -37 15 37.3   0.0117 1.0277 166.1  m  16?   2.14 282.3   12 198  18  97
   2024 06 23 09:20  18 11 46.93    -37 15 32.4   0.0117 1.0277 166.1  m  16?   2.11 284.2   11 200  18  97
   2024 06 23 09:30  18 11 45.24    -37 15 26.8   0.0117 1.0277 166.1  m  16?   2.08 286.3   10 201  18  97
   2024 06 23 09:40  18 11 43.60    -37 15 20.6   0.0117 1.0277 166.1  m  16?   2.04 288.3   10 203  18  97
   2024 06 23 09:50  18 11 42.00    -37 15 13.8   0.0117 1.0277 166.1  m  16?   2.00 290.5    9 205  18  97
   2024 06 23 10:00  18 11 40.46    -37 15 06.4   0.0117 1.0277 166.1  m  16?   1.97 292.7    8 207  18  97
   2024 06 23 10:10  18 11 38.97    -37 14 58.5   0.0117 1.0277 166.1  m  16?   1.93 295.0    7 209  18  97
   2024 06 23 10:20  18 11 37.54    -37 14 50.0   0.0117 1.0277 166.1 Am  16?   1.89 297.4    6 211  18  97
   2024 06 23 10:30  18 11 36.17    -37 14 41.0   0.0117 1.0277 166.1 Am  16?   1.85 299.9    5 212  18  97
   2024 06 23 10:40  18 11 34.87    -37 14 31.5   0.0117 1.0277 166.1 Am  16?   1.80 302.5    4 214  18  97
   2024 06 23 10:50  18 11 33.63    -37 14 21.5   0.0117 1.0277 166.1 Am  16?   1.76 305.3    3 216  18  97
   2024 06 23 11:00  18 11 32.46    -37 14 11.1   0.0117 1.0277 166.1 Am  16?   1.72 308.1    1 217  18  97
   2024 06 23 11:10  18 11 31.37    -37 14 00.2   0.0117 1.0277 166.1 Nm  16?   1.68 311.2    0 219  18  97
   ................
   2024 06 24 04:00  18 13 17.74    -37 16 08.7   0.0117 1.0278 166.1 N   16?   1.85 220.3    0 139  28  94
   2024 06 24 04:10  18 13 16.69    -37 16 22.6   0.0117 1.0278 166.1 N   16?   1.88 223.2    0 141  28  93
   2024 06 24 04:20  18 13 15.58    -37 16 36.0   0.0117 1.0278 166.1 A   16?   1.91 226.0    2 142  29  93
   2024 06 24 04:30  18 13 14.38    -37 16 49.0   0.0117 1.0278 166.1 A   16?   1.94 228.8    3 144  29  93
   2024 06 24 04:40  18 13 13.12    -37 17 01.5   0.0117 1.0278 166.1 A   16?   1.97 231.4    4 145  29  93
   2024 06 24 04:50  18 13 11.79    -37 17 13.5   0.0117 1.0278 166.1 A   16?   2.00 233.9    5 147  29  93
   2024 06 24 05:00  18 13 10.40    -37 17 25.0   0.0117 1.0278 166.1  m  16?   2.04 236.3    6 149  29  93
   2024 06 24 05:10  18 13 08.95    -37 17 35.9   0.0117 1.0278 166.1  m  16?   2.07 238.7    7 151  29  93
   2024 06 24 05:20  18 13 07.44    -37 17 46.3   0.0117 1.0278 166.1  m  16?   2.10 240.9    8 152  29  93
   2024 06 24 05:30  18 13 05.87    -37 17 56.1   0.0117 1.0278 166.1  m  16?   2.12 243.1    9 154  29  93
   2024 06 24 05:40  18 13 04.26    -37 18 05.4   0.0117 1.0278 166.1  m  16?   2.15 245.2   10 156  29  93
   2024 06 24 05:50  18 13 02.59    -37 18 14.0   0.0117 1.0278 166.0  m  16?   2.18 247.3   10 158  29  93
   2024 06 24 06:00  18 13 00.89    -37 18 22.0   0.0117 1.0278 166.0  m  16?   2.20 249.3   11 160  29  93
   2024 06 24 06:10  18 12 59.14    -37 18 29.4   0.0117 1.0278 166.0  m  16?   2.22 251.2   12 162  29  93
   2024 06 24 06:20  18 12 57.36    -37 18 36.1   0.0117 1.0278 166.0  m  16?   2.24 253.1   12 164  30  93
   2024 06 24 06:30  18 12 55.54    -37 18 42.2   0.0117 1.0278 166.0  m  16?   2.26 255.0   13 166  30  93
   2024 06 24 06:40  18 12 53.70    -37 18 47.6   0.0117 1.0278 166.0  m  16?   2.27 256.8   13 168  30  93
   2024 06 24 06:50  18 12 51.83    -37 18 52.4   0.0117 1.0278 166.0  m  16?   2.28 258.6   14 170  30  93
   2024 06 24 07:00  18 12 49.95    -37 18 56.5   0.0117 1.0278 166.0  m  16?   2.29 260.4   14 172  30  93
   2024 06 24 07:10  18 12 48.05    -37 18 59.8   0.0117 1.0278 166.0  m  16?   2.30 262.2   14 174  30  93
   2024 06 24 07:20  18 12 46.13    -37 19 02.5   0.0117 1.0278 166.0  m  16?   2.30 263.9   14 176  30  93
   2024 06 24 07:30  18 12 44.21    -37 19 04.5   0.0117 1.0278 166.0  m  16?   2.30 265.6   14 178  30  93
   2024 06 24 07:40  18 12 42.29    -37 19 05.8   0.0117 1.0278 166.0  t  16?   2.30 267.4   14 180  30  93
   2024 06 24 07:50  18 12 40.37    -37 19 06.5   0.0117 1.0278 166.0  m  16?   2.29 269.1   14 182  30  93
   2024 06 24 08:00  18 12 38.45    -37 19 06.4   0.0117 1.0278 166.0  m  16?   2.28 270.8   14 184  30  93
   2024 06 24 08:10  18 12 36.55    -37 19 05.6   0.0117 1.0278 166.0  m  16?   2.27 272.6   14 186  30  93
   2024 06 24 08:20  18 12 34.65    -37 19 04.2   0.0117 1.0278 166.0  m  16?   2.26 274.3   14 188  30  93
   2024 06 24 08:30  18 12 32.78    -37 19 02.0   0.0117 1.0278 166.0  m  16?   2.24 276.1   13 190  30  93
   2024 06 24 08:40  18 12 30.92    -37 18 59.2   0.0117 1.0278 166.0  m  16?   2.22 277.9   13 192  31  93
   2024 06 24 08:50  18 12 29.10    -37 18 55.7   0.0117 1.0278 166.0  m  16?   2.20 279.8   13 194  31  93
   2024 06 24 09:00  18 12 27.30    -37 18 51.6   0.0117 1.0278 166.0  m  16?   2.17 281.6   12 196  31  93
   2024 06 24 09:10  18 12 25.54    -37 18 46.8   0.0117 1.0278 166.0  m  16?   2.14 283.5   11 198  31  93
   2024 06 24 09:20  18 12 23.81    -37 18 41.4   0.0117 1.0278 166.0  m  16?   2.11 285.5   11 200  31  93
   2024 06 24 09:30  18 12 22.13    -37 18 35.4   0.0117 1.0278 166.0  m  16?   2.08 287.5   10 202  31  93
   2024 06 24 09:40  18 12 20.49    -37 18 28.7   0.0117 1.0278 166.0  m  16?   2.05 289.6    9 204  31  93
   2024 06 24 09:50  18 12 18.91    -37 18 21.5   0.0117 1.0278 166.0  m  16?   2.01 291.8    8 206  31  93
   2024 06 24 10:00  18 12 17.37    -37 18 13.7   0.0117 1.0278 166.0  m  16?   1.97 294.0    7 208  31  92
   2024 06 24 10:10  18 12 15.89    -37 18 05.3   0.0117 1.0278 166.0  m  16?   1.93 296.3    7 209  31  92
   2024 06 24 10:20  18 12 14.47    -37 17 56.4   0.0117 1.0278 166.0 Am  16?   1.89 298.8    6 211  31  92
   2024 06 24 10:30  18 12 13.12    -37 17 46.9   0.0117 1.0278 166.1 Am  16?   1.85 301.3    4 213  31  92
   2024 06 24 10:40  18 12 11.83    -37 17 37.0   0.0117 1.0278 166.1 Am  16?   1.81 303.9    3 214  31  92
   2024 06 24 10:50  18 12 10.60    -37 17 26.6   0.0117 1.0278 166.1 Am  16?   1.77 306.7    2 216  31  92
   2024 06 24 11:00  18 12 09.45    -37 17 15.7   0.0117 1.0278 166.1 Am  16?   1.73 309.6    1 218  31  92
   2024 06 24 11:10  18 12 08.38    -37 17 04.4   0.0117 1.0278 166.1 Nm  16?   1.69 312.7    0 219  32  92
   ................
   2024 06 25 04:00  18 13 53.99    -37 18 56.4   0.0117 1.0278 166.0 N   16?   1.85 222.0    0 140  42  87
   2024 06 25 04:10  18 13 52.91    -37 19 09.8   0.0117 1.0278 166.0 N   16?   1.88 224.9    1 141  42  87
   2024 06 25 04:20  18 13 51.76    -37 19 22.9   0.0117 1.0278 166.0 A   16?   1.91 227.7    2 143  42  87
   2024 06 25 04:30  18 13 50.53    -37 19 35.4   0.0117 1.0278 166.0 A   16?   1.94 230.4    3 144  42  87
   2024 06 25 04:40  18 13 49.24    -37 19 47.5   0.0117 1.0278 166.0 A   16?   1.98 233.0    4 146  42  87
   2024 06 25 04:50  18 13 47.88    -37 19 59.1   0.0117 1.0278 166.0 A   16?   2.01 235.5    5 148  42  87
   2024 06 25 05:00  18 13 46.46    -37 20 10.2   0.0117 1.0278 166.0     16?   2.04 237.8    6 149  42  87
   2024 06 25 05:10  18 13 44.97    -37 20 20.7   0.0117 1.0278 166.0     16?   2.07 240.2    7 151  42  87
   2024 06 25 05:20  18 13 43.43    -37 20 30.7   0.0117 1.0278 166.0     16?   2.11 242.4    8 153  43  87
   2024 06 25 05:30  18 13 41.84    -37 20 40.1   0.0117 1.0278 166.0     16?   2.13 244.5    9 155  43  87
   2024 06 25 05:40  18 13 40.20    -37 20 48.9   0.0117 1.0278 166.0  m  16?   2.16 246.6   10 157  43  87
   2024 06 25 05:50  18 13 38.51    -37 20 57.1   0.0117 1.0278 166.0  m  16?   2.19 248.7   11 159  43  87
   2024 06 25 06:00  18 13 36.78    -37 21 04.6   0.0117 1.0278 166.0  m  16?   2.21 250.6   11 160  43  87
   2024 06 25 06:10  18 13 35.01    -37 21 11.6   0.0117 1.0278 166.0  m  16?   2.23 252.6   12 162  43  86
   2024 06 25 06:20  18 13 33.20    -37 21 17.9   0.0117 1.0278 166.0  m  16?   2.25 254.4   12 164  43  86
   2024 06 25 06:30  18 13 31.37    -37 21 23.5   0.0117 1.0278 166.0  m  16?   2.27 256.3   13 166  43  86
   2024 06 25 06:40  18 13 29.50    -37 21 28.4   0.0117 1.0278 166.0  m  16?   2.28 258.1   13 168  43  86
   2024 06 25 06:50  18 13 27.62    -37 21 32.7   0.0117 1.0278 165.9  m  16?   2.29 259.9   14 170  43  86
   2024 06 25 07:00  18 13 25.72    -37 21 36.3   0.0117 1.0278 165.9  m  16?   2.30 261.6   14 172  43  86
   2024 06 25 07:10  18 13 23.80    -37 21 39.2   0.0117 1.0278 165.9  m  16?   2.31 263.4   14 175  43  86
   2024 06 25 07:20  18 13 21.88    -37 21 41.4   0.0117 1.0278 165.9  m  16?   2.31 265.1   14 177  44  86
   2024 06 25 07:30  18 13 19.94    -37 21 42.9   0.0117 1.0278 165.9  m  16?   2.31 266.9   14 179  44  86
   2024 06 25 07:40  18 13 18.01    -37 21 43.8   0.0117 1.0278 165.9  t  16?   2.31 268.6   14 181  44  86
   2024 06 25 07:50  18 13 16.08    -37 21 43.9   0.0117 1.0278 165.9  m  16?   2.30 270.3   14 183  44  86
   2024 06 25 08:00  18 13 14.15    -37 21 43.3   0.0117 1.0278 165.9  m  16?   2.29 272.0   14 185  44  86
   2024 06 25 08:10  18 13 12.24    -37 21 42.1   0.0117 1.0278 165.9  m  16?   2.28 273.8   14 187  44  86
   2024 06 25 08:20  18 13 10.34    -37 21 40.2   0.0117 1.0278 165.9  m  16?   2.26 275.5   14 189  44  86
   2024 06 25 08:30  18 13 08.46    -37 21 37.6   0.0117 1.0278 165.9  m  16?   2.25 277.3   13 191  44  86
   2024 06 25 08:40  18 13 06.60    -37 21 34.3   0.0117 1.0278 165.9  m  16?   2.23 279.1   13 193  44  86
   2024 06 25 08:50  18 13 04.78    -37 21 30.3   0.0117 1.0278 165.9  m  16?   2.20 281.0   12 195  44  86
   2024 06 25 09:00  18 13 02.98    -37 21 25.7   0.0117 1.0278 165.9  m  16?   2.18 282.9   12 197  44  86
   2024 06 25 09:10  18 13 01.22    -37 21 20.5   0.0117 1.0278 165.9  m  16?   2.15 284.8   11 199  44  86
   2024 06 25 09:20  18 12 59.50    -37 21 14.6   0.0117 1.0278 165.9  m  16?   2.12 286.8   10 201  44  86
   2024 06 25 09:30  18 12 57.82    -37 21 08.1   0.0117 1.0278 165.9  m  16?   2.09 288.8   10 203  45  86
   2024 06 25 09:40  18 12 56.18    -37 21 01.0   0.0117 1.0278 165.9  m  16?   2.05 290.9    9 205  45  86
   2024 06 25 09:50  18 12 54.60    -37 20 53.3   0.0117 1.0278 165.9  m  16?   2.02 293.1    8 206  45  86
   2024 06 25 10:00  18 12 53.07    -37 20 45.0   0.0117 1.0278 165.9  m  16?   1.98 295.3    7 208  45  86
   2024 06 25 10:10  18 12 51.60    -37 20 36.2   0.0117 1.0278 165.9  m  16?   1.94 297.7    6 210  45  86
   2024 06 25 10:20  18 12 50.19    -37 20 26.8   0.0117 1.0278 165.9 Am  16?   1.90 300.1    5 212  45  86
   2024 06 25 10:30  18 12 48.85    -37 20 17.0   0.0117 1.0278 165.9 Am  16?   1.86 302.6    4 213  45  86
   2024 06 25 10:40  18 12 47.57    -37 20 06.6   0.0117 1.0278 166.0 Am  16?   1.82 305.3    3 215  45  85
   2024 06 25 10:50  18 12 46.36    -37 19 55.8   0.0117 1.0278 166.0 Am  16?   1.78 308.1    2 217  45  85
   2024 06 25 11:00  18 12 45.22    -37 19 44.5   0.0117 1.0278 166.0 Am  16?   1.74 311.0    1 218  45  85
   2024 06 25 11:10  18 12 44.16    -37 19 32.8   0.0117 1.0278 166.0 Nm  16?   1.70 314.1    0 220  45  85
   ................
   2024 06 26 04:00  18 14 28.78    -37 21 07.7   0.0117 1.0279 165.9 N   16?   1.85 223.8    0 140  56  79
   2024 06 26 04:10  18 14 27.66    -37 21 20.8   0.0117 1.0279 165.9 N   16?   1.88 226.7    1 142  56  79
   2024 06 26 04:20  18 14 26.47    -37 21 33.4   0.0117 1.0279 165.9 A   16?   1.92 229.4    2 143  56  79
   2024 06 26 04:30  18 14 25.21    -37 21 45.6   0.0117 1.0279 165.9 A   16?   1.95 232.1    4 145  56  79
   2024 06 26 04:40  18 14 23.88    -37 21 57.3   0.0117 1.0279 165.9 A   16?   1.99 234.6    5 147  56  78
   2024 06 26 04:50  18 14 22.49    -37 22 08.5   0.0117 1.0279 165.9 A   16?   2.02 237.1    6 148  56  78
   2024 06 26 05:00  18 14 21.03    -37 22 19.1   0.0117 1.0279 165.9     16?   2.05 239.4    7 150  56  78
   2024 06 26 05:10  18 14 19.52    -37 22 29.2   0.0117 1.0279 165.9     16?   2.09 241.7    8 152  56  78
   2024 06 26 05:20  18 14 17.95    -37 22 38.8   0.0117 1.0279 165.9     16?   2.12 243.9    8 154  56  78
   2024 06 26 05:30  18 14 16.32    -37 22 47.7   0.0117 1.0279 165.8     16?   2.15 246.0    9 155  56  78
   2024 06 26 05:40  18 14 14.65    -37 22 56.1   0.0117 1.0279 165.8     16?   2.17 248.1   10 157  57  78
   2024 06 26 05:50  18 14 12.94    -37 23 03.8   0.0117 1.0279 165.8     16?   2.20 250.1   11 159  57  78
   2024 06 26 06:00  18 14 11.18    -37 23 10.9   0.0117 1.0279 165.8     16?   2.22 252.0   11 161  57  78
   2024 06 26 06:10  18 14 09.38    -37 23 17.4   0.0117 1.0279 165.8  m  16?   2.25 253.9   12 163  57  78
   2024 06 26 06:20  18 14 07.56    -37 23 23.2   0.0117 1.0279 165.8  m  16?   2.26 255.8   13 165  57  78
   2024 06 26 06:30  18 14 05.70    -37 23 28.3   0.0117 1.0279 165.8  m  16?   2.28 257.6   13 167  57  78
   2024 06 26 06:40  18 14 03.82    -37 23 32.8   0.0117 1.0279 165.8  m  16?   2.29 259.4   13 169  57  78
   2024 06 26 06:50  18 14 01.91    -37 23 36.6   0.0117 1.0279 165.8  m  16?   2.31 261.2   14 171  57  78
   2024 06 26 07:00  18 13 59.99    -37 23 39.7   0.0117 1.0279 165.8  m  16?   2.31 262.9   14 173  57  78
   2024 06 26 07:10  18 13 58.06    -37 23 42.1   0.0117 1.0279 165.8  m  16?   2.32 264.6   14 175  57  78
   2024 06 26 07:20  18 13 56.12    -37 23 43.9   0.0117 1.0279 165.8  m  16?   2.32 266.4   14 177  57  78
   2024 06 26 07:30  18 13 54.17    -37 23 44.9   0.0117 1.0279 165.8  m  16?   2.32 268.1   14 179  58  77
   2024 06 26 07:40  18 13 52.22    -37 23 45.3   0.0117 1.0279 165.8  t  16?   2.32 269.8   14 181  58  77
   2024 06 26 07:50  18 13 50.28    -37 23 44.9   0.0117 1.0279 165.8  m  16?   2.31 271.5   14 183  58  77
   2024 06 26 08:00  18 13 48.34    -37 23 43.9   0.0117 1.0279 165.8  m  16?   2.30 273.2   14 186  58  77
   2024 06 26 08:10  18 13 46.42    -37 23 42.1   0.0117 1.0279 165.8  m  16?   2.29 275.0   14 188  58  77
   2024 06 26 08:20  18 13 44.52    -37 23 39.7   0.0117 1.0279 165.8  m  16?   2.28 276.7   14 190  58  77
   2024 06 26 08:30  18 13 42.63    -37 23 36.6   0.0117 1.0279 165.8  m  16?   2.26 278.5   13 192  58  77
   2024 06 26 08:40  18 13 40.77    -37 23 32.8   0.0117 1.0279 165.8  m  16?   2.24 280.3   13 194  58  77
   2024 06 26 08:50  18 13 38.94    -37 23 28.4   0.0117 1.0279 165.8  m  16?   2.22 282.2   12 196  58  77
   2024 06 26 09:00  18 13 37.14    -37 23 23.3   0.0117 1.0279 165.8  m  16?   2.19 284.1   12 198  58  77
   2024 06 26 09:10  18 13 35.38    -37 23 17.6   0.0117 1.0279 165.8  m  16?   2.16 286.0   11 200  58  77
   2024 06 26 09:20  18 13 33.66    -37 23 11.2   0.0117 1.0279 165.8  m  16?   2.13 288.0   10 201  58  77
   2024 06 26 09:30  18 13 31.98    -37 23 04.3   0.0117 1.0279 165.8  m  16?   2.10 290.0    9 203  59  77
   2024 06 26 09:40  18 13 30.35    -37 22 56.7   0.0117 1.0279 165.8  m  16?   2.07 292.1    9 205  59  77
   2024 06 26 09:50  18 13 28.78    -37 22 48.5   0.0117 1.0279 165.8  m  16?   2.03 294.3    8 207  59  77
   2024 06 26 10:00  18 13 27.25    -37 22 39.8   0.0117 1.0279 165.8  m  16?   1.99 296.6    7 209  59  77
   2024 06 26 10:10  18 13 25.79    -37 22 30.6   0.0117 1.0279 165.8  m  16?   1.96 298.9    6 210  59  77
   2024 06 26 10:20  18 13 24.39    -37 22 20.8   0.0117 1.0279 165.8  m  16?   1.92 301.4    5 212  59  77
   2024 06 26 10:30  18 13 23.05    -37 22 10.5   0.0117 1.0279 165.8 Am  16?   1.88 304.0    4 214  59  77
   2024 06 26 10:40  18 13 21.78    -37 21 59.7   0.0117 1.0279 165.8 Am  16?   1.84 306.6    3 215  59  77
   2024 06 26 10:50  18 13 20.59    -37 21 48.4   0.0117 1.0279 165.8 Am  16?   1.80 309.4    1 217  59  77
   2024 06 26 11:00  18 13 19.46    -37 21 36.7   0.0117 1.0279 165.8 Am  16?   1.76 312.4    0 219  59  76
   ................
   2024 06 27 03:50  18 15 02.94    -37 22 28.9   0.0117 1.0279 165.7 N   16?   1.82 222.7    0 139  69  69
   2024 06 27 04:00  18 15 01.86    -37 22 42.0   0.0117 1.0279 165.7 N   16?   1.85 225.7    0 141  69  69
   2024 06 27 04:10  18 15 00.71    -37 22 54.7   0.0117 1.0279 165.7 N   16?   1.89 228.5    2 142  69  69
   2024 06 27 04:20  18 14 59.48    -37 23 06.9   0.0117 1.0279 165.7 A   16?   1.93 231.2    3 144  70  69
   2024 06 27 04:30  18 14 58.18    -37 23 18.7   0.0117 1.0279 165.7 A   16?   1.96 233.8    4 145  70  69
   2024 06 27 04:40  18 14 56.82    -37 23 30.0   0.0117 1.0279 165.7 A   16?   2.00 236.3    5 147  70  69
   2024 06 27 04:50  18 14 55.39    -37 23 40.7   0.0117 1.0279 165.7 A   16?   2.03 238.7    6 149  70  68
   2024 06 27 05:00  18 14 53.90    -37 23 50.9   0.0117 1.0279 165.7     16?   2.07 241.0    7 151  70  68
   2024 06 27 05:10  18 14 52.35    -37 24 00.6   0.0117 1.0279 165.7     16?   2.10 243.2    8 152  70  68
   2024 06 27 05:20  18 14 50.75    -37 24 09.7   0.0117 1.0279 165.7     16?   2.13 245.4    9 154  70  68
   2024 06 27 05:30  18 14 49.09    -37 24 18.2   0.0117 1.0279 165.7     16?   2.16 247.5   10 156  70  68
   2024 06 27 05:40  18 14 47.39    -37 24 26.1   0.0117 1.0279 165.7     16?   2.19 249.5   10 158  70  68
   2024 06 27 05:50  18 14 45.65    -37 24 33.3   0.0117 1.0279 165.7     16?   2.22 251.5   11 160  71  68
   2024 06 27 06:00  18 14 43.86    -37 24 40.0   0.0117 1.0279 165.7     16?   2.24 253.4   12 162  71  68
   2024 06 27 06:10  18 14 42.04    -37 24 46.0   0.0117 1.0279 165.7     16?   2.26 255.3   12 164  71  68
   2024 06 27 06:20  18 14 40.19    -37 24 51.3   0.0117 1.0279 165.7     16?   2.28 257.1   13 166  71  68
   2024 06 27 06:30  18 14 38.31    -37 24 56.0   0.0117 1.0279 165.7     16?   2.30 258.9   13 168  71  68
   2024 06 27 06:40  18 14 36.40    -37 25 00.0   0.0117 1.0279 165.7  m  16?   2.31 260.7   14 170  71  68
   2024 06 27 06:50  18 14 34.48    -37 25 03.3   0.0117 1.0279 165.7  m  16?   2.32 262.4   14 172  71  68
   2024 06 27 07:00  18 14 32.54    -37 25 05.9   0.0117 1.0279 165.7  m  16?   2.33 264.2   14 174  71  67
   2024 06 27 07:10  18 14 30.59    -37 25 07.8   0.0117 1.0279 165.7  m  16?   2.34 265.9   14 176  71  67
   2024 06 27 07:20  18 14 28.63    -37 25 09.1   0.0117 1.0279 165.7  m  16?   2.34 267.6   14 178  71  67
   2024 06 27 07:30  18 14 26.67    -37 25 09.6   0.0117 1.0279 165.6  t  16?   2.34 269.3   14 180  71  67
   2024 06 27 07:40  18 14 24.71    -37 25 09.4   0.0117 1.0279 165.6  m  16?   2.33 271.0   14 182  72  67
   2024 06 27 07:50  18 14 22.75    -37 25 08.6   0.0117 1.0279 165.6  m  16?   2.33 272.7   14 184  72  67
   2024 06 27 08:00  18 14 20.81    -37 25 07.0   0.0117 1.0279 165.6  m  16?   2.32 274.5   14 186  72  67
   2024 06 27 08:10  18 14 18.88    -37 25 04.8   0.0117 1.0279 165.6  m  16?   2.31 276.2   14 188  72  67
   2024 06 27 08:20  18 14 16.96    -37 25 01.9   0.0117 1.0279 165.6  m  16?   2.29 277.9   13 190  72  67
   2024 06 27 08:30  18 14 15.07    -37 24 58.3   0.0117 1.0279 165.6  m  16?   2.27 279.7   13 192  72  67
   2024 06 27 08:40  18 14 13.21    -37 24 54.0   0.0117 1.0279 165.6  m  16?   2.25 281.5   12 194  72  67
   2024 06 27 08:50  18 14 11.37    -37 24 49.1   0.0117 1.0279 165.6  m  16?   2.23 283.4   12 196  72  67
   2024 06 27 09:00  18 14 09.57    -37 24 43.5   0.0117 1.0279 165.6  m  16?   2.20 285.3   11 198  72  67
   2024 06 27 09:10  18 14 07.81    -37 24 37.3   0.0117 1.0279 165.6  m  16?   2.18 287.2   11 200  72  67
   2024 06 27 09:20  18 14 06.09    -37 24 30.5   0.0117 1.0279 165.6  m  16?   2.15 289.2   10 202  72  67
   2024 06 27 09:30  18 14 04.41    -37 24 23.1   0.0117 1.0279 165.6  m  16?   2.11 291.3    9 204  73  67
   2024 06 27 09:40  18 14 02.79    -37 24 15.0   0.0117 1.0279 165.6  m  16?   2.08 293.4    8 206  73  66
   2024 06 27 09:50  18 14 01.21    -37 24 06.4   0.0117 1.0279 165.6  m  16?   2.04 295.6    7 208  73  66
   2024 06 27 10:00  18 13 59.70    -37 23 57.2   0.0117 1.0279 165.6  m  16?   2.01 297.9    6 209  73  66
   2024 06 27 10:10  18 13 58.24    -37 23 47.5   0.0117 1.0279 165.6  m  16?   1.97 300.2    5 211  73  66
   2024 06 27 10:20  18 13 56.85    -37 23 37.3   0.0117 1.0279 165.6  m  16?   1.93 302.7    4 213  73  66
   2024 06 27 10:30  18 13 55.52    -37 23 26.5   0.0117 1.0279 165.6 Am  16?   1.89 305.3    3 214  73  66
   2024 06 27 10:40  18 13 54.26    -37 23 15.3   0.0117 1.0279 165.6 Am  16?   1.85 307.9    2 216  73  66
   2024 06 27 10:50  18 13 53.07    -37 23 03.6   0.0117 1.0279 165.6 Am  16?   1.82 310.7    1 218  73  66
   2024 06 27 11:00  18 13 51.96    -37 22 51.5   0.0117 1.0279 165.6 Am  16?   1.78 313.7    0 219  73  66
   ................
   2024 06 28 03:50  18 15 34.24    -37 23 25.5   0.0117 1.0279 165.5 N   16?   1.82 224.6    0 140  83  58
   2024 06 28 04:00  18 15 33.12    -37 23 38.2   0.0117 1.0279 165.5 N   16?   1.86 227.5    1 141  83  58
   2024 06 28 04:10  18 15 31.93    -37 23 50.5   0.0117 1.0279 165.5 N   16?   1.90 230.3    2 143  83  58
   2024 06 28 04:20  18 15 30.66    -37 24 02.3   0.0117 1.0279 165.5 A   16?   1.94 233.0    3 144  83  58
   2024 06 28 04:30  18 15 29.33    -37 24 13.7   0.0117 1.0279 165.5 A   16?   1.97 235.5    4 146  83  58
   2024 06 28 04:40  18 15 27.92    -37 24 24.5   0.0117 1.0279 165.5 A   16?   2.01 238.0    5 148  84  58
   2024 06 28 04:50  18 15 26.46    -37 24 34.8   0.0117 1.0279 165.5 A   16?   2.05 240.4    6 149  84  57
   2024 06 28 05:00  18 15 24.94    -37 24 44.6   0.0117 1.0279 165.5     16?   2.08 242.6    7 151  84  57
   2024 06 28 05:10  18 15 23.35    -37 24 53.8   0.0117 1.0279 165.5     16?   2.11 244.8    8 153  84  57
   2024 06 28 05:20  18 15 21.72    -37 25 02.4   0.0117 1.0279 165.5     16?   2.15 246.9    9 155  84  57
   2024 06 28 05:30  18 15 20.03    -37 25 10.5   0.0117 1.0279 165.5     16?   2.18 249.0   10 157  84  57
   2024 06 28 05:40  18 15 18.30    -37 25 17.9   0.0117 1.0279 165.5     16?   2.21 251.0   11 159  84  57
   2024 06 28 05:50  18 15 16.53    -37 25 24.7   0.0117 1.0279 165.5     16?   2.23 252.9   11 161  84  57
   2024 06 28 06:00  18 15 14.72    -37 25 30.8   0.0117 1.0279 165.5     16?   2.26 254.8   12 162  85  57
   2024 06 28 06:10  18 15 12.87    -37 25 36.3   0.0117 1.0279 165.5     16?   2.28 256.6   12 164  85  57
   2024 06 28 06:20  18 15 11.00    -37 25 41.2   0.0117 1.0279 165.5     16?   2.30 258.5   13 166  85  57
   2024 06 28 06:30  18 15 09.09    -37 25 45.3   0.0117 1.0279 165.5     16?   2.31 260.2   13 168  85  57
   2024 06 28 06:40  18 15 07.17    -37 25 48.8   0.0117 1.0279 165.5     16?   2.33 262.0   14 170  85  56
   2024 06 28 06:50  18 15 05.22    -37 25 51.6   0.0117 1.0279 165.5     16?   2.34 263.7   14 173  85  56
   2024 06 28 07:00  18 15 03.27    -37 25 53.8   0.0117 1.0279 165.5     16?   2.35 265.4   14 175  85  56
   2024 06 28 07:10  18 15 01.30    -37 25 55.2   0.0117 1.0279 165.5  m  16?   2.35 267.1   14 177  85  56
   2024 06 28 07:20  18 14 59.32    -37 25 55.9   0.0117 1.0279 165.4  m  16?   2.35 268.8   14 179  85  56
   2024 06 28 07:30  18 14 57.35    -37 25 56.0   0.0117 1.0279 165.4  t  16?   2.35 270.5   14 181  85  56
   2024 06 28 07:40  18 14 55.37    -37 25 55.3   0.0117 1.0279 165.4  m  16?   2.35 272.2   14 183  86  56
   2024 06 28 07:50  18 14 53.41    -37 25 53.9   0.0117 1.0279 165.4  m  16?   2.34 273.9   14 185  86  56
   2024 06 28 08:00  18 14 51.45    -37 25 51.9   0.0117 1.0279 165.4  m  16?   2.33 275.7   14 187  86  56
   2024 06 28 08:10  18 14 49.51    -37 25 49.1   0.0117 1.0279 165.4  m  16?   2.32 277.4   14 189  86  56
   2024 06 28 08:20  18 14 47.59    -37 25 45.7   0.0117 1.0279 165.4  m  16?   2.31 279.2   13 191  86  56
   2024 06 28 08:30  18 14 45.69    -37 25 41.6   0.0117 1.0279 165.4  m  16?   2.29 280.9   13 193  86  56
   2024 06 28 08:40  18 14 43.82    -37 25 36.9   0.0117 1.0279 165.4  m  16?   2.27 282.8   12 195  86  56
   2024 06 28 08:50  18 14 41.99    -37 25 31.4   0.0117 1.0279 165.4  m  16?   2.24 284.6   12 197  86  56
   2024 06 28 09:00  18 14 40.18    -37 25 25.4   0.0117 1.0279 165.4  m  16?   2.22 286.5   11 199  86  55
   2024 06 28 09:10  18 14 38.42    -37 25 18.7   0.0117 1.0279 165.4  m  16?   2.19 288.4   10 201  86  55
   2024 06 28 09:20  18 14 36.70    -37 25 11.4   0.0117 1.0279 165.4  m  16?   2.16 290.4   10 203  86  55
   2024 06 28 09:30  18 14 35.03    -37 25 03.4   0.0117 1.0279 165.4  m  16?   2.13 292.5    9 205  87  55
   2024 06 28 09:40  18 14 33.41    -37 24 54.9   0.0117 1.0279 165.4  m  16?   2.09 294.6    8 206  87  55
   2024 06 28 09:50  18 14 31.84    -37 24 45.8   0.0117 1.0279 165.4  m  16?   2.06 296.8    7 208  87  55
   2024 06 28 10:00  18 14 30.33    -37 24 36.2   0.0117 1.0279 165.4  m  16?   2.02 299.1    6 210  87  55
   2024 06 28 10:10  18 14 28.88    -37 24 26.0   0.0117 1.0279 165.4  m  16?   1.99 301.5    5 212  87  55
   2024 06 28 10:20  18 14 27.50    -37 24 15.3   0.0117 1.0279 165.4  m  16?   1.95 304.0    4 213  87  55
   2024 06 28 10:30  18 14 26.18    -37 24 04.1   0.0117 1.0279 165.4 Am  16?   1.91 306.5    3 215  87  55
   2024 06 28 10:40  18 14 24.93    -37 23 52.5   0.0117 1.0279 165.4 Am  16?   1.87 309.2    2 217  87  55
   2024 06 28 10:50  18 14 23.75    -37 23 40.4   0.0117 1.0279 165.4 Am  16?   1.83 312.1    0 218  87  55
   2024 06 28 11:00  18 14 22.65    -37 23 27.8   0.0117 1.0279 165.4 Am  16?   1.80 315.0    0 220  87  55
   ................
   2024 06 29 03:50  18 16 03.75    -37 23 42.9   0.0117 1.0279 165.3 N   16?   1.83 226.6    0 140  97  47
   2024 06 29 04:00  18 16 02.59    -37 23 55.2   0.0117 1.0279 165.3 N   16?   1.87 229.4    1 142  97  47
   2024 06 29 04:10  18 16 01.36    -37 24 07.1   0.0117 1.0279 165.3 N   16?   1.91 232.2    2 143  97  46
   2024 06 29 04:20  18 16 00.06    -37 24 18.5   0.0117 1.0279 165.3 A   16?   1.95 234.8    3 145  97  46
   2024 06 29 04:30  18 15 58.69    -37 24 29.4   0.0117 1.0279 165.3 A   16?   1.98 237.3    5 147  97  46
   2024 06 29 04:40  18 15 57.25    -37 24 39.8   0.0117 1.0279 165.3 A   16?   2.02 239.7    6 148  97  46
   2024 06 29 04:50  18 15 55.75    -37 24 49.6   0.0117 1.0279 165.3 A   16?   2.06 242.0    7 150  98  46
   2024 06 29 05:00  18 15 54.20    -37 24 59.0   0.0117 1.0279 165.3     16?   2.09 244.2    8 152  98  46
   2024 06 29 05:10  18 15 52.58    -37 25 07.7   0.0117 1.0279 165.3     16?   2.13 246.4    8 154  98  46
   2024 06 29 05:20  18 15 50.92    -37 25 15.9   0.0117 1.0279 165.3     16?   2.16 248.5    9 156  98  46
   2024 06 29 05:30  18 15 49.20    -37 25 23.4   0.0117 1.0279 165.3     16?   2.19 250.5   10 157  98  46
   2024 06 29 05:40  18 15 47.44    -37 25 30.3   0.0117 1.0279 165.3     16?   2.22 252.4   11 159  98  46
   2024 06 29 05:50  18 15 45.64    -37 25 36.7   0.0117 1.0279 165.2     16?   2.25 254.3   11 161  98  45
   2024 06 29 06:00  18 15 43.81    -37 25 42.3   0.0117 1.0279 165.2     16?   2.27 256.2   12 163  98  45
   2024 06 29 06:10  18 15 41.94    -37 25 47.3   0.0117 1.0279 165.2     16?   2.29 258.0   13 165  98  45
   2024 06 29 06:20  18 15 40.04    -37 25 51.7   0.0117 1.0279 165.2     16?   2.31 259.8   13 167  99  45
   2024 06 29 06:30  18 15 38.11    -37 25 55.3   0.0117 1.0279 165.2     16?   2.33 261.6   13 169  99  45
   2024 06 29 06:40  18 15 36.17    -37 25 58.3   0.0117 1.0279 165.2     16?   2.34 263.3   14 171  99  45
   2024 06 29 06:50  18 15 34.20    -37 26 00.6   0.0117 1.0279 165.2     16?   2.35 265.0   14 173  99  45
   2024 06 29 07:00  18 15 32.23    -37 26 02.2   0.0117 1.0279 165.2     16?   2.36 266.7   14 175  99  45
   2024 06 29 07:10  18 15 30.24    -37 26 03.1   0.0117 1.0279 165.2     16?   2.37 268.4   14 177  99  45
   2024 06 29 07:20  18 15 28.26    -37 26 03.3   0.0117 1.0279 165.2     16?   2.37 270.1   14 179  99  45
   2024 06 29 07:30  18 15 26.27    -37 26 02.9   0.0117 1.0279 165.2  t  16?   2.37 271.8   14 181  99  45
   2024 06 29 07:40  18 15 24.28    -37 26 01.7   0.0117 1.0279 165.2  m  16?   2.36 273.5   14 184  99  45
   2024 06 29 07:50  18 15 22.31    -37 25 59.8   0.0117 1.0279 165.2  m  16?   2.36 275.2   14 186 100  44
   2024 06 29 08:00  18 15 20.34    -37 25 57.2   0.0117 1.0279 165.2  m  16?   2.35 276.9   14 188 100  44
   2024 06 29 08:10  18 15 18.40    -37 25 54.0   0.0117 1.0279 165.2  m  16?   2.34 278.6   13 190 100  44
   2024 06 29 08:20  18 15 16.47    -37 25 50.0   0.0117 1.0279 165.2  m  16?   2.32 280.4   13 192 100  44
   2024 06 29 08:30  18 15 14.57    -37 25 45.4   0.0117 1.0279 165.2  m  16?   2.30 282.2   13 194 100  44
   2024 06 29 08:40  18 15 12.70    -37 25 40.2   0.0117 1.0279 165.2  m  16?   2.28 284.0   12 196 100  44
   2024 06 29 08:50  18 15 10.86    -37 25 34.2   0.0117 1.0279 165.2  m  16?   2.26 285.8   12 198 100  44
   2024 06 29 09:00  18 15 09.06    -37 25 27.7   0.0117 1.0279 165.2  m  16?   2.23 287.7   11 200 100  44
   2024 06 29 09:10  18 15 07.30    -37 25 20.5   0.0117 1.0279 165.2  m  16?   2.20 289.7   10 201 100  44
   2024 06 29 09:20  18 15 05.58    -37 25 12.7   0.0117 1.0279 165.2  m  16?   2.17 291.7    9 203 100  44
   2024 06 29 09:30  18 15 03.91    -37 25 04.3   0.0117 1.0279 165.2  m  16?   2.14 293.8    9 205 101  44
   2024 06 29 09:40  18 15 02.30    -37 24 55.3   0.0117 1.0279 165.2  m  16?   2.11 295.9    8 207 101  44
   2024 06 29 09:50  18 15 00.73    -37 24 45.7   0.0117 1.0279 165.2  m  16?   2.07 298.1    7 209 101  44
   2024 06 29 10:00  18 14 59.23    -37 24 35.6   0.0117 1.0279 165.2  m  16?   2.04 300.4    6 210 101  43
   2024 06 29 10:10  18 14 57.79    -37 24 24.9   0.0117 1.0279 165.2  m  16?   2.00 302.8    5 212 101  43
   2024 06 29 10:20  18 14 56.42    -37 24 13.8   0.0117 1.0279 165.2  m  16?   1.96 305.3    4 214 101  43
   2024 06 29 10:30  18 14 55.11    -37 24 02.1   0.0117 1.0279 165.2 Am  16?   1.93 307.9    2 216 101  43
   2024 06 29 10:40  18 14 53.87    -37 23 50.0   0.0117 1.0279 165.2 Am  16?   1.89 310.6    1 217 101  43
   2024 06 29 10:50  18 14 52.71    -37 23 37.5   0.0117 1.0279 165.2 Am  16?   1.85 313.4    0 219 101  43
   ................
   2024 06 30 03:40  18 16 32.79    -37 23 07.7   0.0117 1.0280 165.1 N   16?   1.80 225.6    0 139 110  36
   2024 06 30 03:50  18 16 31.67    -37 23 20.0   0.0117 1.0280 165.1 N   16?   1.83 228.5    0 141 110  36
   2024 06 30 04:00  18 16 30.48    -37 23 31.9   0.0117 1.0280 165.0 N   16?   1.87 231.3    2 142 111  35
   2024 06 30 04:10  18 16 29.21    -37 23 43.3   0.0117 1.0280 165.0 N   16?   1.91 234.0    3 144 111  35
   2024 06 30 04:20  18 16 27.88    -37 23 54.3   0.0117 1.0280 165.0 A   16?   1.95 236.5    4 146 111  35
   2024 06 30 04:30  18 16 26.47    -37 24 04.7   0.0117 1.0280 165.0 A   16?   1.99 239.0    5 147 111  35
   2024 06 30 04:40  18 16 25.00    -37 24 14.6   0.0117 1.0280 165.0 A   16?   2.03 241.4    6 149 111  35
   2024 06 30 04:50  18 16 23.47    -37 24 24.0   0.0117 1.0280 165.0 A   16?   2.07 243.6    7 151 111  35
   2024 06 30 05:00  18 16 21.88    -37 24 32.9   0.0117 1.0280 165.0     16?   2.11 245.8    8 152 111  35
   2024 06 30 05:10  18 16 20.24    -37 24 41.1   0.0117 1.0280 165.0     16?   2.14 247.9    9 154 111  35
   2024 06 30 05:20  18 16 18.55    -37 24 48.8   0.0117 1.0280 165.0     16?   2.17 250.0   10 156 112  35
   2024 06 30 05:30  18 16 16.81    -37 24 55.9   0.0117 1.0280 165.0     16?   2.21 252.0   10 158 112  35
   2024 06 30 05:40  18 16 15.02    -37 25 02.3   0.0117 1.0280 165.0     16?   2.24 253.9   11 160 112  34
   2024 06 30 05:50  18 16 13.20    -37 25 08.1   0.0117 1.0280 165.0     16?   2.26 255.8   12 162 112  34
   2024 06 30 06:00  18 16 11.34    -37 25 13.3   0.0117 1.0280 165.0     16?   2.29 257.6   12 164 112  34
   2024 06 30 06:10  18 16 09.45    -37 25 17.8   0.0117 1.0280 165.0     16?   2.31 259.4   13 166 112  34
   2024 06 30 06:20  18 16 07.53    -37 25 21.6   0.0117 1.0280 165.0     16?   2.33 261.2   13 168 112  34
   2024 06 30 06:30  18 16 05.58    -37 25 24.7   0.0117 1.0280 165.0     16?   2.34 262.9   14 170 112  34
   2024 06 30 06:40  18 16 03.62    -37 25 27.2   0.0117 1.0280 165.0     16?   2.36 264.6   14 172 113  34
   2024 06 30 06:50  18 16 01.64    -37 25 29.0   0.0117 1.0280 164.9     16?   2.37 266.3   14 174 113  34
   2024 06 30 07:00  18 15 59.65    -37 25 30.1   0.0117 1.0280 164.9     16?   2.38 268.0   14 176 113  34
   2024 06 30 07:10  18 15 57.66    -37 25 30.4   0.0117 1.0280 164.9     16?   2.38 269.7   14 178 113  34
   2024 06 30 07:20  18 15 55.66    -37 25 30.1   0.0117 1.0280 164.9  t  16?   2.38 271.4   14 180 113  34
   2024 06 30 07:30  18 15 53.66    -37 25 29.1   0.0117 1.0280 164.9     16?   2.38 273.0   14 182 113  33
   2024 06 30 07:40  18 15 51.67    -37 25 27.4   0.0117 1.0280 164.9     16?   2.38 274.7   14 184 113  33
   2024 06 30 07:50  18 15 49.68    -37 25 25.0   0.0117 1.0280 164.9     16?   2.37 276.4   14 186 113  33
   2024 06 30 08:00  18 15 47.71    -37 25 21.9   0.0117 1.0280 164.9  m  16?   2.36 278.1   14 188 113  33
   2024 06 30 08:10  18 15 45.76    -37 25 18.1   0.0117 1.0280 164.9  m  16?   2.35 279.9   13 190 114  33
   2024 06 30 08:20  18 15 43.84    -37 25 13.7   0.0117 1.0280 164.9  m  16?   2.33 281.6   13 192 114  33
   2024 06 30 08:30  18 15 41.93    -37 25 08.6   0.0117 1.0280 164.9  m  16?   2.31 283.4   12 194 114  33
   2024 06 30 08:40  18 15 40.06    -37 25 02.8   0.0117 1.0280 164.9  m  16?   2.29 285.2   12 196 114  33
   2024 06 30 08:50  18 15 38.22    -37 24 56.3   0.0117 1.0280 164.9  m  16?   2.27 287.1   11 198 114  33
   2024 06 30 09:00  18 15 36.43    -37 24 49.3   0.0117 1.0280 164.9  m  16?   2.24 289.0   11 200 114  33
   2024 06 30 09:10  18 15 34.67    -37 24 41.6   0.0117 1.0280 164.9  m  16?   2.22 291.0   10 202 114  33
   2024 06 30 09:20  18 15 32.96    -37 24 33.3   0.0117 1.0280 164.9  m  16?   2.19 293.0    9 204 114  33
   2024 06 30 09:30  18 15 31.30    -37 24 24.3   0.0117 1.0280 164.9  m  16?   2.15 295.1    8 206 114  33
   2024 06 30 09:40  18 15 29.69    -37 24 14.9   0.0117 1.0280 164.9  m  16?   2.12 297.2    7 208 115  32
   2024 06 30 09:50  18 15 28.14    -37 24 04.8   0.0117 1.0280 164.9  m  16?   2.09 299.4    6 209 115  32
   2024 06 30 10:00  18 15 26.65    -37 23 54.2   0.0117 1.0280 164.9  m  16?   2.05 301.7    5 211 115  32
   2024 06 30 10:10  18 15 25.22    -37 23 43.1   0.0117 1.0280 164.9  m  16?   2.01 304.1    4 213 115  32
   2024 06 30 10:20  18 15 23.86    -37 23 31.5   0.0117 1.0280 164.9  m  16?   1.98 306.6    3 214 115  32
   2024 06 30 10:30  18 15 22.57    -37 23 19.4   0.0117 1.0280 164.9 Am  16?   1.94 309.2    2 216 115  32
   2024 06 30 10:40  18 15 21.35    -37 23 06.8   0.0117 1.0280 164.9 Am  16?   1.90 311.9    1 218 115  32
   2024 06 30 10:50  18 15 20.20    -37 22 53.9   0.0117 1.0280 164.9 Am  16?   1.87 314.8    0 219 115  32
   ................
   

INTEGRAL (JPL-ID: -198)

   Date (UTC) HH:MM   RA              Dec         delta   r     elong SM  mag  '/hr    PA   alt  az moo ill
   ---- -- -- -----  -------------   -----------  ------ ------ ----- --  --- ------ ------ --- --- --- ---
   2024 06 19 03:10  13 17 39.41    +57 29 06.0    97251 1.0160  81.1 Ct  17? 117.60 201.8   70 356  83  90
   2024 06 19 03:20  13 16 44.78    +57 10 37.2    96378 1.0160  81.2 Cm  17? 121.27 201.3   70 352  83  90
   2024 06 19 03:30  13 15 50.28    +56 51 29.6    95499 1.0160  81.2 Ce  17? 125.01 200.8   70 347  83  91
   2024 06 19 03:40  13 14 56.02    +56 31 42.2    94615 1.0160  81.3 Nm  17? 128.83 200.2   70 343  83  91
   2024 06 19 03:50  13 14 02.12    +56 11 14.0    93726 1.0160  81.3 Nm  17? 132.74 199.6   69 338  83  91
   2024 06 19 04:00  13 13 08.69    +55 50 04.0    92832 1.0160  81.4 Nm  17? 136.72 199.0   69 334  82  91
   2024 06 19 04:10  13 12 15.85    +55 28 11.0    91932 1.0160  81.4 Nm  17? 140.80 198.3   68 330  82  91
   2024 06 19 04:20  13 11 23.71    +55 05 33.9    91026 1.0160  81.5 Am  17? 144.97 197.7   67 327  82  91
   2024 06 19 04:30  13 10 32.36    +54 42 11.8    90115 1.0160  81.6 Am  17? 149.23 197.1   66 323  82  91
   2024 06 19 04:40  13 09 41.92    +54 18 03.4    89198 1.0160  81.7 Am  17? 153.60 196.4   65 320  81  91
   2024 06 19 04:50  13 08 52.49    +53 53 07.5    88275 1.0160  81.8 Am  17? 158.07 195.7   64 318  81  91
   2024 06 19 05:00  13 08 04.15    +53 27 23.1    87345 1.0160  81.9  m  17? 162.65 195.1   63 315  81  91
   2024 06 19 05:10  13 07 16.99    +53 00 48.9    86410 1.0160  82.0  m  17? 167.36 194.4   61 313  81  91
   2024 06 19 05:20  13 06 31.11    +52 33 23.5    85468 1.0160  82.1  m  17? 172.19 193.7   60 311  80  91
   2024 06 19 05:30  13 05 46.59    +52 05 05.7    84519 1.0160  82.2  m  17? 177.17 193.0   58 310  80  91
   2024 06 19 05:40  13 05 03.49    +51 35 54.0    83562 1.0160  82.4  m  17? 182.28 192.4   57 308  80  91
   2024 06 19 05:50  13 04 21.90    +51 05 46.9    82599 1.0160  82.5  m  17? 187.56 191.7   55 307  79  91
   2024 06 19 06:00  13 03 41.88    +50 34 42.9    81628 1.0160  82.6  m  17? 193.00 191.0   53 306  79  91
   2024 06 19 06:10  13 03 03.49    +50 02 40.2    80649 1.0160  82.8  m  16? 198.62 190.4   52 305  79  91
   2024 06 19 06:20  13 02 26.79    +49 29 37.1    79662 1.0160  83.0  m  16? 204.44 189.7   50 304  78  91
   2024 06 19 06:30  13 01 51.82    +48 55 31.6    78667 1.0160  83.2  m  16? 210.48 189.1   48 304  78  91
   2024 06 19 06:40  13 01 18.63    +48 20 21.6    77662 1.0160  83.3  m  16? 216.74 188.4   46 303  78  91
   2024 06 19 06:50  13 00 47.27    +47 44 04.9    76648 1.0161  83.5  m  16? 223.25 187.8   45 303  77  91
   2024 06 19 07:00  13 00 17.77    +47 06 39.1    75624 1.0161  83.8  m  16? 230.03 187.2   43 302  77  91
   2024 06 19 07:10  12 59 50.15    +46 28 01.4    74590 1.0161  84.0  m  16? 237.10 186.6   41 302  76  91
   2024 06 19 07:20  12 59 24.44    +45 48 08.8    73546 1.0161  84.2  m  16? 244.50 186.0   39 302  76  91
   2024 06 19 07:30  12 59 00.67    +45 06 58.4    72490 1.0161  84.5  m  16? 252.25 185.4   37 302  75  91
   2024 06 19 07:40  12 58 38.85    +44 24 26.4    71423 1.0161  84.8  m  16? 260.39 184.8   35 302  75  91
   2024 06 19 07:50  12 58 18.98    +43 40 29.1    70343 1.0161  85.1  m  16? 268.95 184.3   33 302  74  91
   2024 06 19 08:00  12 58 01.08    +42 55 02.1    69250 1.0161  85.4  m  16? 277.98 183.7   31 302  74  91
   2024 06 19 08:10  12 57 45.14    +42 08 00.9    68145 1.0161  85.7  m  16? 287.52 183.2   29 302  73  91
   2024 06 19 08:20  12 57 31.16    +41 19 20.0    67025 1.0161  86.0  m  16? 297.63 182.7   27 302  73  91
   2024 06 19 08:30  12 57 19.13    +40 28 53.8    65890 1.0161  86.4  m  16? 308.37 182.2   25 302  72  91
   2024 06 19 08:40  12 57 09.04    +39 36 35.8    64740 1.0161  86.7  m  16? 319.82 181.8   23 302  71  91
   2024 06 19 08:50  12 57 00.88    +38 42 18.6    63574 1.0161  87.1  m  16? 332.04 181.4   20 303  71  91
   2024 06 19 09:00  12 56 54.62    +37 45 54.3    62391 1.0161  87.6  m  16? 345.14 180.9   18 303  70  91
   2024 06 19 09:10  12 56 50.24    +36 47 13.8    61191 1.0161  88.0  m  16? 359.21 180.6   16 303  69  91
   2024 06 19 09:20  12 56 47.70    +35 46 06.9    59972 1.0161  88.5  m  16? 374.38 180.2   14 304  69  91
   2024 06 19 09:30  12 56 46.98    +34 42 22.0    58734 1.0161  89.0  m  16? 390.79 179.9   11 304  68  91
   2024 06 19 09:40  12 56 48.03    +33 35 46.1    57476 1.0161  89.5  m  16? 408.60 179.6    9 305  67  91
   2024 06 19 09:50  12 56 50.81    +32 26 04.5    56196 1.0161  90.0  m  16? 427.99 179.3    7 305  66  92
   2024 06 19 10:00  12 56 55.27    +31 13 00.1    54895 1.0161  90.6  m  16? 449.20 179.0    4 306  65  92
   2024 06 19 10:10  12 57 01.35    +29 56 13.8    53570 1.0161  91.2     16? 472.48 178.8    2 306  64  92
   2024 06 19 10:20  12 57 08.98    +28 35 23.2    52222 1.0161  91.9 A   15? 498.15 178.6    0 307  63  92
   ................
   2024 06 20 03:10  01 45 58.56    +80 28 01.6   111297 1.0158  62.4 Cm  18? 103.98  29.2   28 359 123  95
   2024 06 20 03:20  01 49 24.82    +80 43 11.5   111995 1.0158  62.4 Cm  18? 104.18  29.7   28 359 123  95
   2024 06 20 03:30  01 53 00.16    +80 58 19.1   112684 1.0158  62.3 Cm  18? 104.37  30.2   28 359 123  95
   2024 06 20 03:40  01 56 45.12    +81 13 24.0   113363 1.0158  62.3 Nt  18? 104.55  30.7   29   0 123  95
   2024 06 20 03:50  02 00 40.31    +81 28 26.0   114033 1.0158  62.3 Nm  18? 104.72  31.2   29   0 123  95
   2024 06 20 04:00  02 04 46.43    +81 43 24.7   114694 1.0158  62.3 Nm  18? 104.87  31.7   29   0 123  95
   2024 06 20 04:10  02 09 04.24    +81 58 19.5   115347 1.0158  62.3 Nm  18? 105.00  32.3   29   0 122  96
   2024 06 20 04:20  02 13 34.59    +82 13 10.1   115990 1.0158  62.3 Am  18? 105.11  32.9   30   0 122  96
   2024 06 20 04:30  02 18 18.44    +82 27 55.7   116626 1.0158  62.3 Am  18? 105.21  33.5   30   1 122  96
   2024 06 20 04:40  02 23 16.86    +82 42 35.8   117253 1.0158  62.3 Am  18? 105.28  34.2   30   1 122  96
   2024 06 20 04:50  02 28 31.04    +82 57 09.6   117872 1.0158  62.3 Am  18? 105.34  34.9   30   1 122  96
   2024 06 20 05:00  02 34 02.31    +83 11 36.3   118483 1.0158  62.3  m  18? 105.37  35.7   31   1 122  96
   2024 06 20 05:10  02 39 52.17    +83 25 55.0   119086 1.0158  62.3  m  18? 105.38  36.6   31   1 122  96
   2024 06 20 05:20  02 46 02.28    +83 40 04.6   119682 1.0158  62.3  m  18? 105.36  37.5   31   1 122  96
   2024 06 20 05:30  02 52 34.51    +83 54 03.8   120270 1.0158  62.3  m  18? 105.33  38.5   31   1 122  96
   2024 06 20 05:40  02 59 30.92    +84 07 51.5   120851 1.0158  62.4  m  18? 105.26  39.6   32   1 121  96
   2024 06 20 05:50  03 06 53.83    +84 21 26.1   121425 1.0158  62.4  m  18? 105.17  40.8   32   1 121  96
   2024 06 20 06:00  03 14 45.77    +84 34 45.9   121991 1.0158  62.4  m  18? 105.06  42.1   32   1 121  96
   2024 06 20 06:10  03 23 09.55    +84 47 49.0   122551 1.0158  62.5  m  18? 104.92  43.6   32   1 121  96
   2024 06 20 06:20  03 32 08.24    +85 00 33.3   123104 1.0158  62.5  m  18? 104.75  45.2   32   1 121  96
   2024 06 20 06:30  03 41 45.14    +85 12 56.3   123651 1.0158  62.6  m  18? 104.55  46.9   33   1 121  96
   2024 06 20 06:40  03 52 03.76    +85 24 55.3   124191 1.0158  62.6  m  18? 104.33  48.8   33   1 121  96
   2024 06 20 06:50  04 03 07.78    +85 36 27.3   124725 1.0158  62.7  m  18? 104.08  50.9   33   1 120  96
   2024 06 20 07:00  04 15 00.89    +85 47 28.7   125252 1.0158  62.7  m  18? 103.80  53.2   33   1 120  96
   2024 06 20 07:10  04 27 46.67    +85 57 55.9   125773 1.0158  62.8  m  18? 103.50  55.7   33   1 120  96
   2024 06 20 07:20  04 41 28.34    +86 07 44.6   126288 1.0158  62.9  m  18? 103.16  58.4   34   1 120  96
   2024 06 20 07:30  04 56 08.42    +86 16 50.2   126797 1.0158  62.9  m  18? 102.80  61.4   34   0 120  96
   2024 06 20 07:40  05 11 48.38    +86 25 07.8   127300 1.0158  63.0  m  18? 102.41  64.6   34   0 120  96
   2024 06 20 07:50  05 28 28.11    +86 32 32.6   127797 1.0158  63.1  m  18? 101.99  68.0   34   0 119  96
   2024 06 20 08:00  05 46 05.45    +86 38 59.5   128288 1.0158  63.2  m  18? 101.55  71.7   34   0 119  96
   2024 06 20 08:10  06 04 35.78    +86 44 23.6   128773 1.0158  63.3  m  18? 101.07  75.5   34   0 119  96
   2024 06 20 08:20  06 23 51.66    +86 48 40.8   129253 1.0158  63.4  m  18? 100.57  79.5   34   0 119  96
   2024 06 20 08:30  06 43 42.90    +86 51 47.6   129727 1.0158  63.5  t  18? 100.04  83.7   34 359 119  96
   2024 06 20 08:40  07 03 56.86    +86 53 41.8   130196 1.0158  63.6  m  18?  99.48  87.8   34 359 118  96
   2024 06 20 08:50  07 24 19.22    +86 54 22.5   130659 1.0158  63.7  m  18?  98.90  92.0   34 359 118  96
   2024 06 20 09:00  07 44 35.01    +86 53 50.3   131116 1.0158  63.8  e  18?  98.28  96.1   34 359 118  96
   2024 06 20 09:10  08 04 29.79    +86 52 07.3   131568 1.0158  63.9  m  18?  97.64 100.1   34 359 118  96
   2024 06 20 09:20  08 23 50.67    +86 49 17.1   132014 1.0158  64.0  m  18?  96.97 103.9   34 359 118  96
   2024 06 20 09:30  08 42 27.15    +86 45 24.2   132455 1.0158  64.1  m  18?  96.28 107.5   34 358 118  96
   2024 06 20 09:40  09 00 11.49    +86 40 33.9   132891 1.0158  64.2  m  18?  95.56 110.9   34 358 117  96
   2024 06 20 09:50  09 16 58.75    +86 34 51.8   133321 1.0158  64.4  m  18?  94.81 114.1   34 358 117  96
   2024 06 20 10:00  09 32 46.50    +86 28 24.0   133745 1.0158  64.5  m  18?  94.04 117.0   34 358 117  96
   2024 06 20 10:10  09 47 34.44    +86 21 16.0   134164 1.0158  64.6  m  18?  93.24 119.7   34 358 117  96
   2024 06 20 10:20  10 01 23.86    +86 13 33.4   134578 1.0158  64.7 Am  18?  92.42 122.1   34 358 117  96
   2024 06 20 10:30  10 14 17.20    +86 05 21.2   134986 1.0158  64.9 Am  18?  91.57 124.3   33 358 116  96
   2024 06 20 10:40  10 26 17.61    +85 56 44.1   135389 1.0158  65.0 Am  18?  90.70 126.3   33 358 116  96
   2024 06 20 10:50  10 37 28.64    +85 47 46.2   135786 1.0158  65.2 A   18?  89.80 128.1   33 358 116  96
   2024 06 20 11:00  10 47 53.99    +85 38 31.2   136177 1.0158  65.3 A   18?  88.88 129.8   33 357 116  96
   2024 06 20 11:10  10 57 37.32    +85 29 02.4   136563 1.0158  65.4 N   18?  87.94 131.2   33 357 116  96
   2024 06 20 11:20  11 06 42.19    +85 19 22.9   136944 1.0158  65.6 N   18?  86.97 132.5   33 357 115  96
   2024 06 20 11:30  11 15 11.91    +85 09 35.0   137318 1.0158  65.7 N   18?  85.99 133.7   33 357 115  96
   2024 06 20 11:40  11 23 09.59    +84 59 41.2   137687 1.0158  65.9 N   18?  84.98 134.8   32 357 115  96
   2024 06 20 11:50  11 30 38.05    +84 49 43.4   138051 1.0158  66.0 C   18?  83.94 135.7   32 357 115  96
   2024 06 20 12:00  11 37 39.86    +84 39 43.4   138408 1.0158  66.2 C   18?  82.89 136.6   32 357 115  96
   ................
   2024 06 21 03:10  13 08 05.34    +75 33 02.7   143973 1.0159  71.4 Cm  18?  61.57 207.0   52 357 110  98
   2024 06 21 03:20  13 06 50.89    +75 23 47.7   143795 1.0159  71.4 Cm  18?  62.81 206.0   52 356 110  98
   2024 06 21 03:30  13 05 38.35    +75 14 16.8   143614 1.0159  71.4 Ce  18?  64.03 205.0   52 354 110  98
   2024 06 21 03:40  13 04 27.90    +75 04 30.2   143431 1.0159  71.4 Nm  18?  65.24 204.0   52 353 110  98
   2024 06 21 03:50  13 03 19.65    +74 54 27.9   143245 1.0159  71.4 Nm  18?  66.42 203.0   52 352 110  98
   2024 06 21 04:00  13 02 13.75    +74 44 10.2   143056 1.0159  71.4 Nm  18?  67.58 202.0   51 351 110  98
   2024 06 21 04:10  13 01 10.31    +74 33 37.3   142865 1.0159  71.4 Nm  18?  68.72 201.0   51 350 110  98
   2024 06 21 04:20  13 00 09.44    +74 22 49.4   142671 1.0159  71.4 Am  18?  69.84 199.9   51 349 110  98
   2024 06 21 04:30  12 59 11.23    +74 11 46.7   142474 1.0159  71.4 Am  18?  70.93 198.9   51 347 110  98
   2024 06 21 04:40  12 58 15.77    +74 00 29.6   142275 1.0159  71.4 Am  18?  72.00 197.9   50 346 110  98
   2024 06 21 04:50  12 57 23.13    +73 48 58.5   142073 1.0159  71.4 Am  18?  73.05 196.9   50 345 110  99
   2024 06 21 05:00  12 56 33.37    +73 37 13.5   141869 1.0159  71.4  m  18?  74.08 195.8   50 344 110  99
   2024 06 21 05:10  12 55 46.55    +73 25 15.2   141662 1.0159  71.4  m  18?  75.08 194.8   49 343 110  99
   2024 06 21 05:20  12 55 02.71    +73 13 03.8   141452 1.0159  71.4  m  18?  76.05 193.8   49 342 110  99
   2024 06 21 05:30  12 54 21.88    +73 00 39.9   141239 1.0159  71.4  m  18?  77.00 192.8   48 341 110  99
   2024 06 21 05:40  12 53 44.09    +72 48 03.7   141024 1.0159  71.5  m  18?  77.92 191.7   48 340 110  99
   2024 06 21 05:50  12 53 09.35    +72 35 15.8   140805 1.0159  71.5  m  18?  78.82 190.7   47 339 110  99
   2024 06 21 06:00  12 52 37.66    +72 22 16.6   140584 1.0159  71.5  m  18?  79.70 189.7   46 339 110  99
   2024 06 21 06:10  12 52 09.04    +72 09 06.5   140360 1.0159  71.6  m  18?  80.54 188.7   46 338 110  99
   2024 06 21 06:20  12 51 43.45    +71 55 46.1   140133 1.0159  71.6  m  18?  81.36 187.7   45 337 110  99
   2024 06 21 06:30  12 51 20.90    +71 42 15.7   139902 1.0159  71.7  m  18?  82.15 186.8   44 337 110  99
   2024 06 21 06:40  12 51 01.36    +71 28 35.9   139669 1.0159  71.7  m  18?  82.92 185.8   43 336 110  99
   2024 06 21 06:50  12 50 44.80    +71 14 47.2   139432 1.0160  71.8  m  18?  83.66 184.8   43 336 110  99
   2024 06 21 07:00  12 50 31.19    +71 00 50.1   139191 1.0160  71.8  m  18?  84.37 183.9   42 335 109  99
   2024 06 21 07:10  12 50 20.49    +70 46 44.9   138948 1.0160  71.9  m  18?  85.06 182.9   41 335 109  99
   2024 06 21 07:20  12 50 12.65    +70 32 32.4   138700 1.0160  72.0  m  18?  85.72 182.0   40 334 109  99
   2024 06 21 07:30  12 50 07.64    +70 18 12.8   138449 1.0160  72.0  m  18?  86.35 181.1   39 334 109  99
   2024 06 21 07:40  12 50 05.39    +70 03 46.8   138194 1.0160  72.1  m  18?  86.96 180.1   38 334 109  99
   2024 06 21 07:50  12 50 05.86    +69 49 14.8   137935 1.0160  72.2  m  18?  87.53 179.2   38 334 109  99
   2024 06 21 08:00  12 50 08.99    +69 34 37.3   137671 1.0160  72.3  m  18?  88.09 178.3   37 334 109  99
   2024 06 21 08:10  12 50 14.71    +69 19 54.8   137404 1.0160  72.4  m  18?  88.61 177.4   36 333 109  99
   2024 06 21 08:20  12 50 22.97    +69 05 07.8   137132 1.0160  72.4  m  18?  89.11 176.6   35 333 109  99
   2024 06 21 08:30  12 50 33.70    +68 50 16.7   136855 1.0160  72.5  m  18?  89.58 175.7   34 333 109  99
   2024 06 21 08:40  12 50 46.84    +68 35 22.0   136573 1.0160  72.6  m  18?  90.03 174.8   33 333 108  99
   2024 06 21 08:50  12 51 02.31    +68 20 24.1   136287 1.0160  72.8  m  18?  90.45 174.0   32 334 108  99
   2024 06 21 09:00  12 51 20.05    +68 05 23.5   135995 1.0160  72.9  m  18?  90.85 173.2   31 334 108  99
   2024 06 21 09:10  12 51 39.99    +67 50 20.7   135698 1.0160  73.0  m  18?  91.22 172.4   30 334 108  99
   2024 06 21 09:20  12 52 02.06    +67 35 16.0   135395 1.0160  73.1  m  18?  91.56 171.5   29 334 108  99
   2024 06 21 09:30  12 52 26.18    +67 20 09.9   135087 1.0160  73.2  m  18?  91.88 170.7   28 334 108  99
   2024 06 21 09:40  12 52 52.28    +67 05 02.8   134773 1.0160  73.3  m  18?  92.17 170.0   27 335 108  99
   2024 06 21 09:50  12 53 20.30    +66 49 55.1   134453 1.0160  73.5  m  18?  92.44 169.2   26 335 107  99
   2024 06 21 10:00  12 53 50.15    +66 34 47.1   134126 1.0160  73.6  m  18?  92.69 168.4   26 335 107  99
   2024 06 21 10:10  12 54 21.77    +66 19 39.2   133793 1.0160  73.8  m  18?  92.91 167.7   25 336 107  99
   2024 06 21 10:20  12 54 55.08    +66 04 31.8   133454 1.0160  73.9 Am  18?  93.11 167.0   24 336 107  99
   2024 06 21 10:30  12 55 30.02    +65 49 25.3   133107 1.0160  74.0 Am  18?  93.28 166.2   23 337 107  99
   2024 06 21 10:40  12 56 06.50    +65 34 19.9   132753 1.0160  74.2 Am  18?  93.43 165.5   22 337 107  99
   2024 06 21 10:50  12 56 44.45    +65 19 16.0   132392 1.0160  74.3 Am  18?  93.56 164.8   21 338 107  99
   2024 06 21 11:00  12 57 23.81    +65 04 13.8   132024 1.0160  74.5 Am  18?  93.67 164.2   20 338 106  99
   2024 06 21 11:10  12 58 04.50    +64 49 13.7   131647 1.0160  74.7 Nm  18?  93.75 163.5   19 339 106  99
   2024 06 21 11:20  12 58 46.45    +64 34 15.9   131263 1.0160  74.8 Nm  18?  93.82 162.9   19 340 106  99
   2024 06 21 11:30  12 59 29.59    +64 19 20.6   130871 1.0160  75.0 Nm  18?  93.86 162.2   18 340 106  99
   2024 06 21 11:40  13 00 13.84    +64 04 28.2   130470 1.0160  75.2 N   18?  93.88 161.6   17 341 106  99
   2024 06 21 11:50  13 00 59.15    +63 49 38.8   130060 1.0160  75.3 C   18?  93.88 161.0   16 342 106  99
   2024 06 21 12:00  13 01 45.44    +63 34 52.7   129642 1.0160  75.5 C   18?  93.86 160.4   15 342 105  99
   ................
   2024 06 22 03:10  13 18 40.78    +23 07 47.1    36182 1.0163  96.5 C   15? 782.36 188.8   74 196  87  99
   2024 06 22 03:20  13 17 09.79    +20 51 51.9    34391 1.0163  97.3 Cm  15? 870.29 188.6   71 203  86  99
   2024 06 22 03:30  13 15 31.83    +18 20 04.8    32583 1.0163  98.2 Cm  15? 974.68 188.5   68 207  85  99
   2024 06 22 03:40  13 13 45.37    +15 29 22.2    30759 1.0163  99.1 Nm  14? 1099.9 188.3   64 211  84  99
   2024 06 22 03:50  13 11 48.29    +12 15 50.5    28925 1.0163 100.2 Nm  14? 1251.7 188.2   60 214  83  99
   2024 06 22 04:00  13 09 37.57    +08 34 30.7    27087 1.0163 101.3 Nm  14? 1437.8 188.1   55 215  82  99
   2024 06 22 04:10  13 07 08.74    +04 18 55.9    25254 1.0163 102.6 Nm  14? 1668.5 188.1   50 217  80  99
   2024 06 22 04:20  13 04 15.03    -00 39 15.1    23441 1.0163 104.0 Am  14? 1957.2 188.2   44 217  78  99
   2024 06 22 04:30  13 00 45.54    -06 30 49.5    21671 1.0163 105.5 Am  14? 2320.6 188.5   37 217  76  99
   2024 06 22 04:40  12 56 21.84    -13 29 25.8    19977 1.0163 107.1 Am  14? 2778.1 189.0   30 217  74  99
   2024 06 22 04:50  12 50 30.03    -21 51 26.0    18407 1.0163 108.6 Am  14? 3346.2 189.8   21 216  72  99
   2024 06 22 05:00  12 42 00.99    -31 54 05.0    17032 1.0163 109.7  m  13? 4026.6 191.4   10 214  70  99
   ................
   2024 06 22 07:50  02 04 51.31    +32 38 11.8    33645 1.0162  53.0  r  15? 1180.5   1.1    1  48 125  99
   2024 06 22 08:00  02 05 08.98    +35 45 11.6    35293 1.0162  52.6  m  15? 1066.0   1.3    5  47 126  99
   2024 06 22 08:10  02 05 28.71    +38 34 34.4    36924 1.0162  52.4  m  16? 968.68   1.5    8  47 127  99
   2024 06 22 08:20  02 05 49.62    +41 08 55.4    38538 1.0162  52.4  m  16? 885.32   1.7   11  46 127  99
   2024 06 22 08:30  02 06 11.03    +43 30 20.9    40132 1.0161  52.3  m  16? 813.33   1.8   14  45 127  99
   2024 06 22 08:40  02 06 32.39    +45 40 34.6    41706 1.0161  52.4  m  16? 750.71   1.8   17  44 128  99
   2024 06 22 08:50  02 06 53.24    +47 41 01.9    43260 1.0161  52.5  m  16? 695.86   1.8   19  44 128  99
   2024 06 22 09:00  02 07 13.19    +49 32 54.3    44793 1.0161  52.7  m  16? 647.51   1.8   22  43 128  99
   2024 06 22 09:10  02 07 31.91    +51 17 11.4    46306 1.0161  52.9  m  16? 604.63   1.7   24  42 128  99
   2024 06 22 09:20  02 07 49.09    +52 54 43.6    47799 1.0161  53.1  m  16? 566.38   1.6   26  42 128  99
   2024 06 22 09:30  02 08 04.48    +54 26 13.9    49272 1.0161  53.3  m  16? 532.08   1.5   28  41 128  99
   2024 06 22 09:40  02 08 17.81    +55 52 18.9    50725 1.0161  53.6  m  16? 501.16   1.3   30  40 128  99
   2024 06 22 09:50  02 08 28.86    +57 13 29.9    52160 1.0161  53.8  m  16? 473.17   1.1   32  39 128  99
   2024 06 22 10:00  02 08 37.41    +58 30 14.2    53576 1.0161  54.1  m  16? 447.71   0.9   33  38 128  99
   2024 06 22 10:10  02 08 43.25    +59 42 55.3    54974 1.0161  54.4  m  16? 424.46   0.6   35  37 127  99
   2024 06 22 10:20  02 08 46.17    +60 51 53.9    56354 1.0161  54.7 Am  16? 403.14   0.3   36  36 127  99
   2024 06 22 10:30  02 08 45.98    +61 57 27.8    57717 1.0161  55.0 Am  16? 383.51 359.9   38  35 127  99
   2024 06 22 10:40  02 08 42.48    +62 59 53.0    59063 1.0161  55.3 Am  17? 365.39 359.6   39  34 127  99
   2024 06 22 10:50  02 08 35.47    +63 59 23.4    60393 1.0161  55.6 Am  17? 348.60 359.2   40  33 127  99
   2024 06 22 11:00  02 08 24.78    +64 56 11.5    61707 1.0161  55.9 Am  17? 332.98 358.8   41  32 126  99
   2024 06 22 11:10  02 08 10.22    +65 50 28.2    63006 1.0161  56.3 Nm  17? 318.43 358.3   42  30 126  99
   2024 06 22 11:20  02 07 51.59    +66 42 23.3    64289 1.0161  56.6 Nm  17? 304.82 357.8   43  29 126  99
   2024 06 22 11:30  02 07 28.71    +67 32 05.7    65558 1.0161  56.9 Nm  17? 292.07 357.3   44  28 126  99
   2024 06 22 11:40  02 07 01.40    +68 19 43.2    66812 1.0161  57.2 Nm  17? 280.08 356.8   45  27 125  99
   2024 06 22 11:50  02 06 29.48    +69 05 23.0    68052 1.0161  57.5 Cm  17? 268.79 356.2   46  25 125  99
   2024 06 22 12:00  02 05 52.77    +69 49 11.4    69278 1.0161  57.8 Cm  17? 258.13 355.7   47  24 125  99
   ................
   2024 06 23 03:10  09 09 00.28    +88 51 37.3   136505 1.0160  65.7 C   18?  71.15 148.6   38 358 119  98
   2024 06 23 03:20  09 29 28.15    +88 41 38.8   136855 1.0160  65.7 C   18?  71.97 152.2   38 358 119  98
   2024 06 23 03:30  09 45 40.96    +88 31 07.9   137200 1.0160  65.7 C   18?  72.76 155.0   38 358 119  98
   2024 06 23 03:40  09 58 49.94    +88 20 12.3   137540 1.0160  65.6 N   18?  73.53 157.1   38 358 119  98
   2024 06 23 03:50  10 09 44.17    +88 08 57.3   137874 1.0160  65.6 N   18?  74.27 158.8   38 357 119  98
   2024 06 23 04:00  10 18 57.73    +87 57 26.3   138203 1.0160  65.6 N   18?  74.99 160.1   38 357 119  98
   2024 06 23 04:10  10 26 54.67    +87 45 42.1   138527 1.0160  65.6 Nm  18?  75.67 161.1   38 357 119  98
   2024 06 23 04:20  10 33 52.26    +87 33 46.4   138845 1.0160  65.6 Am  18?  76.33 161.9   38 357 119  98
   2024 06 23 04:30  10 40 03.16    +87 21 40.7   139159 1.0160  65.6 Am  18?  76.95 162.6   38 356 119  98
   2024 06 23 04:40  10 45 36.80    +87 09 26.3   139468 1.0160  65.6 Am  18?  77.55 163.1   38 356 119  98
   2024 06 23 04:50  10 50 40.32    +86 57 04.0   139772 1.0160  65.5 Am  18?  78.12 163.4   38 356 119  97
   2024 06 23 05:00  10 55 19.21    +86 44 34.8   140071 1.0160  65.5  e  18?  78.65 163.7   38 355 119  97
   2024 06 23 05:10  10 59 37.75    +86 31 59.3   140366 1.0160  65.5  m  18?  79.16 163.9   38 355 120  97
   2024 06 23 05:20  11 03 39.32    +86 19 18.2   140656 1.0160  65.6  m  18?  79.64 164.0   38 355 120  97
   2024 06 23 05:30  11 07 26.62    +86 06 32.1   140941 1.0160  65.6  m  18?  80.08 164.1   38 355 120  97
   2024 06 23 05:40  11 11 01.82    +85 53 41.6   141222 1.0160  65.6  m  18?  80.49 164.1   38 354 120  97
   2024 06 23 05:50  11 14 26.69    +85 40 47.1   141498 1.0160  65.6  m  18?  80.87 164.1   38 354 120  97
   2024 06 23 06:00  11 17 42.68    +85 27 49.1   141770 1.0160  65.6  m  18?  81.22 164.0   38 354 120  97
   2024 06 23 06:10  11 20 50.99    +85 14 48.2   142037 1.0160  65.6  m  18?  81.54 163.9   38 353 120  97
   2024 06 23 06:20  11 23 52.63    +85 01 44.7   142300 1.0160  65.7  m  18?  81.83 163.7   38 353 120  97
   2024 06 23 06:30  11 26 48.41    +84 48 39.2   142559 1.0160  65.7  m  18?  82.09 163.6   38 353 120  97
   2024 06 23 06:40  11 29 39.06    +84 35 32.1   142813 1.0160  65.7  m  18?  82.31 163.4   37 352 120  97
   2024 06 23 06:50  11 32 25.15    +84 22 23.7   143062 1.0160  65.8  m  18?  82.50 163.1   37 352 120  97
   2024 06 23 07:00  11 35 07.20    +84 09 14.5   143308 1.0160  65.8  m  18?  82.66 162.9   37 352 120  97
   2024 06 23 07:10  11 37 45.64    +83 56 05.0   143549 1.0160  65.9  m  18?  82.79 162.6   37 352 120  97
   2024 06 23 07:20  11 40 20.83    +83 42 55.5   143786 1.0160  65.9  m  18?  82.89 162.3   37 351 120  97
   2024 06 23 07:30  11 42 53.09    +83 29 46.4   144018 1.0160  66.0  m  18?  82.95 162.1   36 351 120  97
   2024 06 23 07:40  11 45 22.69    +83 16 38.1   144246 1.0160  66.0  m  18?  82.99 161.7   36 351 120  97
   2024 06 23 07:50  11 47 49.86    +83 03 31.0   144469 1.0160  66.1  m  18?  82.99 161.4   36 351 120  97
   2024 06 23 08:00  11 50 14.80    +82 50 25.4   144689 1.0160  66.1  m  18?  82.96 161.1   36 351 120  97
   2024 06 23 08:10  11 52 37.70    +82 37 21.8   144903 1.0160  66.2  m  18?  82.90 160.7   35 350 120  97
   2024 06 23 08:20  11 54 58.70    +82 24 20.6   145114 1.0160  66.3  m  18?  82.81 160.4   35 350 120  97
   2024 06 23 08:30  11 57 17.92    +82 11 22.0   145319 1.0160  66.4  m  18?  82.69 160.0   35 350 120  97
   2024 06 23 08:40  11 59 35.48    +81 58 26.4   145520 1.0160  66.5  m  18?  82.54 159.7   34 350 120  97
   2024 06 23 08:50  12 01 51.48    +81 45 34.3   145717 1.0160  66.5  m  18?  82.35 159.3   34 350 120  97
   2024 06 23 09:00  12 04 06.00    +81 32 45.8   145909 1.0160  66.6  m  18?  82.14 158.9   34 350 120  97
   2024 06 23 09:10  12 06 19.11    +81 20 01.5   146096 1.0160  66.7  m  18?  81.90 158.5   33 350 120  97
   2024 06 23 09:20  12 08 30.86    +81 07 21.5   146279 1.0160  66.8  m  18?  81.63 158.1   33 350 120  97
   2024 06 23 09:30  12 10 41.32    +80 54 46.3   146457 1.0160  66.9  m  18?  81.33 157.7   33 350 120  97
   2024 06 23 09:40  12 12 50.52    +80 42 16.2   146629 1.0160  67.0  m  18?  81.00 157.3   32 350 120  97
   2024 06 23 09:50  12 14 58.49    +80 29 51.4   146797 1.0160  67.1  m  18?  80.64 156.9   32 350 120  97
   2024 06 23 10:00  12 17 05.26    +80 17 32.3   146960 1.0160  67.2  m  18?  80.25 156.5   31 350 120  97
   2024 06 23 10:10  12 19 10.87    +80 05 19.1   147118 1.0160  67.3  m  18?  79.84 156.1   31 350 120  97
   2024 06 23 10:20  12 21 15.32    +79 53 12.2   147270 1.0160  67.4 Am  18?  79.40 155.6   31 350 120  97
   2024 06 23 10:30  12 23 18.62    +79 41 11.9   147418 1.0160  67.6 Am  18?  78.93 155.2   30 350 120  97
   2024 06 23 10:40  12 25 20.79    +79 29 18.3   147560 1.0160  67.7 Am  18?  78.43 154.8   30 350 120  97
   2024 06 23 10:50  12 27 21.82    +79 17 31.9   147696 1.0160  67.8 Am  18?  77.91 154.3   29 350 120  97
   2024 06 23 11:00  12 29 21.72    +79 05 52.8   147827 1.0160  67.9 Am  18?  77.36 153.9   29 351 119  97
   2024 06 23 11:10  12 31 20.49    +78 54 21.2   147953 1.0160  68.0 Nm  18?  76.78 153.5   29 351 119  97
   2024 06 23 11:20  12 33 18.12    +78 42 57.5   148073 1.0160  68.2 Nm  18?  76.18 153.1   28 351 119  97
   2024 06 23 11:30  12 35 14.60    +78 31 41.8   148187 1.0160  68.3 Nm  18?  75.55 152.6   28 351 119  97
   2024 06 23 11:40  12 37 09.91    +78 20 34.4   148295 1.0160  68.4 Nm  18?  74.90 152.2   27 352 119  97
   2024 06 23 11:50  12 39 04.06    +78 09 35.5   148397 1.0160  68.6 Cm  18?  74.22 151.8   27 352 119  97
   2024 06 23 12:00  12 40 57.01    +77 58 45.2   148493 1.0160  68.7 Cm  18?  73.52 151.3   27 352 119  97
   ................
   2024 06 24 03:10  13 11 18.60    +67 59 23.7   128017 1.0162  73.7 Ce  18?  75.70 205.4   59 353 119  94
   2024 06 24 03:20  13 10 20.99    +67 47 50.5   127546 1.0162  73.7 C   18?  77.42 204.5   59 351 119  94
   2024 06 24 03:30  13 09 24.44    +67 35 56.8   127072 1.0162  73.6 C   18?  79.13 203.7   59 349 119  94
   2024 06 24 03:40  13 08 29.05    +67 23 42.8   126595 1.0162  73.6 N   18?  80.84 202.8   58 347 119  94
   2024 06 24 03:50  13 07 34.96    +67 11 08.3   126115 1.0162  73.6 N   18?  82.53 201.9   58 345 119  94
   2024 06 24 04:00  13 06 42.27    +66 58 13.3   125633 1.0162  73.6 N   18?  84.21 201.0   58 343 120  94
   2024 06 24 04:10  13 05 51.10    +66 44 58.0   125148 1.0162  73.6 N   18?  85.88 200.1   57 341 120  93
   2024 06 24 04:20  13 05 01.55    +66 31 22.4   124660 1.0162  73.6 A   18?  87.54 199.2   57 339 120  93
   2024 06 24 04:30  13 04 13.71    +66 17 26.6   124169 1.0162  73.6 A   18?  89.19 198.3   56 338 120  93
   2024 06 24 04:40  13 03 27.67    +66 03 10.7   123675 1.0162  73.7 A   18?  90.82 197.4   56 336 120  93
   2024 06 24 04:50  13 02 43.51    +65 48 35.0   123178 1.0162  73.7 A   18?  92.45 196.5   55 335 120  93
   2024 06 24 05:00  13 02 01.31    +65 33 39.5   122678 1.0162  73.7  m  18?  94.06 195.6   54 333 120  93
   2024 06 24 05:10  13 01 21.14    +65 18 24.5   122175 1.0162  73.7  m  18?  95.65 194.7   53 332 121  93
   2024 06 24 05:20  13 00 43.06    +65 02 50.3   121669 1.0162  73.7  m  18?  97.23 193.8   52 331 121  93
   2024 06 24 05:30  13 00 07.12    +64 46 57.0   121159 1.0162  73.8  m  18?  98.80 192.9   51 329 121  93
   2024 06 24 05:40  12 59 33.37    +64 30 45.0   120646 1.0162  73.8  m  18? 100.36 192.0   50 328 121  93
   2024 06 24 05:50  12 59 01.86    +64 14 14.5   120130 1.0162  73.8  m  18? 101.90 191.0   49 327 121  93
   2024 06 24 06:00  12 58 32.62    +63 57 25.8   119610 1.0162  73.9  m  18? 103.43 190.1   48 327 121  93
   2024 06 24 06:10  12 58 05.68    +63 40 19.2   119086 1.0162  73.9  m  18? 104.94 189.2   47 326 121  93
   2024 06 24 06:20  12 57 41.06    +63 22 55.0   118558 1.0162  74.0  m  18? 106.45 188.4   46 325 121  93
   2024 06 24 06:30  12 57 18.78    +63 05 13.6   118025 1.0162  74.1  m  18? 107.94 187.5   45 325 121  93
   2024 06 24 06:40  12 56 58.85    +62 47 15.3   117489 1.0162  74.1  m  18? 109.42 186.6   44 324 121  93
   2024 06 24 06:50  12 56 41.28    +62 29 00.4   116948 1.0162  74.2  m  17? 110.88 185.7   43 324 122  93
   2024 06 24 07:00  12 56 26.08    +62 10 29.3   116402 1.0162  74.3  m  17? 112.34 184.9   41 323 122  93
   2024 06 24 07:10  12 56 13.23    +61 51 42.2   115851 1.0162  74.4  m  17? 113.79 184.0   40 323 122  93
   2024 06 24 07:20  12 56 02.74    +61 32 39.6   115296 1.0162  74.5  m  17? 115.22 183.2   39 323 122  93
   2024 06 24 07:30  12 55 54.58    +61 13 21.6   114735 1.0162  74.5  m  17? 116.65 182.3   38 323 122  93
   2024 06 24 07:40  12 55 48.75    +60 53 48.8   114168 1.0162  74.7  m  17? 118.07 181.5   36 323 122  93
   2024 06 24 07:50  12 55 45.22    +60 34 01.3   113596 1.0162  74.8  m  17? 119.48 180.7   35 322 122  93
   2024 06 24 08:00  12 55 43.97    +60 13 59.4   113017 1.0162  74.9  m  17? 120.89 179.9   34 323 122  93
   2024 06 24 08:10  12 55 44.98    +59 53 43.5   112432 1.0162  75.0  m  17? 122.29 179.1   33 323 122  93
   2024 06 24 08:20  12 55 48.21    +59 33 13.9   111841 1.0162  75.1  m  17? 123.69 178.3   31 323 122  93
   2024 06 24 08:30  12 55 53.64    +59 12 30.7   111242 1.0162  75.2  m  17? 125.08 177.6   30 323 122  93
   2024 06 24 08:40  12 56 01.22    +58 51 34.3   110637 1.0162  75.4  m  17? 126.48 176.8   29 323 122  93
   2024 06 24 08:50  12 56 10.92    +58 30 24.8   110024 1.0162  75.5  m  17? 127.87 176.1   27 323 122  93
   2024 06 24 09:00  12 56 22.71    +58 09 02.4   109404 1.0162  75.7  m  17? 129.27 175.4   26 324 122  93
   2024 06 24 09:10  12 56 36.54    +57 47 27.4   108775 1.0162  75.8  m  17? 130.67 174.6   25 324 122  93
   2024 06 24 09:20  12 56 52.36    +57 25 39.8   108138 1.0162  76.0  m  17? 132.08 174.0   23 325 122  93
   2024 06 24 09:30  12 57 10.14    +57 03 39.8   107492 1.0163  76.2  m  17? 133.49 173.3   22 325 122  93
   2024 06 24 09:40  12 57 29.83    +56 41 27.5   106838 1.0163  76.4  m  17? 134.92 172.6   21 326 122  93
   2024 06 24 09:50  12 57 51.38    +56 19 02.9   106174 1.0163  76.5  m  17? 136.35 172.0   20 326 122  93
   2024 06 24 10:00  12 58 14.75    +55 56 26.1   105500 1.0163  76.7  m  17? 137.81 171.4   18 327 122  92
   2024 06 24 10:10  12 58 39.88    +55 33 37.1   104816 1.0163  76.9  m  17? 139.27 170.7   17 327 122  92
   2024 06 24 10:20  12 59 06.73    +55 10 35.8   104122 1.0163  77.1 Am  17? 140.76 170.2   16 328 122  92
   2024 06 24 10:30  12 59 35.25    +54 47 22.1   103418 1.0163  77.3 Am  17? 142.27 169.6   15 329 122  92
   2024 06 24 10:40  13 00 05.38    +54 23 55.9   102702 1.0163  77.5 Am  17? 143.81 169.0   13 330 122  92
   2024 06 24 10:50  13 00 37.08    +54 00 17.0   101975 1.0163  77.8 Am  17? 145.38 168.5   12 330 122  92
   2024 06 24 11:00  13 01 10.30    +53 36 25.2   101235 1.0163  78.0 Am  17? 146.97 168.0   11 331 122  92
   2024 06 24 11:10  13 01 44.99    +53 12 20.3   100484 1.0163  78.2 Nm  17? 148.61 167.5   10 332 122  92
   2024 06 24 11:20  13 02 21.08    +52 48 01.8    99720 1.0163  78.5 Nm  17? 150.28 167.0    8 333 122  92
   2024 06 24 11:30  13 02 58.55    +52 23 29.5    98944 1.0163  78.7 Nm  17? 152.01 166.6    7 334 122  92
   2024 06 24 11:40  13 03 37.33    +51 58 42.8    98153 1.0163  79.0 Nm  17? 153.78 166.2    6 335 122  92
   2024 06 24 11:50  13 04 17.37    +51 33 41.3    97350 1.0163  79.2 Cm  17? 155.60 165.8    5 336 122  92
   2024 06 24 12:00  13 04 58.63    +51 08 24.4    96532 1.0163  79.5 Cm  17? 157.49 165.4    4 337 122  92
   ................
   2024 06 25 03:10  01 31 42.90    +60 40 55.9    67482 1.0162  60.5 C   17? 292.23  15.2    8   2  96  87
   2024 06 25 03:20  01 33 27.09    +61 27 11.8    68732 1.0162  60.4 C   17? 283.29  15.5    9   3  97  87
   2024 06 25 03:30  01 35 12.26    +62 12 01.7    69960 1.0162  60.2 C   17? 275.02  15.7   10   3  97  87
   2024 06 25 03:40  01 36 58.41    +62 55 31.9    71168 1.0162  60.1 N   17? 267.35  16.0   11   4  98  87
   2024 06 25 03:50  01 38 45.58    +63 37 48.3    72356 1.0162  60.0 N   17? 260.21  16.2   11   5  98  87
   2024 06 25 04:00  01 40 33.77    +64 18 56.0    73525 1.0162  59.9 N   17? 253.55  16.3   12   6  99  87
   2024 06 25 04:10  01 42 23.00    +64 58 59.7    74676 1.0162  59.8 N   17? 247.32  16.5   13   7  99  87
   2024 06 25 04:20  01 44 13.27    +65 38 03.6    75809 1.0162  59.8 A   17? 241.48  16.7   14   7 100  87
   2024 06 25 04:30  01 46 04.61    +66 16 11.5    76925 1.0162  59.7 A   17? 235.99  16.8   15   8 100  87
   2024 06 25 04:40  01 47 57.00    +66 53 26.9    78023 1.0162  59.6 A   17? 230.81  16.9   16   9 101  87
   2024 06 25 04:50  01 49 50.48    +67 29 52.8    79106 1.0162  59.6 A   17? 225.92  17.0   16   9 101  87
   2024 06 25 05:00  01 51 45.04    +68 05 32.1    80173 1.0162  59.5     17? 221.29  17.1   17  10 101  87
   2024 06 25 05:10  01 53 40.69    +68 40 27.3    81224 1.0162  59.5     17? 216.89  17.2   18  10 102  87
   2024 06 25 05:20  01 55 37.44    +69 14 40.8    82261 1.0162  59.5     17? 212.70  17.3   19  11 102  87
   2024 06 25 05:30  01 57 35.30    +69 48 14.6    83283 1.0162  59.5     17? 208.70  17.3   20  11 102  87
   2024 06 25 05:40  01 59 34.28    +70 21 10.7    84291 1.0162  59.4  m  17? 204.88  17.3   21  11 103  87
   2024 06 25 05:50  02 01 34.39    +70 53 30.9    85286 1.0162  59.4  m  17? 201.21  17.4   21  12 103  87
   2024 06 25 06:00  02 03 35.65    +71 25 16.6    86268 1.0162  59.4  m  17? 197.69  17.4   22  12 103  87
   2024 06 25 06:10  02 05 38.08    +71 56 29.3    87237 1.0162  59.5  m  17? 194.30  17.4   23  12 104  86
   2024 06 25 06:20  02 07 41.68    +72 27 10.4    88193 1.0162  59.5  m  17? 191.03  17.4   24  12 104  86
   2024 06 25 06:30  02 09 46.49    +72 57 20.9    89138 1.0162  59.5  m  17? 187.87  17.3   24  13 104  86
   2024 06 25 06:40  02 11 52.53    +73 27 02.1    90071 1.0162  59.5  m  17? 184.80  17.3   25  13 105  86
   2024 06 25 06:50  02 13 59.82    +73 56 14.8    90992 1.0162  59.6  m  17? 181.82  17.3   26  13 105  86
   2024 06 25 07:00  02 16 08.41    +74 24 59.9    91903 1.0162  59.6  m  17? 178.93  17.2   27  13 105  86
   2024 06 25 07:10  02 18 18.32    +74 53 18.2    92803 1.0162  59.7  m  17? 176.11  17.2   27  13 105  86
   2024 06 25 07:20  02 20 29.60    +75 21 10.5    93692 1.0162  59.8  m  17? 173.36  17.1   28  13 106  86
   2024 06 25 07:30  02 22 42.30    +75 48 37.4    94571 1.0162  59.8  m  17? 170.66  17.1   29  13 106  86
   2024 06 25 07:40  02 24 56.48    +76 15 39.4    95440 1.0162  59.9  m  17? 168.03  17.0   29  13 106  86
   2024 06 25 07:50  02 27 12.20    +76 42 17.2    96300 1.0162  60.0  m  17? 165.44  16.9   30  13 106  86
   2024 06 25 08:00  02 29 29.54    +77 08 31.1    97150 1.0162  60.1  m  17? 162.90  16.8   31  13 107  86
   2024 06 25 08:10  02 31 48.58    +77 34 21.6    97990 1.0161  60.1  m  18? 160.40  16.8   31  13 107  86
   2024 06 25 08:20  02 34 09.41    +77 59 49.0    98822 1.0161  60.2  m  18? 157.94  16.7   32  12 107  86
   2024 06 25 08:30  02 36 32.15    +78 24 53.8    99645 1.0161  60.3  m  18? 155.51  16.6   32  12 107  86
   2024 06 25 08:40  02 38 56.92    +78 49 36.0   100459 1.0161  60.5  m  18? 153.12  16.5   33  12 107  86
   2024 06 25 08:50  02 41 23.85    +79 13 56.1   101265 1.0161  60.6  m  18? 150.75  16.5   33  12 108  86
   2024 06 25 09:00  02 43 53.12    +79 37 54.3   102063 1.0161  60.7  m  18? 148.41  16.4   34  11 108  86
   2024 06 25 09:10  02 46 24.90    +80 01 30.6   102852 1.0161  60.8  m  18? 146.09  16.3   34  11 108  86
   2024 06 25 09:20  02 48 59.41    +80 24 45.3   103634 1.0161  60.9  m  18? 143.79  16.3   35  11 108  86
   2024 06 25 09:30  02 51 36.88    +80 47 38.5   104407 1.0161  61.1  m  18? 141.51  16.2   35  11 108  86
   2024 06 25 09:40  02 54 17.60    +81 10 10.4   105173 1.0161  61.2  m  18? 139.25  16.2   35  10 108  86
   2024 06 25 09:50  02 57 01.88    +81 32 20.9   105932 1.0161  61.3  m  18? 137.00  16.2   36  10 108  86
   2024 06 25 10:00  02 59 50.08    +81 54 10.2   106682 1.0161  61.5  m  18? 134.77  16.2   36   9 109  86
   2024 06 25 10:10  03 02 42.64    +82 15 38.2   107426 1.0161  61.6  m  18? 132.55  16.2   36   9 109  86
   2024 06 25 10:20  03 05 40.04    +82 36 45.0   108162 1.0161  61.8 Am  18? 130.35  16.2   37   9 109  86
   2024 06 25 10:30  03 08 42.85    +82 57 30.7   108891 1.0161  61.9 Am  18? 128.15  16.3   37   8 109  86
   2024 06 25 10:40  03 11 51.74    +83 17 55.0   109612 1.0161  62.1 Am  18? 125.96  16.4   37   8 109  85
   2024 06 25 10:50  03 15 07.51    +83 37 58.1   110327 1.0161  62.2 Am  18? 123.78  16.5   37   7 109  85
   2024 06 25 11:00  03 18 31.06    +83 57 39.8   111035 1.0161  62.4 Am  18? 121.61  16.6   37   7 109  85
   2024 06 25 11:10  03 22 03.51    +84 17 00.1   111735 1.0161  62.5 Nm  18? 119.45  16.8   38   7 109  85
   2024 06 25 11:20  03 25 46.15    +84 35 58.7   112429 1.0161  62.7 Nm  18? 117.30  17.1   38   6 109  85
   2024 06 25 11:30  03 29 40.57    +84 54 35.5   113116 1.0161  62.8 Nm  18? 115.15  17.4   38   6 109  85
   2024 06 25 11:40  03 33 48.65    +85 12 50.4   113795 1.0161  63.0 Nm  18? 113.01  17.8   38   5 109  85
   2024 06 25 11:50  03 38 12.70    +85 30 43.0   114468 1.0161  63.2 Cm  18? 110.88  18.2   38   5 109  85
   2024 06 25 12:00  03 42 55.57    +85 48 13.0   115135 1.0161  63.3 Cm  18? 108.75  18.8   38   5 109  85
   ................
   2024 06 26 03:10  12 50 46.19    +82 04 06.6   146603 1.0161  67.9 C   18?  63.01 201.4   45 356 111  79
   2024 06 26 03:20  12 48 57.18    +81 54 14.2   146679 1.0161  67.8 C   18?  63.99 200.2   45 356 112  79
   2024 06 26 03:30  12 47 14.60    +81 44 08.3   146752 1.0161  67.8 Ce  18?  64.94 199.1   45 355 112  79
   2024 06 26 03:40  12 45 38.44    +81 33 49.0   146821 1.0161  67.8 N   18?  65.87 197.9   45 354 112  79
   2024 06 26 03:50  12 44 08.65    +81 23 17.0   146887 1.0161  67.8 N   18?  66.77 196.7   45 354 112  79
   2024 06 26 04:00  12 42 45.18    +81 12 32.5   146949 1.0161  67.7 N   18?  67.64 195.6   45 353 112  79
   2024 06 26 04:10  12 41 27.97    +81 01 36.1   147008 1.0161  67.7 N   18?  68.49 194.5   45 352 112  79
   2024 06 26 04:20  12 40 16.91    +80 50 28.2   147063 1.0161  67.7 A   18?  69.31 193.4   45 352 112  79
   2024 06 26 04:30  12 39 11.90    +80 39 09.3   147115 1.0161  67.7 A   18?  70.11 192.3   44 351 113  79
   2024 06 26 04:40  12 38 12.82    +80 27 39.8   147164 1.0161  67.7 A   18?  70.87 191.2   44 351 113  78
   2024 06 26 04:50  12 37 19.56    +80 16 00.4   147209 1.0161  67.7 A   18?  71.61 190.1   44 350 113  78
   2024 06 26 05:00  12 36 31.96    +80 04 11.5   147252 1.0161  67.6     18?  72.32 189.1   44 349 113  78
   2024 06 26 05:10  12 35 49.90    +79 52 13.5   147290 1.0161  67.6     18?  73.00 188.0   43 349 113  78
   2024 06 26 05:20  12 35 13.21    +79 40 07.1   147326 1.0161  67.6     18?  73.66 187.0   43 348 113  78
   2024 06 26 05:30  12 34 41.75    +79 27 52.6   147358 1.0161  67.7     18?  74.28 186.0   43 348 113  78
   2024 06 26 05:40  12 34 15.36    +79 15 30.8   147387 1.0161  67.7     18?  74.87 185.0   42 347 114  78
   2024 06 26 05:50  12 33 53.88    +79 03 02.0   147412 1.0161  67.7     18?  75.44 184.0   42 346 114  78
   2024 06 26 06:00  12 33 37.15    +78 50 26.7   147434 1.0161  67.7     18?  75.97 183.0   42 346 114  78
   2024 06 26 06:10  12 33 25.02    +78 37 45.6   147453 1.0161  67.7  m  18?  76.48 182.1   41 345 114  78
   2024 06 26 06:20  12 33 17.31    +78 24 59.1   147468 1.0161  67.7  m  18?  76.95 181.1   41 345 114  78
   2024 06 26 06:30  12 33 13.88    +78 12 07.6   147480 1.0161  67.7  m  18?  77.40 180.2   40 345 114  78
   2024 06 26 06:40  12 33 14.56    +77 59 11.8   147488 1.0161  67.8  m  18?  77.82 179.3   40 344 115  78
   2024 06 26 06:50  12 33 19.19    +77 46 12.2   147493 1.0161  67.8  m  18?  78.20 178.3   39 344 115  78
   2024 06 26 07:00  12 33 27.63    +77 33 09.1   147494 1.0162  67.8  m  18?  78.56 177.4   39 344 115  78
   2024 06 26 07:10  12 33 39.71    +77 20 03.2   147491 1.0162  67.9  m  18?  78.88 176.6   38 343 115  78
   2024 06 26 07:20  12 33 55.29    +77 06 54.9   147485 1.0162  67.9  m  18?  79.18 175.7   38 343 115  78
   2024 06 26 07:30  12 34 14.23    +76 53 44.6   147474 1.0162  68.0  m  18?  79.44 174.8   37 343 115  77
   2024 06 26 07:40  12 34 36.38    +76 40 32.9   147460 1.0162  68.0  m  18?  79.68 174.0   37 343 115  77
   2024 06 26 07:50  12 35 01.59    +76 27 20.2   147442 1.0162  68.1  m  18?  79.88 173.1   36 342 116  77
   2024 06 26 08:00  12 35 29.73    +76 14 07.0   147419 1.0162  68.2  m  18?  80.06 172.3   35 342 116  77
   2024 06 26 08:10  12 36 00.67    +76 00 53.7   147393 1.0162  68.2  m  18?  80.21 171.5   35 342 116  77
   2024 06 26 08:20  12 36 34.27    +75 47 40.7   147362 1.0162  68.3  m  18?  80.32 170.7   34 342 116  77
   2024 06 26 08:30  12 37 10.41    +75 34 28.5   147327 1.0162  68.4  m  18?  80.41 169.9   34 342 116  77
   2024 06 26 08:40  12 37 48.96    +75 21 17.6   147287 1.0162  68.4  m  18?  80.47 169.1   33 342 116  77
   2024 06 26 08:50  12 38 29.79    +75 08 08.2   147243 1.0162  68.5  m  18?  80.50 168.3   32 342 116  77
   2024 06 26 09:00  12 39 12.80    +74 55 00.9   147194 1.0162  68.6  m  18?  80.50 167.5   32 342 116  77
   2024 06 26 09:10  12 39 57.85    +74 41 56.0   147140 1.0162  68.7  m  18?  80.47 166.8   31 342 117  77
   2024 06 26 09:20  12 40 44.84    +74 28 53.9   147081 1.0162  68.8  m  18?  80.42 166.0   30 342 117  77
   2024 06 26 09:30  12 41 33.67    +74 15 55.0   147017 1.0162  68.9  m  18?  80.33 165.3   30 343 117  77
   2024 06 26 09:40  12 42 24.21    +74 02 59.6   146948 1.0162  69.0  m  18?  80.22 164.6   29 343 117  77
   2024 06 26 09:50  12 43 16.37    +73 50 08.1   146873 1.0162  69.1  m  18?  80.08 163.8   28 343 117  77
   2024 06 26 10:00  12 44 10.05    +73 37 20.8   146793 1.0162  69.2  m  18?  79.91 163.1   28 343 117  77
   2024 06 26 10:10  12 45 05.14    +73 24 38.1   146707 1.0162  69.3  m  18?  79.72 162.4   27 344 117  77
   2024 06 26 10:20  12 46 01.55    +73 12 00.3   146616 1.0162  69.4  m  18?  79.49 161.7   27 344 117  77
   2024 06 26 10:30  12 46 59.18    +72 59 27.7   146519 1.0162  69.5 Am  18?  79.24 161.1   26 344 117  77
   2024 06 26 10:40  12 47 57.94    +72 47 00.6   146415 1.0162  69.6 Am  18?  78.97 160.4   25 345 117  77
   2024 06 26 10:50  12 48 57.73    +72 34 39.3   146306 1.0162  69.7 Am  18?  78.67 159.7   25 345 118  77
   2024 06 26 11:00  12 49 58.48    +72 22 24.0   146190 1.0162  69.9 Am  18?  78.34 159.1   24 345 118  76
   2024 06 26 11:10  12 51 00.09    +72 10 15.1   146068 1.0162  70.0 Nm  18?  77.98 158.4   24 346 118  76
   2024 06 26 11:20  12 52 02.48    +71 58 12.7   145939 1.0162  70.1 Nm  18?  77.60 157.8   23 346 118  76
   2024 06 26 11:30  12 53 05.56    +71 46 17.1   145803 1.0162  70.2 Nm  18?  77.20 157.2   22 347 118  76
   2024 06 26 11:40  12 54 09.26    +71 34 28.6   145661 1.0162  70.4 Nm  18?  76.76 156.6   22 347 118  76
   2024 06 26 11:50  12 55 13.50    +71 22 47.3   145511 1.0162  70.5 Cm  18?  76.31 156.0   21 348 118  76
   2024 06 26 12:00  12 56 18.18    +71 11 13.5   145355 1.0162  70.6 Cm  18?  75.83 155.4   21 349 118  76
   ................
   2024 06 27 03:10  13 12 39.29    +56 51 45.0    94952 1.0164  76.8 C   17? 128.52 200.3   69 342 126  69
   2024 06 27 03:20  13 11 44.83    +56 31 19.5    94068 1.0164  76.9 C   17? 132.38 199.7   69 338 126  69
   2024 06 27 03:30  13 10 50.90    +56 10 12.4    93178 1.0164  76.9 C   17? 136.32 199.0   68 334 127  69
   2024 06 27 03:40  13 09 57.62    +55 48 22.6    92283 1.0164  76.9 N   17? 140.34 198.4   67 330 127  69
   2024 06 27 03:50  13 09 05.09    +55 25 49.2    91382 1.0164  76.9 N   17? 144.46 197.7   67 326 127  69
   2024 06 27 04:00  13 08 13.42    +55 02 31.1    90476 1.0164  76.9 N   17? 148.66 197.1   66 323 128  69
   2024 06 27 04:10  13 07 22.72    +54 38 27.3    89564 1.0164  77.0 N   17? 152.97 196.4   64 320 128  69
   2024 06 27 04:20  13 06 33.07    +54 13 36.5    88646 1.0164  77.0 A   17? 157.38 195.7   63 318 129  69
   2024 06 27 04:30  13 05 44.59    +53 47 57.6    87721 1.0164  77.1 A   17? 161.90 195.1   62 315 129  69
   2024 06 27 04:40  13 04 57.34    +53 21 29.5    86791 1.0164  77.1 A   17? 166.53 194.4   61 313 129  69
   2024 06 27 04:50  13 04 11.42    +52 54 11.0    85853 1.0164  77.2 A   17? 171.29 193.7   59 312 130  68
   2024 06 27 05:00  13 03 26.92    +52 26 00.6    84909 1.0164  77.3     17? 176.18 193.0   58 310 130  68
   2024 06 27 05:10  13 02 43.89    +51 56 57.2    83958 1.0164  77.3     17? 181.21 192.3   56 309 131  68
   2024 06 27 05:20  13 02 02.42    +51 26 59.1    83000 1.0164  77.4     17? 186.40 191.6   54 308 131  68
   2024 06 27 05:30  13 01 22.57    +50 56 05.0    82034 1.0164  77.5     17? 191.75 191.0   53 306 132  68
   2024 06 27 05:40  13 00 44.40    +50 24 13.2    81060 1.0164  77.6     17? 197.27 190.3   51 306 132  68
   2024 06 27 05:50  13 00 07.96    +49 51 21.9    80078 1.0164  77.7     17? 202.98 189.6   49 305 133  68
   2024 06 27 06:00  12 59 33.30    +49 17 29.4    79088 1.0165  77.8     17? 208.90 189.0   48 304 133  68
   2024 06 27 06:10  12 59 00.46    +48 42 33.5    78088 1.0165  78.0     17? 215.04 188.3   46 304 134  68
   2024 06 27 06:20  12 58 29.49    +48 06 32.1    77079 1.0165  78.1     16? 221.42 187.7   44 303 134  68
   2024 06 27 06:30  12 58 00.41    +47 29 22.8    76060 1.0165  78.2     16? 228.06 187.1   42 303 135  68
   2024 06 27 06:40  12 57 33.26    +46 51 03.1    75031 1.0165  78.4  m  16? 234.99 186.4   40 303 135  68
   2024 06 27 06:50  12 57 08.05    +46 11 30.2    73992 1.0165  78.6  m  16? 242.23 185.8   38 303 136  68
   2024 06 27 07:00  12 56 44.81    +45 30 40.9    72941 1.0165  78.8  m  16? 249.81 185.3   36 302 136  67
   2024 06 27 07:10  12 56 23.55    +44 48 31.8    71878 1.0165  79.0  m  16? 257.77 184.7   34 302 137  67
   2024 06 27 07:20  12 56 04.27    +44 04 59.4    70804 1.0165  79.2  m  16? 266.13 184.1   32 302 137  67
   2024 06 27 07:30  12 55 46.98    +43 19 59.3    69716 1.0165  79.4  m  16? 274.95 183.6   30 303 138  67
   2024 06 27 07:40  12 55 31.68    +42 33 27.1    68615 1.0165  79.7  m  16? 284.26 183.1   28 303 139  67
   2024 06 27 07:50  12 55 18.37    +41 45 17.8    67501 1.0165  79.9  m  16? 294.13 182.6   26 303 139  67
   2024 06 27 08:00  12 55 07.04    +40 55 25.7    66371 1.0165  80.2  m  16? 304.60 182.1   24 303 140  67
   2024 06 27 08:10  12 54 57.67    +40 03 44.6    65226 1.0165  80.5  m  16? 315.75 181.6   22 303 141  67
   2024 06 27 08:20  12 54 50.24    +39 10 07.5    64065 1.0165  80.8  m  16? 327.65 181.2   20 304 141  67
   2024 06 27 08:30  12 54 44.73    +38 14 26.8    62887 1.0165  81.2  m  16? 340.39 180.8   18 304 142  67
   2024 06 27 08:40  12 54 41.13    +37 16 33.5    61692 1.0165  81.5  m  16? 354.07 180.4   16 304 143  67
   2024 06 27 08:50  12 54 39.39    +36 16 18.0    60478 1.0165  81.9  m  16? 368.80 180.1   13 305 143  67
   2024 06 27 09:00  12 54 39.49    +35 13 29.1    59245 1.0165  82.3  m  16? 384.72 179.7   11 305 144  67
   2024 06 27 09:10  12 54 41.39    +34 07 54.3    57992 1.0165  82.7  m  16? 401.99 179.4    9 306 145  67
   2024 06 27 09:20  12 54 45.03    +32 59 19.5    56718 1.0165  83.2  m  16? 420.78 179.1    7 306 145  67
   2024 06 27 09:30  12 54 50.39    +31 47 28.4    55422 1.0165  83.7  m  16? 441.31 178.9    4 307 146  67
   2024 06 27 09:40  12 54 57.39    +30 32 02.6    54103 1.0165  84.2  m  16? 463.81 178.7    2 307 147  66
   2024 06 27 09:50  12 55 05.99    +29 12 40.9    52760 1.0165  84.8  m  16? 488.60 178.5    0 308 148  66
   ................
   2024 06 28 03:10  01 51 18.32    +81 00 57.2   113191 1.0162  63.8 C   18? 105.36  29.6   28   0  85  58
   2024 06 28 03:20  01 55 02.67    +81 16 14.7   113863 1.0162  63.7 C   18? 105.50  30.1   29   0  85  58
   2024 06 28 03:30  01 58 57.10    +81 31 29.3   114525 1.0162  63.7 C   18? 105.63  30.6   29   0  85  58
   2024 06 28 03:40  02 03 02.30    +81 46 40.5   115179 1.0162  63.6 N   18? 105.74  31.1   29   1  86  58
   2024 06 28 03:50  02 07 19.06    +82 01 47.9   115824 1.0162  63.6 N   18? 105.83  31.6   29   1  86  58
   2024 06 28 04:00  02 11 48.24    +82 16 51.1   116460 1.0162  63.5 N   18? 105.90  32.2   30   1  86  58
   2024 06 28 04:10  02 16 30.82    +82 31 49.4   117089 1.0162  63.5 N   18? 105.95  32.8   30   1  86  58
   2024 06 28 04:20  02 21 27.89    +82 46 42.1   117709 1.0162  63.4 A   18? 105.99  33.5   30   1  87  58
   2024 06 28 04:30  02 26 40.69    +83 01 28.6   118321 1.0162  63.4 A   18? 105.99  34.2   31   1  87  58
   2024 06 28 04:40  02 32 10.58    +83 16 08.0   118926 1.0162  63.4 A   18? 105.98  34.9   31   1  87  58
   2024 06 28 04:50  02 37 59.12    +83 30 39.4   119523 1.0162  63.3 A   18? 105.94  35.8   31   1  87  57
   2024 06 28 05:00  02 44 08.04    +83 45 01.7   120112 1.0162  63.3     18? 105.88  36.7   31   1  88  57
   2024 06 28 05:10  02 50 39.28    +83 59 13.8   120694 1.0162  63.3     18? 105.80  37.7   32   2  88  57
   2024 06 28 05:20  02 57 35.03    +84 13 14.3   121269 1.0162  63.3     18? 105.68  38.7   32   2  88  57
   2024 06 28 05:30  03 04 57.73    +84 27 01.7   121837 1.0162  63.3     18? 105.55  39.9   32   2  88  57
   2024 06 28 05:40  03 12 50.08    +84 40 34.4   122398 1.0162  63.3     18? 105.38  41.2   32   1  89  57
   2024 06 28 05:50  03 21 15.10    +84 53 50.5   122952 1.0162  63.3     18? 105.19  42.7   32   1  89  57
   2024 06 28 06:00  03 30 16.09    +85 06 47.6   123500 1.0162  63.3     18? 104.98  44.3   33   1  89  57
   2024 06 28 06:10  03 39 56.68    +85 19 23.5   124041 1.0162  63.3     18? 104.73  46.0   33   1  89  57
   2024 06 28 06:20  03 50 20.72    +85 31 35.3   124576 1.0162  63.3     18? 104.46  47.9   33   1  90  57
   2024 06 28 06:30  04 01 32.33    +85 43 19.9   125104 1.0162  63.3     18? 104.16  50.0   33   1  90  57
   2024 06 28 06:40  04 13 35.68    +85 54 33.6   125626 1.0162  63.3     18? 103.84  52.4   33   1  90  56
   2024 06 28 06:50  04 26 34.88    +86 05 12.6   126142 1.0162  63.3     18? 103.48  54.9   34   1  90  56
   2024 06 28 07:00  04 40 33.73    +86 15 12.3   126652 1.0162  63.4     18? 103.10  57.7   34   1  90  56
   2024 06 28 07:10  04 55 35.30    +86 24 28.1   127156 1.0162  63.4  m  18? 102.69  60.8   34   1  91  56
   2024 06 28 07:20  05 11 41.51    +86 32 54.7   127654 1.0162  63.4  m  18? 102.25  64.1   34   0  91  56
   2024 06 28 07:30  05 28 52.57    +86 40 26.7   128147 1.0162  63.5  m  18? 101.78  67.7   34   0  91  56
   2024 06 28 07:40  05 47 06.34    +86 46 58.8   128633 1.0162  63.5  m  18? 101.29  71.5   34   0  91  56
   2024 06 28 07:50  06 06 17.80    +86 52 25.8   129114 1.0162  63.6  m  18? 100.76  75.5   34   0  92  56
   2024 06 28 08:00  06 26 18.67    +86 56 43.0   129589 1.0162  63.6  m  18? 100.21  79.7   34   0  92  56
   2024 06 28 08:10  06 46 57.42    +86 59 46.9   130059 1.0162  63.7  m  18?  99.64  84.0   34   0  92  56
   2024 06 28 08:20  07 07 59.66    +87 01 35.0   130523 1.0162  63.8  t  18?  99.03  88.3   34 359  92  56
   2024 06 28 08:30  07 29 09.12    +87 02 06.6   130981 1.0162  63.8  e  18?  98.40  92.7   34 359  92  56
   2024 06 28 08:40  07 50 08.92    +87 01 22.7   131434 1.0162  63.9  m  18?  97.74  97.0   34 359  93  56
   2024 06 28 08:50  08 10 42.98    +86 59 25.7   131882 1.0162  64.0  m  18?  97.05 101.1   34 359  93  56
   2024 06 28 09:00  08 30 37.29    +86 56 19.8   132324 1.0162  64.1  m  18?  96.34 105.0   34 359  93  55
   2024 06 28 09:10  08 49 40.78    +86 52 10.2   132761 1.0162  64.1  m  18?  95.60 108.7   34 359  93  55
   2024 06 28 09:20  09 07 45.66    +86 47 02.6   133192 1.0162  64.2  m  18?  94.83 112.2   34 358  93  55
   2024 06 28 09:30  09 24 47.37    +86 41 03.5   133618 1.0162  64.3  m  18?  94.04 115.4   34 358  94  55
   2024 06 28 09:40  09 40 44.15    +86 34 19.0   134038 1.0162  64.4  m  18?  93.23 118.3   34 358  94  55
   2024 06 28 09:50  09 55 36.49    +86 26 55.4   134453 1.0162  64.5  m  18?  92.38 121.0   34 358  94  55
   2024 06 28 10:00  10 09 26.51    +86 18 58.2   134862 1.0162  64.6  m  18?  91.52 123.5   34 358  94  55
   2024 06 28 10:10  10 22 17.44    +86 10 32.7   135266 1.0162  64.7  m  18?  90.63 125.7   34 358  94  55
   2024 06 28 10:20  10 34 13.11    +86 01 43.7   135664 1.0162  64.8  m  18?  89.71 127.6   33 358  94  55
   2024 06 28 10:30  10 45 17.66    +85 52 35.3   136057 1.0162  64.9 Am  18?  88.78 129.4   33 358  95  55
   2024 06 28 10:40  10 55 35.29    +85 43 11.2   136444 1.0162  65.0 Am  18?  87.82 131.0   33 358  95  55
   2024 06 28 10:50  11 05 10.04    +85 33 34.8   136826 1.0162  65.2 Am  18?  86.84 132.5   33 358  95  55
   2024 06 28 11:00  11 14 05.76    +85 23 49.0   137202 1.0162  65.3 Am  18?  85.83 133.7   33 357  95  55
   2024 06 28 11:10  11 22 26.01    +85 13 56.1   137572 1.0162  65.4 Nm  18?  84.81 134.9   33 357  95  55
   2024 06 28 11:20  11 30 14.06    +85 03 58.5   137937 1.0162  65.5 Nm  18?  83.76 135.9   32 357  95  55
   2024 06 28 11:30  11 37 32.87    +84 53 58.1   138296 1.0162  65.6 Nm  18?  82.69 136.8   32 357  96  55
   2024 06 28 11:40  11 44 25.10    +84 43 56.5   138649 1.0162  65.8 Nm  18?  81.60 137.6   32 358  96  54
   2024 06 28 11:50  11 50 53.16    +84 33 55.3   138996 1.0162  65.9 Cm  18?  80.50 138.3   32 358  96  54
   2024 06 28 12:00  11 56 59.19    +84 23 55.7   139337 1.0162  66.0 Cm  18?  79.37 139.0   32 358  96  54
   ................
   2024 06 29 03:10  13 03 12.70    +75 17 34.1   143484 1.0163  69.4 C   18?  65.67 204.1   51 353 101  47
   2024 06 29 03:20  13 02 03.09    +75 07 28.1   143299 1.0163  69.4 C   18?  66.84 203.0   51 352 101  47
   2024 06 29 03:30  13 00 55.93    +74 57 06.6   143112 1.0163  69.4 C   18?  67.99 202.0   51 351 101  47
   2024 06 29 03:40  12 59 51.35    +74 46 29.9   142923 1.0163  69.3 N   18?  69.12 201.0   51 350 101  47
   2024 06 29 03:50  12 58 49.45    +74 35 38.2   142730 1.0163  69.3 N   18?  70.23 199.9   51 348 101  47
   2024 06 29 04:00  12 57 50.31    +74 24 31.9   142535 1.0163  69.3 N   18?  71.31 198.9   50 347 101  47
   2024 06 29 04:10  12 56 54.03    +74 13 11.2   142338 1.0163  69.3 N   18?  72.37 197.8   50 346 102  46
   2024 06 29 04:20  12 56 00.67    +74 01 36.4   142137 1.0163  69.2 A   18?  73.41 196.8   50 345 102  46
   2024 06 29 04:30  12 55 10.29    +73 49 48.0   141934 1.0163  69.2 A   18?  74.42 195.8   49 344 102  46
   2024 06 29 04:40  12 54 22.93    +73 37 46.2   141728 1.0163  69.2 A   18?  75.41 194.7   49 343 102  46
   2024 06 29 04:50  12 53 38.65    +73 25 31.6   141520 1.0163  69.2 A   18?  76.37 193.7   48 342 102  46
   2024 06 29 05:00  12 52 57.46    +73 13 04.4   141309 1.0163  69.2     18?  77.31 192.7   48 341 102  46
   2024 06 29 05:10  12 52 19.38    +73 00 25.1   141095 1.0163  69.2     18?  78.22 191.7   47 340 103  46
   2024 06 29 05:20  12 51 44.43    +72 47 34.2   140878 1.0163  69.2     18?  79.10 190.6   47 340 103  46
   2024 06 29 05:30  12 51 12.60    +72 34 32.1   140658 1.0163  69.2     18?  79.96 189.6   46 339 103  46
   2024 06 29 05:40  12 50 43.90    +72 21 19.3   140435 1.0163  69.2     18?  80.80 188.6   45 338 103  46
   2024 06 29 05:50  12 50 18.31    +72 07 56.2   140209 1.0163  69.2     18?  81.60 187.6   45 338 103  45
   2024 06 29 06:00  12 49 55.80    +71 54 23.4   139980 1.0163  69.2     18?  82.38 186.7   44 337 103  45
   2024 06 29 06:10  12 49 36.35    +71 40 41.3   139747 1.0163  69.2     18?  83.14 185.7   43 336 104  45
   2024 06 29 06:20  12 49 19.94    +71 26 50.4   139512 1.0163  69.3     18?  83.86 184.7   42 336 104  45
   2024 06 29 06:30  12 49 06.51    +71 12 51.2   139272 1.0163  69.3     18?  84.56 183.8   42 335 104  45
   2024 06 29 06:40  12 48 56.04    +70 58 44.2   139030 1.0163  69.3     18?  85.23 182.8   41 335 104  45
   2024 06 29 06:50  12 48 48.47    +70 44 29.9   138783 1.0163  69.4     18?  85.88 181.9   40 335 104  45
   2024 06 29 07:00  12 48 43.75    +70 30 08.8   138533 1.0163  69.4     18?  86.49 181.0   39 334 105  45
   2024 06 29 07:10  12 48 41.83    +70 15 41.4   138279 1.0163  69.4     18?  87.09 180.0   38 334 105  45
   2024 06 29 07:20  12 48 42.65    +70 01 08.2   138021 1.0163  69.5     18?  87.65 179.1   37 334 105  45
   2024 06 29 07:30  12 48 46.15    +69 46 29.6   137758 1.0163  69.5  m  18?  88.19 178.2   36 334 105  45
   2024 06 29 07:40  12 48 52.27    +69 31 46.2   137492 1.0163  69.6  m  18?  88.70 177.4   36 334 105  45
   2024 06 29 07:50  12 49 00.94    +69 16 58.5   137220 1.0163  69.7  m  18?  89.18 176.5   35 334 105  44
   2024 06 29 08:00  12 49 12.10    +69 02 06.8   136944 1.0163  69.7  m  18?  89.64 175.6   34 334 106  44
   2024 06 29 08:10  12 49 25.67    +68 47 11.6   136664 1.0163  69.8  m  18?  90.07 174.8   33 334 106  44
   2024 06 29 08:20  12 49 41.58    +68 32 13.5   136378 1.0163  69.9  m  18?  90.48 173.9   32 334 106  44
   2024 06 29 08:30  12 49 59.77    +68 17 12.9   136087 1.0163  69.9  m  18?  90.86 173.1   31 334 106  44
   2024 06 29 08:40  12 50 20.17    +68 02 10.1   135791 1.0163  70.0  m  18?  91.21 172.3   30 334 106  44
   2024 06 29 08:50  12 50 42.69    +67 47 05.7   135489 1.0163  70.1  m  18?  91.54 171.5   29 334 107  44
   2024 06 29 09:00  12 51 07.27    +67 32 00.0   135181 1.0163  70.2  m  18?  91.84 170.7   28 335 107  44
   2024 06 29 09:10  12 51 33.83    +67 16 53.4   134868 1.0163  70.3  m  18?  92.12 169.9   27 335 107  44
   2024 06 29 09:20  12 52 02.30    +67 01 46.4   134548 1.0163  70.4  m  18?  92.37 169.1   26 335 107  44
   2024 06 29 09:30  12 52 32.60    +66 46 39.3   134222 1.0163  70.5  m  18?  92.60 168.4   25 336 108  44
   2024 06 29 09:40  12 53 04.66    +66 31 32.4   133890 1.0163  70.6  m  18?  92.81 167.6   25 336 108  44
   2024 06 29 09:50  12 53 38.40    +66 16 26.2   133550 1.0163  70.7  m  18?  92.99 166.9   24 336 108  44
   2024 06 29 10:00  12 54 13.76    +66 01 21.0   133204 1.0164  70.9  m  18?  93.15 166.2   23 337 108  43
   2024 06 29 10:10  12 54 50.65    +65 46 17.0   132851 1.0164  71.0  m  18?  93.28 165.5   22 337 108  43
   2024 06 29 10:20  12 55 29.01    +65 31 14.7   132490 1.0164  71.1  m  18?  93.40 164.8   21 338 109  43
   2024 06 29 10:30  12 56 08.75    +65 16 14.2   132122 1.0164  71.2 Am  18?  93.49 164.1   20 339 109  43
   2024 06 29 10:40  12 56 49.81    +65 01 16.0   131746 1.0164  71.4 Am  18?  93.55 163.5   19 339 109  43
   2024 06 29 10:50  12 57 32.12    +64 46 20.2   131362 1.0164  71.5 Am  18?  93.60 162.8   19 340 109  43
   2024 06 29 11:00  12 58 15.60    +64 31 27.1   130970 1.0164  71.6 Am  18?  93.62 162.2   18 341 109  43
   2024 06 29 11:10  12 59 00.19    +64 16 36.9   130570 1.0164  71.8 Nm  18?  93.63 161.6   17 341 110  43
   2024 06 29 11:20  12 59 45.80    +64 01 50.0   130161 1.0164  71.9 Nm  18?  93.61 161.0   16 342 110  43
   2024 06 29 11:30  13 00 32.38    +63 47 06.3   129743 1.0164  72.1 Nm  18?  93.57 160.4   15 343 110  43
   2024 06 29 11:40  13 01 19.85    +63 32 26.3   129316 1.0164  72.2 Nm  18?  93.51 159.8   15 344 110  43
   2024 06 29 11:50  13 02 08.14    +63 17 49.9   128879 1.0164  72.4 Cm  18?  93.44 159.3   14 344 110  43
   2024 06 29 12:00  13 02 57.19    +63 03 17.4   128434 1.0164  72.5 Cm  18?  93.34 158.8   13 345 111  43
   ................
   2024 06 30 03:10  13 11 09.74    +16 12 42.0    31176 1.0167  91.2 C   14? 1073.5 188.6   64 214 153  36
   2024 06 30 03:20  13 09 11.90    +13 04 05.7    29351 1.0167  92.0 C   14? 1218.7 188.4   60 216 156  36
   2024 06 30 03:30  13 07 00.81    +09 28 57.4    27520 1.0167  93.0 C   14? 1396.0 188.4   56 218 159  36
   2024 06 30 03:40  13 04 32.30    +05 21 15.1    25694 1.0167  94.1 N   14? 1615.0 188.4   51 219 163  36
   2024 06 30 03:50  13 01 40.00    +00 33 10.5    23884 1.0167  95.4 N   14? 1888.1 188.5   45 219 167  36
   2024 06 30 04:00  12 58 13.90    -05 05 20.6    22111 1.0167  96.8 N   14? 2231.1 188.7   38 219 170  35
   2024 06 30 04:10  12 53 57.27    -11 47 05.0    20405 1.0167  98.4 N   14? 2662.3 189.1   31 219 170  35
   2024 06 30 04:20  12 48 20.07    -19 47 33.8    18812 1.0167 100.0 A   13? 3199.3 189.9   22 218 165  35
   2024 06 30 04:30  12 40 22.84    -29 23 42.9    17393 1.0167 101.7 A   13? 3848.2 191.3   12 216 157  35
   2024 06 30 04:40  12 27 50.69    -40 49 11.4    16237 1.0167 103.2 A   13? 4583.6 193.9    0 213 146  35
   ................
   2024 06 30 07:20  02 02 31.64    +31 40 30.3    33190 1.0166  60.6  r  15? 1211.9   0.7    1  49  21  34
   2024 06 30 07:30  02 02 42.90    +34 52 22.7    34840 1.0166  60.1     15? 1092.6   0.9    5  49  24  33
   2024 06 30 07:40  02 02 56.61    +37 45 54.3    36474 1.0166  59.6     15? 991.40   1.1    8  48  27  33
   2024 06 30 07:50  02 03 11.77    +40 23 48.4    38091 1.0165  59.3     15? 904.82   1.2   11  47  29  33
   2024 06 30 08:00  02 03 27.63    +42 48 17.7    39689 1.0165  59.1  m  16? 830.19   1.3   14  46  31  33
   2024 06 30 08:10  02 03 43.59    +45 01 10.6    41267 1.0165  58.9  m  16? 765.36   1.4   17  45  34  33
   2024 06 30 08:20  02 03 59.13    +47 03 56.9    42825 1.0165  58.8  m  16? 708.68   1.4   20  45  36  33
   2024 06 30 08:30  02 04 13.84    +48 57 51.1    44363 1.0165  58.7  m  16? 658.77   1.3   22  44  37  33
   2024 06 30 08:40  02 04 27.36    +50 43 55.4    45881 1.0165  58.7  m  16? 614.57   1.2   24  43  39  33
   2024 06 30 08:50  02 04 39.36    +52 23 02.4    47379 1.0165  58.7  m  16? 575.19   1.1   26  42  41  33
   2024 06 30 09:00  02 04 49.57    +53 55 56.8    48857 1.0165  58.8  m  16? 539.92   1.0   28  42  42  33
   2024 06 30 09:10  02 04 57.70    +55 23 16.5    50315 1.0165  58.8  m  16? 508.16   0.8   30  41  44  33
   2024 06 30 09:20  02 05 03.53    +56 45 34.2    51755 1.0165  58.9  m  16? 479.44   0.6   32  40  45  33
   2024 06 30 09:30  02 05 06.83    +58 03 18.0    53176 1.0165  59.0  m  16? 453.34   0.3   34  39  46  33
   2024 06 30 09:40  02 05 07.37    +59 16 52.5    54579 1.0165  59.2  m  16? 429.52   0.0   35  38  47  32
   2024 06 30 09:50  02 05 04.95    +60 26 38.8    55964 1.0165  59.3  m  16? 407.70 359.7   37  37  48  32
   2024 06 30 10:00  02 04 59.37    +61 32 55.5    57332 1.0165  59.4  m  16? 387.64 359.3   38  36  49  32
   2024 06 30 10:10  02 04 50.43    +62 35 59.1    58684 1.0165  59.6  m  16? 369.12 359.0   40  35  50  32
   2024 06 30 10:20  02 04 37.93    +63 36 03.9    60019 1.0165  59.8  m  16? 351.97 358.6   41  33  51  32
   2024 06 30 10:30  02 04 21.70    +64 33 22.7    61338 1.0165  60.0 Am  16? 336.05 358.1   42  32  52  32
   2024 06 30 10:40  02 04 01.53    +65 28 06.8    62641 1.0165  60.1 Am  17? 321.21 357.7   43  31  53  32
   2024 06 30 10:50  02 03 37.26    +66 20 26.4    63929 1.0165  60.3 Am  17? 307.34 357.2   44  30  54  32
   2024 06 30 11:00  02 03 08.69    +67 10 30.4    65203 1.0165  60.5 Am  17? 294.36 356.6   45  28  55  32
   2024 06 30 11:10  02 02 35.65    +67 58 27.1    66462 1.0165  60.7 Nm  17? 282.16 356.1   46  27  55  32
   2024 06 30 11:20  02 01 57.97    +68 44 23.7    67706 1.0164  60.9 Nm  17? 270.67 355.5   47  25  56  32
   2024 06 30 11:30  02 01 15.48    +69 28 26.8    68937 1.0164  61.1 Nm  17? 259.84 354.9   47  24  57  32
   2024 06 30 11:40  02 00 28.00    +70 10 42.4    70155 1.0164  61.3 Nm  17? 249.59 354.3   48  22  57  32
   2024 06 30 11:50  01 59 35.37    +70 51 15.8    71359 1.0164  61.5 Cm  17? 239.88 353.6   48  21  58  32
   2024 06 30 12:00  01 58 37.45    +71 30 12.1    72550 1.0164  61.7 Cm  17? 230.67 353.0   49  19  59  32
   ................
   

Spektr-R Observatory (JPL-ID: -557)

   Date (UTC) HH:MM   RA              Dec         delta   r     elong SM  mag  '/hr    PA   alt  az moo ill
   ---- -- -- -----  -------------   -----------  ------ ------ ----- --  --- ------ ------ --- --- --- ---
   2024 06 19 03:10  09 25 54.67    +39 28 37.7   362853 1.0145  47.7 Cm  17?   8.46 129.6   44 291 102  90
   2024 06 19 03:20  09 26 00.44    +39 27 43.5   363064 1.0145  47.7 Cm  17?   8.93 128.5   42 292 102  90
   2024 06 19 03:30  09 26 06.62    +39 26 47.7   363276 1.0145  47.7 Cm  17?   9.40 127.3   40 293 102  91
   2024 06 19 03:40  09 26 13.21    +39 25 50.5   363491 1.0145  47.7 Nm  17?   9.87 126.3   38 294 102  91
   2024 06 19 03:50  09 26 20.24    +39 24 51.9   363708 1.0145  47.7 Nm  17?  10.35 125.2   36 294 102  91
   2024 06 19 04:00  09 26 27.69    +39 23 52.2   363927 1.0145  47.8 Nm  17?  10.83 124.1   35 295 102  91
   2024 06 19 04:10  09 26 35.58    +39 22 51.5   364147 1.0145  47.8 Nm  17?  11.31 123.0   33 296 102  91
   2024 06 19 04:20  09 26 43.91    +39 21 50.0   364368 1.0145  47.8 Am  17?  11.79 122.0   31 297 102  91
   2024 06 19 04:30  09 26 52.69    +39 20 47.7   364589 1.0145  47.8 Am  17?  12.27 121.0   29 298 102  91
   2024 06 19 04:40  09 27 01.92    +39 19 44.8   364812 1.0145  47.8 Am  17?  12.75 120.0   28 299 103  91
   2024 06 19 04:50  09 27 11.60    +39 18 41.4   365034 1.0145  47.9 Am  17?  13.22 119.0   26 300 103  91
   2024 06 19 05:00  09 27 21.73    +39 17 37.8   365256 1.0145  47.9  m  17?  13.70 118.0   24 301 103  91
   2024 06 19 05:10  09 27 32.31    +39 16 34.0   365477 1.0145  47.9  m  17?  14.17 117.0   23 302 103  91
   2024 06 19 05:20  09 27 43.34    +39 15 30.2   365698 1.0145  48.0  m  17?  14.64 116.1   21 303 103  91
   2024 06 19 05:30  09 27 54.82    +39 14 26.6   365917 1.0145  48.0  m  17?  15.11 115.1   19 304 103  91
   2024 06 19 05:40  09 28 06.75    +39 13 23.2   366135 1.0145  48.0  m  17?  15.57 114.2   18 305 103  91
   2024 06 19 05:50  09 28 19.12    +39 12 20.2   366351 1.0145  48.1  m  17?  16.02 113.3   16 306 103  91
   2024 06 19 06:00  09 28 31.94    +39 11 17.7   366566 1.0145  48.1  m  17?  16.47 112.4   15 308 103  91
   2024 06 19 06:10  09 28 45.19    +39 10 16.0   366777 1.0145  48.1  m  17?  16.92 111.5   13 309 103  91
   2024 06 19 06:20  09 28 58.88    +39 09 15.1   366987 1.0145  48.2  m  17?  17.35 110.6   12 310 103  91
   2024 06 19 06:30  09 29 12.98    +39 08 15.1   367193 1.0145  48.2  m  17?  17.78 109.7   10 311 103  91
   2024 06 19 06:40  09 29 27.51    +39 07 16.2   367396 1.0145  48.2  m  17?  18.20 108.9    9 312 103  91
   2024 06 19 06:50  09 29 42.45    +39 06 18.5   367595 1.0145  48.3  m  17?  18.62 108.0    7 314 103  91
   2024 06 19 07:00  09 29 57.79    +39 05 22.2   367791 1.0145  48.3  m  17?  19.02 107.2    6 315 103  91
   2024 06 19 07:10  09 30 13.52    +39 04 27.3   367982 1.0145  48.4  m  17?  19.42 106.4    5 316 103  91
   2024 06 19 07:20  09 30 29.64    +39 03 33.9   368169 1.0145  48.4  m  17?  19.80 105.6    3 318 103  91
   2024 06 19 07:30  09 30 46.13    +39 02 42.3   368351 1.0145  48.5  m  17?  20.17 104.8    2 319 103  91
   2024 06 19 07:40  09 31 02.98    +39 01 52.5   368529 1.0145  48.5  m  17?  20.53 104.0    1 321 103  91
   2024 06 19 07:50  09 31 20.19    +39 01 04.5   368701 1.0145  48.6  m  17?  20.88 103.2    0 322 103  91
   ................
   2024 06 20 03:10  09 52 08.05    +39 54 33.9   362077 1.0147  51.9 Cm  17?   8.10 137.7   48 290 110  95
   2024 06 20 03:20  09 52 12.86    +39 53 33.6   362144 1.0147  51.9 Cm  17?   8.55 136.4   46 291 110  95
   2024 06 20 03:30  09 52 18.06    +39 52 31.4   362215 1.0147  52.0 Cm  17?   9.01 135.0   44 291 110  95
   2024 06 20 03:40  09 52 23.68    +39 51 27.5   362288 1.0147  52.0 Nm  17?   9.47 133.7   42 292 110  95
   2024 06 20 03:50  09 52 29.70    +39 50 21.8   362363 1.0147  52.0 Nm  17?   9.93 132.5   41 293 110  95
   2024 06 20 04:00  09 52 36.15    +39 49 14.7   362441 1.0147  52.0 Nm  17?  10.40 131.2   39 294 110  95
   2024 06 20 04:10  09 52 43.04    +39 48 06.1   362521 1.0147  52.0 Nm  17?  10.87 130.0   37 295 110  96
   2024 06 20 04:20  09 52 50.36    +39 46 56.3   362603 1.0147  52.0 Am  17?  11.34 128.8   35 295 110  96
   2024 06 20 04:30  09 52 58.13    +39 45 45.4   362685 1.0147  52.1 Am  17?  11.81 127.6   33 296 110  96
   2024 06 20 04:40  09 53 06.34    +39 44 33.6   362769 1.0147  52.1 Am  17?  12.28 126.4   32 297 110  96
   2024 06 20 04:50  09 53 15.01    +39 43 20.9   362854 1.0147  52.1 Am  17?  12.75 125.3   30 298 110  96
   2024 06 20 05:00  09 53 24.14    +39 42 07.6   362939 1.0147  52.1  m  17?  13.23 124.2   28 299 110  96
   2024 06 20 05:10  09 53 33.73    +39 40 53.7   363025 1.0147  52.1  m  17?  13.70 123.1   27 300 110  96
   2024 06 20 05:20  09 53 43.78    +39 39 39.4   363110 1.0147  52.2  m  17?  14.17 122.0   25 301 110  96
   2024 06 20 05:30  09 53 54.30    +39 38 25.0   363195 1.0147  52.2  m  17?  14.64 120.9   23 302 110  96
   2024 06 20 05:40  09 54 05.28    +39 37 10.4   363279 1.0147  52.2  m  17?  15.11 119.9   22 303 110  96
   2024 06 20 05:50  09 54 16.72    +39 35 55.9   363362 1.0147  52.3  m  17?  15.57 118.9   20 304 110  96
   2024 06 20 06:00  09 54 28.62    +39 34 41.5   363444 1.0147  52.3  m  17?  16.03 117.8   18 305 110  96
   2024 06 20 06:10  09 54 40.98    +39 33 27.6   363524 1.0147  52.3  m  17?  16.48 116.9   17 306 110  96
   2024 06 20 06:20  09 54 53.80    +39 32 14.1   363602 1.0147  52.4  m  17?  16.93 115.9   15 308 110  96
   2024 06 20 06:30  09 55 07.07    +39 31 01.2   363678 1.0147  52.4  m  17?  17.38 114.9   14 309 110  96
   2024 06 20 06:40  09 55 20.78    +39 29 49.1   363751 1.0147  52.4  m  17?  17.82 114.0   12 310 110  96
   2024 06 20 06:50  09 55 34.94    +39 28 37.8   363821 1.0147  52.5  m  17?  18.25 113.1   11 311 110  96
   2024 06 20 07:00  09 55 49.53    +39 27 27.6   363888 1.0147  52.5  m  17?  18.67 112.1    9 312 110  96
   2024 06 20 07:10  09 56 04.55    +39 26 18.6   363952 1.0147  52.6  m  17?  19.09 111.2    8 314 110  96
   2024 06 20 07:20  09 56 19.99    +39 25 10.8   364011 1.0147  52.6  m  17?  19.50 110.4    6 315 110  96
   2024 06 20 07:30  09 56 35.84    +39 24 04.5   364067 1.0147  52.7  m  17?  19.90 109.5    5 316 110  96
   2024 06 20 07:40  09 56 52.09    +39 22 59.7   364119 1.0147  52.7  m  17?  20.29 108.6    4 318 110  96
   2024 06 20 07:50  09 57 08.74    +39 21 56.5   364166 1.0147  52.8  m  17?  20.67 107.8    2 319 110  96
   2024 06 20 08:00  09 57 25.76    +39 20 55.1   364208 1.0147  52.8  m  17?  21.03 106.9    1 320 110  96
   2024 06 20 08:10  09 57 43.16    +39 19 55.6   364245 1.0147  52.9  m  17?  21.39 106.1    0 322 110  96
   ................
   2024 06 21 03:10  10 19 36.62    +39 58 05.8   341732 1.0150  56.4 Cm  16?   8.69 142.2   52 288 117  98
   2024 06 21 03:20  10 19 41.22    +39 56 56.8   341648 1.0150  56.4 Cm  16?   9.16 141.0   50 289 117  98
   2024 06 21 03:30  10 19 46.22    +39 55 45.4   341568 1.0150  56.4 Cm  16?   9.63 139.7   48 290 117  98
   2024 06 21 03:40  10 19 51.62    +39 54 31.7   341491 1.0150  56.4 Nm  16?  10.11 138.5   47 290 117  98
   2024 06 21 03:50  10 19 57.44    +39 53 15.8   341417 1.0150  56.5 Nm  16?  10.60 137.2   45 291 117  98
   2024 06 21 04:00  10 20 03.69    +39 51 57.9   341345 1.0150  56.5 Nm  16?  11.08 136.0   43 292 117  98
   2024 06 21 04:10  10 20 10.37    +39 50 38.2   341277 1.0150  56.5 Nm  16?  11.58 134.8   41 293 117  98
   2024 06 21 04:20  10 20 17.51    +39 49 16.7   341210 1.0150  56.5 Am  16?  12.07 133.6   39 293 117  98
   2024 06 21 04:30  10 20 25.11    +39 47 53.7   341146 1.0150  56.5 Am  16?  12.57 132.4   38 294 117  98
   2024 06 21 04:40  10 20 33.18    +39 46 29.1   341083 1.0150  56.5 Am  16?  13.07 131.2   36 295 117  98
   2024 06 21 04:50  10 20 41.73    +39 45 03.3   341022 1.0150  56.6 Am  16?  13.57 130.1   34 296 117  99
   2024 06 21 05:00  10 20 50.75    +39 43 36.3   340961 1.0150  56.6  m  16?  14.07 128.9   32 297 117  99
   2024 06 21 05:10  10 21 00.26    +39 42 08.4   340902 1.0150  56.6  m  16?  14.58 127.8   31 298 117  99
   2024 06 21 05:20  10 21 10.27    +39 40 39.5   340843 1.0150  56.6  m  16?  15.08 126.7   29 299 117  99
   2024 06 21 05:30  10 21 20.76    +39 39 10.0   340784 1.0150  56.7  m  16?  15.59 125.6   27 300 117  99
   2024 06 21 05:40  10 21 31.76    +39 37 40.0   340725 1.0150  56.7  m  16?  16.09 124.6   25 301 117  99
   2024 06 21 05:50  10 21 43.26    +39 36 09.5   340666 1.0150  56.7  m  16?  16.59 123.5   24 302 117  99
   2024 06 21 06:00  10 21 55.26    +39 34 38.8   340606 1.0150  56.8  m  16?  17.09 122.5   22 303 117  99
   2024 06 21 06:10  10 22 07.75    +39 33 08.0   340545 1.0150  56.8  m  16?  17.59 121.4   21 304 117  99
   2024 06 21 06:20  10 22 20.75    +39 31 37.3   340482 1.0150  56.9  m  16?  18.08 120.4   19 305 117  99
   2024 06 21 06:30  10 22 34.25    +39 30 06.9   340418 1.0150  56.9  m  16?  18.57 119.5   17 306 117  99
   2024 06 21 06:40  10 22 48.25    +39 28 36.7   340352 1.0150  56.9  m  16?  19.06 118.5   16 307 117  99
   2024 06 21 06:50  10 23 02.73    +39 27 07.1   340284 1.0150  57.0  m  16?  19.54 117.5   14 308 117  99
   2024 06 21 07:00  10 23 17.71    +39 25 38.2   340213 1.0150  57.0  m  16?  20.01 116.6   13 309 117  99
   2024 06 21 07:10  10 23 33.16    +39 24 10.1   340139 1.0150  57.1  m  16?  20.48 115.7   11 311 117  99
   2024 06 21 07:20  10 23 49.10    +39 22 42.9   340063 1.0150  57.1  m  16?  20.94 114.7   10 312 117  99
   2024 06 21 07:30  10 24 05.51    +39 21 16.8   339982 1.0150  57.2  m  16?  21.40 113.9    8 313 117  99
   2024 06 21 07:40  10 24 22.38    +39 19 52.0   339898 1.0150  57.2  m  16?  21.84 113.0    7 314 117  99
   2024 06 21 07:50  10 24 39.70    +39 18 28.5   339810 1.0150  57.3  m  16?  22.28 112.1    6 316 117  99
   2024 06 21 08:00  10 24 57.47    +39 17 06.5   339718 1.0150  57.3  m  16?  22.70 111.2    4 317 117  99
   2024 06 21 08:10  10 25 15.68    +39 15 46.1   339621 1.0150  57.4  m  16?  23.12 110.4    3 318 117  99
   2024 06 21 08:20  10 25 34.31    +39 14 27.5   339519 1.0150  57.4  m  16?  23.52 109.6    2 320 117  99
   2024 06 21 08:30  10 25 53.36    +39 13 10.7   339412 1.0150  57.5  m  16?  23.92 108.7    0 321 117  99
   2024 06 21 08:40  10 26 12.81    +39 11 56.0   339300 1.0150  57.5  m  16?  24.30 107.9    0 323 117  99
   ................
   2024 06 22 03:10  10 51 48.10    +39 31 00.3   299664 1.0153  61.8 C   16?  10.84 142.6   57 286 122  99
   2024 06 22 03:20  10 51 53.61    +39 29 33.9   299400 1.0153  61.8 Cm  16?  11.39 141.8   56 286 122  99
   2024 06 22 03:30  10 51 59.53    +39 28 04.2   299141 1.0153  61.8 Cm  16?  11.93 140.9   54 287 122  99
   2024 06 22 03:40  10 52 05.88    +39 26 31.4   298886 1.0153  61.9 Nm  16?  12.49 140.0   52 287 122  99
   2024 06 22 03:50  10 52 12.66    +39 24 55.6   298634 1.0153  61.9 Nm  16?  13.05 139.1   50 288 122  99
   2024 06 22 04:00  10 52 19.89    +39 23 17.0   298385 1.0154  61.9 Nm  16?  13.61 138.1   48 289 122  99
   2024 06 22 04:10  10 52 27.59    +39 21 35.6   298140 1.0154  61.9 Nm  16?  14.18 137.2   46 290 123  99
   2024 06 22 04:20  10 52 35.78    +39 19 51.7   297897 1.0154  61.9 Am  16?  14.76 136.2   44 290 123  99
   2024 06 22 04:30  10 52 44.47    +39 18 05.4   297657 1.0154  62.0 Am  16?  15.34 135.2   43 291 123  99
   2024 06 22 04:40  10 52 53.67    +39 16 16.9   297418 1.0154  62.0 Am  16?  15.93 134.2   41 292 123  99
   2024 06 22 04:50  10 53 03.39    +39 14 26.2   297182 1.0154  62.0 Am  16?  16.51 133.2   39 293 123  99
   2024 06 22 05:00  10 53 13.64    +39 12 33.6   296948 1.0154  62.1  m  16?  17.11 132.2   37 294 123  99
   2024 06 22 05:10  10 53 24.44    +39 10 39.1   296715 1.0154  62.1  m  16?  17.70 131.2   35 295 123  99
   2024 06 22 05:20  10 53 35.79    +39 08 43.1   296483 1.0154  62.1  m  16?  18.30 130.2   34 295 123  99
   2024 06 22 05:30  10 53 47.70    +39 06 45.6   296252 1.0154  62.2  m  16?  18.90 129.3   32 296 123  99
   2024 06 22 05:40  10 54 00.17    +39 04 46.7   296021 1.0154  62.2  m  16?  19.50 128.3   30 297 123  99
   2024 06 22 05:50  10 54 13.22    +39 02 46.8   295790 1.0154  62.3  m  16?  20.10 127.3   28 298 123  99
   2024 06 22 06:00  10 54 26.85    +39 00 45.9   295560 1.0154  62.3  m  16?  20.70 126.4   27 299 123  99
   2024 06 22 06:10  10 54 41.06    +38 58 44.2   295329 1.0154  62.3  m  16?  21.30 125.4   25 300 123  99
   2024 06 22 06:20  10 54 55.86    +38 56 41.8   295097 1.0154  62.4  m  16?  21.90 124.5   23 301 123  99
   2024 06 22 06:30  10 55 11.24    +38 54 39.0   294864 1.0154  62.4  m  16?  22.50 123.6   22 302 123  99
   2024 06 22 06:40  10 55 27.21    +38 52 35.9   294630 1.0154  62.5  m  16?  23.09 122.6   20 303 123  99
   2024 06 22 06:50  10 55 43.77    +38 50 32.8   294394 1.0154  62.5  m  16?  23.68 121.7   18 304 123  99
   2024 06 22 07:00  10 56 00.91    +38 48 29.6   294156 1.0154  62.6  m  16?  24.27 120.9   17 305 123  99
   2024 06 22 07:10  10 56 18.64    +38 46 26.7   293916 1.0154  62.7  m  16?  24.86 120.0   15 307 123  99
   2024 06 22 07:20  10 56 36.95    +38 44 24.1   293674 1.0154  62.7  m  16?  25.43 119.1   14 308 123  99
   2024 06 22 07:30  10 56 55.84    +38 42 22.1   293428 1.0154  62.8  m  16?  26.00 118.3   12 309 123  99
   2024 06 22 07:40  10 57 15.30    +38 40 20.8   293180 1.0154  62.8  m  16?  26.57 117.4   11 310 123  99
   2024 06 22 07:50  10 57 35.32    +38 38 20.4   292928 1.0154  62.9  m  16?  27.13 116.6    9 311 123  99
   2024 06 22 08:00  10 57 55.91    +38 36 20.9   292672 1.0154  63.0  m  16?  27.68 115.8    8 313 123  99
   2024 06 22 08:10  10 58 17.05    +38 34 22.7   292412 1.0154  63.0  m  16?  28.22 115.0    6 314 123  99
   2024 06 22 08:20  10 58 38.74    +38 32 25.8   292148 1.0154  63.1  m  16?  28.75 114.2    5 315 123  99
   2024 06 22 08:30  10 59 00.96    +38 30 30.3   291879 1.0154  63.2  m  16?  29.27 113.4    4 316 123  99
   2024 06 22 08:40  10 59 23.71    +38 28 36.5   291605 1.0154  63.2  m  16?  29.78 112.6    2 318 123  99
   2024 06 22 08:50  10 59 46.97    +38 26 44.4   291327 1.0154  63.3  m  16?  30.27 111.8    1 319 123  99
   2024 06 22 09:00  11 00 10.73    +38 24 54.2   291043 1.0154  63.4  m  16?  30.76 111.1    0 321 123  99
   ................
   2024 06 23 03:10  11 36 52.11    +37 52 50.7   229819 1.0158  70.0 C   15?  18.46 138.0   65 279 125  98
   2024 06 23 03:20  11 37 02.10    +37 50 33.0   229302 1.0158  70.0 C   15?  19.19 137.9   63 280 125  98
   2024 06 23 03:30  11 37 12.52    +37 48 10.2   228788 1.0158  70.0 C   15?  19.93 137.8   61 281 125  98
   2024 06 23 03:40  11 37 23.42    +37 45 42.4   228278 1.0158  70.1 N   15?  20.69 137.5   59 281 125  98
   2024 06 23 03:50  11 37 34.80    +37 43 09.6   227772 1.0158  70.1 N   15?  21.46 137.2   57 282 125  98
   2024 06 23 04:00  11 37 46.70    +37 40 32.0   227269 1.0158  70.2 N   15?  22.25 136.8   55 283 125  98
   2024 06 23 04:10  11 37 59.15    +37 37 49.8   226770 1.0158  70.2 Nm  15?  23.05 136.4   54 284 125  98
   2024 06 23 04:20  11 38 12.16    +37 35 02.9   226273 1.0158  70.2 Am  15?  23.86 135.9   52 284 125  98
   2024 06 23 04:30  11 38 25.77    +37 32 11.7   225780 1.0158  70.3 Am  15?  24.68 135.4   50 285 125  98
   2024 06 23 04:40  11 38 39.98    +37 29 16.1   225288 1.0158  70.4 Am  15?  25.51 134.8   48 286 125  98
   2024 06 23 04:50  11 38 54.84    +37 26 16.5   224800 1.0159  70.4 Am  15?  26.36 134.3   46 287 125  97
   2024 06 23 05:00  11 39 10.35    +37 23 12.9   224313 1.0159  70.5  m  15?  27.21 133.7   44 288 125  97
   2024 06 23 05:10  11 39 26.54    +37 20 05.4   223828 1.0159  70.5  m  15?  28.07 133.0   42 288 125  97
   2024 06 23 05:20  11 39 43.42    +37 16 54.3   223344 1.0159  70.6  m  15?  28.95 132.4   41 289 125  97
   2024 06 23 05:30  11 40 01.02    +37 13 39.8   222862 1.0159  70.7  m  15?  29.83 131.7   39 290 125  97
   2024 06 23 05:40  11 40 19.34    +37 10 21.9   222380 1.0159  70.7  m  15?  30.71 131.1   37 291 125  97
   2024 06 23 05:50  11 40 38.41    +37 07 01.0   221900 1.0159  70.8  m  15?  31.61 130.4   35 292 125  97
   2024 06 23 06:00  11 40 58.24    +37 03 37.1   221419 1.0159  70.9  m  15?  32.51 129.7   33 293 125  97
   2024 06 23 06:10  11 41 18.84    +37 00 10.4   220939 1.0159  70.9  m  15?  33.41 129.0   32 294 125  97
   2024 06 23 06:20  11 41 40.22    +36 56 41.2   220458 1.0159  71.0  m  15?  34.33 128.3   30 295 125  97
   2024 06 23 06:30  11 42 02.40    +36 53 09.6   219977 1.0159  71.1  m  15?  35.24 127.6   28 296 125  97
   2024 06 23 06:40  11 42 25.38    +36 49 35.8   219495 1.0159  71.2  m  15?  36.16 126.9   26 297 125  97
   2024 06 23 06:50  11 42 49.17    +36 46 00.0   219012 1.0159  71.3  m  15?  37.08 126.2   25 298 125  97
   2024 06 23 07:00  11 43 13.78    +36 42 22.5   218527 1.0159  71.4  m  15?  38.00 125.5   23 299 125  97
   2024 06 23 07:10  11 43 39.22    +36 38 43.3   218041 1.0159  71.5  m  15?  38.93 124.8   21 300 125  97
   2024 06 23 07:20  11 44 05.48    +36 35 02.7   217552 1.0159  71.5  m  15?  39.85 124.1   20 301 125  97
   2024 06 23 07:30  11 44 32.58    +36 31 20.9   217062 1.0159  71.6  m  15?  40.78 123.5   18 302 125  97
   2024 06 23 07:40  11 45 00.52    +36 27 38.0   216568 1.0159  71.7  m  15?  41.70 122.8   16 303 125  97
   2024 06 23 07:50  11 45 29.29    +36 23 54.3   216071 1.0159  71.9  m  15?  42.62 122.1   15 304 125  97
   2024 06 23 08:00  11 45 58.90    +36 20 09.9   215572 1.0159  72.0  m  15?  43.54 121.4   13 305 124  97
   2024 06 23 08:10  11 46 29.35    +36 16 25.1   215068 1.0159  72.1  m  15?  44.46 120.8   12 306 124  97
   2024 06 23 08:20  11 47 00.64    +36 12 39.9   214561 1.0159  72.2  m  15?  45.37 120.1   10 307 124  97
   2024 06 23 08:30  11 47 32.76    +36 08 54.6   214049 1.0159  72.3  m  15?  46.27 119.5    8 309 124  97
   2024 06 23 08:40  11 48 05.70    +36 05 09.5   213533 1.0159  72.4  m  15?  47.17 118.8    7 310 124  97
   2024 06 23 08:50  11 48 39.47    +36 01 24.5   213012 1.0159  72.5  m  15?  48.06 118.2    6 311 124  97
   2024 06 23 09:00  11 49 14.06    +35 57 39.9   212486 1.0159  72.7  m  15?  48.95 117.6    4 312 124  97
   2024 06 23 09:10  11 49 49.46    +35 53 56.0   211954 1.0160  72.8  m  15?  49.82 117.0    3 314 124  97
   2024 06 23 09:20  11 50 25.66    +35 50 12.7   211418 1.0160  72.9  m  15?  50.69 116.4    1 315 124  97
   2024 06 23 09:30  11 51 02.65    +35 46 30.4   210875 1.0160  73.0  m  15?  51.55 115.8    0 316 124  97
   ................
   2024 06 24 03:10  13 16 10.33    +29 34 38.7   113008 1.0164  91.3 C   13?  91.32 132.3   79 218 114  94
   2024 06 24 03:20  13 17 00.82    +29 24 22.7   111933 1.0164  91.6 C   13?  93.86 132.7   78 225 114  94
   2024 06 24 03:30  13 17 52.32    +29 13 44.6   110858 1.0164  91.8 C   13?  96.51 133.1   76 232 114  94
   2024 06 24 03:40  13 18 44.93    +29 02 44.0   109784 1.0164  92.1 N   13?  99.29 133.4   75 237 113  94
   2024 06 24 03:50  13 19 38.70    +28 51 20.1   108710 1.0164  92.3 N   13? 102.20 133.7   73 241 113  94
   2024 06 24 04:00  13 20 33.73    +28 39 32.4   107636 1.0164  92.6 N   13? 105.23 133.9   71 244 113  94
   2024 06 24 04:10  13 21 30.08    +28 27 20.3   106561 1.0164  92.9 N   13? 108.39 134.2   70 247 113  93
   2024 06 24 04:20  13 22 27.85    +28 14 43.1   105487 1.0164  93.1 A   13? 111.68 134.4   68 250 113  93
   2024 06 24 04:30  13 23 27.11    +28 01 40.2   104412 1.0164  93.4 A   13? 115.12 134.5   66 252 112  93
   2024 06 24 04:40  13 24 27.96    +27 48 10.8   103336 1.0165  93.7 A   13? 118.69 134.7   64 254 112  93
   2024 06 24 04:50  13 25 30.47    +27 34 14.4   102259 1.0165  94.0 A   13? 122.41 134.8   62 256 112  93
   2024 06 24 05:00  13 26 34.73    +27 19 50.0   101181 1.0165  94.4  m  13? 126.29 134.8   61 258 112  93
   2024 06 24 05:10  13 27 40.85    +27 04 57.0   100102 1.0165  94.7  m  13? 130.31 134.9   59 259 112  93
   2024 06 24 05:20  13 28 48.91    +26 49 34.6    99021 1.0165  95.0  m  13? 134.50 134.9   57 261 111  93
   2024 06 24 05:30  13 29 59.00    +26 33 41.8    97939 1.0165  95.4  m  13? 138.86 134.9   55 262 111  93
   2024 06 24 05:40  13 31 11.23    +26 17 17.8    96854 1.0165  95.8  m  13? 143.40 134.9   53 263 111  93
   2024 06 24 05:50  13 32 25.70    +26 00 21.6    95766 1.0165  96.1  m  13? 148.11 134.9   51 264 111  93
   2024 06 24 06:00  13 33 42.50    +25 42 52.3    94676 1.0165  96.5  m  13? 153.02 134.9   49 265 110  93
   2024 06 24 06:10  13 35 01.75    +25 24 48.7    93583 1.0165  96.9  m  13? 158.12 134.8   48 267 110  93
   2024 06 24 06:20  13 36 23.56    +25 06 09.8    92486 1.0165  97.3  m  13? 163.43 134.8   46 268 110  93
   2024 06 24 06:30  13 37 48.03    +24 46 54.3    91386 1.0165  97.8  m  13? 168.96 134.7   44 268 109  93
   2024 06 24 06:40  13 39 15.29    +24 27 00.9    90282 1.0165  98.2  m  13? 174.72 134.7   42 269 109  93
   2024 06 24 06:50  13 40 45.45    +24 06 28.3    89174 1.0165  98.7  m  13? 180.72 134.6   40 270 109  93
   2024 06 24 07:00  13 42 18.64    +23 45 15.0    88061 1.0165  99.2  m  13? 186.97 134.5   38 271 108  93
   2024 06 24 07:10  13 43 54.99    +23 23 19.4    86944 1.0165  99.7  m  13? 193.50 134.4   36 272 108  93
   2024 06 24 07:20  13 45 34.63    +23 00 39.8    85821 1.0165 100.2  m  13? 200.31 134.3   35 273 107  93
   2024 06 24 07:30  13 47 17.70    +22 37 14.5    84692 1.0165 100.7  m  13? 207.42 134.2   33 274 107  93
   2024 06 24 07:40  13 49 04.35    +22 13 01.4    83558 1.0165 101.3  m  13? 214.85 134.1   31 274 106  93
   2024 06 24 07:50  13 50 54.73    +21 47 58.4    82417 1.0165 101.8  m  13? 222.62 134.0   29 275 106  93
   2024 06 24 08:00  13 52 49.01    +21 22 03.3    81270 1.0165 102.4  m  13? 230.76 133.9   27 276 105  93
   2024 06 24 08:10  13 54 47.35    +20 55 13.6    80116 1.0165 103.1  m  13? 239.28 133.9   25 277 105  93
   2024 06 24 08:20  13 56 49.93    +20 27 26.6    78954 1.0165 103.7  m  13? 248.22 133.8   24 277 104  93
   2024 06 24 08:30  13 58 56.94    +19 58 39.5    77785 1.0166 104.4  m  13? 257.61 133.7   22 278 104  93
   2024 06 24 08:40  14 01 08.58    +19 28 49.0    76609 1.0166 105.1  m  13? 267.47 133.6   20 279 103  93
   2024 06 24 08:50  14 03 25.06    +18 57 51.8    75424 1.0166 105.8  m  13? 277.84 133.6   18 279 102  93
   2024 06 24 09:00  14 05 46.62    +18 25 44.1    74230 1.0166 106.5  m  13? 288.77 133.5   16 280 102  93
   2024 06 24 09:10  14 08 13.49    +17 52 22.0    73028 1.0166 107.3  m  13? 300.30 133.4   15 281 101  93
   2024 06 24 09:20  14 10 45.94    +17 17 41.0    71816 1.0166 108.1  m  13? 312.48 133.4   13 281 100  93
   2024 06 24 09:30  14 13 24.24    +16 41 36.4    70595 1.0166 109.0  m  12? 325.35 133.4   11 282 100  93
   2024 06 24 09:40  14 16 08.71    +16 04 02.8    69365 1.0166 109.9  m  12? 338.99 133.4    9 282  99  93
   2024 06 24 09:50  14 18 59.68    +15 24 54.6    68125 1.0166 110.8  m  12? 353.45 133.3    7 283  98  93
   2024 06 24 10:00  14 21 57.49    +14 44 05.4    66874 1.0166 111.8  m  12? 368.82 133.3    6 283  97  92
   2024 06 24 10:10  14 25 02.55    +14 01 28.4    65613 1.0166 112.8  m  12? 385.17 133.4    4 284  96  92
   2024 06 24 10:20  14 28 15.27    +13 16 56.1    64342 1.0166 113.8 Am  12? 402.60 133.4    2 284  95  92
   2024 06 24 10:30  14 31 36.14    +12 30 20.1    63060 1.0166 114.9 Am  12? 421.21 133.4    0 285  94  92
   ................
   

Euclid (JPL-ID: -680)

   Date (UTC) HH:MM   RA              Dec         delta   r     elong SM  mag  '/hr    PA   alt  az moo ill
   ---- -- -- -----  -------------   -----------  ------ ------ ----- --  --- ------ ------ --- --- --- ---
   2024 06 19 03:40  19 18 01.27    -12 34 45.3   0.0114 1.0266 156.7 Nm  21?   0.43  63.0    0 105  57  91
   2024 06 19 03:50  19 18 01.49    -12 34 43.3   0.0114 1.0266 156.7 Nm  21?   0.33  53.4    1 107  57  91
   2024 06 19 04:00  19 18 01.63    -12 34 41.3   0.0114 1.0266 156.7 Nm  21?   0.26  37.0    3 108  57  91
   2024 06 19 04:10  19 18 01.70    -12 34 39.2   0.0114 1.0266 156.7 Nm  21?   0.22  11.2    5 110  57  91
   2024 06 19 04:20  19 18 01.69    -12 34 37.1   0.0114 1.0266 156.7 Am  21?   0.23 342.5    7 111  57  91
   2024 06 19 04:30  19 18 01.61    -12 34 34.8   0.0114 1.0266 156.7 Am  21?   0.29 321.9    8 113  57  91
   2024 06 19 04:40  19 18 01.45    -12 34 32.5   0.0114 1.0266 156.7 Am  21?   0.37 309.7   10 115  57  91
   2024 06 19 04:50  19 18 01.22    -12 34 30.1   0.0114 1.0266 156.8 Am  21?   0.46 302.4   12 116  57  91
   2024 06 19 05:00  19 18 00.92    -12 34 27.5   0.0114 1.0266 156.8  m  21?   0.56 297.8   14 118  57  91
   2024 06 19 05:10  19 18 00.54    -12 34 24.8   0.0114 1.0266 156.8  m  21?   0.65 294.7   15 120  56  91
   2024 06 19 05:20  19 18 00.11    -12 34 22.0   0.0114 1.0266 156.8  m  21?   0.75 292.5   17 122  56  91
   2024 06 19 05:30  19 17 59.60    -12 34 19.0   0.0114 1.0266 156.8  m  21?   0.84 290.9   19 124  56  91
   2024 06 19 05:40  19 17 59.03    -12 34 15.9   0.0114 1.0266 156.8  m  21?   0.94 289.8   20 126  56  91
   2024 06 19 05:50  19 17 58.40    -12 34 12.6   0.0114 1.0266 156.8  m  21?   1.02 289.0   22 128  56  91
   2024 06 19 06:00  19 17 57.71    -12 34 09.2   0.0114 1.0266 156.8  m  21?   1.11 288.4   24 130  56  91
   2024 06 19 06:10  19 17 56.96    -12 34 05.5   0.0114 1.0266 156.8  m  21?   1.19 288.0   25 132  56  91
   2024 06 19 06:20  19 17 56.16    -12 34 01.7   0.0114 1.0266 156.8  m  21?   1.27 287.7   26 134  56  91
   2024 06 19 06:30  19 17 55.30    -12 33 57.7   0.0114 1.0266 156.8  m  21?   1.35 287.5   28 136  56  91
   2024 06 19 06:40  19 17 54.40    -12 33 53.5   0.0114 1.0266 156.8  m  21?   1.42 287.4   29 139  56  91
   2024 06 19 06:50  19 17 53.45    -12 33 49.1   0.0114 1.0266 156.8  m  21?   1.49 287.4   30 141  56  91
   2024 06 19 07:00  19 17 52.46    -12 33 44.5   0.0114 1.0266 156.9  m  21?   1.56 287.5   32 144  56  91
   2024 06 19 07:10  19 17 51.42    -12 33 39.6   0.0114 1.0266 156.9  m  21?   1.62 287.6   33 146  56  91
   2024 06 19 07:20  19 17 50.35    -12 33 34.5   0.0114 1.0266 156.9  m  21?   1.68 287.8   34 149  56  91
   2024 06 19 07:30  19 17 49.24    -12 33 29.2   0.0114 1.0266 156.9  m  21?   1.73 288.1   35 152  56  91
   2024 06 19 07:40  19 17 48.11    -12 33 23.7   0.0114 1.0266 156.9  m  21?   1.78 288.3   36 154  56  91
   2024 06 19 07:50  19 17 46.94    -12 33 17.9   0.0114 1.0266 156.9  m  21?   1.82 288.7   37 157  56  91
   2024 06 19 08:00  19 17 45.75    -12 33 11.9   0.0114 1.0266 156.9  m  21?   1.86 289.0   37 160  56  91
   2024 06 19 08:10  19 17 44.54    -12 33 05.7   0.0114 1.0266 156.9  m  21?   1.90 289.5   38 163  55  91
   2024 06 19 08:20  19 17 43.31    -12 32 59.2   0.0114 1.0266 156.9  m  21?   1.93 289.9   38 166  55  91
   2024 06 19 08:30  19 17 42.06    -12 32 52.4   0.0114 1.0266 156.9  m  21?   1.96 290.4   39 170  55  91
   2024 06 19 08:40  19 17 40.81    -12 32 45.4   0.0114 1.0266 156.9  m  21?   1.98 290.9   39 173  55  91
   2024 06 19 08:50  19 17 39.55    -12 32 38.2   0.0114 1.0266 157.0  m  21?   1.99 291.5   39 176  55  91
   2024 06 19 09:00  19 17 38.28    -12 32 30.7   0.0114 1.0266 157.0  m  21?   2.01 292.2   39 179  55  91
   2024 06 19 09:10  19 17 37.01    -12 32 22.9   0.0114 1.0266 157.0  t  21?   2.01 292.8   39 182  55  91
   2024 06 19 09:20  19 17 35.75    -12 32 14.9   0.0114 1.0266 157.0  m  21?   2.02 293.6   39 185  55  91
   2024 06 19 09:30  19 17 34.49    -12 32 06.6   0.0114 1.0266 157.0  m  21?   2.02 294.4   39 189  55  91
   2024 06 19 09:40  19 17 33.24    -12 31 58.1   0.0114 1.0266 157.0  m  21?   2.01 295.2   38 192  55  91
   2024 06 19 09:50  19 17 32.01    -12 31 49.4   0.0114 1.0266 157.0  m  21?   2.00 296.1   38 195  55  92
   2024 06 19 10:00  19 17 30.79    -12 31 40.4   0.0114 1.0266 157.0  m  21?   1.99 297.1   37 198  55  92
   2024 06 19 10:10  19 17 29.59    -12 31 31.1   0.0114 1.0266 157.0     21?   1.97 298.1   37 201  55  92
   2024 06 19 10:20  19 17 28.42    -12 31 21.7   0.0114 1.0266 157.0 A   21?   1.95 299.3   36 204  55  92
   2024 06 19 10:30  19 17 27.27    -12 31 11.9   0.0114 1.0266 157.0 A   21?   1.93 300.5   35 207  54  92
   2024 06 19 10:40  19 17 26.16    -12 31 02.0   0.0114 1.0266 157.1 A   21?   1.90 301.8   34 209  54  92
   2024 06 19 10:50  19 17 25.08    -12 30 51.8   0.0114 1.0266 157.1 A   21?   1.87 303.2   33 212  54  92
   2024 06 19 11:00  19 17 24.03    -12 30 41.5   0.0114 1.0266 157.1 A   21?   1.83 304.7   32 215  54  92
   2024 06 19 11:10  19 17 23.02    -12 30 30.8   0.0114 1.0266 157.1 N   21?   1.80 306.4   31 217  54  92
   2024 06 19 11:20  19 17 22.06    -12 30 20.0   0.0114 1.0266 157.1 N   21?   1.76 308.2   30 220  54  92
   2024 06 19 11:30  19 17 21.14    -12 30 09.0   0.0114 1.0266 157.1 N   21?   1.72 310.1   28 222  54  92
   2024 06 19 11:40  19 17 20.27    -12 29 57.8   0.0114 1.0266 157.1 N   21?   1.68 312.2   27 224  54  92
   2024 06 19 11:50  19 17 19.45    -12 29 46.4   0.0114 1.0266 157.1 C   21?   1.63 314.5   26 227  54  92
   2024 06 19 12:00  19 17 18.69    -12 29 34.8   0.0114 1.0266 157.1 C   21?   1.59 317.0   24 229  54  92
   ................
   2024 06 20 03:40  19 19 20.03    -12 16 42.4   0.0115 1.0267 157.1 Nm  21?   0.38  59.8    0 105  45  95
   2024 06 20 03:50  19 19 20.22    -12 16 40.5   0.0115 1.0267 157.1 Nm  21?   0.29  47.5    2 107  45  95
   2024 06 20 04:00  19 19 20.32    -12 16 38.5   0.0115 1.0267 157.2 Nm  21?   0.22  26.4    4 108  45  95
   2024 06 20 04:10  19 19 20.35    -12 16 36.5   0.0115 1.0267 157.2 Nm  21?   0.21 356.7    5 110  45  96
   2024 06 20 04:20  19 19 20.31    -12 16 34.3   0.0115 1.0267 157.2 Am  21?   0.25 330.4    7 112  45  96
   2024 06 20 04:30  19 19 20.19    -12 16 32.1   0.0115 1.0267 157.2 Am  21?   0.32 314.2    9 113  45  96
   2024 06 20 04:40  19 19 20.00    -12 16 29.8   0.0115 1.0267 157.2 Am  21?   0.41 304.8   11 115  45  96
   2024 06 20 04:50  19 19 19.73    -12 16 27.4   0.0115 1.0267 157.2 Am  21?   0.51 299.0   13 117  45  96
   2024 06 20 05:00  19 19 19.39    -12 16 24.9   0.0115 1.0267 157.2  m  21?   0.60 295.2   14 118  45  96
   2024 06 20 05:10  19 19 18.99    -12 16 22.2   0.0115 1.0267 157.2  m  21?   0.70 292.7   16 120  45  96
   2024 06 20 05:20  19 19 18.52    -12 16 19.5   0.0115 1.0267 157.2  m  21?   0.79 290.9   18 122  45  96
   2024 06 20 05:30  19 19 17.98    -12 16 16.5   0.0115 1.0267 157.2  m  21?   0.89 289.6   19 124  45  96
   2024 06 20 05:40  19 19 17.38    -12 16 13.5   0.0115 1.0267 157.2  m  21?   0.98 288.7   21 126  45  96
   2024 06 20 05:50  19 19 16.72    -12 16 10.2   0.0115 1.0267 157.2  m  21?   1.07 288.0   23 128  45  96
   2024 06 20 06:00  19 19 16.00    -12 16 06.8   0.0115 1.0267 157.2  m  21?   1.15 287.5   24 130  44  96
   2024 06 20 06:10  19 19 15.22    -12 16 03.2   0.0114 1.0267 157.2  m  21?   1.23 287.1   26 132  44  96
   2024 06 20 06:20  19 19 14.39    -12 15 59.5   0.0114 1.0267 157.3  m  21?   1.31 286.9   27 134  44  96
   2024 06 20 06:30  19 19 13.51    -12 15 55.5   0.0114 1.0267 157.3  m  21?   1.39 286.8   28 137  44  96
   2024 06 20 06:40  19 19 12.58    -12 15 51.4   0.0114 1.0267 157.3  m  21?   1.46 286.8   30 139  44  96
   2024 06 20 06:50  19 19 11.60    -12 15 47.0   0.0114 1.0267 157.3  m  21?   1.53 286.8   31 142  44  96
   2024 06 20 07:00  19 19 10.59    -12 15 42.4   0.0114 1.0267 157.3  m  21?   1.59 286.9   32 144  44  96
   2024 06 20 07:10  19 19 09.53    -12 15 37.7   0.0114 1.0268 157.3  m  21?   1.65 287.0   33 147  44  96
   2024 06 20 07:20  19 19 08.43    -12 15 32.7   0.0114 1.0268 157.3  m  21?   1.71 287.2   34 149  44  96
   2024 06 20 07:30  19 19 07.31    -12 15 27.4   0.0114 1.0268 157.3  m  21?   1.76 287.5   35 152  44  96
   2024 06 20 07:40  19 19 06.15    -12 15 22.0   0.0114 1.0268 157.3  m  21?   1.81 287.8   36 155  44  96
   2024 06 20 07:50  19 19 04.96    -12 15 16.3   0.0114 1.0268 157.3  m  21?   1.85 288.1   37 158  44  96
   2024 06 20 08:00  19 19 03.75    -12 15 10.4   0.0114 1.0268 157.3  m  21?   1.89 288.5   38 161  44  96
   2024 06 20 08:10  19 19 02.52    -12 15 04.2   0.0114 1.0268 157.4  m  21?   1.92 288.9   38 164  44  96
   2024 06 20 08:20  19 19 01.28    -12 14 57.8   0.0114 1.0268 157.4  m  21?   1.95 289.3   39 167  44  96
   2024 06 20 08:30  19 19 00.02    -12 14 51.2   0.0114 1.0268 157.4  m  21?   1.97 289.8   39 170  44  96
   2024 06 20 08:40  19 18 58.75    -12 14 44.3   0.0114 1.0268 157.4  m  21?   1.99 290.4   39 173  44  96
   2024 06 20 08:50  19 18 57.47    -12 14 37.2   0.0114 1.0268 157.4  m  21?   2.01 291.0   40 177  43  96
   2024 06 20 09:00  19 18 56.19    -12 14 29.8   0.0114 1.0268 157.4  t  21?   2.02 291.6   40 180  43  96
   2024 06 20 09:10  19 18 54.91    -12 14 22.2   0.0114 1.0268 157.4  m  21?   2.03 292.3   39 183  43  96
   2024 06 20 09:20  19 18 53.64    -12 14 14.3   0.0114 1.0268 157.4  m  21?   2.03 293.0   39 186  43  96
   2024 06 20 09:30  19 18 52.37    -12 14 06.2   0.0114 1.0268 157.4  m  21?   2.03 293.8   39 189  43  96
   2024 06 20 09:40  19 18 51.11    -12 13 57.9   0.0114 1.0268 157.4  m  21?   2.02 294.6   39 193  43  96
   2024 06 20 09:50  19 18 49.87    -12 13 49.3   0.0114 1.0268 157.4  m  21?   2.01 295.5   38 196  43  96
   2024 06 20 10:00  19 18 48.64    -12 13 40.4   0.0114 1.0268 157.5  m  21?   1.99 296.5   38 199  43  96
   2024 06 20 10:10  19 18 47.44    -12 13 31.4   0.0114 1.0268 157.5  m  21?   1.97 297.5   37 202  43  96
   2024 06 20 10:20  19 18 46.26    -12 13 22.1   0.0114 1.0268 157.5 Am  21?   1.95 298.6   36 205  43  96
   2024 06 20 10:30  19 18 45.11    -12 13 12.6   0.0114 1.0268 157.5 Am  21?   1.92 299.8   35 207  43  96
   2024 06 20 10:40  19 18 43.99    -12 13 02.8   0.0114 1.0268 157.5 Am  21?   1.90 301.1   34 210  43  96
   2024 06 20 10:50  19 18 42.90    -12 12 52.9   0.0114 1.0268 157.5 A   21?   1.86 302.5   33 213  43  96
   2024 06 20 11:00  19 18 41.85    -12 12 42.7   0.0115 1.0268 157.5 A   21?   1.83 304.1   32 215  43  96
   2024 06 20 11:10  19 18 40.84    -12 12 32.3   0.0115 1.0268 157.5 N   21?   1.79 305.7   31 218  42  96
   2024 06 20 11:20  19 18 39.88    -12 12 21.7   0.0115 1.0268 157.5 N   21?   1.75 307.5   30 220  42  96
   2024 06 20 11:30  19 18 38.96    -12 12 11.0   0.0115 1.0268 157.5 N   21?   1.70 309.5   28 223  42  96
   2024 06 20 11:40  19 18 38.09    -12 12 00.0   0.0115 1.0268 157.5 N   21?   1.66 311.6   27 225  42  96
   2024 06 20 11:50  19 18 37.27    -12 11 48.8   0.0115 1.0268 157.5 C   21?   1.62 313.9   25 227  42  96
   2024 06 20 12:00  19 18 36.50    -12 11 37.5   0.0115 1.0268 157.5 C   21?   1.57 316.4   24 229  42  96
   ................
   2024 06 21 03:40  19 20 36.04    -11 59 07.9   0.0115 1.0269 157.6 Nm  21?   0.33  55.4    0 105  34  98
   2024 06 21 03:50  19 20 36.19    -11 59 06.0   0.0115 1.0269 157.6 Nm  21?   0.25  39.2    2 107  34  98
   2024 06 21 04:00  19 20 36.26    -11 59 04.1   0.0115 1.0269 157.6 Nm  21?   0.20  12.5    4 109  34  98
   2024 06 21 04:10  19 20 36.25    -11 59 02.1   0.0115 1.0269 157.6 Nm  21?   0.22 341.7    6 110  34  98
   2024 06 21 04:20  19 20 36.16    -11 59 00.0   0.0115 1.0269 157.6 Am  21?   0.28 320.1    8 112  34  98
   2024 06 21 04:30  19 20 36.01    -11 58 57.8   0.0115 1.0269 157.6 Am  21?   0.36 307.7   10 113  33  98
   2024 06 21 04:40  19 20 35.78    -11 58 55.6   0.0115 1.0269 157.6 Am  21?   0.45 300.5   12 115  33  98
   2024 06 21 04:50  19 20 35.48    -11 58 53.2   0.0115 1.0269 157.6 Am  21?   0.55 296.0   13 117  33  99
   2024 06 21 05:00  19 20 35.10    -11 58 50.7   0.0115 1.0269 157.6  m  21?   0.65 293.0   15 119  33  99
   2024 06 21 05:10  19 20 34.66    -11 58 48.1   0.0115 1.0269 157.6  m  21?   0.74 290.9   17 120  33  99
   2024 06 21 05:20  19 20 34.16    -11 58 45.4   0.0115 1.0269 157.6  m  21?   0.84 289.4   18 122  33  99
   2024 06 21 05:30  19 20 33.59    -11 58 42.5   0.0115 1.0269 157.6  m  21?   0.93 288.3   20 124  33  99
   2024 06 21 05:40  19 20 32.96    -11 58 39.4   0.0115 1.0269 157.7  m  21?   1.02 287.6   22 126  33  99
   2024 06 21 05:50  19 20 32.26    -11 58 36.2   0.0115 1.0269 157.7  m  21?   1.11 287.0   23 128  33  99
   2024 06 21 06:00  19 20 31.51    -11 58 32.9   0.0115 1.0269 157.7  m  21?   1.19 286.6   25 130  33  99
   2024 06 21 06:10  19 20 30.70    -11 58 29.4   0.0115 1.0269 157.7  m  21?   1.28 286.3   26 133  33  99
   2024 06 21 06:20  19 20 29.85    -11 58 25.6   0.0115 1.0269 157.7  m  21?   1.35 286.2   28 135  33  99
   2024 06 21 06:30  19 20 28.94    -11 58 21.7   0.0115 1.0269 157.7  m  21?   1.43 286.1   29 137  33  99
   2024 06 21 06:40  19 20 27.98    -11 58 17.6   0.0115 1.0269 157.7  m  21?   1.50 286.1   30 140  33  99
   2024 06 21 06:50  19 20 26.98    -11 58 13.3   0.0115 1.0269 157.7  m  21?   1.56 286.1   32 142  33  99
   2024 06 21 07:00  19 20 25.93    -11 58 08.8   0.0115 1.0269 157.7  m  21?   1.63 286.3   33 145  33  99
   2024 06 21 07:10  19 20 24.85    -11 58 04.1   0.0115 1.0269 157.7  m  21?   1.69 286.4   34 147  33  99
   2024 06 21 07:20  19 20 23.73    -11 57 59.2   0.0115 1.0269 157.7  m  21?   1.74 286.6   35 150  33  99
   2024 06 21 07:30  19 20 22.58    -11 57 54.1   0.0115 1.0269 157.7  m  21?   1.79 286.9   36 153  33  99
   2024 06 21 07:40  19 20 21.40    -11 57 48.7   0.0115 1.0269 157.8  m  21?   1.84 287.2   37 156  32  99
   2024 06 21 07:50  19 20 20.20    -11 57 43.1   0.0115 1.0269 157.8  m  21?   1.88 287.5   37 159  32  99
   2024 06 21 08:00  19 20 18.97    -11 57 37.3   0.0115 1.0269 157.8  m  21?   1.91 287.9   38 162  32  99
   2024 06 21 08:10  19 20 17.72    -11 57 31.2   0.0115 1.0269 157.8  m  21?   1.95 288.3   39 165  32  99
   2024 06 21 08:20  19 20 16.45    -11 57 24.9   0.0115 1.0269 157.8  m  21?   1.97 288.8   39 168  32  99
   2024 06 21 08:30  19 20 15.18    -11 57 18.4   0.0115 1.0269 157.8  m  21?   2.00 289.3   39 171  32  99
   2024 06 21 08:40  19 20 13.89    -11 57 11.6   0.0115 1.0269 157.8  m  21?   2.01 289.8   40 174  32  99
   2024 06 21 08:50  19 20 12.60    -11 57 04.6   0.0115 1.0269 157.8  m  21?   2.03 290.4   40 178  32  99
   2024 06 21 09:00  19 20 11.31    -11 56 57.4   0.0115 1.0269 157.8  t  21?   2.04 291.0   40 181  32  99
   2024 06 21 09:10  19 20 10.01    -11 56 49.9   0.0115 1.0269 157.8  m  21?   2.04 291.7   40 184  32  99
   2024 06 21 09:20  19 20 08.73    -11 56 42.2   0.0115 1.0269 157.8  m  21?   2.04 292.4   40 187  32  99
   2024 06 21 09:30  19 20 07.45    -11 56 34.2   0.0115 1.0269 157.9  m  21?   2.04 293.2   39 190  32  99
   2024 06 21 09:40  19 20 06.18    -11 56 26.0   0.0115 1.0269 157.9  m  21?   2.03 294.0   39 193  32  99
   2024 06 21 09:50  19 20 04.93    -11 56 17.6   0.0115 1.0269 157.9  m  21?   2.02 294.9   38 197  32  99
   2024 06 21 10:00  19 20 03.69    -11 56 09.0   0.0115 1.0269 157.9  m  21?   2.00 295.8   38 200  32  99
   2024 06 21 10:10  19 20 02.48    -11 56 00.1   0.0115 1.0269 157.9  m  21?   1.98 296.9   37 203  32  99
   2024 06 21 10:20  19 20 01.29    -11 55 51.0   0.0115 1.0269 157.9 Am  21?   1.95 298.0   36 205  31  99
   2024 06 21 10:30  19 20 00.13    -11 55 41.6   0.0115 1.0269 157.9 Am  21?   1.92 299.2   35 208  31  99
   2024 06 21 10:40  19 19 59.01    -11 55 32.1   0.0115 1.0269 157.9 Am  21?   1.89 300.5   34 211  31  99
   2024 06 21 10:50  19 19 57.92    -11 55 22.3   0.0115 1.0269 157.9 Am  21?   1.86 301.9   33 214  31  99
   2024 06 21 11:00  19 19 56.86    -11 55 12.4   0.0115 1.0269 157.9 Am  21?   1.82 303.4   32 216  31  99
   2024 06 21 11:10  19 19 55.85    -11 55 02.2   0.0115 1.0269 157.9 Nm  21?   1.78 305.0   31 219  31  99
   2024 06 21 11:20  19 19 54.88    -11 54 51.9   0.0115 1.0269 157.9 Nm  21?   1.74 306.8   29 221  31  99
   2024 06 21 11:30  19 19 53.96    -11 54 41.3   0.0115 1.0269 158.0 Nm  21?   1.69 308.7   28 224  31  99
   2024 06 21 11:40  19 19 53.09    -11 54 30.6   0.0115 1.0269 158.0 N   21?   1.65 310.8   27 226  31  99
   2024 06 21 11:50  19 19 52.27    -11 54 19.7   0.0115 1.0269 158.0 C   21?   1.60 313.2   25 228  31  99
   2024 06 21 12:00  19 19 51.50    -11 54 08.6   0.0115 1.0269 158.0 C   21?   1.55 315.7   24 230  31  99
   ................
   2024 06 22 03:30  19 21 48.95    -11 42 03.3   0.0115 1.0270 158.0 Cr  21?   0.37  61.3    0 104  23  99
   2024 06 22 03:40  19 21 49.13    -11 42 01.6   0.0115 1.0270 158.0 Nm  21?   0.28  49.1    1 106  23  99
   2024 06 22 03:50  19 21 49.24    -11 41 59.7   0.0115 1.0270 158.0 Nm  21?   0.21  27.4    3 107  23  99
   2024 06 22 04:00  19 21 49.26    -11 41 57.8   0.0115 1.0270 158.0 Nm  21?   0.19 355.5    5 109  23  99
   2024 06 22 04:10  19 21 49.22    -11 41 55.9   0.0115 1.0270 158.0 Nm  21?   0.24 327.8    7 110  23  99
   2024 06 22 04:20  19 21 49.09    -11 41 53.8   0.0115 1.0270 158.0 Am  21?   0.31 311.5    9 112  23  99
   2024 06 22 04:30  19 21 48.90    -11 41 51.7   0.0115 1.0270 158.0 Am  21?   0.40 302.3   10 114  23  99
   2024 06 22 04:40  19 21 48.63    -11 41 49.5   0.0115 1.0270 158.0 Am  21?   0.50 296.8   12 115  23  99
   2024 06 22 04:50  19 21 48.29    -11 41 47.1   0.0115 1.0270 158.1 Am  21?   0.60 293.3   14 117  23  99
   2024 06 22 05:00  19 21 47.88    -11 41 44.7   0.0115 1.0270 158.1  m  21?   0.70 290.9   16 119  23  99
   2024 06 22 05:10  19 21 47.41    -11 41 42.1   0.0115 1.0270 158.1  m  21?   0.79 289.2   17 121  23  99
   2024 06 22 05:20  19 21 46.86    -11 41 39.4   0.0115 1.0270 158.1  m  21?   0.89 288.0   19 123  23  99
   2024 06 22 05:30  19 21 46.26    -11 41 36.6   0.0115 1.0270 158.1  m  21?   0.98 287.1   21 125  23  99
   2024 06 22 05:40  19 21 45.59    -11 41 33.6   0.0115 1.0270 158.1  m  21?   1.07 286.5   22 127  23  99
   2024 06 22 05:50  19 21 44.87    -11 41 30.4   0.0115 1.0270 158.1  m  21?   1.16 286.0   24 129  23  99
   2024 06 22 06:00  19 21 44.08    -11 41 27.1   0.0115 1.0270 158.1  m  21?   1.24 285.7   25 131  23  99
   2024 06 22 06:10  19 21 43.24    -11 41 23.7   0.0115 1.0270 158.1  m  21?   1.32 285.5   27 133  23  99
   2024 06 22 06:20  19 21 42.35    -11 41 20.0   0.0115 1.0270 158.1  m  21?   1.40 285.4   28 135  22  99
   2024 06 22 06:30  19 21 41.41    -11 41 16.2   0.0115 1.0270 158.1  m  21?   1.47 285.4   30 138  22  99
   2024 06 22 06:40  19 21 40.43    -11 41 12.1   0.0115 1.0270 158.1  m  21?   1.54 285.4   31 140  22  99
   2024 06 22 06:50  19 21 39.40    -11 41 07.9   0.0115 1.0270 158.1  m  21?   1.60 285.5   32 143  22  99
   2024 06 22 07:00  19 21 38.33    -11 41 03.5   0.0115 1.0270 158.2  m  21?   1.66 285.6   33 145  22  99
   2024 06 22 07:10  19 21 37.22    -11 40 58.8   0.0115 1.0270 158.2  m  21?   1.72 285.8   34 148  22  99
   2024 06 22 07:20  19 21 36.07    -11 40 54.0   0.0115 1.0270 158.2  m  21?   1.77 286.0   35 151  22  99
   2024 06 22 07:30  19 21 34.90    -11 40 48.9   0.0115 1.0270 158.2  m  21?   1.82 286.3   36 154  22  99
   2024 06 22 07:40  19 21 33.69    -11 40 43.6   0.0115 1.0270 158.2  m  21?   1.87 286.6   37 156  22  99
   2024 06 22 07:50  19 21 32.47    -11 40 38.1   0.0115 1.0270 158.2  m  21?   1.91 286.9   38 159  22  99
   2024 06 22 08:00  19 21 31.22    -11 40 32.4   0.0115 1.0270 158.2  m  21?   1.94 287.3   39 162  22  99
   2024 06 22 08:10  19 21 29.95    -11 40 26.5   0.0115 1.0270 158.2  m  21?   1.97 287.7   39 166  22  99
   2024 06 22 08:20  19 21 28.66    -11 40 20.3   0.0115 1.0270 158.2  m  21?   2.00 288.2   40 169  22  99
   2024 06 22 08:30  19 21 27.37    -11 40 13.9   0.0115 1.0270 158.2  m  21?   2.02 288.7   40 172  22  99
   2024 06 22 08:40  19 21 26.06    -11 40 07.2   0.0115 1.0270 158.2  m  21?   2.04 289.2   40 175  22  99
   2024 06 22 08:50  19 21 24.75    -11 40 00.3   0.0115 1.0270 158.3  m  21?   2.05 289.8   40 178  22  99
   2024 06 22 09:00  19 21 23.44    -11 39 53.2   0.0115 1.0270 158.3  t  21?   2.05 290.4   40 182  22  99
   2024 06 22 09:10  19 21 22.14    -11 39 45.9   0.0115 1.0270 158.3  m  21?   2.06 291.1   40 185  22  99
   2024 06 22 09:20  19 21 20.83    -11 39 38.3   0.0115 1.0270 158.3  m  21?   2.06 291.8   40 188  22  99
   2024 06 22 09:30  19 21 19.54    -11 39 30.5   0.0115 1.0270 158.3  m  21?   2.05 292.5   39 191  22  99
   2024 06 22 09:40  19 21 18.26    -11 39 22.5   0.0115 1.0270 158.3  m  21?   2.04 293.4   39 194  22  99
   2024 06 22 09:50  19 21 17.00    -11 39 14.2   0.0115 1.0270 158.3  m  21?   2.02 294.2   38 197  22  99
   2024 06 22 10:00  19 21 15.75    -11 39 05.7   0.0115 1.0270 158.3  m  21?   2.01 295.2   38 201  21  99
   2024 06 22 10:10  19 21 14.53    -11 38 57.0   0.0115 1.0270 158.3  m  21?   1.98 296.2   37 203  21  99
   2024 06 22 10:20  19 21 13.33    -11 38 48.1   0.0115 1.0270 158.3 Am  21?   1.96 297.3   36 206  21  99
   2024 06 22 10:30  19 21 12.17    -11 38 39.0   0.0115 1.0270 158.3 Am  21?   1.93 298.5   35 209  21  99
   2024 06 22 10:40  19 21 11.03    -11 38 29.6   0.0115 1.0270 158.4 Am  21?   1.89 299.8   34 212  21  99
   2024 06 22 10:50  19 21 09.93    -11 38 20.1   0.0115 1.0270 158.4 Am  21?   1.86 301.1   33 215  21  99
   2024 06 22 11:00  19 21 08.87    -11 38 10.3   0.0115 1.0270 158.4 Am  21?   1.82 302.6   32 217  21  99
   2024 06 22 11:10  19 21 07.86    -11 38 00.4   0.0115 1.0270 158.4 Nm  21?   1.78 304.3   31 220  21  99
   2024 06 22 11:20  19 21 06.88    -11 37 50.2   0.0115 1.0270 158.4 Nm  21?   1.73 306.0   29 222  21  99
   2024 06 22 11:30  19 21 05.96    -11 37 39.9   0.0115 1.0270 158.4 Nm  21?   1.68 308.0   28 224  21  99
   2024 06 22 11:40  19 21 05.08    -11 37 29.4   0.0115 1.0270 158.4 Nm  21?   1.64 310.1   27 227  21  99
   2024 06 22 11:50  19 21 04.26    -11 37 18.8   0.0115 1.0270 158.4 Cm  21?   1.59 312.4   25 229  21  99
   2024 06 22 12:00  19 21 03.49    -11 37 07.9   0.0115 1.0270 158.4 Cm  21?   1.54 314.9   24 231  21  99
   ................
   2024 06 23 03:30  19 22 58.93    -11 25 25.2   0.0115 1.0271 158.4 C   21?   0.31  56.5    0 104  16  98
   2024 06 23 03:40  19 22 59.07    -11 25 23.4   0.0115 1.0271 158.4 N   21?   0.23  39.8    2 106  16  98
   2024 06 23 03:50  19 22 59.13    -11 25 21.7   0.0115 1.0271 158.5 N   21?   0.18  10.7    4 107  16  98
   2024 06 23 04:00  19 22 59.12    -11 25 19.8   0.0115 1.0271 158.5 N   21?   0.20 337.6    6 109  16  98
   2024 06 23 04:10  19 22 59.03    -11 25 17.9   0.0115 1.0271 158.5 Nm  21?   0.27 316.1    7 111  16  98
   2024 06 23 04:20  19 22 58.86    -11 25 15.9   0.0115 1.0271 158.5 Am  21?   0.36 304.4    9 112  16  98
   2024 06 23 04:30  19 22 58.63    -11 25 13.8   0.0115 1.0271 158.5 Am  21?   0.45 297.7   11 114  16  98
   2024 06 23 04:40  19 22 58.32    -11 25 11.6   0.0115 1.0271 158.5 Am  21?   0.55 293.6   13 116  16  98
   2024 06 23 04:50  19 22 57.94    -11 25 09.4   0.0115 1.0271 158.5 Am  21?   0.65 290.8   15 117  16  97
   2024 06 23 05:00  19 22 57.49    -11 25 07.0   0.0115 1.0271 158.5  m  21?   0.75 288.9   16 119  16  97
   2024 06 23 05:10  19 22 56.98    -11 25 04.4   0.0115 1.0271 158.5  m  21?   0.85 287.6   18 121  16  97
   2024 06 23 05:20  19 22 56.40    -11 25 01.8   0.0115 1.0271 158.5  m  21?   0.94 286.6   20 123  16  97
   2024 06 23 05:30  19 22 55.75    -11 24 59.0   0.0115 1.0271 158.5  m  21?   1.03 285.9   21 125  16  97
   2024 06 23 05:40  19 22 55.05    -11 24 56.1   0.0115 1.0271 158.5  m  21?   1.12 285.4   23 127  16  97
   2024 06 23 05:50  19 22 54.29    -11 24 53.0   0.0115 1.0271 158.5  m  21?   1.20 285.1   25 129  16  97
   2024 06 23 06:00  19 22 53.47    -11 24 49.7   0.0115 1.0271 158.5  m  21?   1.29 284.8   26 131  16  97
   2024 06 23 06:10  19 22 52.60    -11 24 46.3   0.0115 1.0271 158.6  m  21?   1.37 284.7   28 134  16  97
   2024 06 23 06:20  19 22 51.67    -11 24 42.7   0.0115 1.0271 158.6  m  21?   1.44 284.6   29 136  16  97
   2024 06 23 06:30  19 22 50.70    -11 24 39.0   0.0115 1.0271 158.6  m  21?   1.51 284.6   30 138  16  97
   2024 06 23 06:40  19 22 49.68    -11 24 35.0   0.0115 1.0271 158.6  m  21?   1.58 284.7   32 141  16  97
   2024 06 23 06:50  19 22 48.62    -11 24 30.8   0.0115 1.0271 158.6  m  21?   1.65 284.8   33 143  16  97
   2024 06 23 07:00  19 22 47.52    -11 24 26.5   0.0115 1.0271 158.6  m  21?   1.71 285.0   34 146  16  97
   2024 06 23 07:10  19 22 46.39    -11 24 21.9   0.0115 1.0271 158.6  m  21?   1.76 285.2   35 149  16  97
   2024 06 23 07:20  19 22 45.21    -11 24 17.2   0.0115 1.0271 158.6  m  21?   1.81 285.4   36 151  16  97
   2024 06 23 07:30  19 22 44.01    -11 24 12.2   0.0115 1.0271 158.6  m  21?   1.86 285.7   37 154  16  97
   2024 06 23 07:40  19 22 42.78    -11 24 07.0   0.0115 1.0271 158.6  m  21?   1.90 286.0   38 157  16  97
   2024 06 23 07:50  19 22 41.53    -11 24 01.6   0.0115 1.0271 158.6  m  21?   1.94 286.3   38 160  16  97
   2024 06 23 08:00  19 22 40.25    -11 23 56.0   0.0115 1.0271 158.6  m  21?   1.97 286.7   39 163  16  97
   2024 06 23 08:10  19 22 38.96    -11 23 50.1   0.0115 1.0271 158.7  m  21?   2.00 287.1   39 166  16  97
   2024 06 23 08:20  19 22 37.66    -11 23 44.1   0.0115 1.0271 158.7  m  21?   2.03 287.6   40 170  16  97
   2024 06 23 08:30  19 22 36.34    -11 23 37.8   0.0115 1.0271 158.7  m  21?   2.05 288.1   40 173  16  97
   2024 06 23 08:40  19 22 35.02    -11 23 31.3   0.0115 1.0271 158.7  m  21?   2.06 288.6   40 176  16  97
   2024 06 23 08:50  19 22 33.69    -11 23 24.5   0.0115 1.0271 158.7  m  21?   2.07 289.2   40 179  16  97
   2024 06 23 09:00  19 22 32.36    -11 23 17.5   0.0115 1.0271 158.7  t  21?   2.08 289.8   40 183  16  97
   2024 06 23 09:10  19 22 31.03    -11 23 10.3   0.0115 1.0271 158.7  m  21?   2.08 290.4   40 186  16  97
   2024 06 23 09:20  19 22 29.72    -11 23 02.9   0.0115 1.0271 158.7  m  21?   2.07 291.1   40 189  16  97
   2024 06 23 09:30  19 22 28.41    -11 22 55.3   0.0115 1.0271 158.7  m  21?   2.07 291.9   40 192  16  97
   2024 06 23 09:40  19 22 27.11    -11 22 47.4   0.0115 1.0271 158.7  m  21?   2.05 292.7   39 195  16  97
   2024 06 23 09:50  19 22 25.84    -11 22 39.3   0.0115 1.0271 158.7  m  21?   2.04 293.6   38 198  16  97
   2024 06 23 10:00  19 22 24.58    -11 22 31.0   0.0115 1.0271 158.8  m  21?   2.02 294.5   38 201  16  97
   2024 06 23 10:10  19 22 23.34    -11 22 22.5   0.0115 1.0271 158.8  m  21?   1.99 295.5   37 204  16  97
   2024 06 23 10:20  19 22 22.14    -11 22 13.7   0.0115 1.0271 158.8 Am  21?   1.96 296.6   36 207  16  97
   2024 06 23 10:30  19 22 20.96    -11 22 04.8   0.0115 1.0271 158.8 Am  21?   1.93 297.7   35 210  16  97
   2024 06 23 10:40  19 22 19.82    -11 21 55.6   0.0115 1.0271 158.8 Am  21?   1.90 299.0   34 213  16  97
   2024 06 23 10:50  19 22 18.71    -11 21 46.3   0.0115 1.0271 158.8 Am  21?   1.86 300.4   33 215  16  97
   2024 06 23 11:00  19 22 17.64    -11 21 36.8   0.0115 1.0271 158.8 Am  21?   1.82 301.8   32 218  16  97
   2024 06 23 11:10  19 22 16.61    -11 21 27.0   0.0115 1.0271 158.8 Nm  21?   1.77 303.4   31 221  16  97
   2024 06 23 11:20  19 22 15.63    -11 21 17.1   0.0115 1.0271 158.8 Nm  21?   1.73 305.2   29 223  16  97
   2024 06 23 11:30  19 22 14.70    -11 21 07.0   0.0115 1.0271 158.8 Nm  21?   1.68 307.1   28 225  16  97
   2024 06 23 11:40  19 22 13.82    -11 20 56.8   0.0115 1.0271 158.8 Nm  21?   1.63 309.2   26 227  16  97
   2024 06 23 11:50  19 22 12.99    -11 20 46.4   0.0115 1.0271 158.8 Cm  21?   1.58 311.5   25 230  16  97
   2024 06 23 12:00  19 22 12.22    -11 20 35.8   0.0115 1.0271 158.8 Cm  21?   1.53 314.0   23 232  16  97
   ................
   2024 06 24 03:30  19 24 05.48    -11 09 15.9   0.0116 1.0272 158.9 C   21?   0.25  49.4    1 105  18  94
   2024 06 24 03:40  19 24 05.57    -11 09 14.2   0.0116 1.0272 158.9 N   21?   0.19  25.2    3 106  18  94
   2024 06 24 03:50  19 24 05.59    -11 09 12.5   0.0115 1.0272 158.9 N   21?   0.18 349.5    4 108  18  94
   2024 06 24 04:00  19 24 05.53    -11 09 10.7   0.0115 1.0272 158.9 N   21?   0.23 321.6    6 109  18  94
   2024 06 24 04:10  19 24 05.40    -11 09 08.8   0.0115 1.0272 158.9 N   21?   0.32 306.7    8 111  19  93
   2024 06 24 04:20  19 24 05.19    -11 09 06.9   0.0115 1.0272 158.9 A   21?   0.41 298.6   10 113  19  93
   2024 06 24 04:30  19 24 04.91    -11 09 04.9   0.0115 1.0272 158.9 A   21?   0.51 293.7   12 114  19  93
   2024 06 24 04:40  19 24 04.56    -11 09 02.8   0.0115 1.0272 158.9 A   21?   0.61 290.7   14 116  19  93
   2024 06 24 04:50  19 24 04.14    -11 09 00.5   0.0115 1.0272 158.9 A   21?   0.71 288.6   15 118  19  93
   2024 06 24 05:00  19 24 03.65    -11 08 58.2   0.0115 1.0272 158.9  m  21?   0.81 287.1   17 120  19  93
   2024 06 24 05:10  19 24 03.09    -11 08 55.8   0.0115 1.0272 158.9  m  21?   0.90 286.0   19 121  19  93
   2024 06 24 05:20  19 24 02.47    -11 08 53.2   0.0115 1.0272 159.0  m  21?   0.99 285.3   20 123  19  93
   2024 06 24 05:30  19 24 01.79    -11 08 50.4   0.0115 1.0272 159.0  m  21?   1.09 284.7   22 125  19  93
   2024 06 24 05:40  19 24 01.04    -11 08 47.6   0.0115 1.0272 159.0  m  21?   1.17 284.4   24 127  19  93
   2024 06 24 05:50  19 24 00.24    -11 08 44.6   0.0115 1.0272 159.0  m  21?   1.26 284.1   25 130  19  93
   2024 06 24 06:00  19 23 59.39    -11 08 41.4   0.0115 1.0272 159.0  m  21?   1.34 283.9   27 132  19  93
   2024 06 24 06:10  19 23 58.48    -11 08 38.0   0.0115 1.0272 159.0  m  21?   1.42 283.8   28 134  19  93
   2024 06 24 06:20  19 23 57.52    -11 08 34.5   0.0115 1.0272 159.0  m  21?   1.49 283.8   30 136  19  93
   2024 06 24 06:30  19 23 56.51    -11 08 30.8   0.0115 1.0272 159.0  m  21?   1.56 283.9   31 139  19  93
   2024 06 24 06:40  19 23 55.46    -11 08 26.9   0.0115 1.0272 159.0  m  21?   1.63 283.9   32 141  19  93
   2024 06 24 06:50  19 23 54.37    -11 08 22.9   0.0115 1.0272 159.0  m  21?   1.69 284.1   33 144  19  93
   2024 06 24 07:00  19 23 53.24    -11 08 18.6   0.0115 1.0272 159.0  m  21?   1.75 284.3   34 146  19  93
   2024 06 24 07:10  19 23 52.07    -11 08 14.1   0.0115 1.0272 159.0  m  21?   1.80 284.5   36 149  19  93
   2024 06 24 07:20  19 23 50.87    -11 08 09.5   0.0115 1.0272 159.1  m  21?   1.85 284.7   36 152  19  93
   2024 06 24 07:30  19 23 49.63    -11 08 04.6   0.0115 1.0272 159.1  m  21?   1.90 285.0   37 155  20  93
   2024 06 24 07:40  19 23 48.38    -11 07 59.5   0.0115 1.0272 159.1  m  21?   1.94 285.3   38 158  20  93
   2024 06 24 07:50  19 23 47.09    -11 07 54.2   0.0115 1.0272 159.1  m  21?   1.98 285.7   39 161  20  93
   2024 06 24 08:00  19 23 45.79    -11 07 48.7   0.0115 1.0272 159.1  m  21?   2.01 286.1   39 164  20  93
   2024 06 24 08:10  19 23 44.48    -11 07 43.0   0.0115 1.0272 159.1  m  21?   2.04 286.5   40 167  20  93
   2024 06 24 08:20  19 23 43.15    -11 07 37.0   0.0115 1.0272 159.1  m  21?   2.06 286.9   40 170  20  93
   2024 06 24 08:30  19 23 41.81    -11 07 30.9   0.0115 1.0272 159.1  m  21?   2.08 287.4   41 174  20  93
   2024 06 24 08:40  19 23 40.46    -11 07 24.5   0.0115 1.0272 159.1  m  21?   2.09 287.9   41 177  20  93
   2024 06 24 08:50  19 23 39.11    -11 07 17.9   0.0115 1.0272 159.1  t  21?   2.10 288.5   41 180  20  93
   2024 06 24 09:00  19 23 37.76    -11 07 11.0   0.0115 1.0272 159.1  m  21?   2.10 289.1   41 183  20  93
   2024 06 24 09:10  19 23 36.42    -11 07 04.0   0.0115 1.0272 159.2  m  21?   2.10 289.7   40 187  20  93
   2024 06 24 09:20  19 23 35.08    -11 06 56.7   0.0115 1.0272 159.2  m  21?   2.09 290.4   40 190  20  93
   2024 06 24 09:30  19 23 33.75    -11 06 49.2   0.0115 1.0272 159.2  m  21?   2.09 291.2   40 193  20  93
   2024 06 24 09:40  19 23 32.44    -11 06 41.5   0.0115 1.0272 159.2  m  21?   2.07 292.0   39 196  20  93
   2024 06 24 09:50  19 23 31.15    -11 06 33.6   0.0115 1.0272 159.2  m  21?   2.05 292.8   39 199  20  93
   2024 06 24 10:00  19 23 29.87    -11 06 25.5   0.0115 1.0272 159.2  m  21?   2.03 293.7   38 202  20  92
   2024 06 24 10:10  19 23 28.63    -11 06 17.2   0.0115 1.0272 159.2  m  21?   2.00 294.7   37 205  20  92
   2024 06 24 10:20  19 23 27.41    -11 06 08.6   0.0115 1.0272 159.2 Am  21?   1.97 295.8   36 208  20  92
   2024 06 24 10:30  19 23 26.22    -11 05 59.9   0.0115 1.0272 159.2 Am  21?   1.94 296.9   35 211  20  92
   2024 06 24 10:40  19 23 25.06    -11 05 50.9   0.0115 1.0272 159.2 Am  21?   1.90 298.2   34 214  20  92
   2024 06 24 10:50  19 23 23.94    -11 05 41.8   0.0115 1.0272 159.2 Am  21?   1.86 299.5   33 216  20  92
   2024 06 24 11:00  19 23 22.86    -11 05 32.5   0.0115 1.0272 159.2 Am  21?   1.82 301.0   32 219  20  92
   2024 06 24 11:10  19 23 21.83    -11 05 23.0   0.0115 1.0272 159.2 Nm  21?   1.77 302.6   30 221  20  92
   2024 06 24 11:20  19 23 20.84    -11 05 13.3   0.0115 1.0272 159.3 Nm  21?   1.72 304.3   29 224  20  92
   2024 06 24 11:30  19 23 19.90    -11 05 03.5   0.0115 1.0272 159.3 Nm  21?   1.67 306.2   28 226  20  92
   2024 06 24 11:40  19 23 19.01    -11 04 53.5   0.0115 1.0272 159.3 Nm  21?   1.62 308.3   26 228  20  92
   2024 06 24 11:50  19 23 18.17    -11 04 43.3   0.0115 1.0272 159.3 Cm  21?   1.57 310.5   25 230  20  92
   2024 06 24 12:00  19 23 17.39    -11 04 33.0   0.0115 1.0272 159.3 Cm  21?   1.52 313.0   23 233  21  92
   ................
   2024 06 25 03:20  19 25 08.17    -10 53 38.1   0.0116 1.0273 159.3 Cr  21?   0.28  56.9    0 103  27  87
   2024 06 25 03:30  19 25 08.29    -10 53 36.6   0.0116 1.0273 159.3 C   21?   0.20  37.8    1 105  28  87
   2024 06 25 03:40  19 25 08.34    -10 53 35.0   0.0116 1.0273 159.3 N   21?   0.16   3.2    3 106  28  87
   2024 06 25 03:50  19 25 08.30    -10 53 33.4   0.0116 1.0273 159.3 N   21?   0.20 328.4    5 108  28  87
   2024 06 25 04:00  19 25 08.20    -10 53 31.6   0.0116 1.0273 159.3 N   21?   0.27 309.1    7 110  28  87
   2024 06 25 04:10  19 25 08.02    -10 53 29.9   0.0116 1.0273 159.4 N   21?   0.37 299.3    9 111  28  87
   2024 06 25 04:20  19 25 07.76    -10 53 28.0   0.0116 1.0273 159.4 A   21?   0.47 293.7   11 113  28  87
   2024 06 25 04:30  19 25 07.43    -10 53 26.1   0.0116 1.0273 159.4 A   21?   0.57 290.3   13 115  28  87
   2024 06 25 04:40  19 25 07.04    -10 53 24.0   0.0116 1.0273 159.4 A   21?   0.67 288.0   14 116  28  87
   2024 06 25 04:50  19 25 06.57    -10 53 21.9   0.0116 1.0273 159.4 A   21?   0.77 286.4   16 118  28  87
   2024 06 25 05:00  19 25 06.04    -10 53 19.6   0.0116 1.0273 159.4     21?   0.87 285.3   18 120  28  87
   2024 06 25 05:10  19 25 05.44    -10 53 17.2   0.0116 1.0273 159.4     21?   0.96 284.5   19 122  28  87
   2024 06 25 05:20  19 25 04.77    -10 53 14.7   0.0116 1.0273 159.4     21?   1.05 284.0   21 124  29  87
   2024 06 25 05:30  19 25 04.05    -10 53 12.1   0.0116 1.0273 159.4     21?   1.14 283.5   23 126  29  87
   2024 06 25 05:40  19 25 03.26    -10 53 09.3   0.0116 1.0273 159.4  m  21?   1.23 283.3   24 128  29  87
   2024 06 25 05:50  19 25 02.42    -10 53 06.4   0.0115 1.0273 159.4  m  21?   1.32 283.1   26 130  29  87
   2024 06 25 06:00  19 25 01.53    -10 53 03.3   0.0115 1.0273 159.4  m  21?   1.40 283.0   27 132  29  87
   2024 06 25 06:10  19 25 00.58    -10 53 00.0   0.0115 1.0273 159.4  m  21?   1.47 283.0   29 134  29  86
   2024 06 25 06:20  19 24 59.58    -10 52 56.6   0.0115 1.0273 159.4  m  21?   1.55 283.0   30 137  29  86
   2024 06 25 06:30  19 24 58.54    -10 52 53.0   0.0115 1.0273 159.5  m  21?   1.61 283.1   31 139  29  86
   2024 06 25 06:40  19 24 57.45    -10 52 49.2   0.0115 1.0273 159.5  m  21?   1.68 283.2   33 142  29  86
   2024 06 25 06:50  19 24 56.32    -10 52 45.2   0.0115 1.0273 159.5  m  21?   1.74 283.3   34 144  29  86
   2024 06 25 07:00  19 24 55.15    -10 52 41.0   0.0115 1.0273 159.5  m  21?   1.80 283.5   35 147  29  86
   2024 06 25 07:10  19 24 53.95    -10 52 36.7   0.0115 1.0273 159.5  m  21?   1.85 283.8   36 150  29  86
   2024 06 25 07:20  19 24 52.71    -10 52 32.1   0.0115 1.0273 159.5  m  21?   1.90 284.0   37 153  29  86
   2024 06 25 07:30  19 24 51.45    -10 52 27.4   0.0115 1.0273 159.5  m  21?   1.94 284.3   38 156  29  86
   2024 06 25 07:40  19 24 50.16    -10 52 22.4   0.0115 1.0273 159.5  m  21?   1.98 284.6   39 159  30  86
   2024 06 25 07:50  19 24 48.85    -10 52 17.2   0.0115 1.0273 159.5  m  21?   2.02 285.0   39 162  30  86
   2024 06 25 08:00  19 24 47.52    -10 52 11.9   0.0115 1.0273 159.5  m  21?   2.05 285.4   40 165  30  86
   2024 06 25 08:10  19 24 46.18    -10 52 06.3   0.0115 1.0273 159.5  m  21?   2.07 285.8   40 168  30  86
   2024 06 25 08:20  19 24 44.82    -10 52 00.4   0.0115 1.0273 159.6  m  21?   2.09 286.2   41 171  30  86
   2024 06 25 08:30  19 24 43.45    -10 51 54.4   0.0115 1.0273 159.6  m  21?   2.11 286.7   41 175  30  86
   2024 06 25 08:40  19 24 42.08    -10 51 48.2   0.0115 1.0273 159.6  m  21?   2.12 287.2   41 178  30  86
   2024 06 25 08:50  19 24 40.71    -10 51 41.7   0.0115 1.0273 159.6  t  21?   2.13 287.8   41 181  30  86
   2024 06 25 09:00  19 24 39.34    -10 51 35.1   0.0115 1.0273 159.6  m  21?   2.13 288.4   41 184  30  86
   2024 06 25 09:10  19 24 37.97    -10 51 28.2   0.0115 1.0273 159.6  m  21?   2.13 289.0   41 188  30  86
   2024 06 25 09:20  19 24 36.61    -10 51 21.1   0.0115 1.0273 159.6  m  21?   2.12 289.7   40 191  30  86
   2024 06 25 09:30  19 24 35.27    -10 51 13.8   0.0115 1.0273 159.6  m  21?   2.11 290.4   40 194  30  86
   2024 06 25 09:40  19 24 33.93    -10 51 06.3   0.0115 1.0273 159.6  m  21?   2.09 291.2   39 197  30  86
   2024 06 25 09:50  19 24 32.62    -10 50 58.5   0.0115 1.0273 159.6  m  21?   2.07 292.0   39 200  30  86
   2024 06 25 10:00  19 24 31.33    -10 50 50.6   0.0115 1.0273 159.6  m  21?   2.05 292.9   38 203  30  86
   2024 06 25 10:10  19 24 30.07    -10 50 42.5   0.0115 1.0273 159.6  m  21?   2.02 293.9   37 206  30  86
   2024 06 25 10:20  19 24 28.83    -10 50 34.1   0.0115 1.0273 159.7 Am  21?   1.99 294.9   36 209  30  86
   2024 06 25 10:30  19 24 27.63    -10 50 25.6   0.0115 1.0273 159.7 Am  21?   1.95 296.1   35 212  31  86
   2024 06 25 10:40  19 24 26.46    -10 50 16.9   0.0115 1.0273 159.7 Am  21?   1.91 297.3   34 215  31  85
   2024 06 25 10:50  19 24 25.33    -10 50 08.0   0.0115 1.0273 159.7 Am  21?   1.87 298.6   33 217  31  85
   2024 06 25 11:00  19 24 24.24    -10 49 58.9   0.0115 1.0273 159.7 Am  21?   1.82 300.0   32 220  31  85
   2024 06 25 11:10  19 24 23.19    -10 49 49.6   0.0115 1.0273 159.7 Nm  21?   1.77 301.6   30 222  31  85
   2024 06 25 11:20  19 24 22.19    -10 49 40.2   0.0116 1.0273 159.7 Nm  21?   1.72 303.3   29 225  31  85
   2024 06 25 11:30  19 24 21.24    -10 49 30.6   0.0116 1.0273 159.7 Nm  21?   1.67 305.2   27 227  31  85
   2024 06 25 11:40  19 24 20.34    -10 49 20.9   0.0116 1.0273 159.7 Nm  21?   1.62 307.2   26 229  31  85
   2024 06 25 11:50  19 24 19.49    -10 49 11.0   0.0116 1.0273 159.7 Cm  21?   1.56 309.5   24 231  31  85
   2024 06 25 12:00  19 24 18.70    -10 49 00.9   0.0116 1.0273 159.7 Cm  21?   1.51 311.9   23 233  31  85
   ................
   2024 06 26 03:20  19 26 06.99    -10 38 30.5   0.0116 1.0274 159.8 C   21?   0.22  48.1    0 103  39  79
   2024 06 26 03:30  19 26 07.06    -10 38 29.1   0.0116 1.0274 159.8 C   21?   0.15  17.6    2 105  39  79
   2024 06 26 03:40  19 26 07.05    -10 38 27.6   0.0116 1.0274 159.8 N   21?   0.17 336.6    4 107  40  79
   2024 06 26 03:50  19 26 06.97    -10 38 26.0   0.0116 1.0274 159.8 N   21?   0.24 311.6    6 108  40  79
   2024 06 26 04:00  19 26 06.81    -10 38 24.4   0.0116 1.0274 159.8 N   21?   0.33 299.7    8 110  40  79
   2024 06 26 04:10  19 26 06.58    -10 38 22.7   0.0116 1.0274 159.8 N   21?   0.43 293.4   10 111  40  79
   2024 06 26 04:20  19 26 06.28    -10 38 21.0   0.0116 1.0274 159.8 A   21?   0.53 289.6   11 113  40  79
   2024 06 26 04:30  19 26 05.90    -10 38 19.1   0.0116 1.0274 159.8 A   21?   0.63 287.2   13 115  40  79
   2024 06 26 04:40  19 26 05.45    -10 38 17.2   0.0116 1.0274 159.8 A   21?   0.74 285.6   15 117  40  78
   2024 06 26 04:50  19 26 04.94    -10 38 15.1   0.0116 1.0274 159.8 A   21?   0.83 284.4   17 118  40  78
   2024 06 26 05:00  19 26 04.36    -10 38 13.0   0.0116 1.0274 159.8     21?   0.93 283.6   18 120  40  78
   2024 06 26 05:10  19 26 03.71    -10 38 10.7   0.0116 1.0274 159.8     21?   1.03 283.0   20 122  40  78
   2024 06 26 05:20  19 26 03.00    -10 38 08.3   0.0116 1.0274 159.8     21?   1.12 282.6   22 124  41  78
   2024 06 26 05:30  19 26 02.23    -10 38 05.7   0.0116 1.0274 159.9     21?   1.21 282.3   23 126  41  78
   2024 06 26 05:40  19 26 01.41    -10 38 03.0   0.0116 1.0274 159.9     21?   1.29 282.2   25 128  41  78
   2024 06 26 05:50  19 26 00.52    -10 38 00.2   0.0116 1.0274 159.9     21?   1.38 282.1   27 130  41  78
   2024 06 26 06:00  19 25 59.58    -10 37 57.2   0.0116 1.0274 159.9     21?   1.45 282.0   28 133  41  78
   2024 06 26 06:10  19 25 58.59    -10 37 54.0   0.0116 1.0274 159.9  m  21?   1.53 282.0   29 135  41  78
   2024 06 26 06:20  19 25 57.56    -10 37 50.7   0.0116 1.0274 159.9  m  21?   1.60 282.1   31 137  41  78
   2024 06 26 06:30  19 25 56.47    -10 37 47.2   0.0116 1.0274 159.9  m  21?   1.67 282.2   32 140  41  78
   2024 06 26 06:40  19 25 55.34    -10 37 43.5   0.0116 1.0274 159.9  m  21?   1.73 282.4   33 142  41  78
   2024 06 26 06:50  19 25 54.18    -10 37 39.7   0.0116 1.0274 159.9  m  21?   1.79 282.5   34 145  41  78
   2024 06 26 07:00  19 25 52.97    -10 37 35.6   0.0116 1.0274 159.9  m  21?   1.85 282.8   36 148  41  78
   2024 06 26 07:10  19 25 51.73    -10 37 31.4   0.0116 1.0274 159.9  m  21?   1.90 283.0   37 151  41  78
   2024 06 26 07:20  19 25 50.46    -10 37 27.0   0.0116 1.0274 159.9  m  21?   1.95 283.3   37 153  42  78
   2024 06 26 07:30  19 25 49.17    -10 37 22.4   0.0116 1.0274 160.0  m  21?   1.99 283.6   38 156  42  77
   2024 06 26 07:40  19 25 47.85    -10 37 17.5   0.0116 1.0274 160.0  m  21?   2.03 283.9   39 160  42  77
   2024 06 26 07:50  19 25 46.50    -10 37 12.5   0.0116 1.0274 160.0  m  21?   2.06 284.3   40 163  42  77
   2024 06 26 08:00  19 25 45.14    -10 37 07.3   0.0116 1.0274 160.0  m  21?   2.09 284.6   40 166  42  77
   2024 06 26 08:10  19 25 43.77    -10 37 01.8   0.0116 1.0274 160.0  m  21?   2.11 285.1   41 169  42  77
   2024 06 26 08:20  19 25 42.38    -10 36 56.2   0.0116 1.0274 160.0  m  21?   2.13 285.5   41 172  42  77
   2024 06 26 08:30  19 25 40.98    -10 36 50.3   0.0116 1.0274 160.0  m  21?   2.14 286.0   41 176  42  77
   2024 06 26 08:40  19 25 39.59    -10 36 44.2   0.0116 1.0274 160.0  m  21?   2.15 286.5   41 179  42  77
   2024 06 26 08:50  19 25 38.19    -10 36 37.9   0.0116 1.0274 160.0  t  21?   2.16 287.0   41 182  42  77
   2024 06 26 09:00  19 25 36.79    -10 36 31.4   0.0116 1.0274 160.0  m  21?   2.16 287.6   41 185  42  77
   2024 06 26 09:10  19 25 35.40    -10 36 24.7   0.0116 1.0274 160.0  m  21?   2.15 288.2   41 189  42  77
   2024 06 26 09:20  19 25 34.02    -10 36 17.8   0.0116 1.0274 160.0  m  21?   2.15 288.9   40 192  42  77
   2024 06 26 09:30  19 25 32.65    -10 36 10.7   0.0116 1.0274 160.1  m  21?   2.13 289.6   40 195  42  77
   2024 06 26 09:40  19 25 31.30    -10 36 03.4   0.0116 1.0274 160.1  m  21?   2.11 290.4   39 198  43  77
   2024 06 26 09:50  19 25 29.96    -10 35 55.9   0.0116 1.0274 160.1  m  21?   2.09 291.2   39 201  43  77
   2024 06 26 10:00  19 25 28.66    -10 35 48.1   0.0116 1.0274 160.1  m  21?   2.07 292.1   38 204  43  77
   2024 06 26 10:10  19 25 27.37    -10 35 40.2   0.0116 1.0274 160.1  m  21?   2.04 293.0   37 207  43  77
   2024 06 26 10:20  19 25 26.12    -10 35 32.1   0.0116 1.0274 160.1  m  21?   2.00 294.0   36 210  43  77
   2024 06 26 10:30  19 25 24.90    -10 35 23.8   0.0116 1.0274 160.1 Am  21?   1.96 295.1   35 213  43  77
   2024 06 26 10:40  19 25 23.71    -10 35 15.3   0.0116 1.0274 160.1 Am  21?   1.92 296.3   34 216  43  77
   2024 06 26 10:50  19 25 22.57    -10 35 06.7   0.0116 1.0274 160.1 Am  21?   1.88 297.6   33 218  43  77
   2024 06 26 11:00  19 25 21.46    -10 34 57.8   0.0116 1.0274 160.1 Am  21?   1.83 299.0   31 221  43  76
   2024 06 26 11:10  19 25 20.40    -10 34 48.8   0.0116 1.0274 160.1 Nm  21?   1.78 300.5   30 223  43  76
   2024 06 26 11:20  19 25 19.39    -10 34 39.6   0.0116 1.0274 160.1 Nm  21?   1.73 302.2   29 225  43  76
   2024 06 26 11:30  19 25 18.42    -10 34 30.3   0.0116 1.0274 160.1 Nm  21?   1.67 304.1   27 228  43  76
   2024 06 26 11:40  19 25 17.51    -10 34 20.8   0.0116 1.0274 160.2 Nm  21?   1.62 306.1   26 230  43  76
   2024 06 26 11:50  19 25 16.66    -10 34 11.2   0.0116 1.0274 160.2 Cm  21?   1.56 308.3   24 232  43  76
   2024 06 26 12:00  19 25 15.86    -10 34 01.4   0.0116 1.0274 160.2 Cm  21?   1.50 310.7   22 234  43  76
   ................
   2024 06 27 03:10  19 27 01.40    -10 23 58.2   0.0116 1.0275 160.2 Cr  21?   0.23  56.7    0 102  52  69
   2024 06 27 03:20  19 27 01.50    -10 23 56.9   0.0116 1.0275 160.2 C   21?   0.15  31.9    1 104  52  69
   2024 06 27 03:30  19 27 01.51    -10 23 55.5   0.0116 1.0275 160.2 C   21?   0.14 346.9    3 105  52  69
   2024 06 27 03:40  19 27 01.45    -10 23 54.2   0.0116 1.0275 160.2 N   21?   0.20 314.3    5 107  52  69
   2024 06 27 03:50  19 27 01.32    -10 23 52.7   0.0116 1.0275 160.2 N   21?   0.29 299.8    7 108  52  69
   2024 06 27 04:00  19 27 01.11    -10 23 51.2   0.0116 1.0275 160.2 N   21?   0.39 292.7    8 110  52  69
   2024 06 27 04:10  19 27 00.83    -10 23 49.7   0.0116 1.0275 160.3 N   21?   0.50 288.7   10 112  53  69
   2024 06 27 04:20  19 27 00.47    -10 23 48.0   0.0116 1.0275 160.3 A   21?   0.60 286.2   12 113  53  69
   2024 06 27 04:30  19 27 00.05    -10 23 46.3   0.0116 1.0275 160.3 A   21?   0.70 284.5   14 115  53  69
   2024 06 27 04:40  19 26 59.55    -10 23 44.4   0.0116 1.0275 160.3 A   21?   0.80 283.4   16 117  53  69
   2024 06 27 04:50  19 26 58.99    -10 23 42.5   0.0116 1.0275 160.3 A   21?   0.90 282.6   17 119  53  68
   2024 06 27 05:00  19 26 58.36    -10 23 40.5   0.0116 1.0275 160.3     21?   1.00 282.0   19 121  53  68
   2024 06 27 05:10  19 26 57.66    -10 23 38.3   0.0116 1.0275 160.3     21?   1.09 281.6   21 123  53  68
   2024 06 27 05:20  19 26 56.91    -10 23 36.0   0.0116 1.0275 160.3     21?   1.18 281.3   22 125  53  68
   2024 06 27 05:30  19 26 56.09    -10 23 33.6   0.0116 1.0275 160.3     21?   1.27 281.1   24 127  53  68
   2024 06 27 05:40  19 26 55.22    -10 23 31.0   0.0116 1.0275 160.3     21?   1.36 281.0   26 129  54  68
   2024 06 27 05:50  19 26 54.29    -10 23 28.3   0.0116 1.0275 160.3     21?   1.44 281.0   27 131  54  68
   2024 06 27 06:00  19 26 53.30    -10 23 25.4   0.0116 1.0275 160.3     21?   1.52 281.0   29 133  54  68
   2024 06 27 06:10  19 26 52.27    -10 23 22.4   0.0116 1.0275 160.3     21?   1.59 281.1   30 136  54  68
   2024 06 27 06:20  19 26 51.19    -10 23 19.2   0.0116 1.0275 160.3     21?   1.66 281.2   31 138  54  68
   2024 06 27 06:30  19 26 50.06    -10 23 15.8   0.0116 1.0275 160.4     21?   1.73 281.3   33 140  54  68
   2024 06 27 06:40  19 26 48.90    -10 23 12.3   0.0116 1.0275 160.4  m  21?   1.79 281.5   34 143  54  68
   2024 06 27 06:50  19 26 47.69    -10 23 08.6   0.0116 1.0275 160.4  m  21?   1.85 281.7   35 146  54  68
   2024 06 27 07:00  19 26 46.44    -10 23 04.6   0.0116 1.0275 160.4  m  21?   1.90 281.9   36 149  54  67
   2024 06 27 07:10  19 26 45.17    -10 23 00.6   0.0116 1.0275 160.4  m  21?   1.95 282.2   37 151  54  67
   2024 06 27 07:20  19 26 43.86    -10 22 56.3   0.0116 1.0275 160.4  m  21?   2.00 282.5   38 154  54  67
   2024 06 27 07:30  19 26 42.53    -10 22 51.8   0.0116 1.0275 160.4  m  21?   2.04 282.8   39 157  55  67
   2024 06 27 07:40  19 26 41.17    -10 22 47.1   0.0116 1.0275 160.4  m  21?   2.07 283.1   39 160  55  67
   2024 06 27 07:50  19 26 39.79    -10 22 42.3   0.0116 1.0275 160.4  m  21?   2.10 283.5   40 164  55  67
   2024 06 27 08:00  19 26 38.40    -10 22 37.2   0.0116 1.0275 160.4  m  21?   2.13 283.9   41 167  55  67
   2024 06 27 08:10  19 26 36.99    -10 22 31.9   0.0116 1.0275 160.4  m  21?   2.15 284.3   41 170  55  67
   2024 06 27 08:20  19 26 35.58    -10 22 26.4   0.0116 1.0275 160.4  m  21?   2.17 284.7   41 173  55  67
   2024 06 27 08:30  19 26 34.15    -10 22 20.7   0.0116 1.0275 160.5  m  21?   2.18 285.2   41 177  55  67
   2024 06 27 08:40  19 26 32.72    -10 22 14.8   0.0116 1.0275 160.5  t  21?   2.19 285.7   41 180  55  67
   2024 06 27 08:50  19 26 31.30    -10 22 08.7   0.0116 1.0275 160.5  m  21?   2.19 286.2   41 183  55  67
   2024 06 27 09:00  19 26 29.87    -10 22 02.4   0.0116 1.0275 160.5  m  21?   2.19 286.8   41 186  55  67
   2024 06 27 09:10  19 26 28.46    -10 21 55.9   0.0116 1.0275 160.5  m  21?   2.19 287.4   41 190  55  67
   2024 06 27 09:20  19 26 27.05    -10 21 49.2   0.0116 1.0275 160.5  m  21?   2.17 288.1   40 193  55  67
   2024 06 27 09:30  19 26 25.66    -10 21 42.3   0.0116 1.0275 160.5  m  21?   2.16 288.8   40 196  56  67
   2024 06 27 09:40  19 26 24.28    -10 21 35.2   0.0116 1.0275 160.5  m  21?   2.14 289.5   39 199  56  66
   2024 06 27 09:50  19 26 22.93    -10 21 27.9   0.0116 1.0275 160.5  m  21?   2.11 290.3   39 202  56  66
   2024 06 27 10:00  19 26 21.60    -10 21 20.4   0.0116 1.0275 160.5  m  21?   2.09 291.2   38 205  56  66
   2024 06 27 10:10  19 26 20.30    -10 21 12.7   0.0116 1.0275 160.5  m  21?   2.05 292.1   37 208  56  66
   2024 06 27 10:20  19 26 19.02    -10 21 04.9   0.0116 1.0275 160.5  m  21?   2.02 293.1   36 211  56  66
   2024 06 27 10:30  19 26 17.79    -10 20 56.8   0.0116 1.0275 160.6 Am  21?   1.98 294.1   35 214  56  66
   2024 06 27 10:40  19 26 16.58    -10 20 48.6   0.0116 1.0275 160.6 Am  21?   1.93 295.3   34 217  56  66
   2024 06 27 10:50  19 26 15.42    -10 20 40.2   0.0116 1.0275 160.6 Am  21?   1.89 296.6   32 219  56  66
   2024 06 27 11:00  19 26 14.30    -10 20 31.6   0.0116 1.0275 160.6 Am  21?   1.84 297.9   31 222  56  66
   2024 06 27 11:10  19 26 13.22    -10 20 22.8   0.0116 1.0275 160.6 Nm  21?   1.79 299.4   30 224  56  66
   2024 06 27 11:20  19 26 12.20    -10 20 13.9   0.0116 1.0275 160.6 Nm  21?   1.73 301.1   28 226  56  66
   2024 06 27 11:30  19 26 11.22    -10 20 04.9   0.0116 1.0275 160.6 Nm  21?   1.67 302.9   27 229  56  66
   2024 06 27 11:40  19 26 10.30    -10 19 55.7   0.0116 1.0275 160.6 Nm  21?   1.61 304.8   25 231  56  66
   2024 06 27 11:50  19 26 09.43    -10 19 46.4   0.0116 1.0275 160.6 Cm  21?   1.55 307.0   24 233  56  66
   2024 06 27 12:00  19 26 08.62    -10 19 36.9   0.0116 1.0275 160.6 Cm  21?   1.49 309.4   22 235  57  66
   ................
   2024 06 28 03:10  19 27 51.48    -10 10 00.8   0.0116 1.0275 160.7 C   21?   0.16  45.2    0 103  65  58
   2024 06 28 03:20  19 27 51.51    -10 09 59.7   0.0116 1.0275 160.7 C   21?   0.12   0.4    2 104  65  58
   2024 06 28 03:30  19 27 51.48    -10 09 58.5   0.0116 1.0275 160.7 C   21?   0.16 317.1    4 106  65  58
   2024 06 28 03:40  19 27 51.36    -10 09 57.3   0.0116 1.0275 160.7 N   21?   0.26 299.3    5 107  65  58
   2024 06 28 03:50  19 27 51.17    -10 09 56.0   0.0116 1.0275 160.7 N   21?   0.36 291.4    7 109  65  58
   2024 06 28 04:00  19 27 50.91    -10 09 54.6   0.0116 1.0275 160.7 N   21?   0.46 287.3    9 110  66  58
   2024 06 28 04:10  19 27 50.58    -10 09 53.2   0.0116 1.0275 160.7 N   21?   0.57 284.8   11 112  66  58
   2024 06 28 04:20  19 27 50.17    -10 09 51.7   0.0116 1.0275 160.7 A   21?   0.67 283.2   13 114  66  58
   2024 06 28 04:30  19 27 49.69    -10 09 50.1   0.0116 1.0275 160.7 A   21?   0.78 282.1   15 116  66  58
   2024 06 28 04:40  19 27 49.14    -10 09 48.4   0.0116 1.0275 160.7 A   21?   0.88 281.3   16 117  66  58
   2024 06 28 04:50  19 27 48.53    -10 09 46.6   0.0116 1.0275 160.7 A   21?   0.97 280.8   18 119  66  57
   2024 06 28 05:00  19 27 47.85    -10 09 44.7   0.0116 1.0275 160.7     21?   1.07 280.4   20 121  66  57
   2024 06 28 05:10  19 27 47.10    -10 09 42.6   0.0116 1.0275 160.8     21?   1.16 280.2   22 123  66  57
   2024 06 28 05:20  19 27 46.30    -10 09 40.5   0.0116 1.0275 160.8     21?   1.25 280.0   23 125  66  57
   2024 06 28 05:30  19 27 45.43    -10 09 38.2   0.0116 1.0275 160.8     21?   1.34 279.9   25 127  67  57
   2024 06 28 05:40  19 27 44.51    -10 09 35.8   0.0116 1.0275 160.8     21?   1.42 279.9   26 129  67  57
   2024 06 28 05:50  19 27 43.53    -10 09 33.2   0.0116 1.0275 160.8     21?   1.50 280.0   28 131  67  57
   2024 06 28 06:00  19 27 42.51    -10 09 30.5   0.0116 1.0275 160.8     21?   1.58 280.0   29 134  67  57
   2024 06 28 06:10  19 27 41.43    -10 09 27.6   0.0116 1.0275 160.8     21?   1.65 280.1   31 136  67  57
   2024 06 28 06:20  19 27 40.30    -10 09 24.5   0.0116 1.0275 160.8     21?   1.72 280.3   32 139  67  57
   2024 06 28 06:30  19 27 39.13    -10 09 21.3   0.0116 1.0275 160.8     21?   1.79 280.4   33 141  67  57
   2024 06 28 06:40  19 27 37.92    -10 09 17.9   0.0116 1.0275 160.8     21?   1.85 280.6   34 144  67  56
   2024 06 28 06:50  19 27 36.68    -10 09 14.4   0.0116 1.0275 160.8     21?   1.91 280.9   36 146  67  56
   2024 06 28 07:00  19 27 35.39    -10 09 10.6   0.0116 1.0275 160.8     21?   1.96 281.1   37 149  68  56
   2024 06 28 07:10  19 27 34.08    -10 09 06.7   0.0116 1.0275 160.8  m  21?   2.01 281.4   38 152  68  56
   2024 06 28 07:20  19 27 32.73    -10 09 02.6   0.0116 1.0275 160.9  m  21?   2.05 281.7   38 155  68  56
   2024 06 28 07:30  19 27 31.36    -10 08 58.3   0.0116 1.0275 160.9  m  21?   2.09 282.0   39 158  68  56
   2024 06 28 07:40  19 27 29.97    -10 08 53.8   0.0116 1.0276 160.9  m  21?   2.12 282.3   40 161  68  56
   2024 06 28 07:50  19 27 28.56    -10 08 49.1   0.0116 1.0276 160.9  m  21?   2.15 282.7   40 164  68  56
   2024 06 28 08:00  19 27 27.13    -10 08 44.2   0.0116 1.0276 160.9  m  21?   2.18 283.1   41 168  68  56
   2024 06 28 08:10  19 27 25.69    -10 08 39.1   0.0116 1.0276 160.9  m  21?   2.20 283.5   41 171  68  56
   2024 06 28 08:20  19 27 24.24    -10 08 33.9   0.0116 1.0276 160.9  m  21?   2.21 283.9   42 174  68  56
   2024 06 28 08:30  19 27 22.78    -10 08 28.4   0.0116 1.0276 160.9  m  21?   2.22 284.4   42 178  68  56
   2024 06 28 08:40  19 27 21.33    -10 08 22.7   0.0116 1.0276 160.9  t  21?   2.23 284.9   42 181  68  56
   2024 06 28 08:50  19 27 19.87    -10 08 16.8   0.0116 1.0276 160.9  m  21?   2.23 285.4   42 184  69  56
   2024 06 28 09:00  19 27 18.42    -10 08 10.7   0.0116 1.0276 160.9  m  21?   2.23 286.0   41 188  69  55
   2024 06 28 09:10  19 27 16.98    -10 08 04.4   0.0116 1.0276 160.9  m  21?   2.22 286.6   41 191  69  55
   2024 06 28 09:20  19 27 15.55    -10 07 57.9   0.0116 1.0276 161.0  m  21?   2.20 287.2   41 194  69  55
   2024 06 28 09:30  19 27 14.13    -10 07 51.3   0.0116 1.0276 161.0  m  21?   2.19 287.9   40 197  69  55
   2024 06 28 09:40  19 27 12.73    -10 07 44.4   0.0116 1.0276 161.0  m  21?   2.16 288.6   39 200  69  55
   2024 06 28 09:50  19 27 11.35    -10 07 37.3   0.0116 1.0276 161.0  m  21?   2.14 289.4   39 203  69  55
   2024 06 28 10:00  19 27 10.00    -10 07 30.1   0.0116 1.0276 161.0  m  21?   2.11 290.2   38 206  69  55
   2024 06 28 10:10  19 27 08.68    -10 07 22.6   0.0116 1.0276 161.0  m  21?   2.07 291.1   37 209  69  55
   2024 06 28 10:20  19 27 07.39    -10 07 15.0   0.0116 1.0276 161.0  m  21?   2.03 292.1   36 212  69  55
   2024 06 28 10:30  19 27 06.13    -10 07 07.2   0.0116 1.0276 161.0 Am  21?   1.99 293.1   35 215  69  55
   2024 06 28 10:40  19 27 04.91    -10 06 59.2   0.0116 1.0276 161.0 Am  21?   1.95 294.2   33 217  69  55
   2024 06 28 10:50  19 27 03.73    -10 06 51.1   0.0116 1.0276 161.0 Am  21?   1.90 295.5   32 220  69  55
   2024 06 28 11:00  19 27 02.59    -10 06 42.8   0.0116 1.0276 161.0 Am  21?   1.85 296.8   31 222  70  55
   2024 06 28 11:10  19 27 01.50    -10 06 34.4   0.0116 1.0276 161.0 Nm  21?   1.79 298.3   30 225  70  55
   2024 06 28 11:20  19 27 00.46    -10 06 25.8   0.0116 1.0276 161.0 Nm  21?   1.73 299.9   28 227  70  55
   2024 06 28 11:30  19 26 59.47    -10 06 17.0   0.0116 1.0276 161.0 Nm  21?   1.67 301.6   27 229  70  55
   2024 06 28 11:40  19 26 58.53    -10 06 08.1   0.0116 1.0276 161.1 Nm  21?   1.61 303.6   25 232  70  54
   2024 06 28 11:50  19 26 57.65    -10 05 59.1   0.0116 1.0276 161.1 Cm  21?   1.55 305.7   23 234  70  54
   2024 06 28 12:00  19 26 56.83    -10 05 49.9   0.0116 1.0276 161.1 Cm  21?   1.49 308.1   22 236  70  54
   ................
   2024 06 29 03:10  19 28 36.97    -09 56 42.7   0.0116 1.0276 161.1 C   21?   0.10  18.3    0 103  78  47
   2024 06 29 03:20  19 28 36.95    -09 56 41.7   0.0116 1.0276 161.1 C   21?   0.13 320.7    2 104  78  47
   2024 06 29 03:30  19 28 36.86    -09 56 40.7   0.0116 1.0276 161.1 C   21?   0.22 298.2    4 106  78  47
   2024 06 29 03:40  19 28 36.69    -09 56 39.6   0.0116 1.0276 161.2 N   21?   0.32 289.6    6 108  78  47
   2024 06 29 03:50  19 28 36.44    -09 56 38.5   0.0116 1.0276 161.2 N   21?   0.43 285.4    8 109  79  47
   2024 06 29 04:00  19 28 36.13    -09 56 37.3   0.0116 1.0276 161.2 N   21?   0.54 283.0   10 111  79  47
   2024 06 29 04:10  19 28 35.74    -09 56 36.0   0.0116 1.0276 161.2 N   21?   0.64 281.5   12 112  79  46
   2024 06 29 04:20  19 28 35.27    -09 56 34.7   0.0116 1.0276 161.2 A   21?   0.75 280.5   14 114  79  46
   2024 06 29 04:30  19 28 34.74    -09 56 33.3   0.0116 1.0276 161.2 A   21?   0.85 279.9   15 116  79  46
   2024 06 29 04:40  19 28 34.14    -09 56 31.7   0.0116 1.0276 161.2 A   21?   0.95 279.4   17 118  79  46
   2024 06 29 04:50  19 28 33.48    -09 56 30.1   0.0116 1.0276 161.2 A   21?   1.05 279.1   19 120  79  46
   2024 06 29 05:00  19 28 32.75    -09 56 28.3   0.0116 1.0276 161.2     21?   1.14 278.9   21 122  79  46
   2024 06 29 05:10  19 28 31.95    -09 56 26.5   0.0116 1.0276 161.2     21?   1.23 278.8   22 124  80  46
   2024 06 29 05:20  19 28 31.10    -09 56 24.5   0.0116 1.0276 161.2     21?   1.32 278.8   24 126  80  46
   2024 06 29 05:30  19 28 30.18    -09 56 22.4   0.0116 1.0276 161.2     21?   1.41 278.8   25 128  80  46
   2024 06 29 05:40  19 28 29.21    -09 56 20.1   0.0116 1.0276 161.2     21?   1.49 278.8   27 130  80  46
   2024 06 29 05:50  19 28 28.19    -09 56 17.7   0.0116 1.0276 161.2     21?   1.57 278.9   28 132  80  45
   2024 06 29 06:00  19 28 27.12    -09 56 15.1   0.0116 1.0276 161.2     21?   1.65 279.0   30 134  80  45
   2024 06 29 06:10  19 28 25.99    -09 56 12.4   0.0116 1.0276 161.3     21?   1.72 279.2   31 137  80  45
   2024 06 29 06:20  19 28 24.82    -09 56 09.6   0.0116 1.0276 161.3     21?   1.78 279.3   33 139  80  45
   2024 06 29 06:30  19 28 23.61    -09 56 06.5   0.0116 1.0276 161.3     21?   1.85 279.5   34 142  80  45
   2024 06 29 06:40  19 28 22.36    -09 56 03.3   0.0116 1.0276 161.3     21?   1.91 279.8   35 144  81  45
   2024 06 29 06:50  19 28 21.07    -09 55 59.9   0.0116 1.0276 161.3     21?   1.96 280.0   36 147  81  45
   2024 06 29 07:00  19 28 19.74    -09 55 56.4   0.0116 1.0276 161.3     21?   2.01 280.3   37 150  81  45
   2024 06 29 07:10  19 28 18.39    -09 55 52.7   0.0116 1.0276 161.3     21?   2.06 280.5   38 153  81  45
   2024 06 29 07:20  19 28 17.01    -09 55 48.7   0.0116 1.0276 161.3     21?   2.10 280.8   39 156  81  45
   2024 06 29 07:30  19 28 15.60    -09 55 44.6   0.0116 1.0276 161.3  m  21?   2.14 281.2   40 159  81  45
   2024 06 29 07:40  19 28 14.17    -09 55 40.3   0.0116 1.0276 161.3  m  21?   2.17 281.5   40 162  81  45
   2024 06 29 07:50  19 28 12.72    -09 55 35.8   0.0116 1.0276 161.3  m  21?   2.20 281.9   41 165  81  44
   2024 06 29 08:00  19 28 11.26    -09 55 31.1   0.0116 1.0276 161.3  m  21?   2.22 282.2   41 169  81  44
   2024 06 29 08:10  19 28 09.79    -09 55 26.3   0.0116 1.0276 161.4  m  21?   2.24 282.7   42 172  82  44
   2024 06 29 08:20  19 28 08.30    -09 55 21.2   0.0116 1.0276 161.4  m  21?   2.25 283.1   42 175  82  44
   2024 06 29 08:30  19 28 06.82    -09 55 15.9   0.0116 1.0276 161.4  m  21?   2.26 283.5   42 179  82  44
   2024 06 29 08:40  19 28 05.33    -09 55 10.5   0.0116 1.0276 161.4  t  21?   2.27 284.0   42 182  82  44
   2024 06 29 08:50  19 28 03.85    -09 55 04.8   0.0116 1.0276 161.4  m  21?   2.26 284.6   42 185  82  44
   2024 06 29 09:00  19 28 02.37    -09 54 59.0   0.0116 1.0276 161.4  m  21?   2.26 285.1   41 189  82  44
   2024 06 29 09:10  19 28 00.90    -09 54 52.9   0.0116 1.0276 161.4  m  21?   2.25 285.7   41 192  82  44
   2024 06 29 09:20  19 27 59.44    -09 54 46.7   0.0116 1.0276 161.4  m  21?   2.23 286.3   41 195  82  44
   2024 06 29 09:30  19 27 58.00    -09 54 40.2   0.0116 1.0276 161.4  m  21?   2.21 287.0   40 198  82  44
   2024 06 29 09:40  19 27 56.58    -09 54 33.6   0.0116 1.0276 161.4  m  21?   2.19 287.7   39 201  82  44
   2024 06 29 09:50  19 27 55.18    -09 54 26.8   0.0116 1.0276 161.4  m  21?   2.16 288.4   39 204  82  44
   2024 06 29 10:00  19 27 53.81    -09 54 19.8   0.0116 1.0276 161.4  m  21?   2.13 289.2   38 207  83  43
   2024 06 29 10:10  19 27 52.47    -09 54 12.7   0.0116 1.0276 161.4  m  21?   2.09 290.1   37 210  83  43
   2024 06 29 10:20  19 27 51.15    -09 54 05.3   0.0116 1.0276 161.5  m  21?   2.05 291.0   36 213  83  43
   2024 06 29 10:30  19 27 49.88    -09 53 57.8   0.0116 1.0276 161.5 Am  21?   2.01 292.1   34 216  83  43
   2024 06 29 10:40  19 27 48.64    -09 53 50.1   0.0116 1.0276 161.5 Am  21?   1.96 293.2   33 218  83  43
   2024 06 29 10:50  19 27 47.44    -09 53 42.3   0.0116 1.0276 161.5 Am  21?   1.91 294.4   32 221  83  43
   2024 06 29 11:00  19 27 46.29    -09 53 34.3   0.0116 1.0276 161.5 Am  21?   1.85 295.7   31 223  83  43
   2024 06 29 11:10  19 27 45.19    -09 53 26.1   0.0116 1.0276 161.5 Nm  21?   1.80 297.1   29 226  83  43
   2024 06 29 11:20  19 27 44.13    -09 53 17.8   0.0116 1.0276 161.5 Nm  21?   1.74 298.6   28 228  83  43
   2024 06 29 11:30  19 27 43.13    -09 53 09.4   0.0116 1.0276 161.5 Nm  21?   1.68 300.3   26 230  83  43
   2024 06 29 11:40  19 27 42.18    -09 53 00.8   0.0116 1.0276 161.5 Nm  21?   1.61 302.2   25 232  83  43
   2024 06 29 11:50  19 27 41.29    -09 52 52.1   0.0116 1.0276 161.5 Cm  21?   1.55 304.3   23 234  83  43
   2024 06 29 12:00  19 27 40.45    -09 52 43.3   0.0116 1.0276 161.5 Cm  21?   1.48 306.7   21 236  83  43
   ................
   2024 06 30 03:10  19 29 17.90    -09 44 06.5   0.0116 1.0277 161.6 C   21?   0.09 326.7    1 103  91  36
   2024 06 30 03:20  19 29 17.83    -09 44 05.7   0.0116 1.0277 161.6 C   21?   0.18 296.1    3 105  91  36
   2024 06 30 03:30  19 29 17.68    -09 44 04.9   0.0116 1.0277 161.6 C   21?   0.29 287.0    5 106  92  36
   2024 06 30 03:40  19 29 17.46    -09 44 04.0   0.0116 1.0277 161.6 N   21?   0.40 283.0    7 108  92  36
   2024 06 30 03:50  19 29 17.16    -09 44 03.1   0.0116 1.0277 161.6 N   21?   0.50 280.9    9 110  92  36
   2024 06 30 04:00  19 29 16.79    -09 44 02.1   0.0116 1.0277 161.6 N   21?   0.61 279.6   11 111  92  35
   2024 06 30 04:10  19 29 16.34    -09 44 01.0   0.0116 1.0277 161.6 N   21?   0.72 278.8   12 113  92  35
   2024 06 30 04:20  19 29 15.83    -09 43 59.8   0.0116 1.0277 161.6 A   21?   0.82 278.2   14 115  92  35
   2024 06 30 04:30  19 29 15.24    -09 43 58.6   0.0116 1.0277 161.6 A   21?   0.92 277.9   16 116  92  35
   2024 06 30 04:40  19 29 14.59    -09 43 57.2   0.0116 1.0277 161.6 A   21?   1.02 277.7   18 118  92  35
   2024 06 30 04:50  19 29 13.88    -09 43 55.8   0.0116 1.0277 161.7 A   21?   1.12 277.5   20 120  93  35
   2024 06 30 05:00  19 29 13.09    -09 43 54.2   0.0116 1.0277 161.7     21?   1.21 277.5   21 122  93  35
   2024 06 30 05:10  19 29 12.25    -09 43 52.6   0.0116 1.0277 161.7     21?   1.30 277.5   23 124  93  35
   2024 06 30 05:20  19 29 11.35    -09 43 50.7   0.0116 1.0277 161.7     21?   1.39 277.5   25 126  93  35
   2024 06 30 05:30  19 29 10.38    -09 43 48.8   0.0116 1.0277 161.7     21?   1.48 277.6   26 128  93  35
   2024 06 30 05:40  19 29 09.37    -09 43 46.7   0.0116 1.0277 161.7     21?   1.56 277.7   28 130  93  34
   2024 06 30 05:50  19 29 08.30    -09 43 44.5   0.0116 1.0277 161.7     21?   1.64 277.9   29 133  93  34
   2024 06 30 06:00  19 29 07.18    -09 43 42.2   0.0116 1.0277 161.7     21?   1.71 278.0   31 135  93  34
   2024 06 30 06:10  19 29 06.01    -09 43 39.7   0.0116 1.0277 161.7     21?   1.78 278.2   32 137  93  34
   2024 06 30 06:20  19 29 04.79    -09 43 37.0   0.0116 1.0277 161.7     21?   1.85 278.4   33 140  94  34
   2024 06 30 06:30  19 29 03.54    -09 43 34.1   0.0116 1.0277 161.7     21?   1.91 278.6   34 143  94  34
   2024 06 30 06:40  19 29 02.24    -09 43 31.1   0.0116 1.0277 161.7     21?   1.97 278.9   36 145  94  34
   2024 06 30 06:50  19 29 00.91    -09 43 28.0   0.0116 1.0277 161.7     21?   2.02 279.1   37 148  94  34
   2024 06 30 07:00  19 28 59.55    -09 43 24.6   0.0116 1.0277 161.8     21?   2.07 279.4   38 151  94  34
   2024 06 30 07:10  19 28 58.16    -09 43 21.1   0.0116 1.0277 161.8     21?   2.11 279.7   39 154  94  34
   2024 06 30 07:20  19 28 56.73    -09 43 17.4   0.0116 1.0277 161.8     21?   2.15 280.0   39 157  94  34
   2024 06 30 07:30  19 28 55.29    -09 43 13.5   0.0116 1.0277 161.8     21?   2.19 280.3   40 160  94  33
   2024 06 30 07:40  19 28 53.83    -09 43 09.4   0.0116 1.0277 161.8     21?   2.22 280.7   41 163  95  33
   2024 06 30 07:50  19 28 52.34    -09 43 05.1   0.0116 1.0277 161.8     21?   2.24 281.0   41 166  95  33
   2024 06 30 08:00  19 28 50.85    -09 43 00.7   0.0116 1.0277 161.8  m  21?   2.27 281.4   42 170  95  33
   2024 06 30 08:10  19 28 49.34    -09 42 56.0   0.0116 1.0277 161.8  m  21?   2.28 281.8   42 173  95  33
   2024 06 30 08:20  19 28 47.83    -09 42 51.2   0.0116 1.0277 161.8  m  21?   2.29 282.2   42 176  95  33
   2024 06 30 08:30  19 28 46.32    -09 42 46.2   0.0116 1.0277 161.8  t  21?   2.30 282.7   42 180  95  33
   2024 06 30 08:40  19 28 44.80    -09 42 40.9   0.0116 1.0277 161.8  m  21?   2.30 283.2   42 183  95  33
   2024 06 30 08:50  19 28 43.29    -09 42 35.5   0.0116 1.0277 161.8  m  21?   2.30 283.7   42 186  95  33
   2024 06 30 09:00  19 28 41.78    -09 42 29.9   0.0116 1.0277 161.8  m  21?   2.29 284.2   42 190  95  33
   2024 06 30 09:10  19 28 40.29    -09 42 24.1   0.0116 1.0277 161.9  m  21?   2.28 284.8   41 193  95  33
   2024 06 30 09:20  19 28 38.81    -09 42 18.2   0.0116 1.0277 161.9  m  21?   2.26 285.4   41 196  96  33
   2024 06 30 09:30  19 28 37.34    -09 42 12.0   0.0116 1.0277 161.9  m  21?   2.24 286.0   40 199  96  33
   2024 06 30 09:40  19 28 35.90    -09 42 05.7   0.0116 1.0277 161.9  m  21?   2.21 286.7   39 203  96  32
   2024 06 30 09:50  19 28 34.48    -09 41 59.1   0.0116 1.0277 161.9  m  21?   2.18 287.5   38 206  96  32
   2024 06 30 10:00  19 28 33.09    -09 41 52.4   0.0116 1.0277 161.9  m  21?   2.15 288.3   38 209  96  32
   2024 06 30 10:10  19 28 31.72    -09 41 45.5   0.0116 1.0277 161.9  m  21?   2.11 289.1   37 211  96  32
   2024 06 30 10:20  19 28 30.40    -09 41 38.5   0.0116 1.0277 161.9  m  21?   2.07 290.0   35 214  96  32
   2024 06 30 10:30  19 28 29.10    -09 41 31.3   0.0116 1.0277 161.9 Am  21?   2.02 291.0   34 217  96  32
   2024 06 30 10:40  19 28 27.85    -09 41 23.9   0.0116 1.0277 161.9 Am  21?   1.97 292.1   33 219  96  32
   2024 06 30 10:50  19 28 26.64    -09 41 16.4   0.0116 1.0277 161.9 Am  21?   1.92 293.2   32 222  96  32
   2024 06 30 11:00  19 28 25.47    -09 41 08.7   0.0116 1.0277 161.9 Am  21?   1.86 294.5   30 224  96  32
   2024 06 30 11:10  19 28 24.35    -09 41 00.8   0.0116 1.0277 161.9 Nm  21?   1.80 295.9   29 227  97  32
   2024 06 30 11:20  19 28 23.28    -09 40 52.8   0.0116 1.0277 161.9 Nm  21?   1.74 297.4   27 229  97  32
   2024 06 30 11:30  19 28 22.27    -09 40 44.7   0.0116 1.0277 162.0 Nm  21?   1.67 299.1   26 231  97  32
   2024 06 30 11:40  19 28 21.31    -09 40 36.5   0.0116 1.0277 162.0 Nm  21?   1.61 300.9   24 233  97  32
   2024 06 30 11:50  19 28 20.41    -09 40 28.1   0.0116 1.0277 162.0 Cm  21?   1.54 303.0   23 235  97  32
   2024 06 30 12:00  19 28 19.56    -09 40 19.6   0.0116 1.0277 162.0 Cm  21?   1.47 305.3   21 237  97  32
   ................
   

CAPSTONE (JPL-ID: -1176)

   Date (UTC) HH:MM   RA              Dec         delta   r     elong SM  mag  '/hr    PA   alt  az moo ill
   ---- -- -- -----  -------------   -----------  ------ ------ ----- --  --- ------ ------ --- --- --- ---
   2024 06 19 03:10  15 01 12.31    -26 04 26.5   398417 1.0182 141.4 Cm  17?  23.52  96.0   22 156   5  90
   2024 06 19 03:20  15 01 29.62    -26 04 50.2   398247 1.0182 141.5 Cm  17?  23.37  95.4   22 158   5  90
   2024 06 19 03:30  15 01 46.84    -26 05 11.3   398084 1.0182 141.5 Cm  17?  23.24  94.8   23 161   5  91
   2024 06 19 03:40  15 02 03.99    -26 05 29.9   397929 1.0182 141.6 Nm  17?  23.13  94.2   24 163   5  91
   2024 06 19 03:50  15 02 21.08    -26 05 45.7   397781 1.0182 141.6 Nm  17?  23.04  93.5   24 165   5  91
   2024 06 19 04:00  15 02 38.14    -26 05 58.9   397642 1.0182 141.7 Nm  17?  22.98  92.8   25 168   5  91
   2024 06 19 04:10  15 02 55.16    -26 06 09.3   397510 1.0182 141.8 Nm  17?  22.94  92.2   25 170   5  91
   2024 06 19 04:20  15 03 12.17    -26 06 17.0   397386 1.0182 141.8 Am  17?  22.92  91.5   25 173   5  91
   2024 06 19 04:30  15 03 29.19    -26 06 22.0   397269 1.0182 141.9 Am  17?  22.93  90.8   25 175   5  91
   2024 06 19 04:40  15 03 46.22    -26 06 24.2   397161 1.0182 141.9 Am  17?  22.96  90.1   26 177   5  91
   2024 06 19 04:50  15 04 03.29    -26 06 23.5   397061 1.0182 142.0 At  17?  23.02  89.4   26 180   5  91
   2024 06 19 05:00  15 04 20.40    -26 06 20.1   396968 1.0182 142.0  m  17?  23.10  88.7   26 182   5  91
   2024 06 19 05:10  15 04 37.58    -26 06 13.9   396884 1.0182 142.1  m  17?  23.21  88.0   25 185   5  91
   2024 06 19 05:20  15 04 54.85    -26 06 04.9   396807 1.0182 142.2  m  17?  23.34  87.3   25 187   5  91
   2024 06 19 05:30  15 05 12.20    -26 05 53.1   396739 1.0182 142.2  m  17?  23.49  86.7   25 190   5  91
   2024 06 19 05:40  15 05 29.67    -26 05 38.5   396678 1.0182 142.3  m  17?  23.67  86.0   25 192   5  91
   2024 06 19 05:50  15 05 47.27    -26 05 21.1   396625 1.0182 142.3  m  17?  23.87  85.4   24 194   5  91
   2024 06 19 06:00  15 06 05.01    -26 05 01.0   396580 1.0182 142.4  m  17?  24.10  84.8   24 197   5  91
   2024 06 19 06:10  15 06 22.90    -26 04 38.1   396542 1.0182 142.5  m  17?  24.34  84.2   23 199   5  91
   2024 06 19 06:20  15 06 40.97    -26 04 12.6   396512 1.0182 142.5  m  17?  24.61  83.6   22 201   5  91
   2024 06 19 06:30  15 06 59.22    -26 03 44.3   396489 1.0182 142.6  m  17?  24.91  83.1   22 203   5  91
   2024 06 19 06:40  15 07 17.68    -26 03 13.3   396473 1.0182 142.6  m  17?  25.22  82.5   21 206   5  91
   2024 06 19 06:50  15 07 36.35    -26 02 39.8   396465 1.0182 142.7  m  17?  25.55  82.0   20 208   5  91
   2024 06 19 07:00  15 07 55.25    -26 02 03.6   396463 1.0182 142.8  m  17?  25.90  81.6   19 210   5  91
   2024 06 19 07:10  15 08 14.39    -26 01 24.9   396468 1.0182 142.8  m  17?  26.27  81.1   18 212   5  91
   2024 06 19 07:20  15 08 33.78    -26 00 43.7   396480 1.0182 142.9  m  17?  26.66  80.7   17 214   5  91
   2024 06 19 07:30  15 08 53.44    -26 00 00.0   396498 1.0182 143.0  m  17?  27.07  80.3   16 216   5  91
   2024 06 19 07:40  15 09 13.39    -25 59 13.9   396522 1.0182 143.0  m  17?  27.49  80.0   15 218   5  91
   2024 06 19 07:50  15 09 33.62    -25 58 25.5   396552 1.0182 143.1  m  17?  27.93  79.7   13 220   4  91
   2024 06 19 08:00  15 09 54.16    -25 57 34.8   396588 1.0182 143.2  m  17?  28.39  79.4   12 221   4  91
   2024 06 19 08:10  15 10 15.02    -25 56 41.8   396629 1.0182 143.2  m  17?  28.86  79.1   11 223   4  91
   2024 06 19 08:20  15 10 36.20    -25 55 46.7   396675 1.0182 143.3  m  17?  29.34  78.8   10 225   4  91
   2024 06 19 08:30  15 10 57.71    -25 54 49.4   396726 1.0182 143.4  m  17?  29.83  78.6    8 227   4  91
   2024 06 19 08:40  15 11 19.57    -25 53 50.1   396782 1.0182 143.5  m  17?  30.34  78.4    7 228   4  91
   2024 06 19 08:50  15 11 41.79    -25 52 48.8   396842 1.0182 143.5  m  17?  30.86  78.2    5 230   4  91
   2024 06 19 09:00  15 12 04.36    -25 51 45.5   396907 1.0182 143.6  m  17?  31.39  78.1    4 232   4  91
   2024 06 19 09:10  15 12 27.31    -25 50 40.4   396975 1.0182 143.7  m  17?  31.92  78.0    2 233   4  91
   2024 06 19 09:20  15 12 50.64    -25 49 33.5   397047 1.0182 143.8  m  17?  32.47  77.8    1 235   4  91
   2024 06 19 09:30  15 13 14.35    -25 48 24.9   397121 1.0183 143.8  m  17?  33.02  77.7    0 236   4  91
   ................
   2024 06 20 03:10  16 19 07.57    -27 50 20.8   389487 1.0186 157.8 Cm  18?  41.68 142.0   13 142   2  95
   2024 06 20 03:20  16 19 26.64    -27 55 47.9   389409 1.0186 157.9 Cm  18?  41.00 142.2   14 144   2  95
   2024 06 20 03:30  16 19 45.34    -28 01 10.4   389337 1.0186 157.9 Cm  18?  40.35 142.3   15 146   2  95
   2024 06 20 03:40  16 20 03.71    -28 06 28.4   389272 1.0186 158.0 Nm  18?  39.70 142.5   16 147   2  95
   2024 06 20 03:50  16 20 21.76    -28 11 41.8   389213 1.0186 158.0 Nm  18?  39.08 142.6   17 150   3  95
   2024 06 20 04:00  16 20 39.50    -28 16 50.6   389161 1.0186 158.1 Nm  18?  38.48 142.6   18 152   3  95
   2024 06 20 04:10  16 20 56.96    -28 21 54.9   389116 1.0186 158.1 Nm  18?  37.89 142.7   18 154   3  96
   2024 06 20 04:20  16 21 14.16    -28 26 54.7   389078 1.0186 158.2 Am  18?  37.31 142.7   19 156   3  96
   2024 06 20 04:30  16 21 31.12    -28 31 50.0   389047 1.0186 158.2 Am  18?  36.76 142.7   20 158   3  96
   2024 06 20 04:40  16 21 47.84    -28 36 40.7   389024 1.0186 158.3 Am  18?  36.21 142.6   20 160   3  96
   2024 06 20 04:50  16 22 04.36    -28 41 27.0   389008 1.0186 158.3 Am  18?  35.69 142.5   21 162   3  96
   2024 06 20 05:00  16 22 20.70    -28 46 08.8   388999 1.0186 158.4  m  18?  35.18 142.4   21 165   3  96
   2024 06 20 05:10  16 22 36.86    -28 50 46.1   388999 1.0186 158.4  m  18?  34.69 142.3   22 167   3  96
   2024 06 20 05:20  16 22 52.87    -28 55 19.0   389006 1.0186 158.4  m  18?  34.21 142.1   22 169   3  96
   2024 06 20 05:30  16 23 08.75    -28 59 47.4   389021 1.0186 158.5  m  18?  33.76 141.9   22 171   3  96
   2024 06 20 05:40  16 23 24.52    -29 04 11.4   389043 1.0186 158.5  m  18?  33.32 141.6   22 174   3  96
   2024 06 20 05:50  16 23 40.19    -29 08 31.0   389073 1.0186 158.5  m  18?  32.89 141.3   22 176   3  96
   2024 06 20 06:00  16 23 55.79    -29 12 46.2   389112 1.0186 158.6  e  18?  32.49 141.0   22 178   3  96
   2024 06 20 06:10  16 24 11.32    -29 16 57.1   389158 1.0186 158.6  t  18?  32.10 140.6   22 181   3  96
   2024 06 20 06:20  16 24 26.82    -29 21 03.6   389212 1.0186 158.7  m  18?  31.74 140.2   22 183   3  96
   2024 06 20 06:30  16 24 42.30    -29 25 05.8   389274 1.0186 158.7  m  18?  31.39 139.7   22 185   3  96
   2024 06 20 06:40  16 24 57.78    -29 29 03.8   389343 1.0186 158.7  m  18?  31.06 139.2   22 188   3  96
   2024 06 20 06:50  16 25 13.27    -29 32 57.6   389420 1.0186 158.8  m  18?  30.76 138.7   21 190   3  96
   2024 06 20 07:00  16 25 28.80    -29 36 47.1   389505 1.0186 158.8  m  18?  30.47 138.1   21 192   3  96
   2024 06 20 07:10  16 25 44.38    -29 40 32.6   389597 1.0186 158.8  m  18?  30.21 137.5   20 194   4  96
   2024 06 20 07:20  16 26 00.02    -29 44 13.9   389697 1.0186 158.9  m  18?  29.97 136.8   20 196   4  96
   2024 06 20 07:30  16 26 15.75    -29 47 51.3   389804 1.0186 158.9  m  18?  29.76 136.2   19 199   4  96
   2024 06 20 07:40  16 26 31.58    -29 51 24.6   389919 1.0186 158.9  m  18?  29.56 135.4   18 201   4  96
   2024 06 20 07:50  16 26 47.53    -29 54 54.1   390040 1.0186 159.0  m  18?  29.40 134.7   18 203   4  96
   2024 06 20 08:00  16 27 03.62    -29 58 19.6   390168 1.0186 159.0  m  18?  29.25 133.9   17 205   4  96
   2024 06 20 08:10  16 27 19.85    -30 01 41.4   390303 1.0186 159.1  m  18?  29.13 133.1   16 207   4  96
   2024 06 20 08:20  16 27 36.25    -30 04 59.5   390445 1.0186 159.1  m  18?  29.04 132.3   15 209   4  96
   2024 06 20 08:30  16 27 52.83    -30 08 13.9   390593 1.0186 159.1  m  18?  28.97 131.5   14 211   4  96
   2024 06 20 08:40  16 28 09.61    -30 11 24.8   390747 1.0186 159.2  m  18?  28.92 130.6   13 213   4  96
   2024 06 20 08:50  16 28 26.59    -30 14 32.2   390907 1.0186 159.2  m  18?  28.90 129.8   12 214   4  96
   2024 06 20 09:00  16 28 43.80    -30 17 36.2   391072 1.0186 159.3  m  18?  28.91 128.9   11 216   4  96
   2024 06 20 09:10  16 29 01.24    -30 20 36.8   391244 1.0186 159.3  m  18?  28.94 128.0    9 218   4  96
   2024 06 20 09:20  16 29 18.92    -30 23 34.3   391420 1.0186 159.3  m  18?  28.99 127.1    8 220   4  96
   2024 06 20 09:30  16 29 36.87    -30 26 28.6   391602 1.0186 159.4  m  18?  29.07 126.3    7 221   4  96
   2024 06 20 09:40  16 29 55.09    -30 29 19.8   391788 1.0186 159.4  m  18?  29.18 125.4    5 223   4  96
   2024 06 20 09:50  16 30 13.59    -30 32 08.2   391979 1.0186 159.5  m  18?  29.30 124.5    4 224   4  96
   2024 06 20 10:00  16 30 32.38    -30 34 53.6   392174 1.0186 159.5  m  18?  29.45 123.7    3 226   4  96
   2024 06 20 10:10  16 30 51.47    -30 37 36.4   392373 1.0186 159.6  m  18?  29.62 122.8    1 228   4  96
   2024 06 20 10:20  16 31 10.87    -30 40 16.5   392575 1.0186 159.6 Am  18?  29.82 122.0    0 229   4  96
   ................
   2024 06 21 03:10  17 17 25.05    -35 13 02.2   395856 1.0188 165.0 Cm  18?  29.46 126.0    0 137   7  98
   2024 06 21 03:20  17 17 44.30    -35 15 55.2   395743 1.0188 165.0 Cm  18?  29.02 126.1    1 138   7  98
   2024 06 21 03:30  17 18 03.24    -35 18 46.1   395635 1.0188 165.0 Cm  18?  28.58 126.2    2 140   7  98
   2024 06 21 03:40  17 18 21.88    -35 21 34.6   395531 1.0188 165.0 Nm  18?  28.15 126.3    3 142   7  98
   2024 06 21 03:50  17 18 40.25    -35 24 20.8   395431 1.0188 165.0 Nm  18?  27.72 126.3    5 143   7  98
   2024 06 21 04:00  17 18 58.33    -35 27 04.5   395337 1.0188 165.0 Nm  18?  27.30 126.3    6 145   7  98
   2024 06 21 04:10  17 19 16.15    -35 29 45.7   395248 1.0188 165.0 Nm  18?  26.88 126.3    7 147   7  98
   2024 06 21 04:20  17 19 33.72    -35 32 24.2   395164 1.0188 165.0 Am  18?  26.47 126.2    8 148   7  98
   2024 06 21 04:30  17 19 51.05    -35 35 00.0   395086 1.0188 165.0 Am  18?  26.07 126.1    9 150   7  98
   2024 06 21 04:40  17 20 08.16    -35 37 33.1   395014 1.0188 165.0 Am  18?  25.67 126.0   10 152   7  98
   2024 06 21 04:50  17 20 25.05    -35 40 03.2   394948 1.0188 165.0 Am  18?  25.29 125.8   10 154   7  99
   2024 06 21 05:00  17 20 41.73    -35 42 30.5   394888 1.0188 165.0  m  18?  24.92 125.6   11 155   7  99
   2024 06 21 05:10  17 20 58.24    -35 44 54.7   394835 1.0188 165.0  m  18?  24.55 125.3   12 157   7  99
   2024 06 21 05:20  17 21 14.56    -35 47 15.8   394787 1.0188 165.0  m  18?  24.20 125.0   13 159   7  99
   2024 06 21 05:30  17 21 30.73    -35 49 33.9   394747 1.0188 165.0  m  18?  23.86 124.7   13 161   7  99
   2024 06 21 05:40  17 21 46.76    -35 51 48.7   394713 1.0188 165.0  m  18?  23.54 124.3   14 163   7  99
   2024 06 21 05:50  17 22 02.67    -35 54 00.3   394686 1.0188 165.0  m  18?  23.23 123.8   14 165   7  99
   2024 06 21 06:00  17 22 18.46    -35 56 08.7   394665 1.0188 165.0  m  18?  22.93 123.3   15 167   7  99
   2024 06 21 06:10  17 22 34.15    -35 58 13.7   394652 1.0188 165.0  m  18?  22.66 122.8   15 169   8  99
   2024 06 21 06:20  17 22 49.77    -36 00 15.4   394646 1.0188 165.0  m  18?  22.40 122.2   15 171   8  99
   2024 06 21 06:30  17 23 05.32    -36 02 13.7   394646 1.0188 165.0  m  18?  22.15 121.5   15 173   8  99
   2024 06 21 06:40  17 23 20.83    -36 04 08.6   394654 1.0188 165.0  m  18?  21.93 120.9   16 175   8  99
   2024 06 21 06:50  17 23 36.31    -36 06 00.1   394669 1.0188 165.0  m  18?  21.73 120.1   16 177   8  99
   2024 06 21 07:00  17 23 51.78    -36 07 48.2   394691 1.0188 165.0  e  18?  21.55 119.4   16 179   8  99
   2024 06 21 07:10  17 24 07.26    -36 09 32.9   394720 1.0188 165.0  t  18?  21.39 118.6   16 181   8  99
   2024 06 21 07:20  17 24 22.75    -36 11 14.2   394757 1.0188 165.0  m  18?  21.25 117.7   15 184   8  99
   2024 06 21 07:30  17 24 38.29    -36 12 52.0   394800 1.0188 165.0  m  18?  21.14 116.8   15 186   8  99
   2024 06 21 07:40  17 24 53.88    -36 14 26.4   394851 1.0188 165.0  m  18?  21.05 115.9   15 188   8  99
   2024 06 21 07:50  17 25 09.54    -36 15 57.4   394908 1.0188 165.0  m  18?  20.99 115.0   15 190   8  99
   2024 06 21 08:00  17 25 25.29    -36 17 25.0   394973 1.0188 165.0  m  18?  20.95 114.0   14 192   8  99
   2024 06 21 08:10  17 25 41.15    -36 18 49.3   395044 1.0188 165.0  m  18?  20.94 113.0   14 194   8  99
   2024 06 21 08:20  17 25 57.13    -36 20 10.2   395122 1.0188 165.1  m  18?  20.95 112.0   13 196   8  99
   2024 06 21 08:30  17 26 13.24    -36 21 27.9   395207 1.0188 165.1  m  18?  20.99 111.0   13 197   8  99
   2024 06 21 08:40  17 26 29.51    -36 22 42.4   395298 1.0188 165.1  m  18?  21.05 110.0   12 199   8  99
   2024 06 21 08:50  17 26 45.95    -36 23 53.6   395396 1.0188 165.1  m  18?  21.14 109.0   11 201   8  99
   2024 06 21 09:00  17 27 02.58    -36 25 01.7   395500 1.0188 165.1  m  18?  21.25 108.0   11 203   8  99
   2024 06 21 09:10  17 27 19.40    -36 26 06.8   395610 1.0188 165.1  m  18?  21.39 107.1   10 205   8  99
   2024 06 21 09:20  17 27 36.44    -36 27 08.8   395726 1.0188 165.1  m  18?  21.56 106.1    9 207   8  99
   2024 06 21 09:30  17 27 53.71    -36 28 07.9   395848 1.0188 165.1  m  18?  21.75 105.1    8 208   8  99
   2024 06 21 09:40  17 28 11.21    -36 29 04.1   395976 1.0188 165.1  m  18?  21.96 104.2    7 210   8  99
   2024 06 21 09:50  17 28 28.98    -36 29 57.4   396108 1.0188 165.1  m  18?  22.19 103.3    6 212   8  99
   2024 06 21 10:00  17 28 47.01    -36 30 48.1   396246 1.0188 165.2  m  18?  22.45 102.5    5 213   8  99
   2024 06 21 10:10  17 29 05.31    -36 31 36.1   396390 1.0188 165.2  m  18?  22.73 101.6    4 215   8  99
   2024 06 21 10:20  17 29 23.91    -36 32 21.6   396537 1.0188 165.2 Am  18?  23.02 100.9    3 217   8  99
   2024 06 21 10:30  17 29 42.82    -36 33 04.6   396690 1.0188 165.2 Am  18?  23.34 100.1    1 218   8  99
   2024 06 21 10:40  17 30 02.03    -36 33 45.2   396846 1.0188 165.2 Am  18?  23.67  99.4    0 220   8  99
   2024 06 21 10:50  17 30 21.57    -36 34 23.6   397007 1.0188 165.3 Am  18?  24.02  98.8    0 221   8  99
   ................
   2024 06 22 04:30  18 20 54.54    -38 24 53.2   397976 1.0188 164.5 Am  18?  24.70 109.8    0 142   9  99
   2024 06 22 04:40  18 21 14.13    -38 26 16.8   397850 1.0188 164.5 Am  18?  24.27 109.6    1 144   9  99
   2024 06 22 04:50  18 21 33.42    -38 27 38.0   397730 1.0188 164.5 Am  18?  23.86 109.3    2 145   9  99
   2024 06 22 05:00  18 21 52.42    -38 28 56.6   397614 1.0188 164.4  m  18?  23.46 109.0    3 147   9  99
   2024 06 22 05:10  18 22 11.14    -38 30 12.7   397503 1.0188 164.4  m  18?  23.07 108.7    4 148   9  99
   2024 06 22 05:20  18 22 29.60    -38 31 26.0   397397 1.0188 164.4  m  18?  22.69 108.3    5 150   9  99
   2024 06 22 05:30  18 22 47.81    -38 32 36.6   397296 1.0188 164.3  m  18?  22.32 107.8    6 152   9  99
   2024 06 22 05:40  18 23 05.78    -38 33 44.3   397201 1.0188 164.3  m  18?  21.97 107.3    7 153   9  99
   2024 06 22 05:50  18 23 23.53    -38 34 49.1   397112 1.0188 164.3  m  18?  21.63 106.8    8 155   9  99
   2024 06 22 06:00  18 23 41.07    -38 35 50.9   397028 1.0188 164.2  m  18?  21.31 106.2    9 157   9  99
   2024 06 22 06:10  18 23 58.41    -38 36 49.6   396951 1.0188 164.2  m  18?  21.01 105.6    9 159   9  99
   2024 06 22 06:20  18 24 15.58    -38 37 45.1   396879 1.0188 164.2  m  18?  20.73 104.9   10 160  10  99
   2024 06 22 06:30  18 24 32.58    -38 38 37.5   396814 1.0188 164.1  m  18?  20.46 104.1   11 162  10  99
   2024 06 22 06:40  18 24 49.42    -38 39 26.6   396755 1.0188 164.1  m  18?  20.22 103.4   11 164  10  99
   2024 06 22 06:50  18 25 06.14    -38 40 12.5   396703 1.0188 164.1  m  18?  20.00 102.5   12 166  10  99
   2024 06 22 07:00  18 25 22.74    -38 40 55.0   396657 1.0188 164.1  m  18?  19.80 101.7   12 168  10  99
   2024 06 22 07:10  18 25 39.24    -38 41 34.1   396618 1.0188 164.0  m  18?  19.62 100.8   12 170  10  99
   2024 06 22 07:20  18 25 55.65    -38 42 09.8   396586 1.0188 164.0  m  18?  19.47  99.9   13 172  10  99
   2024 06 22 07:30  18 26 12.00    -38 42 42.1   396560 1.0188 164.0  m  18?  19.34  98.9   13 174  10  99
   2024 06 22 07:40  18 26 28.29    -38 43 10.9   396541 1.0188 164.0  m  18?  19.24  97.9   13 176  10  99
   2024 06 22 07:50  18 26 44.56    -38 43 36.3   396529 1.0188 163.9  m  18?  19.17  96.9   13 178  10  99
   2024 06 22 08:00  18 27 00.81    -38 43 58.2   396524 1.0188 163.9  t  18?  19.12  95.9   13 180  10  99
   2024 06 22 08:10  18 27 17.06    -38 44 16.6   396525 1.0188 163.9  m  18?  19.10  94.8   13 182  10  99
   2024 06 22 08:20  18 27 33.33    -38 44 31.5   396534 1.0188 163.9  m  18?  19.10  93.8   13 184  10  99
   2024 06 22 08:30  18 27 49.64    -38 44 43.0   396549 1.0188 163.9  m  18?  19.13  92.7   13 185  10  99
   2024 06 22 08:40  18 28 06.01    -38 44 51.1   396571 1.0188 163.8  m  18?  19.19  91.7   12 187  10  99
   2024 06 22 08:50  18 28 22.44    -38 44 55.7   396600 1.0188 163.8  m  18?  19.28  90.7   12 189  10  99
   2024 06 22 09:00  18 28 38.96    -38 44 56.9   396635 1.0188 163.8  m  18?  19.39  89.7   12 191  10  99
   2024 06 22 09:10  18 28 55.59    -38 44 54.7   396677 1.0188 163.8  m  18?  19.52  88.7   11 193  10  99
   2024 06 22 09:20  18 29 12.34    -38 44 49.2   396726 1.0188 163.8  m  18?  19.68  87.7   11 195  10  99
   2024 06 22 09:30  18 29 29.22    -38 44 40.4   396781 1.0188 163.8  m  18?  19.87  86.8   10 197  10  99
   2024 06 22 09:40  18 29 46.26    -38 44 28.3   396843 1.0188 163.7  m  18?  20.08  85.9   10 199  10  99
   2024 06 22 09:50  18 30 03.47    -38 44 13.1   396910 1.0188 163.7  m  18?  20.31  85.1    9 201  10  99
   2024 06 22 10:00  18 30 20.87    -38 43 54.7   396984 1.0188 163.7  m  18?  20.56  84.3    8 202  10  99
   2024 06 22 10:10  18 30 38.46    -38 43 33.3   397063 1.0188 163.7  m  18?  20.84  83.5    8 204  10  99
   2024 06 22 10:20  18 30 56.27    -38 43 08.9   397149 1.0188 163.7 Am  18?  21.13  82.8    7 206  10  99
   2024 06 22 10:30  18 31 14.31    -38 42 41.5   397240 1.0188 163.7 Am  18?  21.45  82.1    6 207  10  99
   2024 06 22 10:40  18 31 32.59    -38 42 11.3   397336 1.0188 163.7 Am  18?  21.78  81.5    5 209  10  99
   2024 06 22 10:50  18 31 51.12    -38 41 38.2   397438 1.0188 163.7 Am  18?  22.12  80.9    4 211  10  99
   2024 06 22 11:00  18 32 09.93    -38 41 02.6   397544 1.0188 163.6 Am  18?  22.49  80.3    3 212  10  99
   2024 06 22 11:10  18 32 29.01    -38 40 24.3   397656 1.0188 163.6 Nm  18?  22.86  79.8    2 214  10  99
   2024 06 22 11:20  18 32 48.39    -38 39 43.5   397772 1.0188 163.6 Nm  18?  23.25  79.4    1 216  10  99
   2024 06 22 11:30  18 33 08.07    -38 39 00.3   397893 1.0188 163.6 Nm  18?  23.66  79.0    0 217  10  99
   ................
   2024 06 23 05:20  19 24 36.91    -38 05 05.3   396210 1.0188 158.0  m  18?  23.30  91.8    0 140  10  97
   2024 06 23 05:30  19 24 56.47    -38 05 12.2   396050 1.0188 158.0  m  18?  22.91  91.3    0 142  10  97
   2024 06 23 05:40  19 25 15.71    -38 05 16.8   395895 1.0188 157.9  m  18?  22.54  90.7    2 143  10  97
   2024 06 23 05:50  19 25 34.64    -38 05 18.9   395744 1.0188 157.9  m  18?  22.18  90.1    3 145  10  97
   2024 06 23 06:00  19 25 53.28    -38 05 18.5   395598 1.0188 157.8  m  18?  21.84  89.4    4 146  10  97
   2024 06 23 06:10  19 26 11.64    -38 05 15.6   395457 1.0188 157.8  m  18?  21.51  88.7    5 148  10  97
   2024 06 23 06:20  19 26 29.72    -38 05 09.9   395321 1.0188 157.8  m  18?  21.21  87.9    6 150  10  97
   2024 06 23 06:30  19 26 47.55    -38 05 01.4   395191 1.0188 157.7  m  18?  20.92  87.1    7 151  10  97
   2024 06 23 06:40  19 27 05.13    -38 04 50.1   395065 1.0188 157.7  m  18?  20.66  86.3    8 153  10  97
   2024 06 23 06:50  19 27 22.48    -38 04 35.9   394946 1.0188 157.6  m  18?  20.41  85.4    8 155  10  97
   2024 06 23 07:00  19 27 39.61    -38 04 18.7   394832 1.0188 157.6  m  18?  20.20  84.5    9 157  10  97
   2024 06 23 07:10  19 27 56.54    -38 03 58.4   394724 1.0188 157.6  m  18?  20.00  83.6   10 158  10  97
   2024 06 23 07:20  19 28 13.28    -38 03 35.0   394623 1.0188 157.5  m  18?  19.83  82.6   11 160  10  97
   2024 06 23 07:30  19 28 29.85    -38 03 08.4   394528 1.0188 157.5  m  18?  19.68  81.6   11 162  10  97
   2024 06 23 07:40  19 28 46.27    -38 02 38.6   394439 1.0188 157.5  m  18?  19.56  80.6   12 164  10  97
   2024 06 23 07:50  19 29 02.54    -38 02 05.5   394356 1.0188 157.4  m  18?  19.46  79.6   12 166  10  97
   2024 06 23 08:00  19 29 18.69    -38 01 29.1   394281 1.0188 157.4  m  18?  19.39  78.5   13 168  10  97
   2024 06 23 08:10  19 29 34.73    -38 00 49.4   394211 1.0188 157.4  m  18?  19.35  77.5   13 170  10  97
   2024 06 23 08:20  19 29 50.69    -38 00 06.3   394149 1.0188 157.3  m  18?  19.34  76.4   13 172  10  97
   2024 06 23 08:30  19 30 06.57    -37 59 19.8   394094 1.0188 157.3  m  18?  19.35  75.4   14 174  10  97
   2024 06 23 08:40  19 30 22.39    -37 58 29.9   394045 1.0188 157.3  m  18?  19.38  74.4   14 176  10  97
   2024 06 23 08:50  19 30 38.17    -37 57 36.5   394003 1.0188 157.2  m  18?  19.45  73.4   14 178  10  97
   2024 06 23 09:00  19 30 53.94    -37 56 39.8   393969 1.0188 157.2  t  18?  19.54  72.4   14 180  10  97
   2024 06 23 09:10  19 31 09.70    -37 55 39.6   393941 1.0188 157.2  e  18?  19.65  71.5   14 182  10  97
   2024 06 23 09:20  19 31 25.47    -37 54 36.1   393920 1.0188 157.1  m  18?  19.79  70.6   14 184  10  97
   2024 06 23 09:30  19 31 41.27    -37 53 29.1   393906 1.0188 157.1  m  18?  19.95  69.7   14 186  10  97
   2024 06 23 09:40  19 31 57.12    -37 52 18.7   393899 1.0188 157.1  m  18?  20.14  68.9   13 188  10  97
   2024 06 23 09:50  19 32 13.03    -37 51 05.0   393899 1.0188 157.1  m  18?  20.34  68.1   13 190  10  97
   2024 06 23 10:00  19 32 29.03    -37 49 47.9   393905 1.0188 157.0  m  18?  20.57  67.3   13 191  10  97
   2024 06 23 10:10  19 32 45.12    -37 48 27.5   393919 1.0188 157.0  m  18?  20.82  66.6   12 193  10  97
   2024 06 23 10:20  19 33 01.33    -37 47 03.9   393938 1.0188 157.0 Am  18?  21.09  66.0   12 195  10  97
   2024 06 23 10:30  19 33 17.67    -37 45 37.1   393965 1.0188 157.0 Am  18?  21.37  65.4   11 197  10  97
   2024 06 23 10:40  19 33 34.15    -37 44 07.0   393998 1.0188 156.9 Am  18?  21.68  64.8   11 199  10  97
   2024 06 23 10:50  19 33 50.80    -37 42 33.9   394037 1.0188 156.9 Am  18?  22.00  64.3   10 201  10  97
   2024 06 23 11:00  19 34 07.63    -37 40 57.8   394083 1.0188 156.9 Am  18?  22.33  63.9    9 203  10  97
   2024 06 23 11:10  19 34 24.64    -37 39 18.6   394135 1.0188 156.8 Nm  18?  22.68  63.5    9 205  10  97
   2024 06 23 11:20  19 34 41.87    -37 37 36.5   394192 1.0188 156.8 Nm  18?  23.04  63.2    8 206  10  97
   2024 06 23 11:30  19 34 59.31    -37 35 51.6   394256 1.0188 156.8 Nm  18?  23.42  62.8    7 208  10  97
   2024 06 23 11:40  19 35 16.99    -37 34 04.0   394325 1.0188 156.8 Nm  18?  23.81  62.6    6 210  10  97
   2024 06 23 11:50  19 35 34.91    -37 32 13.6   394399 1.0188 156.7 Cm  18?  24.20  62.4    5 211  10  97
   2024 06 23 12:00  19 35 53.10    -37 30 20.7   394479 1.0188 156.7 Cm  18?  24.61  62.2    4 213  10  97
   ................
   2024 06 24 06:00  20 25 18.29    -34 35 26.1   390350 1.0186 149.0  m  17?  24.09  73.3    0 135   9  93
   2024 06 24 06:10  20 25 36.81    -34 34 16.3   390149 1.0186 149.0  m  17?  23.76  72.5    1 137   9  93
   2024 06 24 06:20  20 25 55.01    -34 33 04.3   389953 1.0186 148.9  m  17?  23.45  71.7    2 138   9  93
   2024 06 24 06:30  20 26 12.88    -34 31 50.1   389760 1.0186 148.9  m  17?  23.15  70.9    4 140   9  93
   2024 06 24 06:40  20 26 30.45    -34 30 33.7   389572 1.0186 148.8  m  17?  22.88  70.0    5 142   9  93
   2024 06 24 06:50  20 26 47.71    -34 29 14.8   389389 1.0186 148.8  m  17?  22.62  69.1    6 143   9  93
   2024 06 24 07:00  20 27 04.68    -34 27 53.4   389211 1.0186 148.7  m  17?  22.39  68.2    7 145   9  93
   2024 06 24 07:10  20 27 21.37    -34 26 29.5   389038 1.0186 148.7  m  17?  22.18  67.3    8 147   9  93
   2024 06 24 07:20  20 27 37.80    -34 25 03.0   388870 1.0186 148.6  m  17?  22.00  66.3    9 148   9  93
   2024 06 24 07:30  20 27 53.97    -34 23 33.8   388708 1.0186 148.6  m  17?  21.84  65.3   10 150   9  93
   2024 06 24 07:40  20 28 09.91    -34 22 01.7   388552 1.0186 148.5  m  17?  21.70  64.4   11 152   9  93
   2024 06 24 07:50  20 28 25.62    -34 20 26.9   388402 1.0186 148.5  m  17?  21.59  63.4   12 154   9  93
   2024 06 24 08:00  20 28 41.11    -34 18 49.1   388258 1.0186 148.5  m  17?  21.50  62.4   13 156   9  93
   2024 06 24 08:10  20 28 56.41    -34 17 08.4   388120 1.0186 148.4  m  17?  21.44  61.4   14 158   9  93
   2024 06 24 08:20  20 29 11.53    -34 15 24.7   387989 1.0186 148.4  m  17?  21.40  60.4   14 160   9  93
   2024 06 24 08:30  20 29 26.48    -34 13 37.9   387865 1.0186 148.3  m  17?  21.39  59.4   15 162   9  93
   2024 06 24 08:40  20 29 41.28    -34 11 48.1   387747 1.0186 148.3  m  17?  21.40  58.5   16 164   9  93
   2024 06 24 08:50  20 29 55.95    -34 09 55.0   387637 1.0186 148.3  m  17?  21.44  57.6   16 166   9  93
   2024 06 24 09:00  20 30 10.49    -34 07 58.9   387533 1.0186 148.2  m  17?  21.50  56.7   17 168   9  93
   2024 06 24 09:10  20 30 24.93    -34 05 59.5   387437 1.0186 148.2  m  17?  21.59  55.8   17 170   9  93
   2024 06 24 09:20  20 30 39.29    -34 03 57.0   387348 1.0186 148.2  m  17?  21.70  55.0   17 172   9  93
   2024 06 24 09:30  20 30 53.58    -34 01 51.2   387266 1.0186 148.1  m  17?  21.83  54.2   18 174   9  93
   2024 06 24 09:40  20 31 07.81    -33 59 42.2   387191 1.0186 148.1  m  17?  21.98  53.4   18 176   9  93
   2024 06 24 09:50  20 31 22.01    -33 57 29.9   387124 1.0186 148.0  m  17?  22.15  52.7   18 178   9  93
   2024 06 24 10:00  20 31 36.19    -33 55 14.4   387064 1.0186 148.0  t  17?  22.35  52.0   18 180   9  92
   2024 06 24 10:10  20 31 50.37    -33 52 55.7   387011 1.0186 148.0  e  17?  22.56  51.4   18 183   9  92
   2024 06 24 10:20  20 32 04.56    -33 50 33.7   386966 1.0186 147.9 Am  17?  22.79  50.8   18 185   9  92
   2024 06 24 10:30  20 32 18.78    -33 48 08.5   386928 1.0186 147.9 Am  17?  23.04  50.3   18 187   9  92
   2024 06 24 10:40  20 32 33.06    -33 45 40.2   386898 1.0186 147.9 Am  17?  23.30  49.8   17 189   9  92
   2024 06 24 10:50  20 32 47.39    -33 43 08.7   386875 1.0186 147.8 Am  17?  23.58  49.4   17 191   9  92
   2024 06 24 11:00  20 33 01.81    -33 40 34.1   386859 1.0186 147.8 Am  17?  23.87  49.0   17 193   9  92
   2024 06 24 11:10  20 33 16.32    -33 37 56.4   386850 1.0186 147.8 Nm  17?  24.18  48.7   16 195   9  92
   2024 06 24 11:20  20 33 30.95    -33 35 15.7   386848 1.0186 147.7 Nm  17?  24.50  48.4   16 197   9  92
   2024 06 24 11:30  20 33 45.71    -33 32 31.9   386854 1.0186 147.7 Nm  17?  24.83  48.2   15 199   9  92
   2024 06 24 11:40  20 34 00.61    -33 29 45.3   386866 1.0186 147.6 Nm  17?  25.17  48.0   14 201   9  92
   2024 06 24 11:50  20 34 15.67    -33 26 55.7   386885 1.0186 147.6 Cm  17?  25.53  47.8   14 203   9  92
   2024 06 24 12:00  20 34 30.91    -33 24 03.3   386911 1.0186 147.6 Cm  17?  25.89  47.7   13 205   9  92
   ................
   2024 06 25 06:20  21 20 15.10    -27 56 46.3   381242 1.0184 138.6  m  17?  28.28  56.0    0 126   7  86
   2024 06 25 06:30  21 20 32.64    -27 54 07.7   380997 1.0184 138.5  m  17?  28.01  55.2    1 128   7  86
   2024 06 25 06:40  21 20 49.84    -27 51 27.3   380755 1.0184 138.5  m  17?  27.76  54.3    3 129   7  86
   2024 06 25 06:50  21 21 06.71    -27 48 44.9   380517 1.0184 138.4  m  17?  27.53  53.5    4 131   7  86
   2024 06 25 07:00  21 21 23.24    -27 46 00.4   380283 1.0184 138.3  m  17?  27.32  52.6    6 132   7  86
   2024 06 25 07:10  21 21 39.46    -27 43 13.8   380053 1.0184 138.3  m  17?  27.13  51.7    7 134   7  86
   2024 06 25 07:20  21 21 55.37    -27 40 25.1   379827 1.0184 138.2  m  17?  26.96  50.8    9 136   7  86
   2024 06 25 07:30  21 22 10.97    -27 37 34.0   379607 1.0184 138.2  m  17?  26.81  49.9   10 137   7  86
   2024 06 25 07:40  21 22 26.29    -27 34 40.6   379392 1.0184 138.1  m  17?  26.68  49.0   11 139   7  86
   2024 06 25 07:50  21 22 41.33    -27 31 44.8   379182 1.0184 138.1  m  17?  26.58  48.1   13 141   7  86
   2024 06 25 08:00  21 22 56.09    -27 28 46.5   378978 1.0184 138.0  m  17?  26.50  47.2   14 143   7  86
   2024 06 25 08:10  21 23 10.61    -27 25 45.6   378779 1.0184 138.0  m  17?  26.44  46.3   15 145   7  86
   2024 06 25 08:20  21 23 24.88    -27 22 42.1   378587 1.0184 137.9  m  17?  26.40  45.5   16 146   7  86
   2024 06 25 08:30  21 23 38.91    -27 19 35.9   378401 1.0183 137.9  m  17?  26.38  44.6   17 148   7  86
   2024 06 25 08:40  21 23 52.73    -27 16 27.0   378222 1.0183 137.8  m  17?  26.39  43.8   18 150   7  86
   2024 06 25 08:50  21 24 06.35    -27 13 15.3   378050 1.0183 137.8  m  17?  26.42  42.9   19 153   7  86
   2024 06 25 09:00  21 24 19.78    -27 10 00.8   377884 1.0183 137.7  m  17?  26.47  42.2   20 155   7  86
   2024 06 25 09:10  21 24 33.03    -27 06 43.5   377726 1.0183 137.7  m  17?  26.54  41.4   21 157   7  86
   2024 06 25 09:20  21 24 46.12    -27 03 23.2   377575 1.0183 137.6  m  17?  26.63  40.7   22 159   7  86
   2024 06 25 09:30  21 24 59.07    -27 00 00.0   377431 1.0183 137.6  m  17?  26.74  40.0   23 161   7  86
   2024 06 25 09:40  21 25 11.88    -26 56 33.9   377295 1.0183 137.5  m  17?  26.87  39.3   23 164   7  86
   2024 06 25 09:50  21 25 24.59    -26 53 04.8   377167 1.0183 137.5  m  17?  27.02  38.7   24 166   7  86
   2024 06 25 10:00  21 25 37.19    -26 49 32.6   377047 1.0183 137.4  m  17?  27.19  38.1   24 168   7  86
   2024 06 25 10:10  21 25 49.71    -26 45 57.5   376934 1.0183 137.4  m  17?  27.37  37.6   25 171   7  86
   2024 06 25 10:20  21 26 02.17    -26 42 19.3   376829 1.0183 137.3 Am  17?  27.57  37.1   25 173   6  86
   2024 06 25 10:30  21 26 14.57    -26 38 38.1   376733 1.0183 137.3 Am  17?  27.78  36.6   25 175   6  86
   2024 06 25 10:40  21 26 26.94    -26 34 53.9   376644 1.0183 137.3 Am  17?  28.01  36.2   25 178   6  85
   2024 06 25 10:50  21 26 39.30    -26 31 06.6   376564 1.0183 137.2 At  17?  28.25  35.8   25 180   6  85
   2024 06 25 11:00  21 26 51.65    -26 27 16.3   376492 1.0183 137.2 Ae  17?  28.51  35.5   25 183   6  85
   2024 06 25 11:10  21 27 04.02    -26 23 23.0   376428 1.0183 137.1 Nm  17?  28.77  35.2   25 185   6  85
   2024 06 25 11:20  21 27 16.42    -26 19 26.8   376372 1.0183 137.1 Nm  17?  29.05  35.0   25 188   6  85
   2024 06 25 11:30  21 27 28.86    -26 15 27.5   376324 1.0183 137.0 Nm  17?  29.34  34.8   25 190   6  85
   2024 06 25 11:40  21 27 41.37    -26 11 25.4   376284 1.0183 137.0 Nm  17?  29.64  34.6   25 193   6  85
   2024 06 25 11:50  21 27 53.96    -26 07 20.3   376252 1.0183 136.9 Cm  17?  29.96  34.5   24 195   6  85
   2024 06 25 12:00  21 28 06.65    -26 03 12.3   376228 1.0183 136.9 Cm  17?  30.27  34.4   24 197   6  85
   ................
   2024 06 26 06:20  22 10 52.13    -16 37 10.4   371087 1.0180 125.8  r  17?  51.65  38.1    0 110   2  78
   2024 06 26 06:30  22 11 14.35    -16 30 20.9   370825 1.0180 125.7  m  17?  52.25  37.7    1 112   2  78
   2024 06 26 06:40  22 11 36.62    -16 23 23.9   370567 1.0180 125.6  m  17?  52.93  37.3    3 113   2  78
   2024 06 26 06:50  22 11 58.98    -16 16 19.0   370312 1.0180 125.5  m  17?  53.69  36.9    5 115   2  78
   2024 06 26 07:00  22 12 21.49    -16 09 05.8   370061 1.0180 125.4  m  17?  54.55  36.6    7 116   1  78
   2024 06 26 07:10  22 12 44.23    -16 01 43.8   369814 1.0179 125.3  m  17?  55.52  36.4    8 118   1  78
   2024 06 26 07:20  22 13 07.28    -15 54 12.4   369573 1.0179 125.1  m  17?  56.62  36.3   10 119   1  78
   2024 06 26 07:30  22 13 30.76    -15 46 31.3   369337 1.0179 125.0  m  17?  57.85  36.2   12 121   1  77
   2024 06 26 07:40  22 13 54.79    -15 38 40.0   369106 1.0179 124.9  m  17?  59.23  36.4   14 122   1  77
   2024 06 26 07:50  22 14 19.54    -15 30 38.2   368883 1.0179 124.8  m  17?  60.79  36.7   15 124   1  77
   2024 06 26 08:00  22 14 45.18    -15 22 25.5   368667 1.0179 124.6  m  17?  62.55  37.2   17 126   1  77
   2024 06 26 08:10  22 15 11.96    -15 14 02.2   368458 1.0179 124.5  m  17?  64.53  37.9   19 128   1  77
   2024 06 26 08:20  22 15 40.19    -15 05 28.7   368259 1.0179 124.4  m  17?  66.75  39.0   20 129   1  77
   2024 06 26 08:30  22 16 10.23    -14 56 46.6   368069 1.0179 124.2  m  17?  69.22  40.5   22 131   1  77
   2024 06 26 08:40  22 16 42.52    -14 47 58.8   367891 1.0179 124.0  m  16?  71.92  42.6   23 133   1  77
   2024 06 26 08:50  22 17 17.58    -14 39 10.6   367725 1.0179 123.9  m  16?  74.76  45.3   25 135   1  77
   2024 06 26 09:00  22 17 55.95    -14 30 31.2   367574 1.0179 123.7  m  16?  77.55  48.7   26 137   1  77
   2024 06 26 09:10  22 18 38.04    -14 22 14.5   367440 1.0179 123.5  m  16?  79.93  53.1   27 139   1  77
   2024 06 26 09:20  22 19 23.88    -14 14 38.7   367324 1.0179 123.3  m  16?  81.39  58.2   29 141   1  77
   2024 06 26 09:30  22 20 12.91    -14 08 03.3   367228 1.0179 123.1  m  16?  81.46  63.7   30 143   1  77
   2024 06 26 09:40  22 21 03.88    -14 02 41.6   367150 1.0179 122.8  m  16?  80.01  69.2   31 146   1  77
   2024 06 26 09:50  22 21 55.27    -13 58 35.6   367090 1.0178 122.6  m  16?  77.36  74.2   32 148   1  77
   2024 06 26 10:00  22 22 45.82    -13 55 37.2   367045 1.0178 122.4  m  16?  74.05  78.3   33 150   1  77
   2024 06 26 10:10  22 23 34.74    -13 53 33.2   367012 1.0178 122.2  m  16?  70.57  81.7   34 153   1  77
   2024 06 26 10:20  22 24 21.69    -13 52 10.4   366990 1.0178 122.1  m  16?  67.20  84.3   35 155   1  77
   2024 06 26 10:30  22 25 06.60    -13 51 17.8   366977 1.0178 121.9 Am  16?  64.10  86.3   35 158   1  77
   2024 06 26 10:40  22 25 49.58    -13 50 47.0   366975 1.0178 121.7 Am  16?  61.29  87.9   36 161   1  77
   2024 06 26 10:50  22 26 30.78    -13 50 31.6   366981 1.0178 121.6 Am  16?  58.79  89.0   37 163   1  77
   2024 06 26 11:00  22 27 10.36    -13 50 27.2   366995 1.0178 121.4 Am  16?  56.55  89.9   37 166   1  76
   2024 06 26 11:10  22 27 48.49    -13 50 30.4   367019 1.0178 121.3 Nm  16?  54.57  90.6   37 169   1  76
   2024 06 26 11:20  22 28 25.33    -13 50 38.8   367051 1.0178 121.2 Nm  16?  52.80  91.1   38 172   1  76
   2024 06 26 11:30  22 29 01.03    -13 50 50.6   367092 1.0178 121.0 Nm  16?  51.22  91.4   38 175   1  76
   2024 06 26 11:40  22 29 35.69    -13 51 04.5   367141 1.0178 120.9 Nm  16?  49.81  91.6   38 178   1  76
   2024 06 26 11:50  22 30 09.44    -13 51 19.4   367199 1.0178 120.8 Ct  16?  48.55  91.7   38 181   1  76
   2024 06 26 12:00  22 30 42.36    -13 51 34.6   367266 1.0178 120.7 Cm  16?  47.42  91.8   38 184   1  76
   ................
   2024 06 27 07:20  23 29 48.77    -12 45 15.4   378578 1.0173 107.5  r  16?  34.21  83.0    0 105   6  67
   2024 06 27 07:30  23 30 11.80    -12 44 33.6   378435 1.0173 107.4  m  16?  33.69  82.8    1 107   6  67
   2024 06 27 07:40  23 30 34.46    -12 43 51.1   378293 1.0173 107.4  m  16?  33.17  82.6    3 108   6  67
   2024 06 27 07:50  23 30 56.75    -12 43 07.9   378153 1.0173 107.3  m  16?  32.66  82.3    5 110   6  67
   2024 06 27 08:00  23 31 18.69    -12 42 23.8   378016 1.0173 107.2  m  16?  32.15  82.0    6 111   6  67
   2024 06 27 08:10  23 31 40.28    -12 41 39.0   377881 1.0173 107.1  m  16?  31.65  81.8    8 113   6  67
   2024 06 27 08:20  23 32 01.51    -12 40 53.2   377749 1.0173 107.0  m  16?  31.17  81.5   10 114   6  67
   2024 06 27 08:30  23 32 22.40    -12 40 06.6   377621 1.0173 107.0  m  16?  30.69  81.2   12 116   6  67
   2024 06 27 08:40  23 32 42.96    -12 39 19.0   377497 1.0173 106.9  m  16?  30.22  80.8   13 118   6  67
   2024 06 27 08:50  23 33 03.18    -12 38 30.4   377376 1.0173 106.8  m  16?  29.76  80.5   15 119   6  67
   2024 06 27 09:00  23 33 23.07    -12 37 40.8   377260 1.0173 106.7  m  16?  29.32  80.1   17 121   7  67
   2024 06 27 09:10  23 33 42.65    -12 36 50.2   377149 1.0173 106.7  m  16?  28.89  79.8   18 123   7  67
   2024 06 27 09:20  23 34 01.92    -12 35 58.4   377043 1.0173 106.6  m  16?  28.47  79.4   20 125   7  67
   2024 06 27 09:30  23 34 20.89    -12 35 05.6   376942 1.0173 106.5  m  16?  28.07  79.0   21 127   7  67
   2024 06 27 09:40  23 34 39.57    -12 34 11.6   376847 1.0173 106.4  m  16?  27.68  78.6   23 129   7  66
   2024 06 27 09:50  23 34 57.97    -12 33 16.4   376757 1.0173 106.4  m  16?  27.31  78.2   24 131   7  66
   2024 06 27 10:00  23 35 16.10    -12 32 20.0   376674 1.0173 106.3  m  16?  26.96  77.8   26 133   7  66
   2024 06 27 10:10  23 35 33.97    -12 31 22.4   376597 1.0173 106.2  m  16?  26.63  77.3   27 135   7  66
   2024 06 27 10:20  23 35 51.59    -12 30 23.5   376527 1.0173 106.2  m  16?  26.31  76.9   29 137   7  66
   2024 06 27 10:30  23 36 08.97    -12 29 23.3   376464 1.0173 106.1 Am  16?  26.01  76.5   30 140   7  66
   2024 06 27 10:40  23 36 26.13    -12 28 21.8   376408 1.0173 106.0 Am  16?  25.73  76.0   31 142   7  66
   2024 06 27 10:50  23 36 43.07    -12 27 19.0   376360 1.0173 106.0 Am  16?  25.47  75.6   32 144   7  66
   2024 06 27 11:00  23 36 59.81    -12 26 14.8   376319 1.0173 105.9 Am  16?  25.23  75.1   33 147   7  66
   2024 06 27 11:10  23 37 16.37    -12 25 09.3   376285 1.0173 105.9 Nm  16?  25.01  74.6   34 150   7  66
   2024 06 27 11:20  23 37 32.75    -12 24 02.4   376260 1.0172 105.8 Nm  16?  24.82  74.2   35 152   7  66
   2024 06 27 11:30  23 37 48.97    -12 22 54.1   376243 1.0172 105.7 Nm  16?  24.64  73.7   36 155   7  66
   2024 06 27 11:40  23 38 05.05    -12 21 44.4   376233 1.0172 105.7 Nm  16?  24.49  73.3   37 158   7  66
   2024 06 27 11:50  23 38 20.99    -12 20 33.3   376233 1.0172 105.6 Cm  16?  24.35  72.8   38 161   7  66
   2024 06 27 12:00  23 38 36.81    -12 19 20.9   376240 1.0172 105.5 Cm  16?  24.24  72.4   38 164   7  66
   ................
   2024 06 28 08:00  00 24 55.94    -08 59 31.7   386364 1.0168  94.5  r  16?  30.77  72.3    0 101   9  56
   2024 06 28 08:10  00 25 15.55    -08 57 57.9   386194 1.0168  94.5  m  16?  30.30  71.9    1 102   9  56
   2024 06 28 08:20  00 25 34.82    -08 56 23.7   386026 1.0168  94.4  m  16?  29.84  71.6    3 104   9  56
   2024 06 28 08:30  00 25 53.76    -08 54 49.0   385859 1.0168  94.3  m  16?  29.38  71.2    5 105   9  56
   2024 06 28 08:40  00 26 12.35    -08 53 13.7   385694 1.0168  94.2  m  16?  28.93  70.7    7 107   9  56
   2024 06 28 08:50  00 26 30.62    -08 51 38.0   385531 1.0168  94.2  m  16?  28.49  70.3    9 108   9  56
   2024 06 28 09:00  00 26 48.55    -08 50 01.7   385371 1.0168  94.1  m  16?  28.06  69.9   10 110   9  55
   2024 06 28 09:10  00 27 06.17    -08 48 24.8   385214 1.0168  94.0  m  16?  27.64  69.4   12 111   9  55
   2024 06 28 09:20  00 27 23.46    -08 46 47.3   385060 1.0168  93.9  m  16?  27.22  69.0   14 113   9  55
   2024 06 28 09:30  00 27 40.45    -08 45 09.2   384910 1.0168  93.9  m  16?  26.82  68.5   16 115   9  55
   2024 06 28 09:40  00 27 57.12    -08 43 30.4   384764 1.0168  93.8  m  16?  26.43  68.0   18 116   9  55
   2024 06 28 09:50  00 28 13.50    -08 41 51.0   384623 1.0168  93.7  m  16?  26.05  67.5   19 118   9  55
   2024 06 28 10:00  00 28 29.59    -08 40 10.8   384487 1.0168  93.7  m  16?  25.69  67.0   21 120   9  55
   2024 06 28 10:10  00 28 45.39    -08 38 29.9   384355 1.0168  93.6  m  16?  25.34  66.5   23 122   9  55
   2024 06 28 10:20  00 29 00.91    -08 36 48.2   384229 1.0168  93.5  m  16?  25.00  65.9   24 124   9  55
   2024 06 28 10:30  00 29 16.17    -08 35 05.8   384108 1.0168  93.5 Am  16?  24.68  65.4   26 126   9  55
   2024 06 28 10:40  00 29 31.17    -08 33 22.6   383994 1.0168  93.4 Am  16?  24.37  64.9   28 128   9  55
   2024 06 28 10:50  00 29 45.92    -08 31 38.6   383886 1.0168  93.4 Am  16?  24.08  64.3   29 130   9  55
   2024 06 28 11:00  00 30 00.43    -08 29 53.8   383784 1.0168  93.3 Am  16?  23.81  63.8   30 132   9  55
   2024 06 28 11:10  00 30 14.72    -08 28 08.2   383689 1.0168  93.2 Nm  16?  23.56  63.3   32 135   9  55
   2024 06 28 11:20  00 30 28.79    -08 26 21.7   383601 1.0167  93.2 Nm  16?  23.32  62.7   33 137   9  55
   2024 06 28 11:30  00 30 42.65    -08 24 34.3   383521 1.0167  93.1 Nm  16?  23.10  62.2   35 139   9  55
   2024 06 28 11:40  00 30 56.33    -08 22 46.1   383447 1.0167  93.1 Nm  16?  22.90  61.7   36 142  10  54
   2024 06 28 11:50  00 31 09.82    -08 20 57.0   383382 1.0167  93.0 Cm  16?  22.72  61.2   37 145  10  54
   2024 06 28 12:00  00 31 23.15    -08 19 07.0   383324 1.0167  93.0 Cm  16?  22.55  60.7   38 147  10  54
   ................
   2024 06 29 08:30  01 13 03.05    -03 52 25.2   390552 1.0163  82.5  m  16?  30.47  64.6    0  94  10  44
   2024 06 29 08:40  01 13 21.28    -03 50 14.4   390351 1.0163  82.4  m  16?  30.04  64.2    2  96  10  44
   2024 06 29 08:50  01 13 39.18    -03 48 03.3   390150 1.0163  82.3  m  16?  29.61  63.7    4  97  10  44
   2024 06 29 09:00  01 13 56.75    -03 45 51.8   389951 1.0163  82.3  m  16?  29.19  63.2    5  99  10  44
   2024 06 29 09:10  01 14 13.99    -03 43 39.9   389753 1.0163  82.2  m  16?  28.78  62.7    7 100  10  44
   2024 06 29 09:20  01 14 30.92    -03 41 27.7   389557 1.0163  82.1  m  16?  28.37  62.2    9 102  10  44
   2024 06 29 09:30  01 14 47.52    -03 39 15.1   389363 1.0163  82.0  m  16?  27.97  61.7   11 103  10  44
   2024 06 29 09:40  01 15 03.80    -03 37 02.1   389172 1.0163  82.0  m  16?  27.57  61.2   13 105  10  44
   2024 06 29 09:50  01 15 19.77    -03 34 48.7   388983 1.0163  81.9  m  16?  27.19  60.6   15 107  10  44
   2024 06 29 10:00  01 15 35.43    -03 32 34.9   388798 1.0163  81.8  m  16?  26.81  60.1   17 108  10  43
   2024 06 29 10:10  01 15 50.79    -03 30 20.7   388617 1.0163  81.8  m  16?  26.44  59.5   19 110  10  43
   2024 06 29 10:20  01 16 05.86    -03 28 06.0   388439 1.0163  81.7  m  16?  26.09  58.9   21 112  10  43
   2024 06 29 10:30  01 16 20.63    -03 25 51.0   388266 1.0163  81.6 Am  16?  25.74  58.3   22 113  10  43
   2024 06 29 10:40  01 16 35.12    -03 23 35.5   388098 1.0163  81.6 Am  16?  25.41  57.8   24 115  10  43
   2024 06 29 10:50  01 16 49.33    -03 21 19.5   387934 1.0163  81.5 Am  16?  25.09  57.2   26 117  10  43
   2024 06 29 11:00  01 17 03.27    -03 19 03.1   387776 1.0163  81.5 Am  16?  24.79  56.6   28 119  10  43
   2024 06 29 11:10  01 17 16.95    -03 16 46.3   387624 1.0163  81.4 Nm  16?  24.49  56.0   29 121  10  43
   2024 06 29 11:20  01 17 30.38    -03 14 29.0   387477 1.0163  81.3 Nm  16?  24.22  55.4   31 123  10  43
   2024 06 29 11:30  01 17 43.57    -03 12 11.3   387337 1.0162  81.3 Nm  16?  23.95  54.9   33 125  10  43
   2024 06 29 11:40  01 17 56.53    -03 09 53.1   387203 1.0162  81.2 Nm  16?  23.70  54.3   34 128  10  43
   2024 06 29 11:50  01 18 09.27    -03 07 34.4   387077 1.0162  81.2 Cm  16?  23.47  53.8   36 130  10  43
   2024 06 29 12:00  01 18 21.80    -03 05 15.3   386957 1.0162  81.1 Cm  16?  23.25  53.2   37 132  10  43
   ................
   2024 06 30 08:50  01 57 43.80    +02 12 00.9   390789 1.0158  70.8  r  16?  32.14  58.9    0  86  10  33
   2024 06 30 09:00  01 58 01.99    +02 14 47.3   390559 1.0158  70.7  m  16?  31.75  58.4    1  88  10  33
   2024 06 30 09:10  01 58 19.86    +02 17 34.0   390329 1.0158  70.6  m  16?  31.35  57.9    3  89  10  33
   2024 06 30 09:20  01 58 37.40    +02 20 21.1   390098 1.0158  70.5  m  16?  30.96  57.4    5  91  10  33
   2024 06 30 09:30  01 58 54.63    +02 23 08.6   389869 1.0158  70.5  m  16?  30.57  56.8    7  92  10  33
   2024 06 30 09:40  01 59 11.53    +02 25 56.3   389641 1.0158  70.4  m  16?  30.19  56.3    9  94  10  32
   2024 06 30 09:50  01 59 28.11    +02 28 44.4   389414 1.0158  70.3  m  16?  29.81  55.7   11  95  10  32
   2024 06 30 10:00  01 59 44.38    +02 31 32.7   389189 1.0158  70.2  m  16?  29.44  55.1   13  97  10  32
   2024 06 30 10:10  02 00 00.33    +02 34 21.4   388966 1.0158  70.2  m  16?  29.07  54.6   15  98  10  32
   2024 06 30 10:20  02 00 15.96    +02 37 10.3   388745 1.0158  70.1  m  16?  28.71  54.0   17 100  10  32
   2024 06 30 10:30  02 00 31.29    +02 39 59.5   388528 1.0158  70.0 Am  16?  28.35  53.4   19 101  10  32
   2024 06 30 10:40  02 00 46.32    +02 42 48.9   388314 1.0158  69.9 Am  16?  28.01  52.8   21 103  10  32
   2024 06 30 10:50  02 01 01.05    +02 45 38.6   388104 1.0158  69.9 Am  16?  27.67  52.2   23 105  10  32
   2024 06 30 11:00  02 01 15.49    +02 48 28.5   387897 1.0158  69.8 Am  16?  27.34  51.6   24 106  10  32
   2024 06 30 11:10  02 01 29.64    +02 51 18.7   387695 1.0158  69.7 Nm  16?  27.02  51.0   26 108  10  32
   2024 06 30 11:20  02 01 43.51    +02 54 09.0   387498 1.0158  69.7 Nm  16?  26.71  50.4   28 110  10  32
   2024 06 30 11:30  02 01 57.10    +02 56 59.5   387306 1.0158  69.6 Nm  16?  26.42  49.8   30 112  10  32
   2024 06 30 11:40  02 02 10.44    +02 59 50.2   387119 1.0158  69.5 Nm  16?  26.13  49.3   32 114  10  32
   2024 06 30 11:50  02 02 23.52    +03 02 41.0   386938 1.0158  69.5 Cm  16?  25.85  48.7   34 116  10  32
   2024 06 30 12:00  02 02 36.35    +03 05 31.9   386762 1.0158  69.4 Cm  16?  25.59  48.1   35 118  10  32
   ................
   

Titan-3C RB (JPL-ID: -102770)

   Date (UTC) HH:MM   RA              Dec         delta   r     elong SM  mag  '/hr    PA   alt  az moo ill
   ---- -- -- -----  -------------   -----------  ------ ------ ----- --  --- ------ ------ --- --- --- ---
   2024 06 19 09:10  01 44 01.64    +06 20 34.8    99450 1.0158  61.9  m  13? 134.17 104.0    0  82 150  91
   2024 06 19 09:20  01 45 29.07    +06 15 06.6    98662 1.0158  61.6  m  13? 134.53 104.3    2  83 150  91
   2024 06 19 09:30  01 46 56.63    +06 09 31.0    97863 1.0158  61.3  m  13? 134.94 104.6    3  84 150  91
   2024 06 19 09:40  01 48 24.34    +06 03 47.8    97053 1.0158  61.0  m  13? 135.39 104.9    5  86 150  91
   2024 06 19 09:50  01 49 52.22    +05 57 56.5    96233 1.0158  60.7  m  13? 135.90 105.2    6  87 150  92
   2024 06 19 10:00  01 51 20.31    +05 51 56.7    95402 1.0158  60.4  m  13? 136.46 105.5    8  89 150  92
   2024 06 19 10:10  01 52 48.63    +05 45 48.1    94561 1.0158  60.1     13? 137.09 105.8   10  90 150  92
   2024 06 19 10:20  01 54 17.22    +05 39 30.3    93710 1.0158  59.8 A   13? 137.78 106.1   11  91 151  92
   2024 06 19 10:30  01 55 46.12    +05 33 02.8    92849 1.0158  59.5 A   13? 138.55 106.5   13  93 151  92
   2024 06 19 10:40  01 57 15.37    +05 26 25.3    91979 1.0158  59.3 A   13? 139.39 106.8   15  94 151  92
   2024 06 19 10:50  01 58 45.00    +05 19 37.3    91098 1.0158  59.0 A   13? 140.32 107.1   16  96 151  92
   2024 06 19 11:00  02 00 15.08    +05 12 38.3    90208 1.0158  58.7 A   13? 141.34 107.5   18  97 151  92
   2024 06 19 11:10  02 01 45.64    +05 05 27.8    89308 1.0158  58.4 N   13? 142.46 107.8   19  99 151  92
   2024 06 19 11:20  02 03 16.76    +04 58 05.3    88399 1.0158  58.1 N   13? 143.68 108.2   21 100 151  92
   2024 06 19 11:30  02 04 48.48    +04 50 30.2    87481 1.0158  57.8 N   13? 145.01 108.6   23 102 151  92
   2024 06 19 11:40  02 06 20.86    +04 42 42.1    86553 1.0158  57.5 N   13? 146.46 108.9   24 103 152  92
   2024 06 19 11:50  02 07 53.99    +04 34 40.3    85617 1.0158  57.3 C   13? 148.03 109.3   26 105 152  92
   2024 06 19 12:00  02 09 27.93    +04 26 24.1    84670 1.0158  57.0 C   13? 149.75 109.7   27 106 152  92
   ................
   2024 06 20 05:30  22 32 54.62    +13 53 29.0    79437 1.0163 102.7  m  13? 190.64  86.7    0  72  99  96
   2024 06 20 05:40  22 35 03.33    +13 55 13.3    80203 1.0163 102.2  m  13? 184.93  86.8    1  73 100  96
   2024 06 20 05:50  22 37 08.24    +13 56 49.7    80951 1.0163 101.7  m  13? 179.43  87.0    3  74 100  96
   2024 06 20 06:00  22 39 09.47    +13 58 18.6    81683 1.0163 101.3  m  13? 174.12  87.1    4  75 101  96
   2024 06 20 06:10  22 41 07.16    +13 59 40.4    82399 1.0163 100.9  m  13? 169.01  87.3    6  77 101  96
   2024 06 20 06:20  22 43 01.43    +14 00 55.3    83100 1.0163 100.5  m  13? 164.08  87.4    7  78 101  96
   2024 06 20 06:30  22 44 52.40    +14 02 03.5    83784 1.0163 100.1  m  13? 159.32  87.6    9  79 102  96
   2024 06 20 06:40  22 46 40.18    +14 03 05.4    84455 1.0163  99.7  m  13? 154.73  87.8   11  80 102  96
   2024 06 20 06:50  22 48 24.88    +14 04 01.0    85111 1.0163  99.3  m  13? 150.28  87.9   12  81 102  96
   2024 06 20 07:00  22 50 06.59    +14 04 50.6    85753 1.0163  98.9  m  13? 145.99  88.1   14  83 103  96
   2024 06 20 07:10  22 51 45.42    +14 05 34.4    86382 1.0163  98.6  m  13? 141.84  88.3   16  84 103  96
   2024 06 20 07:20  22 53 21.46    +14 06 12.4    86998 1.0163  98.2  m  13? 137.82  88.5   17  85 103  96
   2024 06 20 07:30  22 54 54.80    +14 06 44.7    87602 1.0163  97.9  m  13? 133.93  88.7   19  86 104  96
   2024 06 20 07:40  22 56 25.52    +14 07 11.5    88194 1.0163  97.6  m  13? 130.18  88.9   21  88 104  96
   2024 06 20 07:50  22 57 53.71    +14 07 32.9    88774 1.0163  97.3  m  13? 126.54  89.1   22  89 104  96
   2024 06 20 08:00  22 59 19.46    +14 07 48.8    89343 1.0163  96.9  m  13? 123.03  89.3   24  90 104  96
   2024 06 20 08:10  23 00 42.83    +14 07 59.4    89902 1.0163  96.6  m  13? 119.63  89.6   26  91 105  96
   2024 06 20 08:20  23 02 03.91    +14 08 04.8    90451 1.0162  96.4  m  13? 116.35  89.8   27  93 105  96
   2024 06 20 08:30  23 03 22.78    +14 08 04.9    90990 1.0162  96.1  m  13? 113.18  90.1   29  94 105  96
   2024 06 20 08:40  23 04 39.51    +14 07 59.7    91519 1.0162  95.8  m  13? 110.12  90.3   31  96 105  96
   2024 06 20 08:50  23 05 54.16    +14 07 49.4    92040 1.0162  95.5  m  13? 107.17  90.6   33  97 106  96
   2024 06 20 09:00  23 07 06.82    +14 07 34.0    92552 1.0162  95.3  m  13? 104.32  90.9   34  99 106  96
   2024 06 20 09:10  23 08 17.55    +14 07 13.3    93057 1.0162  95.0  m  13? 101.58  91.3   36 100 106  96
   2024 06 20 09:20  23 09 26.43    +14 06 47.6    93554 1.0162  94.8  m  13?  98.95  91.6   38 102 106  96
   2024 06 20 09:30  23 10 33.51    +14 06 16.7    94043 1.0162  94.6  m  13?  96.42  91.9   39 104 106  96
   2024 06 20 09:40  23 11 38.88    +14 05 40.6    94526 1.0162  94.3  m  13?  93.99  92.3   41 105 106  96
   2024 06 20 09:50  23 12 42.59    +14 04 59.5    95002 1.0162  94.1  m  13?  91.66  92.7   43 107 107  96
   2024 06 20 10:00  23 13 44.72    +14 04 13.2    95472 1.0162  93.9  m  13?  89.43  93.1   45 109 107  96
   2024 06 20 10:10  23 14 45.32    +14 03 21.8    95936 1.0162  93.7  m  13?  87.31  93.5   46 111 107  96
   2024 06 20 10:20  23 15 44.47    +14 02 25.3    96395 1.0162  93.5 Am  13?  85.28  93.9   48 113 107  96
   2024 06 20 10:30  23 16 42.23    +14 01 23.7    96848 1.0162  93.3 Am  13?  83.35  94.4   49 116 107  96
   2024 06 20 10:40  23 17 38.67    +14 00 17.0    97297 1.0162  93.1 Am  13?  81.52  94.8   51 118 107  96
   2024 06 20 10:50  23 18 33.84    +13 59 05.1    97741 1.0162  92.9 A   13?  79.79  95.3   53 121 107  96
   2024 06 20 11:00  23 19 27.82    +13 57 48.3    98181 1.0162  92.7 A   13?  78.16  95.8   54 123 108  96
   2024 06 20 11:10  23 20 20.67    +13 56 26.3    98618 1.0162  92.6 N   13?  76.63  96.3   56 126 108  96
   2024 06 20 11:20  23 21 12.45    +13 54 59.3    99050 1.0162  92.4 N   13?  75.19  96.8   57 129 108  96
   2024 06 20 11:30  23 22 03.22    +13 53 27.3    99479 1.0162  92.2 N   13?  73.85  97.3   58 133 108  96
   2024 06 20 11:40  23 22 53.04    +13 51 50.3    99905 1.0162  92.0 N   13?  72.61  97.8   60 136 108  96
   2024 06 20 11:50  23 23 41.99    +13 50 08.3   100328 1.0162  91.9 C   13?  71.46  98.3   61 140 108  96
   2024 06 20 12:00  23 24 30.11    +13 48 21.3   100748 1.0162  91.7 C   13?  70.40  98.9   62 145 108  96
   ................
   2024 06 21 09:10  01 52 10.10    +05 44 54.6    96062 1.0159  62.1  m  13? 144.89 104.6    0  82 125  99
   2024 06 21 09:20  01 53 44.26    +05 38 44.9    95216 1.0159  61.8  m  13? 145.64 104.9    1  83 125  99
   2024 06 21 09:30  01 55 18.80    +05 32 26.3    94358 1.0159  61.5  m  13? 146.46 105.2    3  85 126  99
   2024 06 21 09:40  01 56 53.73    +05 25 58.3    93490 1.0159  61.2  m  13? 147.35 105.5    4  86 126  99
   2024 06 21 09:50  01 58 29.12    +05 19 20.4    92610 1.0159  60.9  m  13? 148.32 105.8    6  88 126  99
   2024 06 21 10:00  02 00 04.98    +05 12 32.3    91718 1.0159  60.6  m  13? 149.36 106.1    8  89 126  99
   2024 06 21 10:10  02 01 41.38    +05 05 33.3    90816 1.0159  60.3  m  13? 150.48 106.4    9  90 126  99
   2024 06 21 10:20  02 03 18.36    +04 58 23.1    89904 1.0159  60.0 Am  13? 151.70 106.7   11  92 127  99
   2024 06 21 10:30  02 04 55.97    +04 51 01.0    88980 1.0159  59.6 Am  13? 153.02 107.0   12  93 127  99
   2024 06 21 10:40  02 06 34.27    +04 43 26.6    88046 1.0159  59.3 Am  13? 154.45 107.4   14  95 127  99
   2024 06 21 10:50  02 08 13.33    +04 35 39.2    87101 1.0159  59.0 Am  13? 156.00 107.7   15  96 127  99
   2024 06 21 11:00  02 09 53.20    +04 27 38.2    86146 1.0159  58.7 Am  13? 157.66 108.0   17  97 127  99
   2024 06 21 11:10  02 11 33.96    +04 19 23.0    85181 1.0159  58.4 Nm  13? 159.46 108.4   19  99 128  99
   2024 06 21 11:20  02 13 15.70    +04 10 52.8    84205 1.0159  58.1 Nm  13? 161.40 108.7   20 100 128  99
   2024 06 21 11:30  02 14 58.48    +04 02 07.1    83219 1.0159  57.8 Nm  13? 163.50 109.1   22 102 128  99
   2024 06 21 11:40  02 16 42.41    +03 53 04.9    82222 1.0159  57.4 N   13? 165.76 109.4   23 104 128  99
   2024 06 21 11:50  02 18 27.58    +03 43 45.5    81215 1.0159  57.1 C   13? 168.20 109.8   25 105 128  99
   2024 06 21 12:00  02 20 14.09    +03 34 08.0    80198 1.0159  56.8 C   13? 170.82 110.1   26 107 129  99
   ................
   2024 06 22 05:30  22 43 20.26    +13 49 20.8    84345 1.0164 102.2  m  13? 171.54  87.6    0  72  77  99
   2024 06 22 05:40  22 45 16.30    +13 50 29.4    85027 1.0164 101.8  m  13? 166.78  87.7    1  73  77  99
   2024 06 22 05:50  22 47 09.13    +13 51 32.4    85693 1.0164 101.4  m  13? 162.17  87.8    2  74  78  99
   2024 06 22 06:00  22 48 58.88    +13 52 30.0    86344 1.0164 101.0  m  13? 157.70  88.0    4  75  78  99
   2024 06 22 06:10  22 50 45.62    +13 53 22.2    86980 1.0164 100.6  m  13? 153.38  88.1    5  76  78  99
   2024 06 22 06:20  22 52 29.45    +13 54 09.3    87601 1.0164 100.3  m  13? 149.18  88.2    7  78  78  99
   2024 06 22 06:30  22 54 10.46    +13 54 51.3    88209 1.0164  99.9  m  13? 145.11  88.4    9  79  79  99
   2024 06 22 06:40  22 55 48.73    +13 55 28.5    88803 1.0164  99.5  m  13? 141.16  88.5   10  80  79  99
   2024 06 22 06:50  22 57 24.34    +13 56 00.8    89383 1.0164  99.2  m  13? 137.33  88.7   12  81  79  99
   2024 06 22 07:00  22 58 57.37    +13 56 28.3    89952 1.0164  98.9  m  13? 133.61  88.9   14  83  80  99
   2024 06 22 07:10  23 00 27.88    +13 56 51.2    90508 1.0164  98.6  m  13? 130.00  89.0   15  84  80  99
   2024 06 22 07:20  23 01 55.97    +13 57 09.4    91052 1.0164  98.2  m  13? 126.50  89.2   17  85  80  99
   2024 06 22 07:30  23 03 21.68    +13 57 23.1    91585 1.0164  97.9  m  13? 123.10  89.4   19  86  80  99
   2024 06 22 07:40  23 04 45.11    +13 57 32.1    92107 1.0164  97.6  m  13? 119.80  89.6   20  88  81  99
   2024 06 22 07:50  23 06 06.30    +13 57 36.6    92618 1.0164  97.3  m  13? 116.61  89.8   22  89  81  99
   2024 06 22 08:00  23 07 25.33    +13 57 36.6    93120 1.0164  97.1  m  13? 113.50  90.1   24  90  81  99
   2024 06 22 08:10  23 08 42.26    +13 57 32.0    93612 1.0164  96.8  m  13? 110.50  90.3   26  92  81  99
   2024 06 22 08:20  23 09 57.15    +13 57 22.9    94094 1.0164  96.5  m  13? 107.59  90.6   27  93  81  99
   2024 06 22 08:30  23 11 10.07    +13 57 09.2    94568 1.0164  96.3  m  13? 104.77  90.8   29  94  82  99
   2024 06 22 08:40  23 12 21.09    +13 56 51.0    95033 1.0164  96.0  m  13? 102.04  91.1   31  96  82  99
   2024 06 22 08:50  23 13 30.25    +13 56 28.2    95491 1.0164  95.8  m  13?  99.41  91.4   33  97  82  99
   2024 06 22 09:00  23 14 37.63    +13 56 00.8    95941 1.0164  95.5  m  13?  96.87  91.7   34  99  82  99
   2024 06 22 09:10  23 15 43.27    +13 55 28.8    96383 1.0164  95.3  m  13?  94.41  92.0   36 101  82  99
   2024 06 22 09:20  23 16 47.25    +13 54 52.2    96819 1.0164  95.1  m  13?  92.05  92.4   38 102  82  99
   2024 06 22 09:30  23 17 49.63    +13 54 11.0    97248 1.0164  94.9  m  13?  89.78  92.7   39 104  82  99
   2024 06 22 09:40  23 18 50.45    +13 53 25.1    97671 1.0164  94.7  m  13?  87.60  93.1   41 106  83  99
   2024 06 22 09:50  23 19 49.78    +13 52 34.4    98088 1.0164  94.5  m  13?  85.52  93.5   43 108  83  99
   2024 06 22 10:00  23 20 47.69    +13 51 39.1    98500 1.0164  94.3  m  13?  83.52  93.9   45 110  83  99
   2024 06 22 10:10  23 21 44.22    +13 50 39.1    98907 1.0164  94.1  m  13?  81.61  94.3   46 112  83  99
   2024 06 22 10:20  23 22 39.45    +13 49 34.3    99309 1.0164  93.9 Am  13?  79.79  94.8   48 114  83  99
   2024 06 22 10:30  23 23 33.42    +13 48 24.7    99706 1.0163  93.7 Am  13?  78.07  95.2   50 116  83  99
   2024 06 22 10:40  23 24 26.19    +13 47 10.4   100099 1.0163  93.5 Am  13?  76.43  95.7   51 119  83  99
   2024 06 22 10:50  23 25 17.84    +13 45 51.3   100489 1.0163  93.4 Am  13?  74.88  96.2   53 121  83  99
   2024 06 22 11:00  23 26 08.40    +13 44 27.4   100874 1.0163  93.2 Am  13?  73.43  96.7   54 124  83  99
   2024 06 22 11:10  23 26 57.95    +13 42 58.8   101257 1.0163  93.0 Nm  13?  72.07  97.2   56 127  84  99
   2024 06 22 11:20  23 27 46.54    +13 41 25.3   101636 1.0163  92.9 Nm  13?  70.79  97.7   57 130  84  99
   2024 06 22 11:30  23 28 34.23    +13 39 47.1   102012 1.0163  92.7 Nm  13?  69.61  98.3   58 134  84  99
   2024 06 22 11:40  23 29 21.08    +13 38 04.1   102386 1.0163  92.5 Nm  13?  68.52  98.8   60 137  84  99
   2024 06 22 11:50  23 30 07.14    +13 36 16.4   102757 1.0163  92.4 Cm  13?  67.51  99.3   61 141  84  99
   2024 06 22 12:00  23 30 52.48    +13 34 23.9   103126 1.0163  92.3 Cm  13?  66.60  99.9   62 145  84  99
   ................
   2024 06 23 09:10  02 00 51.36    +05 04 57.6    92332 1.0161  62.3  r  13? 158.08 105.2    0  83 100  97
   2024 06 23 09:20  02 02 33.80    +04 57 56.7    91424 1.0161  62.0  m  13? 159.37 105.5    1  84 100  97
   2024 06 23 09:30  02 04 16.93    +04 50 44.7    90503 1.0161  61.6  m  13? 160.74 105.8    2  85 100  97
   2024 06 23 09:40  02 06 00.82    +04 43 21.0    89571 1.0161  61.3  m  13? 162.22 106.1    4  87 100  97
   2024 06 23 09:50  02 07 45.51    +04 35 45.2    88627 1.0161  61.0  m  13? 163.79 106.4    5  88 101  97
   2024 06 23 10:00  02 09 31.08    +04 27 56.5    87671 1.0161  60.6  m  13? 165.49 106.7    7  89 101  97
   2024 06 23 10:10  02 11 17.57    +04 19 54.3    86703 1.0161  60.3  m  13? 167.30 107.0    8  91 101  97
   2024 06 23 10:20  02 13 05.08    +04 11 38.0    85724 1.0161  59.9 Am  13? 169.25 107.3   10  92 102  97
   2024 06 23 10:30  02 14 53.67    +04 03 06.9    84733 1.0161  59.6 Am  13? 171.34 107.6   11  93 102  97
   2024 06 23 10:40  02 16 43.43    +03 54 20.1    83731 1.0161  59.3 Am  13? 173.58 108.0   13  95 102  97
   2024 06 23 10:50  02 18 34.44    +03 45 17.0    82717 1.0161  58.9 Am  13? 175.98 108.3   14  96 102  97
   2024 06 23 11:00  02 20 26.81    +03 35 56.7    81691 1.0161  58.6 Am  13? 178.57 108.6   16  98 103  97
   2024 06 23 11:10  02 22 20.65    +03 26 18.3    80654 1.0161  58.2 Nm  13? 181.34 108.9   17  99 103  97
   2024 06 23 11:20  02 24 16.06    +03 16 20.7    79606 1.0161  57.9 Nm  13? 184.32 109.3   19 101 103  97
   2024 06 23 11:30  02 26 13.17    +03 06 03.1    78546 1.0161  57.5 Nm  13? 187.53 109.6   20 102 103  97
   2024 06 23 11:40  02 28 12.11    +02 55 24.4    77474 1.0161  57.1 Nm  13? 190.97 109.9   22 104 104  97
   2024 06 23 11:50  02 30 13.03    +02 44 23.3    76391 1.0161  56.8 Cm  13? 194.67 110.2   23 105 104  97
   2024 06 23 12:00  02 32 16.08    +02 32 58.7    75296 1.0161  56.4 Cm  13? 198.65 110.6   25 107 104  97
   ................
   2024 06 24 05:40  22 54 40.80    +13 44 44.8    89479 1.0165 101.6  m  13? 152.19  88.5    0  73  54  93
   2024 06 24 05:50  22 56 23.89    +13 45 21.7    90069 1.0165 101.3  m  13? 148.24  88.6    2  74  54  93
   2024 06 24 06:00  22 58 04.32    +13 45 54.5    90644 1.0165 100.9  m  13? 144.39  88.7    4  75  54  93
   2024 06 24 06:10  22 59 42.15    +13 46 23.3    91206 1.0165 100.6  m  13? 140.65  88.9    5  76  54  93
   2024 06 24 06:20  23 01 17.46    +13 46 48.2    91755 1.0165 100.2  m  13? 137.01  89.0    7  78  55  93
   2024 06 24 06:30  23 02 50.31    +13 47 09.1    92290 1.0165  99.9  m  13? 133.46  89.1    9  79  55  93
   2024 06 24 06:40  23 04 20.75    +13 47 26.1    92813 1.0165  99.6  m  13? 130.01  89.3   10  80  55  93
   2024 06 24 06:50  23 05 48.87    +13 47 39.3    93324 1.0165  99.3  m  13? 126.65  89.5   12  81  55  93
   2024 06 24 07:00  23 07 14.71    +13 47 48.6    93823 1.0165  99.0  m  13? 123.37  89.6   14  83  55  93
   2024 06 24 07:10  23 08 38.33    +13 47 54.0    94311 1.0165  98.7  m  13? 120.18  89.8   15  84  55  93
   2024 06 24 07:20  23 09 59.79    +13 47 55.7    94788 1.0165  98.4  m  13? 117.08  90.0   17  85  56  93
   2024 06 24 07:30  23 11 19.15    +13 47 53.4    95255 1.0165  98.1  m  13? 114.06  90.2   19  86  56  93
   2024 06 24 07:40  23 12 36.46    +13 47 47.3    95712 1.0165  97.8  m  13? 111.12  90.4   20  88  56  93
   2024 06 24 07:50  23 13 51.79    +13 47 37.3    96158 1.0165  97.6  m  13? 108.26  90.6   22  89  56  93
   2024 06 24 08:00  23 15 05.17    +13 47 23.3    96596 1.0165  97.3  m  13? 105.49  90.8   24  90  56  93
   2024 06 24 08:10  23 16 16.67    +13 47 05.4    97025 1.0165  97.0  m  13? 102.79  91.1   26  92  56  93
   2024 06 24 08:20  23 17 26.34    +13 46 43.6    97445 1.0165  96.8  m  13? 100.18  91.3   27  93  57  93
   2024 06 24 08:30  23 18 34.23    +13 46 17.6    97857 1.0165  96.6  m  13?  97.64  91.6   29  95  57  93
   2024 06 24 08:40  23 19 40.40    +13 45 47.7    98262 1.0165  96.3  m  13?  95.18  91.9   31  96  57  93
   2024 06 24 08:50  23 20 44.89    +13 45 13.6    98659 1.0165  96.1  m  13?  92.81  92.2   33  98  57  93
   2024 06 24 09:00  23 21 47.77    +13 44 35.3    99050 1.0165  95.9  m  13?  90.51  92.5   34  99  57  93
   2024 06 24 09:10  23 22 49.08    +13 43 52.9    99434 1.0165  95.7  m  13?  88.30  92.9   36 101  57  93
   2024 06 24 09:20  23 23 48.88    +13 43 06.2    99811 1.0165  95.5  m  13?  86.16  93.2   38 103  57  93
   2024 06 24 09:30  23 24 47.21    +13 42 15.3   100183 1.0165  95.3  m  13?  84.11  93.6   40 104  57  93
   2024 06 24 09:40  23 25 44.14    +13 41 20.0   100549 1.0165  95.1  m  13?  82.13  94.0   41 106  58  93
   2024 06 24 09:50  23 26 39.72    +13 40 20.4   100910 1.0165  94.9  m  13?  80.24  94.4   43 108  58  93
   2024 06 24 10:00  23 27 33.99    +13 39 16.3   101267 1.0165  94.7  m  13?  78.43  94.8   45 110  58  92
   2024 06 24 10:10  23 28 27.02    +13 38 07.9   101619 1.0165  94.5  m  13?  76.71  95.3   46 112  58  92
   2024 06 24 10:20  23 29 18.86    +13 36 55.0   101966 1.0165  94.4 Am  13?  75.07  95.7   48 114  58  92
   2024 06 24 10:30  23 30 09.56    +13 35 37.6   102310 1.0165  94.2 Am  13?  73.51  96.2   50 117  58  92
   2024 06 24 10:40  23 30 59.17    +13 34 15.7   102650 1.0165  94.0 Am  13?  72.04  96.7   51 119  58  92
   2024 06 24 10:50  23 31 47.75    +13 32 49.2   102986 1.0165  93.9 Am  13?  70.65  97.2   53 122  58  92
   2024 06 24 11:00  23 32 35.36    +13 31 18.2   103320 1.0165  93.7 Am  13?  69.34  97.7   54 125  58  92
   2024 06 24 11:10  23 33 22.05    +13 29 42.6   103650 1.0165  93.5 Nm  13?  68.13  98.2   56 128  58  92
   2024 06 24 11:20  23 34 07.88    +13 28 02.5   103978 1.0165  93.4 Nm  13?  66.99  98.8   57 131  58  92
   2024 06 24 11:30  23 34 52.89    +13 26 17.8   104304 1.0165  93.2 Nm  13?  65.94  99.3   58 134  58  92
   2024 06 24 11:40  23 35 37.14    +13 24 28.5   104628 1.0165  93.1 Nm  13?  64.98  99.8   60 138  58  92
   2024 06 24 11:50  23 36 20.70    +13 22 34.6   104949 1.0165  93.0 Cm  13?  64.10 100.4   61 142  58  92
   2024 06 24 12:00  23 37 03.61    +13 20 36.2   105269 1.0164  92.8 Cm  13?  63.31 100.9   62 146  58  92
   ................
   2024 06 25 09:20  02 12 03.79    +04 11 26.7    87320 1.0162  62.0  m  13? 176.32 106.2    0  84  74  86
   2024 06 25 09:30  02 13 57.55    +04 03 07.7    86333 1.0162  61.7  m  13? 178.45 106.5    1  86  74  86
   2024 06 25 09:40  02 15 52.54    +03 54 34.0    85334 1.0162  61.3  m  13? 180.73 106.8    3  87  75  86
   2024 06 25 09:50  02 17 48.83    +03 45 44.9    84322 1.0162  60.9  m  13? 183.15 107.1    4  88  75  86
   2024 06 25 10:00  02 19 46.52    +03 36 39.4    83297 1.0162  60.5  m  13? 185.74 107.4    6  90  75  86
   2024 06 25 10:10  02 21 45.71    +03 27 16.8    82259 1.0162  60.2  m  13? 188.51 107.7    7  91  76  86
   2024 06 25 10:20  02 23 46.50    +03 17 36.1    81209 1.0162  59.8 Am  13? 191.48 108.0    9  92  76  86
   2024 06 25 10:30  02 25 49.02    +03 07 36.4    80146 1.0162  59.4 Am  13? 194.65 108.3   10  94  76  86
   2024 06 25 10:40  02 27 53.38    +02 57 16.5    79070 1.0162  59.0 Am  13? 198.05 108.6   12  95  77  85
   2024 06 25 10:50  02 29 59.72    +02 46 35.5    77982 1.0162  58.6 Am  13? 201.69 108.9   13  97  77  85
   2024 06 25 11:00  02 32 08.19    +02 35 32.0    76881 1.0162  58.2 Am  13? 205.60 109.2   15  98  77  85
   2024 06 25 11:10  02 34 18.96    +02 24 04.8    75767 1.0162  57.8 Nm  13? 209.80 109.5   16  99  78  85
   2024 06 25 11:20  02 36 32.20    +02 12 12.5    74640 1.0162  57.4 Nm  13? 214.30 109.8   17 101  78  85
   2024 06 25 11:30  02 38 48.09    +01 59 53.7    73501 1.0162  57.0 Nm  13? 219.15 110.1   19 102  78  85
   2024 06 25 11:40  02 41 06.85    +01 47 06.7    72348 1.0162  56.6 Nm  13? 224.36 110.4   20 104  79  85
   2024 06 25 11:50  02 43 28.70    +01 33 49.8    71182 1.0162  56.2 Cm  13? 229.97 110.7   21 105  79  85
   2024 06 25 12:00  02 45 53.88    +01 20 01.2    70003 1.0162  55.8 Cm  13? 236.02 111.0   23 107  80  85
   ................
   2024 06 26 05:40  23 03 25.45    +13 38 30.4    93517 1.0166 101.6     13? 140.42  89.3    0  73  31  78
   2024 06 26 05:50  23 05 00.64    +13 38 45.9    94037 1.0166 101.3     13? 136.96  89.4    2  74  31  78
   2024 06 26 06:00  23 06 33.48    +13 38 58.2    94543 1.0166 100.9     13? 133.59  89.5    3  75  31  78
   2024 06 26 06:10  23 08 04.04    +13 39 07.5    95037 1.0166 100.6  m  13? 130.29  89.6    5  76  31  78
   2024 06 26 06:20  23 09 32.37    +13 39 13.6    95518 1.0166 100.3  m  13? 127.07  89.8    7  78  31  78
   2024 06 26 06:30  23 10 58.51    +13 39 16.5    95988 1.0166 100.0  m  13? 123.93  89.9    8  79  32  78
   2024 06 26 06:40  23 12 22.52    +13 39 16.3    96445 1.0166  99.7  m  13? 120.85  90.1   10  80  32  78
   2024 06 26 06:50  23 13 44.45    +13 39 12.9    96891 1.0166  99.4  m  13? 117.85  90.2   12  81  32  78
   2024 06 26 07:00  23 15 04.34    +13 39 06.3    97326 1.0166  99.1  m  13? 114.92  90.4   13  83  32  78
   2024 06 26 07:10  23 16 22.24    +13 38 56.5    97751 1.0166  98.9  m  13? 112.06  90.6   15  84  32  78
   2024 06 26 07:20  23 17 38.20    +13 38 43.4    98166 1.0166  98.6  m  13? 109.27  90.8   17  85  32  78
   2024 06 26 07:30  23 18 52.27    +13 38 27.0    98570 1.0166  98.3  m  13? 106.55  91.0   19  87  32  77
   2024 06 26 07:40  23 20 04.48    +13 38 07.2    98966 1.0166  98.1  m  13? 103.90  91.2   20  88  32  77
   2024 06 26 07:50  23 21 14.89    +13 37 43.9    99352 1.0166  97.8  m  13? 101.31  91.4   22  89  32  77
   2024 06 26 08:00  23 22 23.55    +13 37 17.2    99730 1.0166  97.6  m  13?  98.80  91.6   24  91  32  77
   2024 06 26 08:10  23 23 30.49    +13 36 47.0   100100 1.0166  97.4  m  13?  96.35  91.9   26  92  32  77
   2024 06 26 08:20  23 24 35.76    +13 36 13.2   100462 1.0166  97.1  m  13?  93.97  92.2   27  93  32  77
   2024 06 26 08:30  23 25 39.41    +13 35 35.8   100817 1.0166  96.9  m  13?  91.66  92.4   29  95  32  77
   2024 06 26 08:40  23 26 41.49    +13 34 54.6   101165 1.0166  96.7  m  13?  89.43  92.7   31  96  32  77
   2024 06 26 08:50  23 27 42.04    +13 34 09.7   101505 1.0166  96.5  m  13?  87.26  93.1   33  98  32  77
   2024 06 26 09:00  23 28 41.11    +13 33 21.0   101840 1.0166  96.3  m  13?  85.16  93.4   34 100  33  77
   2024 06 26 09:10  23 29 38.75    +13 32 28.4   102169 1.0166  96.1  m  13?  83.14  93.7   36 101  33  77
   2024 06 26 09:20  23 30 34.99    +13 31 31.8   102492 1.0166  95.9  m  13?  81.19  94.1   38 103  33  77
   2024 06 26 09:30  23 31 29.90    +13 30 31.2   102809 1.0166  95.7  m  13?  79.31  94.5   40 105  33  77
   2024 06 26 09:40  23 32 23.52    +13 29 26.6   103122 1.0166  95.5  m  13?  77.51  94.9   41 107  33  77
   2024 06 26 09:50  23 33 15.90    +13 28 17.9   103430 1.0166  95.4  m  13?  75.79  95.3   43 109  33  77
   2024 06 26 10:00  23 34 07.08    +13 27 05.1   103734 1.0166  95.2  m  13?  74.14  95.8   45 111  33  77
   2024 06 26 10:10  23 34 57.12    +13 25 48.0   104034 1.0166  95.0  m  13?  72.57  96.2   46 113  33  77
   2024 06 26 10:20  23 35 46.06    +13 24 26.7   104330 1.0166  94.9  m  13?  71.07  96.7   48 115  33  77
   2024 06 26 10:30  23 36 33.96    +13 23 01.1   104622 1.0166  94.7 Am  13?  69.66  97.2   50 117  33  77
   2024 06 26 10:40  23 37 20.87    +13 21 31.2   104912 1.0166  94.6 Am  13?  68.32  97.7   51 120  33  77
   2024 06 26 10:50  23 38 06.84    +13 19 57.0   105198 1.0166  94.4 Am  13?  67.07  98.2   53 123  33  77
   2024 06 26 11:00  23 38 51.92    +13 18 18.4   105482 1.0166  94.3 Am  13?  65.89  98.8   54 125  33  76
   2024 06 26 11:10  23 39 36.16    +13 16 35.4   105763 1.0166  94.1 Nm  13?  64.80  99.3   56 129  33  76
   2024 06 26 11:20  23 40 19.61    +13 14 48.0   106043 1.0166  94.0 Nm  13?  63.79  99.9   57 132  33  76
   2024 06 26 11:30  23 41 02.33    +13 12 56.1   106320 1.0166  93.8 Nm  13?  62.85 100.4   58 135  33  76
   2024 06 26 11:40  23 41 44.37    +13 10 59.9   106595 1.0166  93.7 Nm  13?  62.00 100.9   60 139  33  76
   2024 06 26 11:50  23 42 25.78    +13 08 59.2   106869 1.0166  93.6 Cm  13?  61.24 101.5   61 143  33  76
   2024 06 26 12:00  23 43 06.61    +13 06 54.0   107141 1.0166  93.4 Cm  13?  60.55 102.1   62 148  33  76
   ................
   2024 06 27 09:30  02 24 36.96    +03 08 42.3    81876 1.0163  61.5  m  13? 200.74 107.2    0  86  49  67
   2024 06 27 09:40  02 26 45.98    +02 58 40.4    80806 1.0163  61.1  m  13? 204.13 107.5    2  87  49  66
   2024 06 27 09:50  02 28 57.00    +02 48 18.5    79722 1.0163  60.7  m  13? 207.74 107.7    3  89  49  66
   2024 06 27 10:00  02 31 10.17    +02 37 35.6    78624 1.0163  60.2  m  13? 211.60 108.0    4  90  50  66
   2024 06 27 10:10  02 33 25.63    +02 26 30.3    77512 1.0163  59.8  m  13? 215.73 108.3    6  91  50  66
   2024 06 27 10:20  02 35 43.56    +02 15 01.4    76387 1.0163  59.4  m  13? 220.15 108.6    7  93  51  66
   2024 06 27 10:30  02 38 04.13    +02 03 07.4    75247 1.0163  59.0 Am  13? 224.89 108.9    9  94  51  66
   2024 06 27 10:40  02 40 27.54    +01 50 46.9    74094 1.0163  58.5 Am  13? 229.98 109.2   10  95  52  66
   2024 06 27 10:50  02 42 54.00    +01 37 58.2    72926 1.0163  58.1 Am  13? 235.44 109.5   11  97  52  66
   2024 06 27 11:00  02 45 23.74    +01 24 39.5    71745 1.0163  57.6 Am  13? 241.32 109.7   13  98  53  66
   2024 06 27 11:10  02 47 57.03    +01 10 49.0    70549 1.0163  57.2 Nm  13? 247.65 110.0   14  99  53  66
   2024 06 27 11:20  02 50 34.14    +00 56 24.5    69339 1.0163  56.7 Nm  13? 254.47 110.3   15 101  54  66
   2024 06 27 11:30  02 53 15.38    +00 41 23.8    68114 1.0163  56.2 Nm  13? 261.82 110.6   17 102  54  66
   2024 06 27 11:40  02 56 01.09    +00 25 44.4    66875 1.0163  55.8 Nm  13? 269.77 110.9   18 104  55  66
   2024 06 27 11:50  02 58 51.64    +00 09 23.6    65620 1.0163  55.3 Cm  13? 278.38 111.1   19 105  55  66
   2024 06 27 12:00  03 01 47.45    -00 07 41.6    64351 1.0163  54.8 Cm  13? 287.70 111.4   20 107  56  66
   ................
   2024 06 28 05:40  23 11 31.62    +13 31 08.1    97117 1.0167 101.7     13? 131.01  90.0    0  73  19  57
   2024 06 28 05:50  23 13 00.42    +13 31 06.0    97573 1.0167 101.4     13? 127.93  90.1    2  74  19  57
   2024 06 28 06:00  23 14 27.13    +13 31 01.4    98016 1.0167 101.1     13? 124.91  90.2    3  75  19  57
   2024 06 28 06:10  23 15 51.80    +13 30 54.4    98448 1.0167 100.8     13? 121.96  90.4    5  76  19  57
   2024 06 28 06:20  23 17 14.46    +13 30 44.7    98867 1.0167 100.5     13? 119.07  90.5    7  78  18  57
   2024 06 28 06:30  23 18 35.15    +13 30 32.5    99275 1.0167 100.3     13? 116.23  90.6    8  79  18  57
   2024 06 28 06:40  23 19 53.92    +13 30 17.6    99672 1.0167 100.0     13? 113.46  90.8   10  80  18  56
   2024 06 28 06:50  23 21 10.80    +13 30 00.0   100058 1.0167  99.7     13? 110.74  91.0   12  82  18  56
   2024 06 28 07:00  23 22 25.83    +13 29 39.7   100434 1.0167  99.4     13? 108.08  91.1   13  83  18  56
   2024 06 28 07:10  23 23 39.06    +13 29 16.6   100800 1.0167  99.2  m  13? 105.48  91.3   15  84  18  56
   2024 06 28 07:20  23 24 50.51    +13 28 50.6   101157 1.0167  98.9  m  13? 102.94  91.5   17  86  17  56
   2024 06 28 07:30  23 26 00.23    +13 28 21.7   101505 1.0167  98.7  m  13? 100.45  91.7   19  87  17  56
   2024 06 28 07:40  23 27 08.25    +13 27 49.7   101843 1.0167  98.5  m  13?  98.02  91.9   20  88  17  56
   2024 06 28 07:50  23 28 14.63    +13 27 14.7   102174 1.0167  98.2  m  13?  95.66  92.2   22  90  17  56
   2024 06 28 08:00  23 29 19.39    +13 26 36.6   102496 1.0167  98.0  m  13?  93.35  92.4   24  91  17  56
   2024 06 28 08:10  23 30 22.57    +13 25 55.2   102811 1.0167  97.8  m  13?  91.10  92.7   26  92  17  56
   2024 06 28 08:20  23 31 24.22    +13 25 10.6   103119 1.0167  97.6  m  13?  88.92  93.0   27  94  17  56
   2024 06 28 08:30  23 32 24.38    +13 24 22.6   103420 1.0167  97.4  m  13?  86.79  93.3   29  95  16  56
   2024 06 28 08:40  23 33 23.09    +13 23 31.2   103714 1.0167  97.2  m  13?  84.73  93.6   31  97  16  56
   2024 06 28 08:50  23 34 20.38    +13 22 36.2   104002 1.0167  97.0  m  13?  82.74  93.9   33  98  16  56
   2024 06 28 09:00  23 35 16.31    +13 21 37.7   104284 1.0167  96.8  m  13?  80.81  94.3   35 100  16  55
   2024 06 28 09:10  23 36 10.90    +13 20 35.5   104561 1.0167  96.6  m  13?  78.94  94.6   36 102  16  55
   2024 06 28 09:20  23 37 04.22    +13 19 29.6   104833 1.0167  96.4  m  13?  77.15  95.0   38 103  16  55
   2024 06 28 09:30  23 37 56.30    +13 18 20.0   105099 1.0167  96.2  m  13?  75.42  95.4   40 105  16  55
   2024 06 28 09:40  23 38 47.18    +13 17 06.5   105362 1.0167  96.1  m  13?  73.76  95.8   42 107  16  55
   2024 06 28 09:50  23 39 36.91    +13 15 49.0   105620 1.0167  95.9  m  13?  72.17  96.3   43 109  15  55
   2024 06 28 10:00  23 40 25.54    +13 14 27.6   105874 1.0167  95.7  m  13?  70.66  96.8   45 111  15  55
   2024 06 28 10:10  23 41 13.11    +13 13 02.2   106125 1.0167  95.6  m  13?  69.21  97.2   47 113  15  55
   2024 06 28 10:20  23 41 59.67    +13 11 32.8   106373 1.0167  95.4  m  13?  67.85  97.7   48 116  15  55
   2024 06 28 10:30  23 42 45.27    +13 09 59.2   106617 1.0167  95.3 Am  13?  66.55  98.2   50 118  15  55
   2024 06 28 10:40  23 43 29.95    +13 08 21.4   106859 1.0167  95.1 Am  13?  65.33  98.8   51 121  15  55
   2024 06 28 10:50  23 44 13.77    +13 06 39.4   107098 1.0167  95.0 Am  13?  64.19  99.3   53 123  15  55
   2024 06 28 11:00  23 44 56.77    +13 04 53.2   107334 1.0167  94.9 Am  13?  63.13  99.8   54 126  15  55
   2024 06 28 11:10  23 45 39.00    +13 03 02.8   107569 1.0167  94.7 Nm  13?  62.14 100.4   56 129  15  55
   2024 06 28 11:20  23 46 20.51    +13 01 08.1   107802 1.0167  94.6 Nm  13?  61.23 100.9   57 133  14  55
   2024 06 28 11:30  23 47 01.35    +12 59 09.0   108033 1.0167  94.5 Nm  13?  60.40 101.5   58 136  14  55
   2024 06 28 11:40  23 47 41.58    +12 57 05.7   108263 1.0167  94.3 Nm  13?  59.65 102.1   60 140  14  54
   2024 06 28 11:50  23 48 21.23    +12 54 58.0   108491 1.0167  94.2 Cm  13?  58.98 102.6   61 144  14  54
   2024 06 28 12:00  23 49 00.37    +12 52 46.0   108719 1.0166  94.1 Cm  13?  58.38 103.2   62 149  14  54
   ................
   2024 06 29 09:40  02 39 10.05    +01 54 51.5    75946 1.0164  60.6  m  13? 234.75 108.1    0  87  26  44
   2024 06 29 09:50  02 41 40.51    +01 42 30.9    74785 1.0164  60.1  m  13? 240.09 108.3    1  89  26  44
   2024 06 29 10:00  02 44 14.22    +01 29 42.3    73610 1.0164  59.6  m  13? 245.81 108.6    3  90  27  43
   2024 06 29 10:10  02 46 51.41    +01 16 23.9    72420 1.0164  59.2  m  13? 251.96 108.9    4  91  28  43
   2024 06 29 10:20  02 49 32.36    +01 02 33.8    71214 1.0164  58.7  m  13? 258.56 109.1    5  93  28  43
   2024 06 29 10:30  02 52 17.36    +00 48 09.9    69993 1.0164  58.2 Am  13? 265.67 109.4    7  94  29  43
   2024 06 29 10:40  02 55 06.71    +00 33 09.9    68756 1.0164  57.7 Am  13? 273.34 109.7    8  95  30  43
   2024 06 29 10:50  02 58 00.77    +00 17 31.3    67504 1.0164  57.1 Am  13? 281.61 109.9    9  97  30  43
   2024 06 29 11:00  03 00 59.94    +00 01 11.5    66236 1.0164  56.6 Am  13? 290.56 110.2   10  98  31  43
   2024 06 29 11:10  03 04 04.63    -00 15 52.7    64953 1.0164  56.1 Nm  13? 300.25 110.5   12  99  32  43
   2024 06 29 11:20  03 07 15.32    -00 33 44.4    63653 1.0164  55.5 Nm  13? 310.77 110.7   13 101  33  43
   2024 06 29 11:30  03 10 32.55    -00 52 27.3    62336 1.0164  55.0 Nm  13? 322.19 111.0   14 102  33  43
   2024 06 29 11:40  03 13 56.89    -01 12 05.4    61004 1.0164  54.4 Nm  13? 334.63 111.2   15 103  34  43
   2024 06 29 11:50  03 17 29.02    -01 32 43.1    59654 1.0164  53.8 Cm  13? 348.21 111.4   16 105  35  43
   2024 06 29 12:00  03 21 09.66    -01 54 25.3    58288 1.0164  53.2 Cm  13? 363.05 111.6   17 106  36  43
   ................
   2024 06 30 05:40  23 19 00.23    +13 21 53.3   100325 1.0168 102.0     13? 123.47  90.7    0  73  33  34
   2024 06 30 05:50  23 20 23.87    +13 21 37.3   100721 1.0168 101.7     13? 120.69  90.8    2  74  33  34
   2024 06 30 06:00  23 21 45.62    +13 21 19.3   101106 1.0168 101.4     13? 117.95  90.9    3  75  33  34
   2024 06 30 06:10  23 23 05.51    +13 20 59.1   101478 1.0168 101.2     13? 115.27  91.0    5  77  33  34
   2024 06 30 06:20  23 24 23.58    +13 20 36.9   101840 1.0168 100.9     13? 112.63  91.2    7  78  32  34
   2024 06 30 06:30  23 25 39.85    +13 20 12.4   102191 1.0168 100.6     13? 110.04  91.3    8  79  32  34
   2024 06 30 06:40  23 26 54.36    +13 19 45.6   102531 1.0168 100.4     13? 107.50  91.5   10  81  32  34
   2024 06 30 06:50  23 28 07.14    +13 19 16.5   102861 1.0168 100.1     13? 105.01  91.6   12  82  32  34
   2024 06 30 07:00  23 29 18.22    +13 18 44.9   103182 1.0168  99.9     13? 102.57  91.8   14  83  32  34
   2024 06 30 07:10  23 30 27.63    +13 18 10.9   103493 1.0168  99.6     13? 100.18  92.0   15  85  31  34
   2024 06 30 07:20  23 31 35.42    +13 17 34.2   103795 1.0168  99.4     13?  97.84  92.2   17  86  31  34
   2024 06 30 07:30  23 32 41.60    +13 16 54.9   104089 1.0168  99.2     13?  95.54  92.4   19  87  31  33
   2024 06 30 07:40  23 33 46.23    +13 16 12.9   104374 1.0168  98.9     13?  93.30  92.6   21  89  31  33
   2024 06 30 07:50  23 34 49.32    +13 15 28.0   104652 1.0168  98.7     13?  91.11  92.9   22  90  31  33
   2024 06 30 08:00  23 35 50.91    +13 14 40.3   104922 1.0168  98.5  m  13?  88.98  93.1   24  91  31  33
   2024 06 30 08:10  23 36 51.04    +13 13 49.5   105185 1.0168  98.3  m  13?  86.89  93.4   26  93  30  33
   2024 06 30 08:20  23 37 49.75    +13 12 55.7   105441 1.0168  98.1  m  13?  84.87  93.7   28  94  30  33
   2024 06 30 08:30  23 38 47.07    +13 11 58.7   105691 1.0168  97.9  m  13?  82.90  94.0   29  96  30  33
   2024 06 30 08:40  23 39 43.04    +13 10 58.5   105935 1.0168  97.7  m  13?  80.98  94.3   31  97  30  33
   2024 06 30 08:50  23 40 37.70    +13 09 54.9   106173 1.0168  97.5  m  13?  79.13  94.7   33  99  30  33
   2024 06 30 09:00  23 41 31.08    +13 08 48.0   106406 1.0168  97.4  m  13?  77.34  95.1   35 101  30  33
   2024 06 30 09:10  23 42 23.22    +13 07 37.6   106633 1.0168  97.2  m  13?  75.61  95.5   36 102  30  33
   2024 06 30 09:20  23 43 14.17    +13 06 23.6   106856 1.0168  97.0  m  13?  73.94  95.8   38 104  29  33
   2024 06 30 09:30  23 44 03.96    +13 05 06.0   107075 1.0168  96.8  m  13?  72.34  96.3   40 106  29  33
   2024 06 30 09:40  23 44 52.64    +13 03 44.7   107289 1.0168  96.7  m  13?  70.80  96.7   42 108  29  32
   2024 06 30 09:50  23 45 40.25    +13 02 19.6   107500 1.0168  96.5  m  13?  69.33  97.2   43 110  29  32
   2024 06 30 10:00  23 46 26.83    +13 00 50.7   107707 1.0168  96.4  m  13?  67.93  97.7   45 112  29  32
   2024 06 30 10:10  23 47 12.43    +12 59 17.9   107911 1.0168  96.2  m  13?  66.60  98.2   47 114  29  32
   2024 06 30 10:20  23 47 57.09    +12 57 41.2   108112 1.0167  96.1  m  13?  65.34  98.7   48 116  29  32
   2024 06 30 10:30  23 48 40.85    +12 56 00.5   108310 1.0167  95.9 Am  13?  64.15  99.2   50 119  29  32
   2024 06 30 10:40  23 49 23.77    +12 54 15.7   108506 1.0167  95.8 Am  13?  63.03  99.7   52 121  28  32
   2024 06 30 10:50  23 50 05.88    +12 52 26.8   108700 1.0167  95.7 Am  13?  61.99 100.2   53 124  28  32
   2024 06 30 11:00  23 50 47.24    +12 50 33.8   108892 1.0167  95.5 Am  13?  61.02 100.8   55 127  28  32
   2024 06 30 11:10  23 51 27.89    +12 48 36.7   109081 1.0167  95.4 Nm  13?  60.12 101.4   56 130  28  32
   2024 06 30 11:20  23 52 07.89    +12 46 35.3   109270 1.0167  95.3 Nm  13?  59.31 101.9   57 134  28  32
   2024 06 30 11:30  23 52 47.27    +12 44 29.8   109457 1.0167  95.2 Nm  13?  58.56 102.5   59 137  28  32
   2024 06 30 11:40  23 53 26.09    +12 42 20.0   109643 1.0167  95.0 Nm  13?  57.90 103.1   60 141  28  32
   2024 06 30 11:50  23 54 04.39    +12 40 06.0   109827 1.0167  94.9 Cm  13?  57.31 103.7   61 146  28  32
   2024 06 30 12:00  23 54 42.23    +12 37 47.8   110011 1.0167  94.8 Cm  13?  56.79 104.2   62 150  28  32
   ................
   

Gaia (JPL-ID: -139479)

   Date (UTC) HH:MM   RA              Dec         delta   r     elong SM  mag  '/hr    PA   alt  az moo ill
   ---- -- -- -----  -------------   -----------  ------ ------ ----- --  --- ------ ------ --- --- --- ---
   2024 06 19 03:10  17 20 36.42    -26 46 30.8   0.0096 1.0256 172.2 Cm  20?   2.64 137.1    5 129  28  90
   2024 06 19 03:20  17 20 37.72    -26 46 50.0   0.0096 1.0256 172.2 Cm  20?   2.54 138.5    6 131  28  90
   2024 06 19 03:30  17 20 38.93    -26 47 08.9   0.0096 1.0256 172.2 Cm  20?   2.44 139.9    8 133  27  91
   2024 06 19 03:40  17 20 40.05    -26 47 27.5   0.0096 1.0256 172.2 Nm  20?   2.34 141.4    9 135  27  91
   2024 06 19 03:50  17 20 41.10    -26 47 45.6   0.0096 1.0256 172.2 Nm  20?   2.25 142.9   10 136  27  91
   2024 06 19 04:00  17 20 42.07    -26 48 03.4   0.0096 1.0256 172.2 Nm  20?   2.15 144.3   12 138  27  91
   2024 06 19 04:10  17 20 42.97    -26 48 20.7   0.0096 1.0256 172.2 Nm  20?   2.06 145.9   13 140  27  91
   2024 06 19 04:20  17 20 43.79    -26 48 37.5   0.0096 1.0256 172.2 Am  20?   1.97 147.4   14 142  27  91
   2024 06 19 04:30  17 20 44.55    -26 48 53.9   0.0096 1.0256 172.2 Am  20?   1.88 148.9   15 144  27  91
   2024 06 19 04:40  17 20 45.24    -26 49 09.8   0.0096 1.0256 172.2 Am  20?   1.80 150.3   16 146  27  91
   2024 06 19 04:50  17 20 45.87    -26 49 25.2   0.0096 1.0256 172.2 Am  20?   1.71 151.8   18 148  27  91
   2024 06 19 05:00  17 20 46.44    -26 49 40.1   0.0096 1.0256 172.2  m  20?   1.63 153.2   19 150  27  91
   2024 06 19 05:10  17 20 46.96    -26 49 54.5   0.0096 1.0256 172.2  m  20?   1.55 154.6   19 152  27  91
   2024 06 19 05:20  17 20 47.43    -26 50 08.3   0.0096 1.0256 172.2  m  20?   1.48 156.0   20 154  27  91
   2024 06 19 05:30  17 20 47.86    -26 50 21.5   0.0096 1.0256 172.2  m  20?   1.40 157.2   21 157  27  91
   2024 06 19 05:40  17 20 48.24    -26 50 34.1   0.0096 1.0256 172.2  m  20?   1.33 158.3   22 159  27  91
   2024 06 19 05:50  17 20 48.58    -26 50 46.2   0.0096 1.0256 172.2  m  20?   1.26 159.4   23 161  27  91
   2024 06 19 06:00  17 20 48.90    -26 50 57.7   0.0096 1.0256 172.2  m  20?   1.19 160.2   23 164  27  91
   2024 06 19 06:10  17 20 49.18    -26 51 08.6   0.0096 1.0256 172.1  m  20?   1.12 160.9   24 166  27  91
   2024 06 19 06:20  17 20 49.44    -26 51 18.8   0.0096 1.0256 172.1  m  20?   1.05 161.4   24 168  27  91
   2024 06 19 06:30  17 20 49.68    -26 51 28.5   0.0096 1.0256 172.1  m  20?   0.98 161.6   24 171  26  91
   2024 06 19 06:40  17 20 49.90    -26 51 37.5   0.0096 1.0256 172.1  m  20?   0.92 161.4   25 173  26  91
   2024 06 19 06:50  17 20 50.11    -26 51 45.9   0.0096 1.0256 172.1  m  20?   0.86 160.8   25 176  26  91
   2024 06 19 07:00  17 20 50.32    -26 51 53.7   0.0096 1.0256 172.1  m  20?   0.79 159.8   25 178  26  91
   2024 06 19 07:10  17 20 50.52    -26 52 00.9   0.0096 1.0256 172.1  t  20?   0.74 158.1   25 181  26  91
   2024 06 19 07:20  17 20 50.73    -26 52 07.4   0.0096 1.0256 172.1  m  20?   0.68 155.6   25 183  26  91
   2024 06 19 07:30  17 20 50.94    -26 52 13.3   0.0096 1.0256 172.1  m  20?   0.63 152.3   25 186  26  91
   2024 06 19 07:40  17 20 51.16    -26 52 18.6   0.0096 1.0256 172.1  m  20?   0.59 147.8   24 188  26  91
   2024 06 19 07:50  17 20 51.40    -26 52 23.2   0.0096 1.0256 172.1  m  20?   0.55 142.3   24 191  26  91
   2024 06 19 08:00  17 20 51.66    -26 52 27.3   0.0096 1.0256 172.1  m  20?   0.52 135.5   24 193  26  91
   2024 06 19 08:10  17 20 51.95    -26 52 30.7   0.0096 1.0256 172.1  m  20?   0.51 127.8   23 195  26  91
   2024 06 19 08:20  17 20 52.26    -26 52 33.5   0.0096 1.0256 172.1  m  20?   0.51 119.5   23 198  26  91
   2024 06 19 08:30  17 20 52.61    -26 52 35.8   0.0096 1.0256 172.1  m  20?   0.53 111.4   22 200  26  91
   2024 06 19 08:40  17 20 53.00    -26 52 37.4   0.0096 1.0256 172.1  m  20?   0.56 103.8   21 202  26  91
   2024 06 19 08:50  17 20 53.43    -26 52 38.5   0.0096 1.0256 172.1  m  20?   0.61  97.3   20 204  26  91
   2024 06 19 09:00  17 20 53.90    -26 52 39.0   0.0096 1.0256 172.1  m  20?   0.67  91.9   19 207  26  91
   2024 06 19 09:10  17 20 54.42    -26 52 39.0   0.0096 1.0256 172.1  m  20?   0.74  87.5   19 209  25  91
   2024 06 19 09:20  17 20 55.00    -26 52 38.4   0.0096 1.0256 172.0  m  20?   0.82  84.0   18 211  25  91
   2024 06 19 09:30  17 20 55.64    -26 52 37.3   0.0096 1.0256 172.0  m  20?   0.90  81.3   16 213  25  91
   2024 06 19 09:40  17 20 56.34    -26 52 35.7   0.0096 1.0256 172.0  m  20?   0.99  79.2   15 215  25  91
   2024 06 19 09:50  17 20 57.10    -26 52 33.6   0.0096 1.0256 172.0  m  20?   1.09  77.6   14 217  25  92
   2024 06 19 10:00  17 20 57.93    -26 52 31.1   0.0096 1.0256 172.0  m  20?   1.19  76.3   13 219  25  92
   2024 06 19 10:10  17 20 58.83    -26 52 28.1   0.0096 1.0256 172.0     20?   1.30  75.5   12 221  25  92
   2024 06 19 10:20  17 20 59.81    -26 52 24.6   0.0096 1.0256 172.0 A   20?   1.41  74.8   10 223  25  92
   2024 06 19 10:30  17 21 00.87    -26 52 20.8   0.0096 1.0256 172.0 A   20?   1.52  74.4    9 224  25  92
   2024 06 19 10:40  17 21 02.00    -26 52 16.5   0.0096 1.0256 172.0 A   20?   1.64  74.2    8 226  25  92
   2024 06 19 10:50  17 21 03.22    -26 52 11.9   0.0096 1.0256 172.0 A   20?   1.76  74.1    6 228  25  92
   2024 06 19 11:00  17 21 04.53    -26 52 07.0   0.0096 1.0256 172.0 A   20?   1.88  74.1    5 229  25  92
   2024 06 19 11:10  17 21 05.93    -26 52 01.7   0.0096 1.0256 172.0 N   20?   2.00  74.1    3 231  25  92
   2024 06 19 11:20  17 21 07.41    -26 51 56.2   0.0096 1.0256 172.0 N   20?   2.13  74.3    1 233  25  92
   2024 06 19 11:30  17 21 08.99    -26 51 50.3   0.0096 1.0256 172.0 N   20?   2.26  74.5    0 234  24  92
   ................
   2024 06 20 03:10  17 26 47.91    -27 03 24.8   0.0096 1.0257 172.5 Cm  20?   2.67 135.7    4 129  16  95
   2024 06 20 03:20  17 26 49.26    -27 03 43.8   0.0096 1.0257 172.5 Cm  20?   2.57 137.0    6 131  16  95
   2024 06 20 03:30  17 26 50.52    -27 04 02.5   0.0096 1.0257 172.5 Cm  20?   2.46 138.4    7 133  16  95
   2024 06 20 03:40  17 26 51.70    -27 04 20.8   0.0096 1.0257 172.5 Nm  20?   2.36 139.8    8 134  16  95
   2024 06 20 03:50  17 26 52.80    -27 04 38.7   0.0096 1.0257 172.5 Nm  20?   2.26 141.2   10 136  16  95
   2024 06 20 04:00  17 26 53.82    -27 04 56.2   0.0096 1.0257 172.5 Nm  20?   2.17 142.7   11 138  16  95
   2024 06 20 04:10  17 26 54.76    -27 05 13.2   0.0096 1.0257 172.5 Nm  20?   2.07 144.1   12 140  16  96
   2024 06 20 04:20  17 26 55.63    -27 05 29.9   0.0096 1.0257 172.5 Am  20?   1.98 145.5   14 142  16  96
   2024 06 20 04:30  17 26 56.43    -27 05 46.0   0.0096 1.0257 172.5 Am  20?   1.89 147.0   15 144  16  96
   2024 06 20 04:40  17 26 57.17    -27 06 01.6   0.0096 1.0257 172.5 Am  20?   1.80 148.4   16 146  16  96
   2024 06 20 04:50  17 26 57.84    -27 06 16.8   0.0096 1.0257 172.5 Am  20?   1.72 149.8   17 148  16  96
   2024 06 20 05:00  17 26 58.46    -27 06 31.4   0.0096 1.0257 172.5  m  20?   1.64 151.2   18 150  15  96
   2024 06 20 05:10  17 26 59.02    -27 06 45.5   0.0096 1.0257 172.5  m  20?   1.55 152.5   19 152  15  96
   2024 06 20 05:20  17 26 59.53    -27 06 59.0   0.0096 1.0257 172.5  m  20?   1.48 153.7   20 154  15  96
   2024 06 20 05:30  17 26 59.99    -27 07 12.0   0.0096 1.0257 172.5  m  20?   1.40 154.9   21 156  15  96
   2024 06 20 05:40  17 27 00.41    -27 07 24.4   0.0096 1.0257 172.5  m  20?   1.32 156.0   21 159  15  96
   2024 06 20 05:50  17 27 00.79    -27 07 36.2   0.0096 1.0257 172.5  m  20?   1.25 156.9   22 161  15  96
   2024 06 20 06:00  17 27 01.14    -27 07 47.4   0.0096 1.0257 172.4  m  20?   1.18 157.7   23 163  15  96
   2024 06 20 06:10  17 27 01.45    -27 07 58.0   0.0096 1.0257 172.4  m  20?   1.11 158.3   23 166  15  96
   2024 06 20 06:20  17 27 01.75    -27 08 07.9   0.0096 1.0257 172.4  m  20?   1.04 158.6   24 168  15  96
   2024 06 20 06:30  17 27 02.02    -27 08 17.3   0.0096 1.0257 172.4  m  20?   0.97 158.7   24 170  15  96
   2024 06 20 06:40  17 27 02.27    -27 08 26.0   0.0096 1.0257 172.4  m  20?   0.90 158.4   24 173  15  96
   2024 06 20 06:50  17 27 02.51    -27 08 34.1   0.0096 1.0257 172.4  m  20?   0.84 157.7   24 175  15  96
   2024 06 20 07:00  17 27 02.75    -27 08 41.6   0.0096 1.0257 172.4  m  20?   0.78 156.4   25 178  15  96
   2024 06 20 07:10  17 27 02.98    -27 08 48.4   0.0096 1.0257 172.4  t  20?   0.72 154.5   25 180  15  96
   2024 06 20 07:20  17 27 03.21    -27 08 54.6   0.0096 1.0257 172.4  m  20?   0.67 151.8   25 183  15  96
   2024 06 20 07:30  17 27 03.45    -27 09 00.2   0.0096 1.0257 172.4  m  20?   0.62 148.1   24 185  15  96
   2024 06 20 07:40  17 27 03.69    -27 09 05.1   0.0096 1.0257 172.4  m  20?   0.57 143.4   24 187  15  96
   2024 06 20 07:50  17 27 03.96    -27 09 09.4   0.0096 1.0257 172.4  m  20?   0.54 137.4   24 190  15  96
   2024 06 20 08:00  17 27 04.24    -27 09 13.1   0.0096 1.0257 172.4  m  20?   0.52 130.4   23 192  14  96
   2024 06 20 08:10  17 27 04.55    -27 09 16.2   0.0096 1.0257 172.4  m  20?   0.51 122.6   23 195  14  96
   2024 06 20 08:20  17 27 04.88    -27 09 18.6   0.0096 1.0257 172.4  m  20?   0.52 114.4   22 197  14  96
   2024 06 20 08:30  17 27 05.25    -27 09 20.5   0.0096 1.0257 172.4  m  20?   0.54 106.5   22 199  14  96
   2024 06 20 08:40  17 27 05.66    -27 09 21.7   0.0096 1.0257 172.4  m  20?   0.58  99.5   21 202  14  96
   2024 06 20 08:50  17 27 06.10    -27 09 22.4   0.0096 1.0257 172.4  m  20?   0.63  93.4   20 204  14  96
   2024 06 20 09:00  17 27 06.60    -27 09 22.5   0.0096 1.0257 172.3  m  20?   0.69  88.3   19 206  14  96
   2024 06 20 09:10  17 27 07.14    -27 09 22.0   0.0096 1.0257 172.3  m  20?   0.76  84.3   18 208  14  96
   2024 06 20 09:20  17 27 07.73    -27 09 21.0   0.0096 1.0257 172.3  m  20?   0.84  81.2   18 210  14  96
   2024 06 20 09:30  17 27 08.38    -27 09 19.5   0.0096 1.0257 172.3  m  20?   0.93  78.7   16 212  14  96
   2024 06 20 09:40  17 27 09.09    -27 09 17.5   0.0096 1.0257 172.3  m  20?   1.02  76.8   15 214  14  96
   2024 06 20 09:50  17 27 09.87    -27 09 14.9   0.0096 1.0257 172.3  m  20?   1.12  75.4   14 216  14  96
   2024 06 20 10:00  17 27 10.72    -27 09 11.9   0.0096 1.0257 172.3  m  20?   1.22  74.4   13 218  14  96
   2024 06 20 10:10  17 27 11.63    -27 09 08.4   0.0096 1.0257 172.3  m  20?   1.32  73.6   12 220  14  96
   2024 06 20 10:20  17 27 12.62    -27 09 04.5   0.0096 1.0257 172.3 Am  20?   1.43  73.1   10 222  14  96
   2024 06 20 10:30  17 27 13.69    -27 09 00.2   0.0096 1.0257 172.3 Am  20?   1.55  72.8    9 224  13  96
   2024 06 20 10:40  17 27 14.84    -27 08 55.4   0.0096 1.0257 172.3 Am  20?   1.66  72.6    8 226  13  96
   2024 06 20 10:50  17 27 16.07    -27 08 50.3   0.0096 1.0257 172.3 A   20?   1.78  72.6    6 227  13  96
   2024 06 20 11:00  17 27 17.39    -27 08 44.9   0.0096 1.0257 172.3 A   20?   1.90  72.6    5 229  13  96
   2024 06 20 11:10  17 27 18.79    -27 08 39.1   0.0096 1.0257 172.3 N   20?   2.03  72.8    3 231  13  96
   2024 06 20 11:20  17 27 20.29    -27 08 33.0   0.0096 1.0257 172.3 N   20?   2.15  73.0    2 232  13  96
   2024 06 20 11:30  17 27 21.88    -27 08 26.6   0.0096 1.0257 172.3 N   20?   2.28  73.2    0 234  13  96
   ................
   2024 06 21 03:10  17 33 04.44    -27 19 10.8   0.0096 1.0257 172.8 Cm  20?   2.69 134.3    3 129   5  98
   2024 06 21 03:20  17 33 05.84    -27 19 29.5   0.0096 1.0257 172.8 Cm  20?   2.59 135.6    5 131   5  98
   2024 06 21 03:30  17 33 07.15    -27 19 47.9   0.0096 1.0257 172.8 Cm  20?   2.48 136.9    6 132   5  98
   2024 06 21 03:40  17 33 08.37    -27 20 05.9   0.0096 1.0257 172.8 Nm  20?   2.38 138.3    8 134   5  98
   2024 06 21 03:50  17 33 09.51    -27 20 23.5   0.0096 1.0257 172.8 Nm  20?   2.28 139.7    9 136   5  98
   2024 06 21 04:00  17 33 10.58    -27 20 40.7   0.0096 1.0257 172.8 Nm  20?   2.18 141.0   11 138   5  98
   2024 06 21 04:10  17 33 11.56    -27 20 57.5   0.0096 1.0257 172.8 Nm  20?   2.08 142.4   12 139   5  98
   2024 06 21 04:20  17 33 12.48    -27 21 13.8   0.0096 1.0257 172.8 Am  20?   1.99 143.8   13 141   4  98
   2024 06 21 04:30  17 33 13.32    -27 21 29.7   0.0096 1.0257 172.8 Am  20?   1.90 145.2   14 143   4  98
   2024 06 21 04:40  17 33 14.10    -27 21 45.1   0.0096 1.0257 172.8 Am  20?   1.81 146.5   15 145   4  98
   2024 06 21 04:50  17 33 14.81    -27 21 59.9   0.0096 1.0257 172.8 Am  20?   1.72 147.9   17 147   4  99
   2024 06 21 05:00  17 33 15.46    -27 22 14.3   0.0096 1.0257 172.8  m  20?   1.63 149.2   18 149   4  99
   2024 06 21 05:10  17 33 16.06    -27 22 28.1   0.0096 1.0257 172.8  m  20?   1.55 150.4   19 151   4  99
   2024 06 21 05:20  17 33 16.61    -27 22 41.3   0.0096 1.0257 172.8  m  20?   1.47 151.6   19 154   4  99
   2024 06 21 05:30  17 33 17.10    -27 22 54.0   0.0096 1.0257 172.7  m  20?   1.39 152.7   20 156   4  99
   2024 06 21 05:40  17 33 17.56    -27 23 06.1   0.0096 1.0257 172.7  m  20?   1.31 153.7   21 158   4  99
   2024 06 21 05:50  17 33 17.97    -27 23 17.6   0.0096 1.0257 172.7  m  20?   1.24 154.6   22 160   4  99
   2024 06 21 06:00  17 33 18.35    -27 23 28.5   0.0096 1.0257 172.7  m  20?   1.16 155.3   22 163   4  99
   2024 06 21 06:10  17 33 18.70    -27 23 38.8   0.0096 1.0257 172.7  m  20?   1.09 155.8   23 165   4  99
   2024 06 21 06:20  17 33 19.02    -27 23 48.4   0.0096 1.0257 172.7  m  20?   1.02 156.0   23 167   4  99
   2024 06 21 06:30  17 33 19.32    -27 23 57.5   0.0096 1.0257 172.7  m  20?   0.95 156.0   24 170   4  99
   2024 06 21 06:40  17 33 19.60    -27 24 05.9   0.0096 1.0257 172.7  m  20?   0.89 155.6   24 172   4  99
   2024 06 21 06:50  17 33 19.87    -27 24 13.6   0.0096 1.0257 172.7  m  20?   0.82 154.7   24 175   4  99
   2024 06 21 07:00  17 33 20.13    -27 24 20.8   0.0096 1.0257 172.7  m  20?   0.76 153.2   24 177   4  99
   2024 06 21 07:10  17 33 20.38    -27 24 27.3   0.0096 1.0257 172.7  t  20?   0.70 151.1   24 180   4  99
   2024 06 21 07:20  17 33 20.64    -27 24 33.1   0.0096 1.0257 172.7  m  20?   0.65 148.1   24 182   4  99
   2024 06 21 07:30  17 33 20.90    -27 24 38.3   0.0096 1.0257 172.7  m  20?   0.60 144.1   24 184   4  99
   2024 06 21 07:40  17 33 21.16    -27 24 42.9   0.0096 1.0257 172.7  m  20?   0.56 139.0   24 187   3  99
   2024 06 21 07:50  17 33 21.45    -27 24 46.8   0.0096 1.0257 172.7  m  20?   0.53 132.8   24 189   3  99
   2024 06 21 08:00  17 33 21.75    -27 24 50.2   0.0096 1.0257 172.7  m  20?   0.51 125.5   23 192   3  99
   2024 06 21 08:10  17 33 22.07    -27 24 52.8   0.0096 1.0257 172.7  m  20?   0.51 117.6   23 194   3  99
   2024 06 21 08:20  17 33 22.43    -27 24 54.9   0.0096 1.0257 172.7  m  20?   0.52 109.5   22 196   3  99
   2024 06 21 08:30  17 33 22.81    -27 24 56.3   0.0096 1.0257 172.6  m  20?   0.55 101.9   22 199   3  99
   2024 06 21 08:40  17 33 23.23    -27 24 57.2   0.0096 1.0257 172.6  m  20?   0.59  95.2   21 201   3  99
   2024 06 21 08:50  17 33 23.69    -27 24 57.5   0.0096 1.0257 172.6  m  20?   0.64  89.5   20 203   3  99
   2024 06 21 09:00  17 33 24.19    -27 24 57.1   0.0096 1.0257 172.6  m  20?   0.71  84.9   19 205   3  99
   2024 06 21 09:10  17 33 24.75    -27 24 56.2   0.0096 1.0257 172.6  m  20?   0.78  81.2   18 208   3  99
   2024 06 21 09:20  17 33 25.35    -27 24 54.8   0.0096 1.0257 172.6  m  20?   0.86  78.4   18 210   3  99
   2024 06 21 09:30  17 33 26.02    -27 24 52.8   0.0096 1.0258 172.6  m  20?   0.95  76.2   16 212   3  99
   2024 06 21 09:40  17 33 26.74    -27 24 50.3   0.0096 1.0258 172.6  m  20?   1.04  74.5   15 214   3  99
   2024 06 21 09:50  17 33 27.52    -27 24 47.3   0.0096 1.0258 172.6  m  20?   1.14  73.2   14 216   3  99
   2024 06 21 10:00  17 33 28.38    -27 24 43.8   0.0096 1.0258 172.6  m  20?   1.24  72.3   13 218   3  99
   2024 06 21 10:10  17 33 29.30    -27 24 39.9   0.0096 1.0258 172.6  m  20?   1.35  71.7   12 220   3  99
   2024 06 21 10:20  17 33 30.30    -27 24 35.4   0.0096 1.0258 172.6 Am  20?   1.46  71.3   11 221   2  99
   2024 06 21 10:30  17 33 31.38    -27 24 30.6   0.0096 1.0258 172.6 Am  20?   1.57  71.1    9 223   2  99
   2024 06 21 10:40  17 33 32.53    -27 24 25.3   0.0096 1.0258 172.6 Am  20?   1.68  71.0    8 225   2  99
   2024 06 21 10:50  17 33 33.77    -27 24 19.7   0.0096 1.0258 172.6 Am  20?   1.80  71.0    6 227   2  99
   2024 06 21 11:00  17 33 35.09    -27 24 13.7   0.0096 1.0258 172.6 Am  20?   1.92  71.1    5 228   2  99
   2024 06 21 11:10  17 33 36.50    -27 24 07.4   0.0096 1.0258 172.6 Nm  20?   2.05  71.3    3 230   2  99
   2024 06 21 11:20  17 33 38.01    -27 24 00.7   0.0096 1.0258 172.6 Nm  20?   2.17  71.6    2 232   2  99
   2024 06 21 11:30  17 33 39.60    -27 23 53.8   0.0096 1.0258 172.6 Nm  20?   2.30  71.9    0 233   2  99
   ................
   2024 06 22 03:10  17 39 25.35    -27 33 45.1   0.0096 1.0258 173.1 C   20?   2.71 133.0    3 129   7  99
   2024 06 22 03:20  17 39 26.80    -27 34 03.5   0.0096 1.0258 173.1 Cm  20?   2.60 134.3    4 130   7  99
   2024 06 22 03:30  17 39 28.15    -27 34 21.5   0.0096 1.0258 173.1 Cm  20?   2.50 135.5    6 132   7  99
   2024 06 22 03:40  17 39 29.42    -27 34 39.3   0.0096 1.0258 173.1 Nm  20?   2.39 136.9    7 134   8  99
   2024 06 22 03:50  17 39 30.60    -27 34 56.6   0.0096 1.0258 173.1 Nm  20?   2.29 138.2    9 136   8  99
   2024 06 22 04:00  17 39 31.71    -27 35 13.5   0.0096 1.0258 173.1 Nm  20?   2.19 139.5   10 137   8  99
   2024 06 22 04:10  17 39 32.73    -27 35 30.0   0.0096 1.0258 173.1 Nm  20?   2.09 140.8   11 139   8  99
   2024 06 22 04:20  17 39 33.69    -27 35 46.0   0.0096 1.0258 173.1 Am  20?   1.99 142.2   13 141   8  99
   2024 06 22 04:30  17 39 34.57    -27 36 01.5   0.0096 1.0258 173.0 Am  20?   1.90 143.5   14 143   8  99
   2024 06 22 04:40  17 39 35.38    -27 36 16.6   0.0096 1.0258 173.0 Am  20?   1.81 144.8   15 145   8  99
   2024 06 22 04:50  17 39 36.13    -27 36 31.2   0.0096 1.0258 173.0 Am  20?   1.72 146.1   16 147   8  99
   2024 06 22 05:00  17 39 36.82    -27 36 45.2   0.0096 1.0258 173.0  m  20?   1.63 147.3   17 149   8  99
   2024 06 22 05:10  17 39 37.45    -27 36 58.7   0.0096 1.0258 173.0  m  20?   1.55 148.5   18 151   8  99
   2024 06 22 05:20  17 39 38.03    -27 37 11.6   0.0096 1.0258 173.0  m  20?   1.46 149.6   19 153   8  99
   2024 06 22 05:30  17 39 38.56    -27 37 24.0   0.0096 1.0258 173.0  m  20?   1.38 150.7   20 155   8  99
   2024 06 22 05:40  17 39 39.04    -27 37 35.8   0.0096 1.0258 173.0  m  20?   1.30 151.6   21 158   8  99
   2024 06 22 05:50  17 39 39.48    -27 37 46.9   0.0096 1.0258 173.0  m  20?   1.23 152.4   21 160   8  99
   2024 06 22 06:00  17 39 39.89    -27 37 57.5   0.0096 1.0258 173.0  m  20?   1.15 153.0   22 162   8  99
   2024 06 22 06:10  17 39 40.27    -27 38 07.5   0.0096 1.0258 173.0  m  20?   1.08 153.5   23 165   8  99
   2024 06 22 06:20  17 39 40.61    -27 38 16.8   0.0096 1.0258 173.0  m  20?   1.01 153.6   23 167   9  99
   2024 06 22 06:30  17 39 40.93    -27 38 25.5   0.0096 1.0258 173.0  m  20?   0.94 153.5   23 169   9  99
   2024 06 22 06:40  17 39 41.24    -27 38 33.6   0.0096 1.0258 173.0  m  20?   0.87 152.9   24 172   9  99
   2024 06 22 06:50  17 39 41.53    -27 38 41.0   0.0096 1.0258 173.0  m  20?   0.80 151.9   24 174   9  99
   2024 06 22 07:00  17 39 41.81    -27 38 47.8   0.0096 1.0258 173.0  m  20?   0.74 150.2   24 177   9  99
   2024 06 22 07:10  17 39 42.08    -27 38 54.0   0.0096 1.0258 173.0  m  20?   0.69 147.9   24 179   9  99
   2024 06 22 07:20  17 39 42.35    -27 38 59.5   0.0096 1.0258 173.0  t  20?   0.63 144.6   24 181   9  99
   2024 06 22 07:30  17 39 42.63    -27 39 04.3   0.0096 1.0258 172.9  m  20?   0.59 140.3   24 184   9  99
   2024 06 22 07:40  17 39 42.92    -27 39 08.5   0.0096 1.0258 172.9  m  20?   0.55 134.9   24 186   9  99
   2024 06 22 07:50  17 39 43.21    -27 39 12.1   0.0096 1.0258 172.9  m  20?   0.52 128.3   23 189   9  99
   2024 06 22 08:00  17 39 43.53    -27 39 15.0   0.0096 1.0258 172.9  m  20?   0.51 120.8   23 191   9  99
   2024 06 22 08:10  17 39 43.87    -27 39 17.3   0.0096 1.0258 172.9  m  20?   0.51 112.8   23 193   9  99
   2024 06 22 08:20  17 39 44.23    -27 39 18.9   0.0096 1.0258 172.9  m  20?   0.52 104.8   22 196   9  99
   2024 06 22 08:30  17 39 44.63    -27 39 20.0   0.0096 1.0258 172.9  m  20?   0.55  97.5   22 198   9  99
   2024 06 22 08:40  17 39 45.06    -27 39 20.4   0.0096 1.0258 172.9  m  20?   0.60  91.1   21 200   9  99
   2024 06 22 08:50  17 39 45.53    -27 39 20.2   0.0096 1.0258 172.9  m  20?   0.65  85.8   20 203  10  99
   2024 06 22 09:00  17 39 46.04    -27 39 19.5   0.0096 1.0258 172.9  m  20?   0.72  81.5   19 205  10  99
   2024 06 22 09:10  17 39 46.60    -27 39 18.1   0.0096 1.0258 172.9  m  20?   0.79  78.1   18 207  10  99
   2024 06 22 09:20  17 39 47.21    -27 39 16.2   0.0096 1.0258 172.9  m  20?   0.88  75.5   18 209  10  99
   2024 06 22 09:30  17 39 47.88    -27 39 13.8   0.0096 1.0258 172.9  m  20?   0.96  73.5   17 211  10  99
   2024 06 22 09:40  17 39 48.61    -27 39 10.8   0.0096 1.0258 172.9  m  20?   1.06  72.1   15 213  10  99
   2024 06 22 09:50  17 39 49.40    -27 39 07.3   0.0096 1.0258 172.9  m  20?   1.16  71.0   14 215  10  99
   2024 06 22 10:00  17 39 50.25    -27 39 03.4   0.0096 1.0258 172.9  m  20?   1.26  70.2   13 217  10  99
   2024 06 22 10:10  17 39 51.18    -27 38 58.9   0.0096 1.0258 172.9  m  20?   1.36  69.7   12 219  10  99
   2024 06 22 10:20  17 39 52.18    -27 38 54.0   0.0096 1.0258 172.9 Am  20?   1.47  69.4   11 221  10  99
   2024 06 22 10:30  17 39 53.26    -27 38 48.6   0.0096 1.0258 172.9 Am  20?   1.59  69.3    9 223  10  99
   2024 06 22 10:40  17 39 54.42    -27 38 42.9   0.0096 1.0258 172.9 Am  20?   1.70  69.3    8 224  10  99
   2024 06 22 10:50  17 39 55.66    -27 38 36.7   0.0096 1.0258 172.9 Am  20?   1.82  69.4    7 226  10  99
   2024 06 22 11:00  17 39 56.98    -27 38 30.1   0.0096 1.0258 172.9 Am  20?   1.94  69.6    5 228  10  99
   2024 06 22 11:10  17 39 58.39    -27 38 23.3   0.0096 1.0258 172.9 Nm  20?   2.06  69.8    4 229  10  99
   2024 06 22 11:20  17 39 59.90    -27 38 16.0   0.0096 1.0258 172.9 Nm  20?   2.19  70.1    2 231  10  99
   2024 06 22 11:30  17 40 01.49    -27 38 08.5   0.0096 1.0258 172.9 Nm  20?   2.31  70.5    0 233  10  99
   ................
   2024 06 23 03:10  17 45 49.95    -27 47 04.6   0.0096 1.0258 173.3 C   20?   2.73 131.7    2 129  19  98
   2024 06 23 03:20  17 45 51.43    -27 47 22.7   0.0096 1.0258 173.3 C   20?   2.62 133.0    4 130  19  98
   2024 06 23 03:30  17 45 52.82    -27 47 40.4   0.0096 1.0258 173.3 C   20?   2.51 134.2    5 132  19  98
   2024 06 23 03:40  17 45 54.13    -27 47 57.8   0.0096 1.0258 173.3 N   20?   2.40 135.5    7 134  19  98
   2024 06 23 03:50  17 45 55.35    -27 48 14.8   0.0096 1.0258 173.3 N   20?   2.30 136.7    8 135  19  98
   2024 06 23 04:00  17 45 56.49    -27 48 31.4   0.0096 1.0258 173.3 N   20?   2.19 138.0   10 137  19  98
   2024 06 23 04:10  17 45 57.56    -27 48 47.5   0.0096 1.0258 173.3 Nm  20?   2.09 139.3   11 139  19  98
   2024 06 23 04:20  17 45 58.54    -27 49 03.2   0.0096 1.0258 173.3 Am  20?   2.00 140.6   12 141  20  98
   2024 06 23 04:30  17 45 59.46    -27 49 18.5   0.0096 1.0258 173.3 Am  20?   1.90 141.9   13 143  20  98
   2024 06 23 04:40  17 46 00.31    -27 49 33.2   0.0096 1.0258 173.3 Am  20?   1.81 143.1   15 145  20  98
   2024 06 23 04:50  17 46 01.09    -27 49 47.4   0.0096 1.0258 173.3 Am  20?   1.71 144.4   16 147  20  97
   2024 06 23 05:00  17 46 01.81    -27 50 01.1   0.0096 1.0258 173.3  m  20?   1.63 145.6   17 149  20  97
   2024 06 23 05:10  17 46 02.47    -27 50 14.3   0.0096 1.0258 173.3  m  20?   1.54 146.7   18 151  20  97
   2024 06 23 05:20  17 46 03.07    -27 50 26.9   0.0096 1.0258 173.3  m  20?   1.45 147.8   19 153  20  97
   2024 06 23 05:30  17 46 03.63    -27 50 38.9   0.0096 1.0258 173.3  m  20?   1.37 148.8   19 155  20  97
   2024 06 23 05:40  17 46 04.14    -27 50 50.4   0.0096 1.0258 173.3  m  20?   1.29 149.7   20 157  20  97
   2024 06 23 05:50  17 46 04.61    -27 51 01.2   0.0096 1.0258 173.3  m  20?   1.21 150.4   21 159  20  97
   2024 06 23 06:00  17 46 05.04    -27 51 11.5   0.0096 1.0258 173.2  m  20?   1.13 151.0   22 162  20  97
   2024 06 23 06:10  17 46 05.43    -27 51 21.1   0.0096 1.0258 173.2  m  20?   1.06 151.3   22 164  20  97
   2024 06 23 06:20  17 46 05.80    -27 51 30.1   0.0096 1.0258 173.2  m  20?   0.99 151.4   23 166  20  97
   2024 06 23 06:30  17 46 06.14    -27 51 38.5   0.0096 1.0258 173.2  m  20?   0.92 151.1   23 169  20  97
   2024 06 23 06:40  17 46 06.46    -27 51 46.2   0.0096 1.0258 173.2  m  20?   0.85 150.4   23 171  21  97
   2024 06 23 06:50  17 46 06.77    -27 51 53.2   0.0096 1.0258 173.2  m  20?   0.78 149.3   24 174  21  97
   2024 06 23 07:00  17 46 07.07    -27 51 59.7   0.0096 1.0258 173.2  m  20?   0.72 147.4   24 176  21  97
   2024 06 23 07:10  17 46 07.36    -27 52 05.4   0.0096 1.0258 173.2  m  20?   0.66 144.8   24 178  21  97
   2024 06 23 07:20  17 46 07.64    -27 52 10.6   0.0096 1.0258 173.2  t  20?   0.61 141.3   24 181  21  97
   2024 06 23 07:30  17 46 07.93    -27 52 15.0   0.0096 1.0259 173.2  m  20?   0.57 136.7   24 183  21  97
   2024 06 23 07:40  17 46 08.23    -27 52 18.8   0.0096 1.0259 173.2  m  20?   0.53 130.9   24 186  21  97
   2024 06 23 07:50  17 46 08.54    -27 52 22.0   0.0096 1.0259 173.2  m  20?   0.51 124.0   23 188  21  97
   2024 06 23 08:00  17 46 08.86    -27 52 24.5   0.0096 1.0259 173.2  m  20?   0.49 116.2   23 190  21  97
   2024 06 23 08:10  17 46 09.21    -27 52 26.4   0.0096 1.0259 173.2  m  20?   0.50 108.0   23 193  21  97
   2024 06 23 08:20  17 46 09.58    -27 52 27.7   0.0096 1.0259 173.2  m  20?   0.52 100.1   22 195  21  97
   2024 06 23 08:30  17 46 09.98    -27 52 28.3   0.0096 1.0259 173.2  m  20?   0.55  93.1   22 197  21  97
   2024 06 23 08:40  17 46 10.41    -27 52 28.3   0.0096 1.0259 173.2  m  20?   0.60  87.0   21 200  21  97
   2024 06 23 08:50  17 46 10.89    -27 52 27.7   0.0096 1.0259 173.2  m  20?   0.66  82.0   20 202  21  97
   2024 06 23 09:00  17 46 11.40    -27 52 26.5   0.0096 1.0259 173.2  m  20?   0.73  78.0   19 204  21  97
   2024 06 23 09:10  17 46 11.97    -27 52 24.7   0.0096 1.0259 173.2  m  20?   0.81  75.0   19 206  22  97
   2024 06 23 09:20  17 46 12.58    -27 52 22.3   0.0096 1.0259 173.2  m  20?   0.89  72.6   18 208  22  97
   2024 06 23 09:30  17 46 13.25    -27 52 19.4   0.0096 1.0259 173.2  m  20?   0.98  70.9   17 211  22  97
   2024 06 23 09:40  17 46 13.98    -27 52 16.0   0.0096 1.0259 173.2  m  20?   1.07  69.6   16 213  22  97
   2024 06 23 09:50  17 46 14.77    -27 52 12.0   0.0096 1.0259 173.2  m  20?   1.17  68.7   14 215  22  97
   2024 06 23 10:00  17 46 15.62    -27 52 07.5   0.0096 1.0259 173.1  m  20?   1.27  68.0   13 217  22  97
   2024 06 23 10:10  17 46 16.55    -27 52 02.6   0.0096 1.0259 173.1  m  20?   1.38  67.6   12 218  22  97
   2024 06 23 10:20  17 46 17.54    -27 51 57.2   0.0096 1.0259 173.1 Am  20?   1.49  67.5   11 220  22  97
   2024 06 23 10:30  17 46 18.62    -27 51 51.3   0.0096 1.0259 173.1 Am  20?   1.60  67.4    9 222  22  97
   2024 06 23 10:40  17 46 19.77    -27 51 45.0   0.0096 1.0259 173.1 Am  20?   1.71  67.5    8 224  22  97
   2024 06 23 10:50  17 46 21.01    -27 51 38.3   0.0096 1.0259 173.1 Am  20?   1.83  67.7    7 226  22  97
   2024 06 23 11:00  17 46 22.33    -27 51 31.2   0.0096 1.0259 173.1 Am  20?   1.95  67.9    5 227  22  97
   2024 06 23 11:10  17 46 23.74    -27 51 23.7   0.0096 1.0259 173.1 Nm  20?   2.07  68.3    4 229  22  97
   2024 06 23 11:20  17 46 25.23    -27 51 16.0   0.0096 1.0259 173.1 Nm  20?   2.19  68.6    2 231  22  97
   2024 06 23 11:30  17 46 26.82    -27 51 07.9   0.0096 1.0259 173.1 Nm  20?   2.32  69.1    1 232  22  97
   2024 06 23 11:40  17 46 28.51    -27 50 59.5   0.0096 1.0259 173.1 Nm  20?   2.45  69.5    0 234  22  97
   ................
   2024 06 24 03:10  17 52 17.45    -27 59 06.8   0.0096 1.0259 173.6 C   20?   2.74 130.5    2 128  31  94
   2024 06 24 03:20  17 52 18.97    -27 59 24.6   0.0096 1.0259 173.6 C   20?   2.63 131.7    3 130  31  94
   2024 06 24 03:30  17 52 20.40    -27 59 41.9   0.0096 1.0259 173.6 C   20?   2.51 132.9    5 132  32  94
   2024 06 24 03:40  17 52 21.74    -27 59 58.9   0.0096 1.0259 173.6 N   20?   2.41 134.2    6 133  32  94
   2024 06 24 03:50  17 52 23.00    -28 00 15.6   0.0096 1.0259 173.5 N   20?   2.30 135.4    8 135  32  94
   2024 06 24 04:00  17 52 24.17    -28 00 31.8   0.0095 1.0259 173.5 N   20?   2.20 136.6    9 137  32  94
   2024 06 24 04:10  17 52 25.27    -28 00 47.6   0.0095 1.0259 173.5 N   20?   2.09 137.9   10 138  32  93
   2024 06 24 04:20  17 52 26.29    -28 01 03.0   0.0095 1.0259 173.5 A   20?   1.99 139.1   12 140  32  93
   2024 06 24 04:30  17 52 27.23    -28 01 17.8   0.0095 1.0259 173.5 A   20?   1.90 140.4   13 142  32  93
   2024 06 24 04:40  17 52 28.11    -28 01 32.2   0.0095 1.0259 173.5 A   20?   1.80 141.6   14 144  32  93
   2024 06 24 04:50  17 52 28.91    -28 01 46.1   0.0095 1.0259 173.5 A   20?   1.71 142.8   15 146  32  93
   2024 06 24 05:00  17 52 29.66    -28 01 59.5   0.0095 1.0259 173.5  m  20?   1.62 143.9   16 148  32  93
   2024 06 24 05:10  17 52 30.34    -28 02 12.3   0.0095 1.0259 173.5  m  20?   1.53 145.0   17 150  32  93
   2024 06 24 05:20  17 52 30.97    -28 02 24.6   0.0095 1.0259 173.5  m  20?   1.44 146.1   18 152  33  93
   2024 06 24 05:30  17 52 31.55    -28 02 36.3   0.0095 1.0259 173.5  m  20?   1.36 147.0   19 154  33  93
   2024 06 24 05:40  17 52 32.08    -28 02 47.4   0.0095 1.0259 173.5  m  20?   1.27 147.8   20 157  33  93
   2024 06 24 05:50  17 52 32.57    -28 02 57.9   0.0095 1.0259 173.5  m  20?   1.19 148.5   21 159  33  93
   2024 06 24 06:00  17 52 33.02    -28 03 07.7   0.0095 1.0259 173.5  m  20?   1.11 149.0   21 161  33  93
   2024 06 24 06:10  17 52 33.43    -28 03 17.0   0.0095 1.0259 173.5  m  20?   1.04 149.3   22 163  33  93
   2024 06 24 06:20  17 52 33.82    -28 03 25.6   0.0095 1.0259 173.5  m  20?   0.97 149.3   22 166  33  93
   2024 06 24 06:30  17 52 34.17    -28 03 33.6   0.0095 1.0259 173.5  m  20?   0.89 149.0   23 168  33  93
   2024 06 24 06:40  17 52 34.51    -28 03 41.0   0.0095 1.0259 173.5  m  20?   0.83 148.2   23 171  33  93
   2024 06 24 06:50  17 52 34.83    -28 03 47.7   0.0095 1.0259 173.5  m  20?   0.76 146.9   23 173  33  93
   2024 06 24 07:00  17 52 35.14    -28 03 53.8   0.0095 1.0259 173.4  m  20?   0.70 144.9   24 175  33  93
   2024 06 24 07:10  17 52 35.43    -28 03 59.2   0.0095 1.0259 173.4  m  20?   0.64 142.0   24 178  33  93
   2024 06 24 07:20  17 52 35.73    -28 04 03.9   0.0095 1.0259 173.4  t  20?   0.59 138.2   24 180  33  93
   2024 06 24 07:30  17 52 36.03    -28 04 08.0   0.0095 1.0259 173.4  m  20?   0.55 133.2   24 183  33  93
   2024 06 24 07:40  17 52 36.33    -28 04 11.4   0.0095 1.0259 173.4  m  20?   0.51 127.0   23 185  34  93
   2024 06 24 07:50  17 52 36.64    -28 04 14.2   0.0095 1.0259 173.4  m  20?   0.49 119.7   23 187  34  93
   2024 06 24 08:00  17 52 36.97    -28 04 16.3   0.0095 1.0259 173.4  m  20?   0.48 111.6   23 190  34  93
   2024 06 24 08:10  17 52 37.32    -28 04 17.7   0.0095 1.0259 173.4  m  20?   0.49 103.3   23 192  34  93
   2024 06 24 08:20  17 52 37.70    -28 04 18.6   0.0095 1.0259 173.4  m  20?   0.51  95.5   22 195  34  93
   2024 06 24 08:30  17 52 38.10    -28 04 18.8   0.0095 1.0259 173.4  m  20?   0.55  88.6   21 197  34  93
   2024 06 24 08:40  17 52 38.53    -28 04 18.3   0.0095 1.0259 173.4  m  20?   0.60  82.8   21 199  34  93
   2024 06 24 08:50  17 52 39.00    -28 04 17.3   0.0095 1.0259 173.4  m  20?   0.67  78.2   20 201  34  93
   2024 06 24 09:00  17 52 39.52    -28 04 15.6   0.0095 1.0259 173.4  m  20?   0.74  74.5   19 204  34  93
   2024 06 24 09:10  17 52 40.08    -28 04 13.4   0.0095 1.0259 173.4  m  20?   0.81  71.7   19 206  34  93
   2024 06 24 09:20  17 52 40.69    -28 04 10.6   0.0095 1.0259 173.4  m  20?   0.90  69.6   18 208  34  93
   2024 06 24 09:30  17 52 41.35    -28 04 07.2   0.0095 1.0259 173.4  m  20?   0.99  68.1   17 210  34  93
   2024 06 24 09:40  17 52 42.07    -28 04 03.3   0.0095 1.0259 173.4  m  20?   1.08  67.0   16 212  34  93
   2024 06 24 09:50  17 52 42.86    -28 03 58.8   0.0095 1.0259 173.4  m  20?   1.18  66.2   15 214  34  93
   2024 06 24 10:00  17 52 43.71    -28 03 53.8   0.0095 1.0259 173.4  m  20?   1.28  65.7   13 216  34  92
   2024 06 24 10:10  17 52 44.62    -28 03 48.4   0.0095 1.0259 173.4  m  20?   1.39  65.5   12 218  34  92
   2024 06 24 10:20  17 52 45.61    -28 03 42.4   0.0095 1.0259 173.4 Am  20?   1.49  65.4   11 220  35  92
   2024 06 24 10:30  17 52 46.68    -28 03 36.0   0.0095 1.0259 173.4 Am  20?   1.60  65.5   10 222  35  92
   2024 06 24 10:40  17 52 47.82    -28 03 29.2   0.0095 1.0259 173.4 Am  20?   1.72  65.6    8 223  35  92
   2024 06 24 10:50  17 52 49.05    -28 03 21.9   0.0095 1.0259 173.4 Am  20?   1.84  65.9    7 225  35  92
   2024 06 24 11:00  17 52 50.36    -28 03 14.3   0.0095 1.0259 173.4 Am  20?   1.95  66.2    5 227  35  92
   2024 06 24 11:10  17 52 51.76    -28 03 06.3   0.0095 1.0259 173.4 Nm  20?   2.08  66.6    4 228  35  92
   2024 06 24 11:20  17 52 53.24    -28 02 58.0   0.0095 1.0259 173.4 Nm  20?   2.20  67.1    3 230  35  92
   2024 06 24 11:30  17 52 54.82    -28 02 49.3   0.0096 1.0259 173.4 Nm  20?   2.32  67.6    1 232  35  92
   2024 06 24 11:40  17 52 56.49    -28 02 40.3   0.0096 1.0259 173.4 Nm  20?   2.45  68.1    0 233  35  92
   ................
   2024 06 25 03:10  17 58 47.09    -28 09 49.6   0.0095 1.0259 173.8 C   20?   2.74 129.4    1 128  44  87
   2024 06 25 03:20  17 58 48.64    -28 10 06.9   0.0095 1.0259 173.8 C   20?   2.63 130.6    3 130  44  87
   2024 06 25 03:30  17 58 50.10    -28 10 23.9   0.0095 1.0259 173.8 C   20?   2.52 131.7    4 131  44  87
   2024 06 25 03:40  17 58 51.47    -28 10 40.6   0.0095 1.0259 173.8 N   20?   2.41 132.9    6 133  44  87
   2024 06 25 03:50  17 58 52.76    -28 10 56.8   0.0095 1.0259 173.7 N   20?   2.30 134.1    7 135  44  87
   2024 06 25 04:00  17 58 53.96    -28 11 12.7   0.0095 1.0259 173.7 N   20?   2.19 135.3    9 136  44  87
   2024 06 25 04:10  17 58 55.08    -28 11 28.1   0.0095 1.0259 173.7 N   20?   2.09 136.6   10 138  45  87
   2024 06 25 04:20  17 58 56.12    -28 11 43.1   0.0095 1.0259 173.7 A   20?   1.99 137.8   11 140  45  87
   2024 06 25 04:30  17 58 57.09    -28 11 57.6   0.0095 1.0259 173.7 A   20?   1.89 139.0   12 142  45  87
   2024 06 25 04:40  17 58 57.99    -28 12 11.7   0.0095 1.0259 173.7 A   20?   1.79 140.2   14 144  45  87
   2024 06 25 04:50  17 58 58.82    -28 12 25.2   0.0095 1.0259 173.7 A   20?   1.69 141.3   15 146  45  87
   2024 06 25 05:00  17 58 59.59    -28 12 38.2   0.0095 1.0259 173.7     20?   1.60 142.4   16 148  45  87
   2024 06 25 05:10  17 59 00.29    -28 12 50.6   0.0095 1.0259 173.7     20?   1.51 143.5   17 150  45  87
   2024 06 25 05:20  17 59 00.94    -28 13 02.5   0.0095 1.0259 173.7     20?   1.42 144.5   18 152  45  87
   2024 06 25 05:30  17 59 01.54    -28 13 13.9   0.0095 1.0259 173.7     20?   1.34 145.4   19 154  45  87
   2024 06 25 05:40  17 59 02.09    -28 13 24.6   0.0095 1.0259 173.7  m  20?   1.25 146.2   20 156  45  87
   2024 06 25 05:50  17 59 02.59    -28 13 34.7   0.0095 1.0259 173.7  m  20?   1.17 146.8   20 158  45  87
   2024 06 25 06:00  17 59 03.05    -28 13 44.3   0.0095 1.0259 173.7  m  20?   1.09 147.3   21 161  45  87
   2024 06 25 06:10  17 59 03.48    -28 13 53.2   0.0095 1.0259 173.7  m  20?   1.02 147.5   22 163  46  86
   2024 06 25 06:20  17 59 03.87    -28 14 01.4   0.0095 1.0259 173.7  m  20?   0.94 147.5   22 165  46  86
   2024 06 25 06:30  17 59 04.24    -28 14 09.1   0.0095 1.0259 173.7  m  20?   0.87 147.0   22 168  46  86
   2024 06 25 06:40  17 59 04.59    -28 14 16.0   0.0095 1.0259 173.7  m  20?   0.80 146.1   23 170  46  86
   2024 06 25 06:50  17 59 04.91    -28 14 22.4   0.0095 1.0259 173.7  m  20?   0.73 144.7   23 172  46  86
   2024 06 25 07:00  17 59 05.23    -28 14 28.0   0.0095 1.0259 173.7  m  20?   0.67 142.5   23 175  46  86
   2024 06 25 07:10  17 59 05.53    -28 14 33.0   0.0095 1.0259 173.6  m  20?   0.61 139.4   23 177  46  86
   2024 06 25 07:20  17 59 05.83    -28 14 37.4   0.0095 1.0259 173.6  t  20?   0.56 135.2   24 180  46  86
   2024 06 25 07:30  17 59 06.13    -28 14 41.1   0.0095 1.0259 173.6  m  20?   0.52 129.8   23 182  46  86
   2024 06 25 07:40  17 59 06.44    -28 14 44.1   0.0095 1.0259 173.6  m  20?   0.49 123.2   23 184  46  86
   2024 06 25 07:50  17 59 06.75    -28 14 46.5   0.0095 1.0259 173.6  m  20?   0.47 115.4   23 187  46  86
   2024 06 25 08:00  17 59 07.08    -28 14 48.2   0.0095 1.0259 173.6  m  20?   0.47 107.0   23 189  46  86
   2024 06 25 08:10  17 59 07.43    -28 14 49.2   0.0095 1.0259 173.6  m  20?   0.48  98.6   22 192  46  86
   2024 06 25 08:20  17 59 07.80    -28 14 49.6   0.0095 1.0259 173.6  m  20?   0.51  90.8   22 194  47  86
   2024 06 25 08:30  17 59 08.19    -28 14 49.4   0.0095 1.0259 173.6  m  20?   0.55  84.1   21 196  47  86
   2024 06 25 08:40  17 59 08.62    -28 14 48.5   0.0095 1.0259 173.6  m  20?   0.60  78.6   21 198  47  86
   2024 06 25 08:50  17 59 09.09    -28 14 47.0   0.0095 1.0259 173.6  m  20?   0.67  74.2   20 201  47  86
   2024 06 25 09:00  17 59 09.60    -28 14 44.9   0.0095 1.0259 173.6  m  20?   0.74  70.9   19 203  47  86
   2024 06 25 09:10  17 59 10.15    -28 14 42.2   0.0095 1.0259 173.6  m  20?   0.82  68.4   19 205  47  86
   2024 06 25 09:20  17 59 10.75    -28 14 38.9   0.0095 1.0259 173.6  m  20?   0.90  66.5   18 207  47  86
   2024 06 25 09:30  17 59 11.40    -28 14 35.1   0.0095 1.0259 173.6  m  20?   0.99  65.2   17 209  47  86
   2024 06 25 09:40  17 59 12.12    -28 14 30.7   0.0095 1.0259 173.6  m  20?   1.09  64.3   16 211  47  86
   2024 06 25 09:50  17 59 12.89    -28 14 25.7   0.0095 1.0259 173.6  m  20?   1.18  63.7   15 213  47  86
   2024 06 25 10:00  17 59 13.72    -28 14 20.3   0.0095 1.0259 173.6  m  20?   1.28  63.4   14 215  47  86
   2024 06 25 10:10  17 59 14.63    -28 14 14.3   0.0095 1.0259 173.6  m  20?   1.39  63.2   12 217  47  86
   2024 06 25 10:20  17 59 15.61    -28 14 07.8   0.0095 1.0259 173.6 Am  20?   1.50  63.3   11 219  47  86
   2024 06 25 10:30  17 59 16.66    -28 14 00.9   0.0095 1.0259 173.6 Am  20?   1.61  63.4   10 221  47  86
   2024 06 25 10:40  17 59 17.79    -28 13 53.5   0.0095 1.0259 173.6 Am  20?   1.72  63.7    9 223  47  85
   2024 06 25 10:50  17 59 19.00    -28 13 45.7   0.0095 1.0259 173.6 Am  20?   1.84  64.1    7 224  47  85
   2024 06 25 11:00  17 59 20.29    -28 13 37.6   0.0095 1.0259 173.6 Am  20?   1.96  64.5    6 226  48  85
   2024 06 25 11:10  17 59 21.67    -28 13 29.0   0.0095 1.0259 173.6 Nm  20?   2.08  64.9    4 228  48  85
   2024 06 25 11:20  17 59 23.14    -28 13 20.1   0.0095 1.0259 173.6 Nm  20?   2.20  65.5    3 229  48  85
   2024 06 25 11:30  17 59 24.70    -28 13 10.8   0.0095 1.0259 173.6 Nm  20?   2.32  66.0    1 231  48  85
   2024 06 25 11:40  17 59 26.36    -28 13 01.3   0.0095 1.0259 173.6 Nm  20?   2.45  66.6    0 233  48  85
   ................
   2024 06 26 03:10  18 05 18.08    -28 19 11.3   0.0095 1.0260 173.9 C   20?   2.74 128.3    1 128  57  79
   2024 06 26 03:20  18 05 19.66    -28 19 28.2   0.0095 1.0260 173.9 C   20?   2.63 129.4    2 129  57  79
   2024 06 26 03:30  18 05 21.14    -28 19 44.8   0.0095 1.0260 173.9 C   20?   2.51 130.6    4 131  57  79
   2024 06 26 03:40  18 05 22.54    -28 20 01.1   0.0095 1.0260 173.9 N   20?   2.40 131.8    5 133  57  79
   2024 06 26 03:50  18 05 23.85    -28 20 16.9   0.0095 1.0260 173.9 N   20?   2.29 132.9    7 134  57  79
   2024 06 26 04:00  18 05 25.08    -28 20 32.4   0.0095 1.0260 173.9 N   20?   2.19 134.1    8 136  57  79
   2024 06 26 04:10  18 05 26.22    -28 20 47.5   0.0095 1.0260 173.9 N   20?   2.08 135.3    9 138  57  79
   2024 06 26 04:20  18 05 27.29    -28 21 02.1   0.0095 1.0260 173.9 A   20?   1.98 136.5   11 140  57  79
   2024 06 26 04:30  18 05 28.27    -28 21 16.2   0.0095 1.0260 173.9 A   20?   1.87 137.7   12 141  57  79
   2024 06 26 04:40  18 05 29.19    -28 21 29.9   0.0095 1.0260 173.9 A   20?   1.78 138.8   13 143  57  78
   2024 06 26 04:50  18 05 30.04    -28 21 43.0   0.0095 1.0260 173.9 A   20?   1.68 139.9   14 145  58  78
   2024 06 26 05:00  18 05 30.82    -28 21 55.6   0.0095 1.0260 173.9     20?   1.58 141.0   15 147  58  78
   2024 06 26 05:10  18 05 31.55    -28 22 07.7   0.0095 1.0260 173.9     20?   1.49 142.1   16 149  58  78
   2024 06 26 05:20  18 05 32.21    -28 22 19.3   0.0095 1.0260 173.9     20?   1.40 143.0   17 151  58  78
   2024 06 26 05:30  18 05 32.82    -28 22 30.2   0.0095 1.0260 173.9     20?   1.32 143.9   18 153  58  78
   2024 06 26 05:40  18 05 33.38    -28 22 40.6   0.0095 1.0260 173.9     20?   1.23 144.7   19 156  58  78
   2024 06 26 05:50  18 05 33.89    -28 22 50.3   0.0095 1.0260 173.9     20?   1.15 145.3   20 158  58  78
   2024 06 26 06:00  18 05 34.37    -28 22 59.5   0.0095 1.0260 173.9     20?   1.07 145.7   21 160  58  78
   2024 06 26 06:10  18 05 34.80    -28 23 08.0   0.0095 1.0260 173.8  m  20?   0.99 145.9   21 162  58  78
   2024 06 26 06:20  18 05 35.20    -28 23 15.9   0.0095 1.0260 173.8  m  20?   0.91 145.8   22 165  58  78
   2024 06 26 06:30  18 05 35.58    -28 23 23.1   0.0095 1.0260 173.8  m  20?   0.84 145.3   22 167  58  78
   2024 06 26 06:40  18 05 35.93    -28 23 29.7   0.0095 1.0260 173.8  m  20?   0.77 144.3   23 169  59  78
   2024 06 26 06:50  18 05 36.26    -28 23 35.7   0.0095 1.0260 173.8  m  20?   0.70 142.6   23 172  59  78
   2024 06 26 07:00  18 05 36.57    -28 23 41.0   0.0095 1.0260 173.8  m  20?   0.64 140.3   23 174  59  78
   2024 06 26 07:10  18 05 36.88    -28 23 45.6   0.0095 1.0260 173.8  m  20?   0.58 136.9   23 177  59  78
   2024 06 26 07:20  18 05 37.18    -28 23 49.5   0.0095 1.0260 173.8  m  20?   0.53 132.4   23 179  59  78
   2024 06 26 07:30  18 05 37.48    -28 23 52.8   0.0095 1.0260 173.8  t  20?   0.49 126.5   23 181  59  77
   2024 06 26 07:40  18 05 37.78    -28 23 55.4   0.0095 1.0260 173.8  m  20?   0.46 119.3   23 184  59  77
   2024 06 26 07:50  18 05 38.09    -28 23 57.4   0.0095 1.0260 173.8  m  20?   0.45 111.0   23 186  59  77
   2024 06 26 08:00  18 05 38.41    -28 23 58.7   0.0095 1.0260 173.8  m  20?   0.45 102.2   23 189  59  77
   2024 06 26 08:10  18 05 38.75    -28 23 59.3   0.0095 1.0260 173.8  m  20?   0.46  93.6   22 191  59  77
   2024 06 26 08:20  18 05 39.12    -28 23 59.3   0.0095 1.0260 173.8  m  20?   0.50  85.8   22 193  59  77
   2024 06 26 08:30  18 05 39.50    -28 23 58.6   0.0095 1.0260 173.8  m  20?   0.54  79.3   21 196  59  77
   2024 06 26 08:40  18 05 39.92    -28 23 57.3   0.0095 1.0260 173.8  m  20?   0.60  74.2   21 198  59  77
   2024 06 26 08:50  18 05 40.38    -28 23 55.4   0.0095 1.0260 173.8  m  20?   0.67  70.1   20 200  60  77
   2024 06 26 09:00  18 05 40.88    -28 23 52.8   0.0095 1.0260 173.8  m  20?   0.74  67.1   20 202  60  77
   2024 06 26 09:10  18 05 41.42    -28 23 49.7   0.0095 1.0260 173.8  m  20?   0.82  64.9   19 204  60  77
   2024 06 26 09:20  18 05 42.00    -28 23 45.9   0.0095 1.0260 173.8  m  20?   0.90  63.3   18 207  60  77
   2024 06 26 09:30  18 05 42.64    -28 23 41.6   0.0095 1.0260 173.8  m  20?   0.99  62.2   17 209  60  77
   2024 06 26 09:40  18 05 43.34    -28 23 36.7   0.0095 1.0260 173.8  m  20?   1.09  61.5   16 211  60  77
   2024 06 26 09:50  18 05 44.10    -28 23 31.3   0.0095 1.0260 173.8  m  20?   1.19  61.1   15 213  60  77
   2024 06 26 10:00  18 05 44.92    -28 23 25.3   0.0095 1.0260 173.8  m  20?   1.29  60.9   14 215  60  77
   2024 06 26 10:10  18 05 45.80    -28 23 18.8   0.0095 1.0260 173.8  m  20?   1.39  60.9   13 217  60  77
   2024 06 26 10:20  18 05 46.76    -28 23 11.8   0.0095 1.0260 173.8  m  20?   1.50  61.1   11 219  60  77
   2024 06 26 10:30  18 05 47.79    -28 23 04.4   0.0095 1.0260 173.8 Am  20?   1.61  61.3   10 220  60  77
   2024 06 26 10:40  18 05 48.90    -28 22 56.5   0.0095 1.0260 173.8 Am  20?   1.72  61.7    9 222  60  77
   2024 06 26 10:50  18 05 50.09    -28 22 48.2   0.0095 1.0260 173.8 Am  20?   1.84  62.1    7 224  60  77
   2024 06 26 11:00  18 05 51.37    -28 22 39.4   0.0095 1.0260 173.8 Am  20?   1.95  62.6    6 226  60  76
   2024 06 26 11:10  18 05 52.73    -28 22 30.3   0.0095 1.0260 173.8 Nm  20?   2.07  63.2    5 227  61  76
   2024 06 26 11:20  18 05 54.18    -28 22 20.9   0.0095 1.0260 173.8 Nm  20?   2.19  63.8    3 229  61  76
   2024 06 26 11:30  18 05 55.71    -28 22 11.0   0.0095 1.0260 173.8 Nm  20?   2.32  64.4    2 231  61  76
   2024 06 26 11:40  18 05 57.35    -28 22 00.9   0.0095 1.0260 173.8 Nm  20?   2.44  65.0    0 232  61  76
   ................
   2024 06 27 03:10  18 11 49.70    -28 27 10.8   0.0095 1.0260 174.1 C   20?   2.74 127.2    0 127  69  69
   2024 06 27 03:20  18 11 51.30    -28 27 27.4   0.0095 1.0260 174.1 C   20?   2.62 128.4    2 129  69  69
   2024 06 27 03:30  18 11 52.81    -28 27 43.5   0.0095 1.0260 174.1 C   20?   2.51 129.5    3 131  69  69
   2024 06 27 03:40  18 11 54.23    -28 27 59.4   0.0095 1.0260 174.1 N   20?   2.39 130.6    5 132  70  69
   2024 06 27 03:50  18 11 55.56    -28 28 14.8   0.0095 1.0260 174.1 N   20?   2.28 131.8    6 134  70  69
   2024 06 27 04:00  18 11 56.80    -28 28 29.9   0.0095 1.0260 174.1 N   20?   2.17 132.9    8 136  70  69
   2024 06 27 04:10  18 11 57.97    -28 28 44.6   0.0095 1.0260 174.0 N   20?   2.07 134.1    9 137  70  69
   2024 06 27 04:20  18 11 59.05    -28 28 58.8   0.0095 1.0260 174.0 A   20?   1.96 135.2   10 139  70  69
   2024 06 27 04:30  18 12 00.06    -28 29 12.5   0.0095 1.0260 174.0 A   20?   1.86 136.4   12 141  70  69
   2024 06 27 04:40  18 12 00.99    -28 29 25.8   0.0095 1.0260 174.0 A   20?   1.76 137.5   13 143  70  69
   2024 06 27 04:50  18 12 01.85    -28 29 38.6   0.0095 1.0260 174.0 A   20?   1.66 138.6   14 145  70  68
   2024 06 27 05:00  18 12 02.65    -28 29 50.8   0.0095 1.0260 174.0     20?   1.56 139.7   15 147  70  68
   2024 06 27 05:10  18 12 03.38    -28 30 02.5   0.0095 1.0260 174.0     20?   1.47 140.7   16 149  70  68
   2024 06 27 05:20  18 12 04.06    -28 30 13.7   0.0095 1.0260 174.0     20?   1.38 141.7   17 151  71  68
   2024 06 27 05:30  18 12 04.68    -28 30 24.2   0.0095 1.0260 174.0     20?   1.29 142.5   18 153  71  68
   2024 06 27 05:40  18 12 05.24    -28 30 34.2   0.0095 1.0260 174.0     20?   1.20 143.3   19 155  71  68
   2024 06 27 05:50  18 12 05.77    -28 30 43.6   0.0095 1.0260 174.0     20?   1.12 143.8   20 157  71  68
   2024 06 27 06:00  18 12 06.24    -28 30 52.4   0.0095 1.0260 174.0     20?   1.04 144.2   20 160  71  68
   2024 06 27 06:10  18 12 06.68    -28 31 00.5   0.0095 1.0260 174.0     20?   0.96 144.4   21 162  71  68
   2024 06 27 06:20  18 12 07.09    -28 31 08.0   0.0095 1.0260 174.0     20?   0.88 144.2   22 164  71  68
   2024 06 27 06:30  18 12 07.47    -28 31 14.9   0.0095 1.0260 174.0     20?   0.81 143.6   22 166  71  68
   2024 06 27 06:40  18 12 07.82    -28 31 21.1   0.0095 1.0260 174.0  m  20?   0.74 142.5   22 169  71  68
   2024 06 27 06:50  18 12 08.15    -28 31 26.6   0.0095 1.0260 174.0  m  20?   0.67 140.7   23 171  71  68
   2024 06 27 07:00  18 12 08.46    -28 31 31.5   0.0095 1.0260 174.0  m  20?   0.61 138.1   23 174  72  67
   2024 06 27 07:10  18 12 08.76    -28 31 35.7   0.0095 1.0260 174.0  m  20?   0.55 134.5   23 176  72  67
   2024 06 27 07:20  18 12 09.06    -28 31 39.3   0.0095 1.0260 174.0  m  20?   0.50 129.5   23 178  72  67
   2024 06 27 07:30  18 12 09.35    -28 31 42.1   0.0095 1.0260 174.0  t  20?   0.46 123.1   23 181  72  67
   2024 06 27 07:40  18 12 09.65    -28 31 44.4   0.0095 1.0260 174.0  m  20?   0.44 115.3   23 183  72  67
   2024 06 27 07:50  18 12 09.95    -28 31 45.9   0.0095 1.0260 173.9  m  20?   0.42 106.3   23 186  72  67
   2024 06 27 08:00  18 12 10.26    -28 31 46.8   0.0095 1.0260 173.9  m  20?   0.43  97.1   23 188  72  67
   2024 06 27 08:10  18 12 10.60    -28 31 47.0   0.0095 1.0260 173.9  m  20?   0.45  88.3   22 190  72  67
   2024 06 27 08:20  18 12 10.95    -28 31 46.5   0.0095 1.0260 173.9  m  20?   0.49  80.7   22 193  72  67
   2024 06 27 08:30  18 12 11.32    -28 31 45.4   0.0095 1.0260 173.9  m  20?   0.53  74.4   21 195  72  67
   2024 06 27 08:40  18 12 11.73    -28 31 43.7   0.0095 1.0260 173.9  m  20?   0.59  69.6   21 197  72  67
   2024 06 27 08:50  18 12 12.17    -28 31 41.3   0.0095 1.0260 173.9  m  20?   0.66  65.9   20 199  72  67
   2024 06 27 09:00  18 12 12.65    -28 31 38.3   0.0095 1.0260 173.9  m  20?   0.74  63.2   20 202  73  67
   2024 06 27 09:10  18 12 13.18    -28 31 34.7   0.0095 1.0260 173.9  m  20?   0.82  61.3   19 204  73  67
   2024 06 27 09:20  18 12 13.75    -28 31 30.5   0.0095 1.0260 173.9  m  20?   0.90  60.0   18 206  73  67
   2024 06 27 09:30  18 12 14.37    -28 31 25.7   0.0095 1.0260 173.9  m  20?   0.99  59.1   17 208  73  67
   2024 06 27 09:40  18 12 15.04    -28 31 20.3   0.0095 1.0260 173.9  m  20?   1.09  58.6   16 210  73  66
   2024 06 27 09:50  18 12 15.78    -28 31 14.4   0.0095 1.0260 173.9  m  20?   1.19  58.3   15 212  73  66
   2024 06 27 10:00  18 12 16.58    -28 31 07.9   0.0095 1.0260 173.9  m  20?   1.29  58.3   14 214  73  66
   2024 06 27 10:10  18 12 17.45    -28 31 01.0   0.0095 1.0260 173.9  m  20?   1.39  58.5   13 216  73  66
   2024 06 27 10:20  18 12 18.38    -28 30 53.5   0.0095 1.0260 173.9  m  20?   1.50  58.8   12 218  73  66
   2024 06 27 10:30  18 12 19.39    -28 30 45.5   0.0095 1.0260 173.9 Am  20?   1.61  59.2   10 220  73  66
   2024 06 27 10:40  18 12 20.48    -28 30 37.1   0.0095 1.0260 173.9 Am  20?   1.72  59.6    9 222  73  66
   2024 06 27 10:50  18 12 21.64    -28 30 28.3   0.0095 1.0260 173.9 Am  20?   1.83  60.2    8 223  73  66
   2024 06 27 11:00  18 12 22.89    -28 30 19.0   0.0095 1.0260 173.9 Am  20?   1.95  60.8    6 225  73  66
   2024 06 27 11:10  18 12 24.23    -28 30 09.3   0.0095 1.0260 173.9 Nm  20?   2.07  61.4    5 227  73  66
   2024 06 27 11:20  18 12 25.65    -28 29 59.3   0.0095 1.0260 173.9 Nm  20?   2.19  62.0    3 228  74  66
   2024 06 27 11:30  18 12 27.16    -28 29 48.9   0.0095 1.0260 173.9 Nm  20?   2.31  62.7    2 230  74  66
   2024 06 27 11:40  18 12 28.77    -28 29 38.2   0.0095 1.0260 173.9 Nm  20?   2.43  63.4    0 232  74  66
   ................
   2024 06 28 03:10  18 18 21.32    -28 33 47.6   0.0095 1.0260 174.2 C   20?   2.73 126.2    0 127  82  58
   2024 06 28 03:20  18 18 22.94    -28 34 03.7   0.0095 1.0260 174.2 C   20?   2.61 127.3    1 129  82  58
   2024 06 28 03:30  18 18 24.47    -28 34 19.4   0.0095 1.0260 174.2 C   20?   2.50 128.4    3 130  82  58
   2024 06 28 03:40  18 18 25.90    -28 34 34.8   0.0095 1.0260 174.2 N   20?   2.38 129.5    4 132  82  58
   2024 06 28 03:50  18 18 27.25    -28 34 49.9   0.0095 1.0260 174.2 N   20?   2.27 130.7    6 134  82  58
   2024 06 28 04:00  18 18 28.51    -28 35 04.5   0.0095 1.0260 174.2 N   20?   2.16 131.8    7 135  82  58
   2024 06 28 04:10  18 18 29.69    -28 35 18.8   0.0095 1.0260 174.1 N   20?   2.05 132.9    9 137  83  58
   2024 06 28 04:20  18 18 30.79    -28 35 32.6   0.0095 1.0260 174.1 A   20?   1.95 134.1   10 139  83  58
   2024 06 28 04:30  18 18 31.81    -28 35 45.9   0.0095 1.0260 174.1 A   20?   1.84 135.2   11 141  83  58
   2024 06 28 04:40  18 18 32.75    -28 35 58.8   0.0095 1.0260 174.1 A   20?   1.74 136.3   12 142  83  58
   2024 06 28 04:50  18 18 33.62    -28 36 11.2   0.0095 1.0260 174.1 A   20?   1.64 137.4   14 144  83  57
   2024 06 28 05:00  18 18 34.43    -28 36 23.0   0.0095 1.0260 174.1     20?   1.54 138.4   15 146  83  57
   2024 06 28 05:10  18 18 35.17    -28 36 34.3   0.0095 1.0260 174.1     20?   1.45 139.4   16 148  83  57
   2024 06 28 05:20  18 18 35.86    -28 36 45.1   0.0095 1.0260 174.1     20?   1.35 140.4   17 150  83  57
   2024 06 28 05:30  18 18 36.48    -28 36 55.2   0.0095 1.0260 174.1     20?   1.26 141.2   18 152  83  57
   2024 06 28 05:40  18 18 37.05    -28 37 04.8   0.0095 1.0260 174.1     20?   1.18 141.9   19 155  83  57
   2024 06 28 05:50  18 18 37.58    -28 37 13.8   0.0095 1.0260 174.1     20?   1.09 142.5   19 157  84  57
   2024 06 28 06:00  18 18 38.06    -28 37 22.2   0.0095 1.0260 174.1     20?   1.01 142.8   20 159  84  57
   2024 06 28 06:10  18 18 38.50    -28 37 30.0   0.0095 1.0260 174.1     20?   0.93 142.9   21 161  84  57
   2024 06 28 06:20  18 18 38.91    -28 37 37.1   0.0095 1.0260 174.1     20?   0.85 142.7   21 164  84  57
   2024 06 28 06:30  18 18 39.28    -28 37 43.5   0.0095 1.0260 174.1     20?   0.78 142.0   22 166  84  57
   2024 06 28 06:40  18 18 39.63    -28 37 49.4   0.0095 1.0260 174.1     20?   0.71 140.8   22 168  84  56
   2024 06 28 06:50  18 18 39.96    -28 37 54.5   0.0095 1.0260 174.1     20?   0.64 138.9   23 171  84  56
   2024 06 28 07:00  18 18 40.27    -28 37 59.0   0.0095 1.0260 174.1     20?   0.58 136.0   23 173  84  56
   2024 06 28 07:10  18 18 40.57    -28 38 02.8   0.0095 1.0260 174.1  m  20?   0.52 132.0   23 175  84  56
   2024 06 28 07:20  18 18 40.86    -28 38 06.0   0.0095 1.0260 174.1  m  20?   0.47 126.5   23 178  85  56
   2024 06 28 07:30  18 18 41.14    -28 38 08.4   0.0095 1.0260 174.1  t  20?   0.43 119.5   23 180  85  56
   2024 06 28 07:40  18 18 41.43    -28 38 10.2   0.0095 1.0260 174.1  m  20?   0.41 110.9   23 183  85  56
   2024 06 28 07:50  18 18 41.72    -28 38 11.4   0.0095 1.0260 174.1  m  20?   0.40 101.2   23 185  85  56
   2024 06 28 08:00  18 18 42.02    -28 38 11.8   0.0095 1.0260 174.1  m  20?   0.41  91.6   23 187  85  56
   2024 06 28 08:10  18 18 42.34    -28 38 11.6   0.0095 1.0260 174.0  m  20?   0.43  82.7   22 190  85  56
   2024 06 28 08:20  18 18 42.68    -28 38 10.7   0.0095 1.0260 174.0  m  20?   0.47  75.2   22 192  85  56
   2024 06 28 08:30  18 18 43.04    -28 38 09.2   0.0095 1.0260 174.0  m  20?   0.53  69.3   22 194  85  56
   2024 06 28 08:40  18 18 43.43    -28 38 07.0   0.0095 1.0260 174.0  m  20?   0.59  64.8   21 197  85  56
   2024 06 28 08:50  18 18 43.85    -28 38 04.2   0.0095 1.0260 174.0  m  20?   0.66  61.6   20 199  85  56
   2024 06 28 09:00  18 18 44.32    -28 38 00.8   0.0095 1.0260 174.0  m  20?   0.74  59.2   20 201  85  55
   2024 06 28 09:10  18 18 44.82    -28 37 56.7   0.0095 1.0260 174.0  m  20?   0.82  57.6   19 203  85  55
   2024 06 28 09:20  18 18 45.37    -28 37 52.0   0.0095 1.0260 174.0  m  20?   0.90  56.5   18 205  86  55
   2024 06 28 09:30  18 18 45.97    -28 37 46.8   0.0095 1.0260 174.0  m  20?   0.99  55.9   17 208  86  55
   2024 06 28 09:40  18 18 46.62    -28 37 40.9   0.0095 1.0260 174.0  m  20?   1.09  55.6   16 210  86  55
   2024 06 28 09:50  18 18 47.34    -28 37 34.5   0.0095 1.0260 174.0  m  20?   1.18  55.6   15 212  86  55
   2024 06 28 10:00  18 18 48.11    -28 37 27.6   0.0095 1.0260 174.0  m  20?   1.28  55.7   14 214  86  55
   2024 06 28 10:10  18 18 48.95    -28 37 20.1   0.0095 1.0260 174.0  m  20?   1.39  56.0   13 216  86  55
   2024 06 28 10:20  18 18 49.86    -28 37 12.2   0.0095 1.0260 174.0  m  20?   1.49  56.4   12 217  86  55
   2024 06 28 10:30  18 18 50.85    -28 37 03.7   0.0095 1.0260 174.0 Am  20?   1.60  56.9   11 219  86  55
   2024 06 28 10:40  18 18 51.91    -28 36 54.8   0.0095 1.0260 174.0 Am  20?   1.71  57.5    9 221  86  55
   2024 06 28 10:50  18 18 53.04    -28 36 45.4   0.0095 1.0260 174.0 Am  20?   1.83  58.1    8 223  86  55
   2024 06 28 11:00  18 18 54.27    -28 36 35.6   0.0095 1.0260 174.0 Am  20?   1.94  58.8    7 225  86  55
   2024 06 28 11:10  18 18 55.57    -28 36 25.4   0.0095 1.0260 174.0 Nm  20?   2.06  59.5    5 226  86  55
   2024 06 28 11:20  18 18 56.96    -28 36 14.8   0.0095 1.0260 174.0 Nm  20?   2.18  60.3    4 228  86  55
   2024 06 28 11:30  18 18 58.45    -28 36 03.9   0.0095 1.0260 174.0 Nm  20?   2.30  61.0    2 230  87  55
   2024 06 28 11:40  18 19 00.03    -28 35 52.7   0.0095 1.0260 174.0 Nm  20?   2.42  61.8    1 231  87  54
   2024 06 28 11:50  18 19 01.70    -28 35 41.1   0.0095 1.0260 174.1 Cm  20?   2.55  62.5    0 233  87  54
   ................
   2024 06 29 03:10  18 24 52.40    -28 39 01.2   0.0095 1.0261 174.2 C   20?   2.72 125.2    0 127  94  47
   2024 06 29 03:20  18 24 54.04    -28 39 16.8   0.0095 1.0261 174.2 C   20?   2.60 126.3    1 128  95  47
   2024 06 29 03:30  18 24 55.58    -28 39 32.1   0.0095 1.0261 174.2 C   20?   2.49 127.3    3 130  95  47
   2024 06 29 03:40  18 24 57.03    -28 39 47.1   0.0095 1.0261 174.2 N   20?   2.37 128.4    4 131  95  47
   2024 06 29 03:50  18 24 58.39    -28 40 01.7   0.0095 1.0261 174.2 N   20?   2.26 129.5    5 133  95  47
   2024 06 29 04:00  18 24 59.67    -28 40 15.9   0.0095 1.0261 174.2 N   20?   2.14 130.7    7 135  95  47
   2024 06 29 04:10  18 25 00.86    -28 40 29.8   0.0095 1.0261 174.2 N   20?   2.03 131.8    8 137  95  46
   2024 06 29 04:20  18 25 01.97    -28 40 43.2   0.0095 1.0261 174.2 A   20?   1.93 132.9   10 138  95  46
   2024 06 29 04:30  18 25 03.00    -28 40 56.1   0.0095 1.0261 174.2 A   20?   1.82 134.0   11 140  95  46
   2024 06 29 04:40  18 25 03.95    -28 41 08.5   0.0095 1.0261 174.2 A   20?   1.72 135.1   12 142  95  46
   2024 06 29 04:50  18 25 04.84    -28 41 20.5   0.0095 1.0261 174.2 A   20?   1.62 136.2   13 144  96  46
   2024 06 29 05:00  18 25 05.65    -28 41 31.9   0.0095 1.0261 174.2     20?   1.52 137.2   14 146  96  46
   2024 06 29 05:10  18 25 06.40    -28 41 42.8   0.0095 1.0261 174.2     20?   1.42 138.2   15 148  96  46
   2024 06 29 05:20  18 25 07.09    -28 41 53.2   0.0095 1.0261 174.2     20?   1.33 139.1   16 150  96  46
   2024 06 29 05:30  18 25 07.72    -28 42 03.0   0.0095 1.0261 174.2     20?   1.24 139.9   17 152  96  46
   2024 06 29 05:40  18 25 08.29    -28 42 12.2   0.0095 1.0261 174.2     20?   1.15 140.6   18 154  96  46
   2024 06 29 05:50  18 25 08.82    -28 42 20.7   0.0095 1.0261 174.2     20?   1.06 141.1   19 156  96  45
   2024 06 29 06:00  18 25 09.30    -28 42 28.7   0.0095 1.0261 174.2     20?   0.98 141.4   20 158  96  45
   2024 06 29 06:10  18 25 09.75    -28 42 36.1   0.0095 1.0261 174.2     20?   0.90 141.5   20 161  97  45
   2024 06 29 06:20  18 25 10.15    -28 42 42.8   0.0095 1.0261 174.2     20?   0.82 141.2   21 163  97  45
   2024 06 29 06:30  18 25 10.52    -28 42 48.9   0.0095 1.0261 174.1     20?   0.74 140.5   22 165  97  45
   2024 06 29 06:40  18 25 10.87    -28 42 54.3   0.0095 1.0261 174.1     20?   0.67 139.1   22 168  97  45
   2024 06 29 06:50  18 25 11.19    -28 42 59.0   0.0095 1.0261 174.1     20?   0.60 137.0   22 170  97  45
   2024 06 29 07:00  18 25 11.49    -28 43 03.1   0.0095 1.0261 174.1     20?   0.54 133.8   23 172  97  45
   2024 06 29 07:10  18 25 11.78    -28 43 06.5   0.0095 1.0261 174.1     20?   0.48 129.4   23 175  97  45
   2024 06 29 07:20  18 25 12.06    -28 43 09.3   0.0095 1.0261 174.1     20?   0.44 123.3   23 177  97  45
   2024 06 29 07:30  18 25 12.33    -28 43 11.4   0.0095 1.0261 174.1  m  20?   0.40 115.4   23 179  97  45
   2024 06 29 07:40  18 25 12.61    -28 43 12.8   0.0095 1.0261 174.1  t  20?   0.38 105.9   23 182  97  45
   2024 06 29 07:50  18 25 12.89    -28 43 13.5   0.0095 1.0261 174.1  m  20?   0.37  95.6   23 184  98  44
   2024 06 29 08:00  18 25 13.18    -28 43 13.5   0.0095 1.0261 174.1  m  20?   0.39  85.5   23 187  98  44
   2024 06 29 08:10  18 25 13.48    -28 43 12.9   0.0095 1.0261 174.1  m  20?   0.42  76.6   22 189  98  44
   2024 06 29 08:20  18 25 13.80    -28 43 11.6   0.0095 1.0261 174.1  m  20?   0.47  69.4   22 191  98  44
   2024 06 29 08:30  18 25 14.15    -28 43 09.6   0.0095 1.0261 174.1  m  20?   0.52  64.0   22 194  98  44
   2024 06 29 08:40  18 25 14.52    -28 43 07.0   0.0095 1.0261 174.1  m  20?   0.59  60.0   21 196  98  44
   2024 06 29 08:50  18 25 14.92    -28 43 03.8   0.0095 1.0261 174.1  m  20?   0.66  57.1   20 198  98  44
   2024 06 29 09:00  18 25 15.37    -28 42 59.9   0.0095 1.0261 174.1  m  20?   0.74  55.1   20 200  98  44
   2024 06 29 09:10  18 25 15.85    -28 42 55.4   0.0095 1.0261 174.1  m  20?   0.82  53.9   19 203  98  44
   2024 06 29 09:20  18 25 16.38    -28 42 50.3   0.0095 1.0261 174.1  m  20?   0.91  53.1   18 205  98  44
   2024 06 29 09:30  18 25 16.95    -28 42 44.5   0.0095 1.0261 174.1  m  20?   1.00  52.7   17 207  98  44
   2024 06 29 09:40  18 25 17.58    -28 42 38.2   0.0095 1.0261 174.1  m  20?   1.09  52.6   16 209  99  44
   2024 06 29 09:50  18 25 18.27    -28 42 31.4   0.0095 1.0261 174.1  m  20?   1.18  52.7   15 211  99  44
   2024 06 29 10:00  18 25 19.02    -28 42 24.0   0.0095 1.0261 174.1  m  20?   1.28  53.0   14 213  99  43
   2024 06 29 10:10  18 25 19.83    -28 42 16.0   0.0095 1.0261 174.1  m  20?   1.39  53.5   13 215  99  43
   2024 06 29 10:20  18 25 20.72    -28 42 07.5   0.0095 1.0261 174.1  m  20?   1.49  54.0   12 217  99  43
   2024 06 29 10:30  18 25 21.67    -28 41 58.6   0.0095 1.0261 174.1 Am  20?   1.60  54.7   11 219  99  43
   2024 06 29 10:40  18 25 22.70    -28 41 49.1   0.0095 1.0261 174.1 Am  20?   1.71  55.4   10 221  99  43
   2024 06 29 10:50  18 25 23.81    -28 41 39.3   0.0095 1.0261 174.1 Am  20?   1.82  56.1    8 222  99  43
   2024 06 29 11:00  18 25 25.00    -28 41 28.9   0.0095 1.0261 174.1 Am  20?   1.93  56.9    7 224  99  43
   2024 06 29 11:10  18 25 26.28    -28 41 18.2   0.0095 1.0261 174.1 Nm  20?   2.05  57.7    5 226  99  43
   2024 06 29 11:20  18 25 27.64    -28 41 07.1   0.0095 1.0261 174.1 Nm  20?   2.17  58.5    4 227  99  43
   2024 06 29 11:30  18 25 29.09    -28 40 55.7   0.0095 1.0261 174.1 Nm  20?   2.29  59.3    3 229  99  43
   2024 06 29 11:40  18 25 30.63    -28 40 43.9   0.0095 1.0261 174.1 Nm  20?   2.41  60.1    1 231  99  43
   2024 06 29 11:50  18 25 32.27    -28 40 31.8   0.0095 1.0261 174.1 Cm  20?   2.53  61.0    0 232 100  43
   ................
   2024 06 30 03:10  18 31 22.54    -28 42 51.5   0.0095 1.0261 174.3 Cr  20?   2.71 124.2    0 126 107  36
   2024 06 30 03:20  18 31 24.19    -28 43 06.6   0.0095 1.0261 174.3 C   20?   2.59 125.2    1 128 107  36
   2024 06 30 03:30  18 31 25.75    -28 43 21.5   0.0095 1.0261 174.3 C   20?   2.47 126.3    2 130 107  36
   2024 06 30 03:40  18 31 27.22    -28 43 36.0   0.0095 1.0261 174.2 N   20?   2.36 127.3    4 131 107  36
   2024 06 30 03:50  18 31 28.59    -28 43 50.2   0.0095 1.0261 174.2 N   20?   2.24 128.4    5 133 107  36
   2024 06 30 04:00  18 31 29.88    -28 44 04.0   0.0095 1.0261 174.2 N   20?   2.13 129.5    6 134 108  35
   2024 06 30 04:10  18 31 31.08    -28 44 17.4   0.0095 1.0261 174.2 N   20?   2.02 130.6    8 136 108  35
   2024 06 30 04:20  18 31 32.20    -28 44 30.3   0.0095 1.0261 174.2 A   20?   1.91 131.7    9 138 108  35
   2024 06 30 04:30  18 31 33.24    -28 44 42.8   0.0095 1.0261 174.2 A   20?   1.80 132.8   10 140 108  35
   2024 06 30 04:40  18 31 34.20    -28 44 54.9   0.0095 1.0261 174.2 A   20?   1.69 133.9   12 142 108  35
   2024 06 30 04:50  18 31 35.09    -28 45 06.4   0.0095 1.0261 174.2 A   20?   1.59 134.9   13 143 108  35
   2024 06 30 05:00  18 31 35.91    -28 45 17.4   0.0095 1.0261 174.2     20?   1.49 135.9   14 145 108  35
   2024 06 30 05:10  18 31 36.66    -28 45 27.9   0.0095 1.0261 174.2     20?   1.39 136.9   15 147 108  35
   2024 06 30 05:20  18 31 37.36    -28 45 37.9   0.0095 1.0261 174.2     20?   1.30 137.8   16 149 109  35
   2024 06 30 05:30  18 31 37.99    -28 45 47.2   0.0095 1.0261 174.2     20?   1.21 138.6   17 151 109  35
   2024 06 30 05:40  18 31 38.57    -28 45 56.0   0.0095 1.0261 174.2     20?   1.12 139.2   18 154 109  34
   2024 06 30 05:50  18 31 39.10    -28 46 04.2   0.0095 1.0261 174.2     20?   1.03 139.7   19 156 109  34
   2024 06 30 06:00  18 31 39.58    -28 46 11.8   0.0095 1.0261 174.2     20?   0.95 140.0   20 158 109  34
   2024 06 30 06:10  18 31 40.02    -28 46 18.7   0.0095 1.0261 174.2     20?   0.86 140.0   20 160 109  34
   2024 06 30 06:20  18 31 40.42    -28 46 25.1   0.0095 1.0261 174.2     20?   0.78 139.7   21 162 109  34
   2024 06 30 06:30  18 31 40.79    -28 46 30.7   0.0095 1.0261 174.2     20?   0.71 138.8   21 165 109  34
   2024 06 30 06:40  18 31 41.13    -28 46 35.7   0.0095 1.0261 174.2     20?   0.64 137.3   22 167 109  34
   2024 06 30 06:50  18 31 41.44    -28 46 40.1   0.0095 1.0261 174.2     20?   0.57 134.9   22 169 110  34
   2024 06 30 07:00  18 31 41.74    -28 46 43.8   0.0095 1.0261 174.2     20?   0.50 131.4   23 172 110  34
   2024 06 30 07:10  18 31 42.02    -28 46 46.8   0.0095 1.0261 174.2     20?   0.45 126.4   23 174 110  34
   2024 06 30 07:20  18 31 42.29    -28 46 49.1   0.0095 1.0261 174.2     20?   0.40 119.6   23 176 110  34
   2024 06 30 07:30  18 31 42.55    -28 46 50.8   0.0095 1.0261 174.2     20?   0.37 110.8   23 179 110  33
   2024 06 30 07:40  18 31 42.81    -28 46 51.8   0.0095 1.0261 174.2  t  20?   0.35 100.3   23 181 110  33
   2024 06 30 07:50  18 31 43.08    -28 46 52.1   0.0095 1.0261 174.2     20?   0.35  89.3   23 184 110  33
   2024 06 30 08:00  18 31 43.35    -28 46 51.7   0.0095 1.0261 174.2  m  20?   0.37  78.9   23 186 110  33
   2024 06 30 08:10  18 31 43.64    -28 46 50.7   0.0095 1.0261 174.2  m  20?   0.41  70.2   22 188 110  33
   2024 06 30 08:20  18 31 43.95    -28 46 49.0   0.0095 1.0261 174.2  m  20?   0.46  63.5   22 191 111  33
   2024 06 30 08:30  18 31 44.27    -28 46 46.6   0.0095 1.0261 174.2  m  20?   0.52  58.6   22 193 111  33
   2024 06 30 08:40  18 31 44.63    -28 46 43.5   0.0095 1.0261 174.2  m  20?   0.59  55.1   21 195 111  33
   2024 06 30 08:50  18 31 45.01    -28 46 39.9   0.0095 1.0261 174.2  m  20?   0.66  52.7   21 198 111  33
   2024 06 30 09:00  18 31 45.43    -28 46 35.5   0.0095 1.0261 174.2  m  20?   0.74  51.1   20 200 111  33
   2024 06 30 09:10  18 31 45.89    -28 46 30.6   0.0095 1.0261 174.2  m  20?   0.82  50.1   19 202 111  33
   2024 06 30 09:20  18 31 46.39    -28 46 25.0   0.0095 1.0261 174.2  m  20?   0.91  49.6   18 204 111  33
   2024 06 30 09:30  18 31 46.94    -28 46 18.9   0.0095 1.0261 174.2  m  20?   1.00  49.5   18 206 111  33
   2024 06 30 09:40  18 31 47.55    -28 46 12.1   0.0095 1.0261 174.2  m  20?   1.09  49.6   17 209 111  32
   2024 06 30 09:50  18 31 48.21    -28 46 04.8   0.0095 1.0261 174.2  m  20?   1.19  49.9   16 211 111  32
   2024 06 30 10:00  18 31 48.93    -28 45 56.9   0.0095 1.0261 174.2  m  20?   1.28  50.4   15 213 112  32
   2024 06 30 10:10  18 31 49.72    -28 45 48.5   0.0095 1.0261 174.2  m  20?   1.38  51.0   13 215 112  32
   2024 06 30 10:20  18 31 50.57    -28 45 39.5   0.0095 1.0261 174.2  m  20?   1.49  51.6   12 216 112  32
   2024 06 30 10:30  18 31 51.50    -28 45 30.1   0.0095 1.0261 174.2 Am  20?   1.59  52.4   11 218 112  32
   2024 06 30 10:40  18 31 52.50    -28 45 20.2   0.0095 1.0261 174.2 Am  20?   1.70  53.2   10 220 112  32
   2024 06 30 10:50  18 31 53.58    -28 45 09.8   0.0095 1.0261 174.2 Am  20?   1.81  54.0    9 222 112  32
   2024 06 30 11:00  18 31 54.73    -28 44 58.9   0.0095 1.0261 174.2 Am  20?   1.93  54.9    7 224 112  32
   2024 06 30 11:10  18 31 55.98    -28 44 47.7   0.0095 1.0261 174.2 Nm  20?   2.04  55.8    6 225 112  32
   2024 06 30 11:20  18 31 57.31    -28 44 36.1   0.0095 1.0261 174.2 Nm  20?   2.16  56.7    4 227 112  32
   2024 06 30 11:30  18 31 58.73    -28 44 24.1   0.0095 1.0261 174.2 Nm  20?   2.28  57.6    3 229 112  32
   2024 06 30 11:40  18 32 00.24    -28 44 11.8   0.0095 1.0261 174.2 Nm  20?   2.40  58.5    1 230 112  32
   2024 06 30 11:50  18 32 01.84    -28 43 59.1   0.0095 1.0261 174.2 Cm  20?   2.52  59.4    0 232 112  32
   ................
   

MMS-1 (JPL-ID: -140482)

   Date (UTC) HH:MM   RA              Dec         delta   r     elong SM  mag  '/hr    PA   alt  az moo ill
   ---- -- -- -----  -------------   -----------  ------ ------ ----- --  --- ------ ------ --- --- --- ---
   2024 06 20 08:20  22 34 04.25    -33 34 52.7   155833 1.0167 119.2  m  14?  22.38  48.5    0 134  78  96
   2024 06 20 08:30  22 34 17.20    -33 32 22.9   156198 1.0167 119.1  m  14?  21.74  45.9    1 136  78  96
   2024 06 20 08:40  22 34 29.24    -33 29 50.0   156561 1.0167 119.1  m  15?  21.19  43.2    3 137  78  96
   2024 06 20 08:50  22 34 40.40    -33 27 13.9   156924 1.0167 119.1  m  15?  20.74  40.4    4 139  78  96
   2024 06 20 09:00  22 34 50.73    -33 24 34.2   157286 1.0167 119.0  m  15?  20.37  37.6    5 140  78  96
   2024 06 20 09:10  22 35 00.26    -33 21 50.9   157648 1.0167 119.0  m  15?  20.10  34.7    7 142  78  96
   2024 06 20 09:20  22 35 09.02    -33 19 03.7   158010 1.0167 119.0  m  15?  19.91  31.9    8 144  78  96
   2024 06 20 09:30  22 35 17.04    -33 16 12.4   158372 1.0167 118.9  m  15?  19.81  29.0    9 145  78  96
   2024 06 20 09:40  22 35 24.37    -33 13 17.0   158734 1.0167 118.9  m  15?  19.80  26.3   10 147  78  96
   2024 06 20 09:50  22 35 31.04    -33 10 17.3   159098 1.0167 118.9  m  15?  19.86  23.7   11 149  78  96
   2024 06 20 10:00  22 35 37.09    -33 07 13.1   159462 1.0167 118.9  m  15?  19.99  21.2   12 151  78  96
   2024 06 20 10:10  22 35 42.57    -33 04 04.3   159828 1.0167 118.8  m  15?  20.19  18.9   13 153  78  96
   2024 06 20 10:20  22 35 47.50    -33 00 50.7   160196 1.0167 118.8 Am  15?  20.44  16.7   14 155  78  96
   2024 06 20 10:30  22 35 51.94    -32 57 32.4   160565 1.0167 118.8 Am  15?  20.75  14.8   15 157  78  96
   2024 06 20 10:40  22 35 55.92    -32 54 09.2   160936 1.0167 118.8 Am  15?  21.10  13.0   16 159  78  96
   2024 06 20 10:50  22 35 59.49    -32 50 41.1   161309 1.0167 118.8 A   15?  21.48  11.4   16 161  77  96
   2024 06 20 11:00  22 36 02.68    -32 47 07.9   161685 1.0167 118.7 A   15?  21.89  10.0   17 163  77  96
   2024 06 20 11:10  22 36 05.54    -32 43 29.6   162063 1.0167 118.7 N   15?  22.33   8.8   18 165  77  96
   2024 06 20 11:20  22 36 08.12    -32 39 46.3   162444 1.0167 118.7 N   15?  22.79   7.8   18 167  77  96
   2024 06 20 11:30  22 36 10.45    -32 35 57.8   162828 1.0167 118.7 N   15?  23.26   6.9   18 169  77  96
   2024 06 20 11:40  22 36 12.57    -32 32 04.2   163214 1.0167 118.7 N   15?  23.74   6.2   19 172  77  96
   2024 06 20 11:50  22 36 14.54    -32 28 05.5   163604 1.0167 118.7 C   15?  24.24   5.7   19 174  77  96
   2024 06 20 12:00  22 36 16.39    -32 24 01.6   163996 1.0167 118.7 C   15?  24.73   5.3   19 176  77  96
   ................
   2024 06 21 08:20  23 19 12.34    -24 37 50.8   185806 1.0166 108.3  m  15?  17.38  50.8    0 121  78  99
   2024 06 21 08:30  23 19 21.83    -24 36 00.1   185545 1.0166 108.3  m  15?  16.78  48.3    2 123  78  99
   2024 06 21 08:40  23 19 30.63    -24 34 07.5   185282 1.0166 108.3  m  15?  16.24  45.5    3 125  78  99
   2024 06 21 08:50  23 19 38.75    -24 32 12.6   185020 1.0166 108.2  m  15?  15.77  42.6    5 126  78  99
   2024 06 21 09:00  23 19 46.19    -24 30 15.3   184758 1.0166 108.2  m  15?  15.36  39.5    6 128  78  99
   2024 06 21 09:10  23 19 52.99    -24 28 15.5   184496 1.0166 108.2  m  15?  15.03  36.2    8 129  78  99
   2024 06 21 09:20  23 19 59.14    -24 26 13.0   184235 1.0166 108.1  m  15?  14.77  32.9    9 131  78  99
   2024 06 21 09:30  23 20 04.67    -24 24 07.6   183975 1.0166 108.1  m  15?  14.59  29.5   11 133  78  99
   2024 06 21 09:40  23 20 09.60    -24 21 59.2   183717 1.0166 108.1  m  15?  14.48  26.1   12 135  78  99
   2024 06 21 09:50  23 20 13.94    -24 19 47.6   183460 1.0166 108.1  m  15?  14.46  22.8   14 136  78  99
   2024 06 21 10:00  23 20 17.72    -24 17 32.7   183205 1.0166 108.0  m  15?  14.50  19.5   15 138  78  99
   2024 06 21 10:10  23 20 20.96    -24 15 14.3   182952 1.0166 108.0  m  15?  14.61  16.4   16 140  78  99
   2024 06 21 10:20  23 20 23.69    -24 12 52.3   182702 1.0166 108.0 Am  15?  14.79  13.4   18 142  78  99
   2024 06 21 10:30  23 20 25.92    -24 10 26.6   182455 1.0166 108.0 Am  15?  15.03  10.7   19 144  78  99
   2024 06 21 10:40  23 20 27.68    -24 07 57.0   182210 1.0166 108.0 Am  15?  15.31   8.1   20 146  78  99
   2024 06 21 10:50  23 20 29.00    -24 05 23.4   181969 1.0166 108.0 Am  15?  15.64   5.8   21 149  77  99
   2024 06 21 11:00  23 20 29.91    -24 02 45.8   181731 1.0166 108.0 Am  15?  16.01   3.7   22 151  77  99
   2024 06 21 11:10  23 20 30.44    -24 00 04.0   181497 1.0166 108.0 Nm  15?  16.40   1.8   23 153  77  99
   2024 06 21 11:20  23 20 30.61    -23 57 17.9   181266 1.0166 107.9 Nm  15?  16.82   0.2   24 155  77  99
   2024 06 21 11:30  23 20 30.46    -23 54 27.5   181040 1.0166 107.9 Nm  15?  17.27 358.7   25 158  77  99
   2024 06 21 11:40  23 20 30.01    -23 51 32.7   180817 1.0166 107.9 N   15?  17.73 357.6   26 160  77  99
   2024 06 21 11:50  23 20 29.31    -23 48 33.3   180599 1.0166 107.9 C   15?  18.19 356.6   26 163  77  99
   2024 06 21 12:00  23 20 28.37    -23 45 29.4   180385 1.0166 107.9 C   14?  18.67 355.8   27 165  77  99
   ................
   2024 06 22 08:30  00 08 56.38    -14 05 19.7   129965 1.0164  94.6  m  13?  51.42  50.5    0 108  80  99
   2024 06 22 08:40  00 09 23.22    -13 59 50.0   128983 1.0164  94.4  m  13?  51.11  49.3    2 109  80  99
   2024 06 22 08:50  00 09 49.46    -13 54 14.5   127996 1.0164  94.3  m  13?  50.84  48.2    4 111  80  99
   2024 06 22 09:00  00 10 15.08    -13 48 33.0   127004 1.0164  94.2  m  13?  50.62  47.0    6 112  80  99
   2024 06 22 09:10  00 10 40.10    -13 42 45.1   126006 1.0164  94.0  m  13?  50.44  45.8    8 114  80  99
   2024 06 22 09:20  00 11 04.51    -13 36 50.6   125004 1.0164  93.9  m  13?  50.31  44.6    9 115  80  99
   2024 06 22 09:30  00 11 28.33    -13 30 49.2   123998 1.0164  93.8  m  13?  50.23  43.3   11 117  80  99
   2024 06 22 09:40  00 11 51.56    -13 24 40.6   122987 1.0164  93.7  m  13?  50.21  42.1   13 118  80  99
   2024 06 22 09:50  00 12 14.21    -13 18 24.5   121972 1.0164  93.6  m  13?  50.24  40.8   15 120  81  99
   2024 06 22 10:00  00 12 36.30    -13 12 00.5   120954 1.0164  93.4  m  13?  50.34  39.5   16 122  81  99
   2024 06 22 10:10  00 12 57.83    -13 05 28.3   119932 1.0164  93.3  m  13?  50.49  38.2   18 124  81  99
   2024 06 22 10:20  00 13 18.83    -12 58 47.7   118906 1.0164  93.2 Am  13?  50.72  36.9   20 125  81  99
   2024 06 22 10:30  00 13 39.30    -12 51 58.3   117878 1.0163  93.1 Am  13?  51.01  35.7   21 127  81  99
   2024 06 22 10:40  00 13 59.28    -12 44 59.8   116846 1.0163  93.0 Am  13?  51.37  34.4   23 129  81  99
   2024 06 22 10:50  00 14 18.77    -12 37 51.8   115811 1.0163  92.9 Am  13?  51.79  33.2   25 131  81  99
   2024 06 22 11:00  00 14 37.82    -12 30 34.0   114774 1.0163  92.8 Am  13?  52.29  32.0   26 133  81  99
   2024 06 22 11:10  00 14 56.43    -12 23 06.0   113734 1.0163  92.6 Nm  13?  52.86  30.9   28 135  81  99
   2024 06 22 11:20  00 15 14.63    -12 15 27.5   112692 1.0163  92.5 Nm  13?  53.51  29.8   29 137  81  99
   2024 06 22 11:30  00 15 32.47    -12 07 38.2   111647 1.0163  92.4 Nm  13?  54.22  28.8   30 140  81  99
   2024 06 22 11:40  00 15 49.97    -11 59 37.7   110600 1.0163  92.3 Nm  13?  55.01  27.8   32 142  81  99
   2024 06 22 11:50  00 16 07.16    -11 51 25.6   109551 1.0163  92.2 Cm  13?  55.87  26.8   33 144  81  99
   2024 06 22 12:00  00 16 24.08    -11 43 01.5   108500 1.0163  92.1 Cm  13?  56.80  26.0   34 147  81  99
   ................
   2024 06 23 08:10  21 41 28.87    -42 24 17.4    97427 1.0168 132.3  m  14?  69.96  48.4    0 148  31  97
   2024 06 23 08:20  21 42 15.24    -42 16 33.3    98411 1.0168 132.2  m  14?  68.16  47.0    1 149  31  97
   2024 06 23 08:30  21 42 59.39    -42 08 48.9    99386 1.0168 132.1  m  14?  66.52  45.7    2 151  31  97
   2024 06 23 08:40  21 43 41.43    -42 01 03.9   100354 1.0168 132.0  m  14?  65.03  44.3    3 152  31  97
   2024 06 23 08:50  21 44 21.50    -41 53 18.1   101314 1.0168 131.9  m  14?  63.70  42.9    4 154  31  97
   2024 06 23 09:00  21 44 59.72    -41 45 31.1   102266 1.0168 131.8  m  14?  62.50  41.5    5 155  31  97
   2024 06 23 09:10  21 45 36.20    -41 37 42.6   103213 1.0168 131.7  m  14?  61.44  40.2    5 157  31  97
   2024 06 23 09:20  21 46 11.06    -41 29 52.5   104153 1.0168 131.6  m  14?  60.51  38.9    6 158  31  97
   2024 06 23 09:30  21 46 44.40    -41 22 00.6   105087 1.0168 131.5  m  14?  59.69  37.6    7 160  31  97
   2024 06 23 09:40  21 47 16.33    -41 14 06.6   106016 1.0168 131.4  m  14?  58.98  36.3    8 162  31  97
   2024 06 23 09:50  21 47 46.95    -41 06 10.3   106940 1.0168 131.3  m  14?  58.38  35.2    8 163  31  97
   2024 06 23 10:00  21 48 16.37    -40 58 11.7   107859 1.0168 131.3  m  14?  57.88  34.0    9 165  31  97
   2024 06 23 10:10  21 48 44.68    -40 50 10.7   108774 1.0168 131.2  m  14?  57.46  32.9   10 167  31  97
   2024 06 23 10:20  21 49 11.97    -40 42 07.1   109684 1.0168 131.1 Am  14?  57.12  31.9   10 168  31  97
   2024 06 23 10:30  21 49 38.33    -40 34 00.8   110591 1.0168 131.0 Am  14?  56.85  31.0   11 170  31  97
   2024 06 23 10:40  21 50 03.85    -40 25 51.9   111495 1.0169 131.0 Am  14?  56.65  30.1   11 172  31  97
   2024 06 23 10:50  21 50 28.63    -40 17 40.2   112395 1.0169 130.9 Am  14?  56.52  29.3   11 174  31  97
   2024 06 23 11:00  21 50 52.73    -40 09 25.9   113293 1.0169 130.8 Am  14?  56.43  28.6   12 176  31  97
   2024 06 23 11:10  21 51 16.23    -40 01 08.8   114187 1.0169 130.8 Nm  14?  56.39  27.9   12 178  31  97
   2024 06 23 11:20  21 51 39.23    -39 52 49.1   115079 1.0169 130.7 Nt  14?  56.40  27.4   12 180  31  97
   2024 06 23 11:30  21 52 01.78    -39 44 26.7   115969 1.0169 130.6 Nm  14?  56.44  26.9   12 182  31  97
   2024 06 23 11:40  21 52 23.96    -39 36 01.8   116857 1.0169 130.6 Nm  14?  56.51  26.4   12 183  31  97
   2024 06 23 11:50  21 52 45.84    -39 27 34.5   117743 1.0169 130.5 Ce  14?  56.62  26.1   12 185  31  97
   2024 06 23 12:00  21 53 07.48    -39 19 04.7   118627 1.0169 130.5 Cm  14?  56.74  25.8   12 187  31  97
   ................
   2024 06 24 08:00  22 57 40.56    -28 59 06.1   180571 1.0170 116.8  r  15?  16.57  51.0    0 127  34  93
   2024 06 24 08:10  22 57 50.02    -28 57 20.5   180614 1.0170 116.7  m  15?  15.95  48.1    1 128  34  93
   2024 06 24 08:20  22 57 58.73    -28 55 32.5   180657 1.0170 116.7  m  15?  15.41  45.1    2 130  34  93
   2024 06 24 08:30  22 58 06.71    -28 53 42.0   180700 1.0170 116.7  m  15?  14.94  41.8    4 131  34  93
   2024 06 24 08:40  22 58 13.97    -28 51 48.9   180743 1.0170 116.7  m  15?  14.56  38.4    5 133  34  93
   2024 06 24 08:50  22 58 20.54    -28 49 52.9   180787 1.0170 116.6  m  15?  14.26  34.8    7 135  34  93
   2024 06 24 09:00  22 58 26.43    -28 47 54.0   180831 1.0170 116.6  m  15?  14.05  31.2    8 136  33  93
   2024 06 24 09:10  22 58 31.67    -28 45 51.8   180877 1.0170 116.6  m  15?  13.92  27.5    9 138  33  93
   2024 06 24 09:20  22 58 36.29    -28 43 46.3   180924 1.0170 116.6  m  15?  13.88  23.9   11 140  33  93
   2024 06 24 09:30  22 58 40.31    -28 41 37.2   180972 1.0170 116.6  m  15?  13.92  20.5   12 142  33  93
   2024 06 24 09:40  22 58 43.76    -28 39 24.6   181023 1.0170 116.5  m  15?  14.04  17.1   13 143  33  93
   2024 06 24 09:50  22 58 46.66    -28 37 08.1   181075 1.0170 116.5  m  15?  14.22  14.0   14 145  33  93
   2024 06 24 10:00  22 58 49.05    -28 34 47.7   181131 1.0170 116.5  m  15?  14.47  11.1   15 147  33  92
   2024 06 24 10:10  22 58 50.94    -28 32 23.3   181189 1.0170 116.5  m  15?  14.77   8.4   16 149  33  92
   2024 06 24 10:20  22 58 52.39    -28 29 54.7   181249 1.0170 116.5 Am  15?  15.11   6.0   17 151  33  92
   2024 06 24 10:30  22 58 53.40    -28 27 21.8   181313 1.0170 116.5 Am  15?  15.49   3.8   18 153  33  92
   2024 06 24 10:40  22 58 54.03    -28 24 44.6   181381 1.0170 116.5 Am  15?  15.91   2.0   19 156  33  92
   2024 06 24 10:50  22 58 54.29    -28 22 03.0   181451 1.0170 116.5 Am  15?  16.35   0.3   20 158  33  92
   2024 06 24 11:00  22 58 54.23    -28 19 16.8   181526 1.0170 116.5 Am  15?  16.80 358.9   21 160  33  92
   2024 06 24 11:10  22 58 53.88    -28 16 26.1   181604 1.0170 116.5 Nm  15?  17.28 357.7   21 162  33  92
   2024 06 24 11:20  22 58 53.28    -28 13 30.7   181686 1.0170 116.5 Nm  15?  17.76 356.7   22 165  33  92
   2024 06 24 11:30  22 58 52.45    -28 10 30.6   181773 1.0170 116.5 Nm  15?  18.24 356.0   23 167  33  92
   2024 06 24 11:40  22 58 51.43    -28 07 25.9   181864 1.0170 116.5 Nm  15?  18.73 355.4   23 169  33  92
   2024 06 24 11:50  22 58 50.27    -28 04 16.4   181959 1.0170 116.5 Cm  15?  19.22 355.0   23 172  33  92
   2024 06 24 12:00  22 58 48.99    -28 01 02.2   182058 1.0170 116.5 Cm  15?  19.70 354.7   24 174  33  92
   ................
   2024 06 25 08:10  23 38 02.56    -20 32 11.3   171878 1.0168 106.5  m  14?  23.20  50.0    0 116  31  86
   2024 06 25 08:20  23 38 14.80    -20 29 40.8   171335 1.0168 106.5  m  14?  22.61  48.0    2 118  31  86
   2024 06 25 08:30  23 38 26.35    -20 27 08.0   170790 1.0168 106.4  m  14?  22.06  45.8    4 119  31  86
   2024 06 25 08:40  23 38 37.21    -20 24 32.7   170244 1.0168 106.4  m  14?  21.56  43.5    6 121  31  86
   2024 06 25 08:50  23 38 47.39    -20 21 54.8   169697 1.0168 106.3  m  14?  21.12  41.2    7 123  31  86
   2024 06 25 09:00  23 38 56.89    -20 19 14.0   169149 1.0168 106.3  m  14?  20.74  38.7    9 124  31  86
   2024 06 25 09:10  23 39 05.73    -20 16 30.3   168602 1.0168 106.2  m  14?  20.43  36.2   10 126  31  86
   2024 06 25 09:20  23 39 13.92    -20 13 43.5   168054 1.0168 106.2  m  14?  20.18  33.5   12 128  31  86
   2024 06 25 09:30  23 39 21.48    -20 10 53.4   167507 1.0168 106.1  m  14?  20.00  30.9   14 129  31  86
   2024 06 25 09:40  23 39 28.42    -20 07 59.8   166960 1.0168 106.1  m  14?  19.88  28.3   15 131  31  86
   2024 06 25 09:50  23 39 34.76    -20 05 02.5   166414 1.0168 106.1  m  14?  19.84  25.7   17 133  31  86
   2024 06 25 10:00  23 39 40.51    -20 02 01.5   165870 1.0168 106.0  m  14?  19.86  23.1   18 135  31  86
   2024 06 25 10:10  23 39 45.70    -19 58 56.6   165327 1.0168 106.0  m  14?  19.94  20.6   19 137  31  86
   2024 06 25 10:20  23 39 50.35    -19 55 47.6   164786 1.0168 106.0 Am  14?  20.08  18.2   21 139  31  86
   2024 06 25 10:30  23 39 54.48    -19 52 34.3   164247 1.0168 106.0 Am  14?  20.28  15.9   22 141  31  86
   2024 06 25 10:40  23 39 58.12    -19 49 16.7   163710 1.0168 105.9 Am  14?  20.54  13.7   23 143  31  85
   2024 06 25 10:50  23 40 01.29    -19 45 54.7   163175 1.0168 105.9 Am  14?  20.84  11.7   25 146  31  85
   2024 06 25 11:00  23 40 04.02    -19 42 28.0   162644 1.0168 105.9 Am  14?  21.19   9.9   26 148  31  85
   2024 06 25 11:10  23 40 06.33    -19 38 56.6   162115 1.0168 105.9 Nm  14?  21.57   8.2   27 150  30  85
   2024 06 25 11:20  23 40 08.26    -19 35 20.3   161589 1.0168 105.8 Nm  14?  21.99   6.7   28 153  30  85
   2024 06 25 11:30  23 40 09.83    -19 31 39.1   161066 1.0168 105.8 Nm  14?  22.44   5.3   29 155  30  85
   2024 06 25 11:40  23 40 11.08    -19 27 52.9   160546 1.0168 105.8 Nm  14?  22.91   4.1   29 158  30  85
   2024 06 25 11:50  23 40 12.05    -19 24 01.6   160030 1.0168 105.8 Cm  14?  23.40   3.1   30 160  30  85
   2024 06 25 12:00  23 40 12.75    -19 20 05.0   159517 1.0168 105.8 Cm  14?  23.91   2.2   31 163  30  85
   ................
   2024 06 26 08:40  01 36 04.22    +03 02 03.7    49513 1.0164  71.6  r  12? 446.30  55.9    0  85  51  77
   2024 06 26 08:50  01 40 20.51    +03 45 19.9    47484 1.0164  70.4  m  12? 482.78  56.1    1  85  52  77
   2024 06 26 09:00  01 44 59.44    +04 32 01.6    45419 1.0164  69.0  m  12? 525.24  56.3    2  86  54  77
   2024 06 26 09:10  01 50 05.19    +05 22 37.9    43317 1.0164  67.5  m  12? 575.10  56.6    4  86  55  77
   2024 06 26 09:20  01 55 43.03    +06 17 43.5    41175 1.0164  65.9  m  11? 634.24  57.0    5  86  57  77
   2024 06 26 09:30  02 01 59.73    +07 18 00.3    38993 1.0164  64.0  m  11? 705.20  57.5    6  85  59  77
   2024 06 26 09:40  02 09 04.16    +08 24 19.0    36769 1.0164  62.0  m  11? 791.44  58.2    8  85  61  77
   2024 06 26 09:50  02 17 08.15    +09 37 41.2    34502 1.0164  59.7  m  11? 897.78  58.9    9  84  63  77
   2024 06 26 10:00  02 26 27.81    +10 59 21.4    32191 1.0164  57.1  m  11? 1031.1  59.9   10  83  65  77
   2024 06 26 10:10  02 37 25.64    +12 30 48.4    29839 1.0164  54.0  m  11? 1201.5  61.1   10  82  68  77
   2024 06 26 10:20  02 50 33.92    +14 13 44.1    27448 1.0164  50.5  m  11? 1424.0  62.6   11  80  72  77
   2024 06 26 10:30  03 06 40.42    +16 09 53.7    25025 1.0164  46.2 Ae  11? 1721.7  64.6   11  78  76  77
   2024 06 26 10:40  03 26 57.94    +18 20 31.6    22585 1.0164  40.9 Am  11? 2130.5  67.2   10  74  81  77
   2024 06 26 10:50  03 53 20.46    +20 44 41.6    20156 1.0164  34.3 Am  11? 2706.9  70.8    8  70  88  77
   2024 06 26 11:00  04 28 47.64    +23 14 36.2    17792 1.0164  25.9 Am  11? 3536.2  75.7    5  64  96  76
   2024 06 26 11:10  05 17 47.52    +25 23 31.4    15597 1.0164  14.7 Nm  11? 4725.9  82.8    0  57 108  76
   ................
   2024 06 27 07:50  22 31 01.03    -34 13 15.6   151012 1.0172 125.8  m  15?  23.70  47.5    0 135  27  67
   2024 06 27 08:00  22 31 14.67    -34 10 34.3   151427 1.0172 125.8  m  15?  23.05  44.9    1 136  27  67
   2024 06 27 08:10  22 31 27.36    -34 07 49.9   151841 1.0172 125.7  m  15?  22.49  42.3    2 138  27  67
   2024 06 27 08:20  22 31 39.14    -34 05 02.1   152254 1.0172 125.7  m  15?  22.02  39.6    4 139  27  67
   2024 06 27 08:30  22 31 50.04    -34 02 10.9   152665 1.0172 125.6  m  15?  21.65  36.8    5 141  27  67
   2024 06 27 08:40  22 32 00.10    -33 59 15.9   153077 1.0172 125.6  m  15?  21.37  34.0    6 142  27  67
   2024 06 27 08:50  22 32 09.35    -33 56 17.1   153487 1.0172 125.6  m  15?  21.18  31.2    7 144  27  67
   2024 06 27 09:00  22 32 17.84    -33 53 14.2   153898 1.0172 125.6  m  15?  21.08  28.5    8 146  27  67
   2024 06 27 09:10  22 32 25.61    -33 50 07.1   154309 1.0172 125.5  m  15?  21.06  25.9   10 148  27  67
   2024 06 27 09:20  22 32 32.69    -33 46 55.6   154720 1.0172 125.5  m  15?  21.12  23.3   11 149  27  67
   2024 06 27 09:30  22 32 39.12    -33 43 39.6   155132 1.0172 125.5  m  15?  21.25  20.9   12 151  27  67
   2024 06 27 09:40  22 32 44.95    -33 40 18.9   155546 1.0172 125.5  m  15?  21.45  18.7   13 153  27  66
   2024 06 27 09:50  22 32 50.22    -33 36 53.6   155960 1.0172 125.4  m  15?  21.70  16.6   13 155  27  66
   2024 06 27 10:00  22 32 54.97    -33 33 23.3   156376 1.0172 125.4  m  15?  22.00  14.7   14 157  27  66
   2024 06 27 10:10  22 32 59.25    -33 29 48.2   156793 1.0172 125.4  m  15?  22.35  13.0   15 159  27  66
   2024 06 27 10:20  22 33 03.10    -33 26 08.0   157213 1.0172 125.4  m  15?  22.73  11.4   16 161  27  66
   2024 06 27 10:30  22 33 06.57    -33 22 22.7   157634 1.0172 125.4 Am  15?  23.15  10.1   16 163  27  66
   2024 06 27 10:40  22 33 09.69    -33 18 32.4   158058 1.0172 125.4 Am  15?  23.59   8.9   17 165  27  66
   2024 06 27 10:50  22 33 12.51    -33 14 36.9   158484 1.0172 125.4 Am  15?  24.05   7.9   17 167  27  66
   2024 06 27 11:00  22 33 15.07    -33 10 36.3   158912 1.0172 125.3 Am  15?  24.52   7.1   18 170  27  66
   2024 06 27 11:10  22 33 17.43    -33 06 30.5   159344 1.0172 125.3 Nm  15?  25.00   6.4   18 172  27  66
   2024 06 27 11:20  22 33 19.62    -33 02 19.5   159778 1.0172 125.3 Nm  15?  25.49   5.9   19 174  27  66
   2024 06 27 11:30  22 33 21.69    -32 58 03.5   160214 1.0172 125.3 Nm  15?  25.99   5.5   19 176  27  66
   2024 06 27 11:40  22 33 23.68    -32 53 42.3   160654 1.0172 125.3 Nm  15?  26.49   5.2   19 178  27  66
   2024 06 27 11:50  22 33 25.64    -32 49 16.1   161097 1.0172 125.3 Ct  15?  26.98   5.1   19 181  27  66
   2024 06 27 12:00  22 33 27.60    -32 44 44.9   161542 1.0172 125.3 Ce  15?  27.48   5.1   19 183  27  66
   ................
   2024 06 28 07:50  23 16 29.90    -25 02 54.2   186616 1.0171 115.3  m  15?  16.67  50.1    0 122  25  56
   2024 06 28 08:00  23 16 38.96    -25 01 05.9   186391 1.0171 115.2  m  15?  16.08  47.4    1 123  25  56
   2024 06 28 08:10  23 16 47.33    -24 59 15.6   186166 1.0171 115.2  m  15?  15.55  44.5    3 125  25  56
   2024 06 28 08:20  23 16 55.01    -24 57 23.1   185941 1.0171 115.2  m  15?  15.09  41.4    5 126  25  56
   2024 06 28 08:30  23 17 02.01    -24 55 28.3   185715 1.0171 115.2  m  15?  14.70  38.1    6 128  25  56
   2024 06 28 08:40  23 17 08.36    -24 53 30.9   185491 1.0171 115.1  m  15?  14.39  34.7    8 130  25  56
   2024 06 28 08:50  23 17 14.07    -24 51 30.8   185267 1.0171 115.1  m  15?  14.15  31.2    9 131  25  56
   2024 06 28 09:00  23 17 19.16    -24 49 27.8   185044 1.0171 115.1  m  15?  14.00  27.7   11 133  25  55
   2024 06 28 09:10  23 17 23.64    -24 47 21.9   184823 1.0171 115.1  m  15?  13.92  24.1   12 135  25  55
   2024 06 28 09:20  23 17 27.54    -24 45 12.8   184603 1.0171 115.0  m  15?  13.92  20.6   13 137  25  55
   2024 06 28 09:30  23 17 30.88    -24 43 00.3   184386 1.0171 115.0  m  15?  14.00  17.3   15 139  25  55
   2024 06 28 09:40  23 17 33.67    -24 40 44.5   184170 1.0171 115.0  m  15?  14.14  14.1   16 141  25  55
   2024 06 28 09:50  23 17 35.95    -24 38 25.0   183958 1.0171 115.0  m  15?  14.35  11.1   17 143  25  55
   2024 06 28 10:00  23 17 37.74    -24 36 01.8   183748 1.0171 115.0  m  15?  14.61   8.3   19 145  25  55
   2024 06 28 10:10  23 17 39.06    -24 33 34.8   183541 1.0171 115.0  m  15?  14.92   5.7   20 147  25  55
   2024 06 28 10:20  23 17 39.95    -24 31 03.8   183337 1.0171 115.0  m  15?  15.28   3.4   21 149  26  55
   2024 06 28 10:30  23 17 40.42    -24 28 28.8   183136 1.0171 115.0 Am  15?  15.66   1.3   22 151  26  55
   2024 06 28 10:40  23 17 40.51    -24 25 49.6   182940 1.0171 115.0 Am  15?  16.08 359.5   23 153  26  55
   2024 06 28 10:50  23 17 40.25    -24 23 06.2   182747 1.0171 115.0 Am  15?  16.52 357.9   24 156  26  55
   2024 06 28 11:00  23 17 39.67    -24 20 18.5   182558 1.0171 115.0 Am  15?  16.97 356.5   24 158  26  55
   2024 06 28 11:10  23 17 38.79    -24 17 26.3   182374 1.0171 115.0 Nm  15?  17.44 355.4   25 160  26  55
   2024 06 28 11:20  23 17 37.66    -24 14 29.8   182193 1.0171 114.9 Nm  15?  17.91 354.4   26 163  26  55
   2024 06 28 11:30  23 17 36.31    -24 11 28.6   182017 1.0171 114.9 Nm  15?  18.40 353.7   26 165  26  55
   2024 06 28 11:40  23 17 34.76    -24 08 23.0   181846 1.0171 114.9 Nm  15?  18.88 353.1   27 168  26  54
   2024 06 28 11:50  23 17 33.06    -24 05 12.7   181679 1.0171 114.9 Cm  15?  19.36 352.7   27 170  26  54
   2024 06 28 12:00  23 17 31.23    -24 01 57.8   181517 1.0171 114.9 Cm  15?  19.84 352.4   28 173  26  54
   ................
   2024 06 29 08:00  00 02 56.50    -14 59 56.3   137453 1.0168 102.7  m  14?  44.10  49.7    0 109  23  44
   2024 06 29 08:10  00 03 19.40    -14 55 07.6   136543 1.0168 102.6  m  14?  43.69  48.4    2 111  23  44
   2024 06 29 08:20  00 03 41.63    -14 50 14.3   135628 1.0168 102.5  m  14?  43.31  47.1    4 112  23  44
   2024 06 29 08:30  00 04 03.21    -14 45 16.0   134709 1.0168 102.4  m  14?  42.98  45.8    6 114  23  44
   2024 06 29 08:40  00 04 24.13    -14 40 12.5   133786 1.0168 102.3  m  14?  42.69  44.4    8 115  23  44
   2024 06 29 08:50  00 04 44.40    -14 35 03.7   132859 1.0168 102.2  m  14?  42.44  43.0   10 117  23  44
   2024 06 29 09:00  00 05 04.02    -14 29 49.1   131928 1.0168 102.1  m  14?  42.25  41.5   11 118  23  44
   2024 06 29 09:10  00 05 23.01    -14 24 28.7   130995 1.0168 102.0  m  14?  42.12  40.0   13 120  23  44
   2024 06 29 09:20  00 05 41.36    -14 19 02.0   130058 1.0168 101.9  m  14?  42.04  38.6   15 122  22  44
   2024 06 29 09:30  00 05 59.11    -14 13 29.0   129119 1.0168 101.8  m  14?  42.02  37.1   16 123  22  44
   2024 06 29 09:40  00 06 16.24    -14 07 49.3   128177 1.0168 101.7  m  14?  42.06  35.6   18 125  22  44
   2024 06 29 09:50  00 06 32.79    -14 02 02.6   127233 1.0168 101.6  m  14?  42.16  34.1   20 127  22  44
   2024 06 29 10:00  00 06 48.77    -13 56 08.7   126287 1.0168 101.5  m  14?  42.32  32.6   21 129  22  43
   2024 06 29 10:10  00 07 04.19    -13 50 07.4   125339 1.0168 101.4  m  14?  42.55  31.2   23 131  22  43
   2024 06 29 10:20  00 07 19.08    -13 43 58.4   124390 1.0168 101.3  m  14?  42.85  29.8   24 133  22  43
   2024 06 29 10:30  00 07 33.45    -13 37 41.3   123439 1.0168 101.3 Am  14?  43.20  28.4   26 135  22  43
   2024 06 29 10:40  00 07 47.34    -13 31 16.1   122487 1.0168 101.2 Am  13?  43.63  27.1   27 137  22  43
   2024 06 29 10:50  00 08 00.77    -13 24 42.3   121533 1.0168 101.1 Am  13?  44.11  25.9   29 139  22  43
   2024 06 29 11:00  00 08 13.76    -13 17 59.7   120579 1.0168 101.0 Am  13?  44.66  24.7   30 141  22  43
   2024 06 29 11:10  00 08 26.35    -13 11 08.1   119623 1.0168 100.9 Nm  13?  45.26  23.5   31 144  22  43
   2024 06 29 11:20  00 08 38.57    -13 04 07.3   118667 1.0168 100.8 Nm  13?  45.93  22.5   32 146  22  43
   2024 06 29 11:30  00 08 50.45    -12 56 56.8   117710 1.0168 100.8 Nm  13?  46.66  21.5   34 149  22  43
   2024 06 29 11:40  00 09 02.02    -12 49 36.6   116752 1.0168 100.7 Nm  13?  47.44  20.6   35 151  22  43
   2024 06 29 11:50  00 09 13.33    -12 42 06.2   115794 1.0168 100.6 Cm  13?  48.28  19.8   36 154  22  43
   2024 06 29 12:00  00 09 24.42    -12 34 25.5   114835 1.0168 100.5 Cm  13?  49.17  19.1   36 157  22  43
   ................
   2024 06 30 07:50  21 29 36.97    -44 25 14.5    86902 1.0171 139.0     14?  92.26  47.5    0 152  79  33
   2024 06 30 08:00  21 30 38.87    -44 14 55.7    88020 1.0171 138.9  m  14?  89.66  46.3    1 153  79  33
   2024 06 30 08:10  21 31 37.73    -44 04 40.7    89127 1.0171 138.8  m  14?  87.28  45.2    2 155  79  33
   2024 06 30 08:20  21 32 33.77    -43 54 29.0    90222 1.0171 138.7  m  14?  85.10  44.0    3 156  79  33
   2024 06 30 08:30  21 33 27.15    -43 44 20.1    91308 1.0171 138.6  m  14?  83.12  42.8    3 158  79  33
   2024 06 30 08:40  21 34 18.07    -43 34 13.6    92384 1.0171 138.5  m  14?  81.32  41.7    4 159  78  33
   2024 06 30 08:50  21 35 06.69    -43 24 09.1    93451 1.0171 138.4  m  14?  79.69  40.5    5 160  78  33
   2024 06 30 09:00  21 35 53.17    -43 14 06.1    94510 1.0171 138.3  m  14?  78.22  39.4    6 162  78  33
   2024 06 30 09:10  21 36 37.66    -43 04 04.5    95561 1.0171 138.2  m  14?  76.90  38.4    6 164  78  33
   2024 06 30 09:20  21 37 20.31    -42 54 03.8    96604 1.0172 138.1  m  14?  75.71  37.3    7 165  78  33
   2024 06 30 09:30  21 38 01.26    -42 44 03.8    97640 1.0172 138.1  m  14?  74.65  36.3    8 167  78  33
   2024 06 30 09:40  21 38 40.64    -42 34 04.3    98669 1.0172 138.0  m  14?  73.71  35.4    8 169  78  32
   2024 06 30 09:50  21 39 18.58    -42 24 05.1    99692 1.0172 137.9  m  14?  72.88  34.5    9 170  78  32
   2024 06 30 10:00  21 39 55.20    -42 14 06.0   100709 1.0172 137.8  m  14?  72.15  33.7    9 172  78  32
   2024 06 30 10:10  21 40 30.62    -42 04 06.8   101720 1.0172 137.8  m  14?  71.51  32.9    9 174  78  32
   2024 06 30 10:20  21 41 04.94    -41 54 07.6   102726 1.0172 137.7  m  14?  70.95  32.1   10 175  77  32
   2024 06 30 10:30  21 41 38.27    -41 44 08.1   103728 1.0172 137.6 Am  14?  70.47  31.5   10 177  77  32
   2024 06 30 10:40  21 42 10.72    -41 34 08.3   104724 1.0172 137.6 Am  14?  70.06  30.9   10 179  77  32
   2024 06 30 10:50  21 42 42.38    -41 24 08.2   105717 1.0172 137.5 At  14?  69.70  30.3   10 181  77  32
   2024 06 30 11:00  21 43 13.34    -41 14 07.8   106705 1.0172 137.5 Am  14?  69.41  29.9   11 183  77  32
   2024 06 30 11:10  21 43 43.69    -41 04 07.1   107689 1.0172 137.4 Nm  14?  69.16  29.5   11 184  77  32
   2024 06 30 11:20  21 44 13.51    -40 54 06.1   108670 1.0172 137.3 Ne  14?  68.95  29.1   11 186  77  32
   2024 06 30 11:30  21 44 42.89    -40 44 04.8   109647 1.0172 137.3 Nm  14?  68.79  28.8   10 188  77  32
   2024 06 30 11:40  21 45 11.90    -40 34 03.3   110621 1.0172 137.2 Nm  14?  68.66  28.6   10 190  77  32
   2024 06 30 11:50  21 45 40.62    -40 24 01.8   111592 1.0172 137.2 Cm  14?  68.55  28.4   10 192  77  32
   2024 06 30 12:00  21 46 09.11    -40 14 00.3   112560 1.0172 137.1 Cm  14?  68.48  28.3   10 194  77  32
   ................
   

MMS-2 (JPL-ID: -140483)

   Date (UTC) HH:MM   RA              Dec         delta   r     elong SM  mag  '/hr    PA   alt  az moo ill
   ---- -- -- -----  -------------   -----------  ------ ------ ----- --  --- ------ ------ --- --- --- ---
   2024 06 20 08:20  22 33 58.54    -33 35 56.6   155716 1.0167 119.2  m  14?  22.42  48.5    0 134  78  96
   2024 06 20 08:30  22 34 11.51    -33 33 26.5   156082 1.0167 119.2  m  14?  21.78  45.9    1 136  78  96
   2024 06 20 08:40  22 34 23.57    -33 30 53.3   156447 1.0167 119.1  m  15?  21.23  43.2    3 137  78  96
   2024 06 20 08:50  22 34 34.76    -33 28 16.8   156811 1.0167 119.1  m  15?  20.77  40.4    4 139  78  96
   2024 06 20 09:00  22 34 45.12    -33 25 36.9   157174 1.0167 119.0  m  15?  20.41  37.6    5 140  78  96
   2024 06 20 09:10  22 34 54.66    -33 22 53.3   157537 1.0167 119.0  m  15?  20.13  34.7    7 142  78  96
   2024 06 20 09:20  22 35 03.44    -33 20 05.8   157900 1.0167 119.0  m  15?  19.95  31.9    8 144  78  96
   2024 06 20 09:30  22 35 11.49    -33 17 14.2   158264 1.0167 118.9  m  15?  19.85  29.1    9 145  78  96
   2024 06 20 09:40  22 35 18.83    -33 14 18.5   158628 1.0167 118.9  m  15?  19.84  26.3   10 147  78  96
   2024 06 20 09:50  22 35 25.53    -33 11 18.5   158992 1.0167 118.9  m  15?  19.90  23.7   11 149  78  96
   2024 06 20 10:00  22 35 31.60    -33 08 14.0   159358 1.0167 118.9  m  15?  20.03  21.2   12 151  78  96
   2024 06 20 10:10  22 35 37.09    -33 05 04.9   159725 1.0167 118.8  m  15?  20.23  18.9   13 153  78  96
   2024 06 20 10:20  22 35 42.04    -33 01 51.1   160094 1.0167 118.8 Am  15?  20.48  16.8   14 155  78  96
   2024 06 20 10:30  22 35 46.50    -32 58 32.4   160464 1.0167 118.8 Am  15?  20.78  14.8   15 157  78  96
   2024 06 20 10:40  22 35 50.50    -32 55 08.9   160836 1.0167 118.8 Am  15?  21.13  13.0   16 159  78  96
   2024 06 20 10:50  22 35 54.08    -32 51 40.5   161211 1.0167 118.8 A   15?  21.51  11.4   16 161  77  96
   2024 06 20 11:00  22 35 57.29    -32 48 07.0   161588 1.0167 118.8 A   15?  21.93  10.0   17 163  77  96
   2024 06 20 11:10  22 36 00.17    -32 44 28.4   161967 1.0167 118.7 N   15?  22.37   8.8   18 165  77  96
   2024 06 20 11:20  22 36 02.76    -32 40 44.7   162349 1.0167 118.7 N   15?  22.82   7.8   18 167  77  96
   2024 06 20 11:30  22 36 05.11    -32 36 55.9   162734 1.0167 118.7 N   15?  23.30   7.0   18 169  77  96
   2024 06 20 11:40  22 36 07.26    -32 33 02.0   163121 1.0167 118.7 N   15?  23.78   6.3   19 172  77  96
   2024 06 20 11:50  22 36 09.24    -32 29 02.9   163512 1.0167 118.7 C   15?  24.27   5.7   19 174  77  96
   2024 06 20 12:00  22 36 11.11    -32 24 58.8   163906 1.0167 118.7 C   15?  24.77   5.3   19 176  77  96
   ................
   2024 06 21 08:20  23 19 08.70    -24 38 36.4   185823 1.0166 108.3  m  15?  17.36  50.8    0 121  78  99
   2024 06 21 08:30  23 19 18.19    -24 36 45.8   185562 1.0166 108.3  m  15?  16.77  48.3    2 123  78  99
   2024 06 21 08:40  23 19 26.98    -24 34 53.2   185301 1.0166 108.3  m  15?  16.23  45.5    3 125  78  99
   2024 06 21 08:50  23 19 35.09    -24 32 58.4   185039 1.0166 108.2  m  15?  15.75  42.6    5 126  78  99
   2024 06 21 09:00  23 19 42.53    -24 31 01.2   184778 1.0166 108.2  m  15?  15.35  39.5    6 128  78  99
   2024 06 21 09:10  23 19 49.32    -24 29 01.5   184517 1.0166 108.2  m  15?  15.02  36.2    8 129  78  99
   2024 06 21 09:20  23 19 55.47    -24 26 59.0   184257 1.0166 108.1  m  15?  14.76  32.9    9 131  78  99
   2024 06 21 09:30  23 20 00.99    -24 24 53.7   183998 1.0166 108.1  m  15?  14.58  29.5   11 133  78  99
   2024 06 21 09:40  23 20 05.92    -24 22 45.3   183740 1.0166 108.1  m  15?  14.47  26.1   12 135  78  99
   2024 06 21 09:50  23 20 10.25    -24 20 33.8   183484 1.0166 108.1  m  15?  14.45  22.8   14 136  78  99
   2024 06 21 10:00  23 20 14.03    -24 18 18.9   183230 1.0166 108.1  m  15?  14.49  19.5   15 138  78  99
   2024 06 21 10:10  23 20 17.26    -24 16 00.6   182978 1.0166 108.0  m  15?  14.61  16.4   16 140  78  99
   2024 06 21 10:20  23 20 19.98    -24 13 38.6   182729 1.0166 108.0 Am  15?  14.78  13.4   18 142  78  99
   2024 06 21 10:30  23 20 22.21    -24 11 13.0   182483 1.0166 108.0 Am  15?  15.02  10.6   19 144  78  99
   2024 06 21 10:40  23 20 23.96    -24 08 43.4   182239 1.0166 108.0 Am  15?  15.30   8.1   20 146  77  99
   2024 06 21 10:50  23 20 25.28    -24 06 09.9   181999 1.0166 108.0 Am  15?  15.63   5.8   21 149  77  99
   2024 06 21 11:00  23 20 26.19    -24 03 32.4   181762 1.0166 108.0 Am  15?  16.00   3.7   22 151  77  99
   2024 06 21 11:10  23 20 26.71    -24 00 50.6   181528 1.0166 108.0 Nm  15?  16.40   1.8   23 153  77  99
   2024 06 21 11:20  23 20 26.87    -23 58 04.6   181299 1.0166 108.0 Nm  15?  16.82   0.2   24 155  77  99
   2024 06 21 11:30  23 20 26.72    -23 55 14.3   181073 1.0166 108.0 Nm  15?  17.26 358.7   25 158  77  99
   2024 06 21 11:40  23 20 26.27    -23 52 19.5   180851 1.0166 107.9 N   15?  17.72 357.5   25 160  77  99
   2024 06 21 11:50  23 20 25.56    -23 49 20.2   180634 1.0166 107.9 C   15?  18.19 356.5   26 163  77  99
   2024 06 21 12:00  23 20 24.62    -23 46 16.4   180421 1.0166 107.9 C   14?  18.66 355.7   27 165  77  99
   ................
   2024 06 22 08:30  00 08 49.19    -14 06 51.0   130136 1.0164  94.6  m  13?  51.24  50.5    0 108  80  99
   2024 06 22 08:40  00 09 15.94    -14 01 22.4   129156 1.0164  94.5  m  13?  50.93  49.3    2 109  80  99
   2024 06 22 08:50  00 09 42.08    -13 55 48.0   128171 1.0164  94.3  m  13?  50.66  48.2    4 111  80  99
   2024 06 22 09:00  00 10 07.61    -13 50 07.6   127180 1.0164  94.2  m  13?  50.43  47.0    6 112  80  99
   2024 06 22 09:10  00 10 32.53    -13 44 20.9   126184 1.0164  94.1  m  13?  50.25  45.8    8 114  80  99
   2024 06 22 09:20  00 10 56.85    -13 38 27.7   125184 1.0164  94.0  m  13?  50.12  44.6    9 115  80  99
   2024 06 22 09:30  00 11 20.56    -13 32 27.5   124179 1.0164  93.8  m  13?  50.04  43.3   11 117  80  99
   2024 06 22 09:40  00 11 43.69    -13 26 20.2   123171 1.0164  93.7  m  13?  50.01  42.0   13 119  80  99
   2024 06 22 09:50  00 12 06.25    -13 20 05.3   122158 1.0164  93.6  m  13?  50.04  40.7   15 120  81  99
   2024 06 22 10:00  00 12 28.23    -13 13 42.7   121141 1.0164  93.5  m  13?  50.13  39.5   16 122  81  99
   2024 06 22 10:10  00 12 49.66    -13 07 12.0   120121 1.0164  93.4  m  13?  50.28  38.2   18 124  81  99
   2024 06 22 10:20  00 13 10.55    -13 00 32.8   119097 1.0164  93.3 Am  13?  50.50  36.9   20 125  81  99
   2024 06 22 10:30  00 13 30.91    -12 53 44.8   118071 1.0163  93.1 Am  13?  50.79  35.6   21 127  81  99
   2024 06 22 10:40  00 13 50.78    -12 46 47.8   117041 1.0163  93.0 Am  13?  51.15  34.4   23 129  81  99
   2024 06 22 10:50  00 14 10.17    -12 39 41.4   116009 1.0163  92.9 Am  13?  51.57  33.2   25 131  81  99
   2024 06 22 11:00  00 14 29.09    -12 32 25.2   114974 1.0163  92.8 Am  13?  52.06  32.0   26 133  81  99
   2024 06 22 11:10  00 14 47.59    -12 24 58.9   113936 1.0163  92.7 Nm  13?  52.63  30.8   28 135  81  99
   2024 06 22 11:20  00 15 05.68    -12 17 22.2   112896 1.0163  92.6 Nm  13?  53.27  29.7   29 137  81  99
   2024 06 22 11:30  00 15 23.40    -12 09 34.6   111853 1.0163  92.5 Nm  13?  53.98  28.7   30 140  81  99
   2024 06 22 11:40  00 15 40.78    -12 01 35.9   110808 1.0163  92.4 Nm  13?  54.76  27.7   32 142  81  99
   2024 06 22 11:50  00 15 57.85    -11 53 25.7   109761 1.0163  92.2 Cm  13?  55.61  26.8   33 144  81  99
   2024 06 22 12:00  00 16 14.65    -11 45 03.6   108712 1.0163  92.1 Cm  13?  56.54  25.9   34 147  81  99
   ................
   2024 06 23 08:10  21 41 11.57    -42 26 50.9    97180 1.0168 132.4  m  14?  70.39  48.4    0 148  31  97
   2024 06 23 08:20  21 41 58.28    -42 19 04.1    98167 1.0168 132.3  m  14?  68.57  47.1    1 149  31  97
   2024 06 23 08:30  21 42 42.74    -42 11 17.1    99146 1.0168 132.1  m  14?  66.92  45.7    2 151  31  97
   2024 06 23 08:40  21 43 25.09    -42 03 29.7   100116 1.0168 132.0  m  14?  65.42  44.3    3 152  31  97
   2024 06 23 08:50  21 44 05.45    -41 55 41.3   101079 1.0168 131.9  m  14?  64.07  43.0    4 154  31  97
   2024 06 23 09:00  21 44 43.95    -41 47 51.9   102034 1.0168 131.8  m  14?  62.87  41.6    4 155  31  97
   2024 06 23 09:10  21 45 20.69    -41 40 01.1   102983 1.0168 131.7  m  14?  61.79  40.2    5 157  31  97
   2024 06 23 09:20  21 45 55.80    -41 32 08.7   103926 1.0168 131.6  m  14?  60.85  38.9    6 158  31  97
   2024 06 23 09:30  21 46 29.39    -41 24 14.5   104863 1.0168 131.5  m  14?  60.02  37.6    7 160  31  97
   2024 06 23 09:40  21 47 01.56    -41 16 18.2   105794 1.0168 131.5  m  14?  59.31  36.4    8 162  31  97
   2024 06 23 09:50  21 47 32.41    -41 08 19.8   106720 1.0168 131.4  m  14?  58.70  35.2    8 163  31  97
   2024 06 23 10:00  21 48 02.05    -41 00 19.1   107642 1.0168 131.3  m  14?  58.18  34.1    9 165  31  97
   2024 06 23 10:10  21 48 30.58    -40 52 15.9   108559 1.0168 131.2  m  14?  57.75  33.0   10 167  31  97
   2024 06 23 10:20  21 48 58.07    -40 44 10.2   109472 1.0168 131.1 Am  14?  57.41  32.0   10 169  31  97
   2024 06 23 10:30  21 49 24.64    -40 36 02.0   110381 1.0168 131.1 Am  14?  57.13  31.0   11 170  31  97
   2024 06 23 10:40  21 49 50.36    -40 27 51.1   111287 1.0169 131.0 Am  14?  56.93  30.2   11 172  31  97
   2024 06 23 10:50  21 50 15.32    -40 19 37.5   112190 1.0169 130.9 Am  14?  56.78  29.4   11 174  31  97
   2024 06 23 11:00  21 50 39.61    -40 11 21.2   113089 1.0169 130.9 Am  14?  56.69  28.7   12 176  31  97
   2024 06 23 11:10  21 51 03.30    -40 03 02.3   113986 1.0169 130.8 Nm  14?  56.65  28.0   12 178  31  97
   2024 06 23 11:20  21 51 26.47    -39 54 40.7   114881 1.0169 130.7 Nt  14?  56.65  27.4   12 180  31  97
   2024 06 23 11:30  21 51 49.19    -39 46 16.6   115772 1.0169 130.7 Nm  14?  56.68  27.0   12 182  31  97
   2024 06 23 11:40  21 52 11.54    -39 37 49.9   116662 1.0169 130.6 Nm  14?  56.75  26.5   12 183  31  97
   2024 06 23 11:50  21 52 33.59    -39 29 20.9   117550 1.0169 130.6 Ce  14?  56.85  26.2   12 185  31  97
   2024 06 23 12:00  21 52 55.40    -39 20 49.5   118436 1.0169 130.5 Cm  14?  56.97  25.9   12 187  31  97
   ................
   2024 06 24 08:00  22 57 36.60    -28 59 54.2   180522 1.0170 116.8  r  15?  16.57  51.0    0 127  34  93
   2024 06 24 08:10  22 57 46.07    -28 58 08.5   180566 1.0170 116.8  m  15?  15.96  48.1    1 128  34  93
   2024 06 24 08:20  22 57 54.78    -28 56 20.5   180610 1.0170 116.7  m  15?  15.41  45.1    2 130  34  93
   2024 06 24 08:30  22 58 02.76    -28 54 30.0   180654 1.0170 116.7  m  15?  14.95  41.8    4 131  34  93
   2024 06 24 08:40  22 58 10.02    -28 52 36.8   180698 1.0170 116.7  m  15?  14.56  38.4    5 133  34  93
   2024 06 24 08:50  22 58 16.59    -28 50 40.8   180742 1.0170 116.6  m  15?  14.27  34.8    7 135  33  93
   2024 06 24 09:00  22 58 22.49    -28 48 41.7   180788 1.0170 116.6  m  15?  14.05  31.2    8 136  33  93
   2024 06 24 09:10  22 58 27.74    -28 46 39.5   180834 1.0170 116.6  m  15?  13.93  27.5    9 138  33  93
   2024 06 24 09:20  22 58 32.36    -28 44 33.9   180882 1.0170 116.6  m  15?  13.89  23.9   11 140  33  93
   2024 06 24 09:30  22 58 36.38    -28 42 24.8   180931 1.0170 116.6  m  15?  13.93  20.5   12 142  33  93
   2024 06 24 09:40  22 58 39.83    -28 40 12.0   180983 1.0170 116.6  m  15?  14.04  17.1   13 143  33  93
   2024 06 24 09:50  22 58 42.73    -28 37 55.5   181037 1.0170 116.5  m  15?  14.23  14.0   14 145  33  93
   2024 06 24 10:00  22 58 45.12    -28 35 35.0   181093 1.0170 116.5  m  15?  14.48  11.1   15 147  33  92
   2024 06 24 10:10  22 58 47.02    -28 33 10.5   181151 1.0170 116.5  m  15?  14.77   8.4   16 149  33  92
   2024 06 24 10:20  22 58 48.46    -28 30 41.9   181213 1.0170 116.5 Am  15?  15.12   6.0   17 151  33  92
   2024 06 24 10:30  22 58 49.48    -28 28 08.9   181278 1.0170 116.5 Am  15?  15.50   3.9   18 153  33  92
   2024 06 24 10:40  22 58 50.11    -28 25 31.6   181346 1.0170 116.5 Am  15?  15.92   2.0   19 156  33  92
   2024 06 24 10:50  22 58 50.38    -28 22 49.9   181418 1.0170 116.5 Am  15?  16.36   0.3   20 158  33  92
   2024 06 24 11:00  22 58 50.32    -28 20 03.7   181493 1.0170 116.5 Am  15?  16.81 358.9   21 160  33  92
   2024 06 24 11:10  22 58 49.97    -28 17 12.8   181573 1.0170 116.5 Nm  15?  17.28 357.7   21 162  33  92
   2024 06 24 11:20  22 58 49.37    -28 14 17.4   181656 1.0170 116.5 Nm  15?  17.76 356.8   22 165  33  92
   2024 06 24 11:30  22 58 48.54    -28 11 17.2   181743 1.0170 116.5 Nm  15?  18.25 356.0   23 167  33  92
   2024 06 24 11:40  22 58 47.53    -28 08 12.4   181835 1.0170 116.5 Nm  15?  18.74 355.4   23 169  33  92
   2024 06 24 11:50  22 58 46.37    -28 05 02.8   181931 1.0170 116.5 Cm  15?  19.22 355.0   23 172  33  92
   2024 06 24 12:00  22 58 45.09    -28 01 48.5   182031 1.0170 116.5 Cm  15?  19.71 354.8   24 174  33  92
   ................
   2024 06 25 08:10  23 37 58.45    -20 33 04.3   171956 1.0168 106.5  m  14?  23.17  50.0    0 116  31  86
   2024 06 25 08:20  23 38 10.69    -20 30 33.9   171413 1.0168 106.5  m  14?  22.57  47.9    2 118  31  86
   2024 06 25 08:30  23 38 22.22    -20 28 01.3   170869 1.0168 106.4  m  14?  22.02  45.8    4 119  31  86
   2024 06 25 08:40  23 38 33.06    -20 25 26.3   170324 1.0168 106.4  m  14?  21.53  43.5    6 121  31  86
   2024 06 25 08:50  23 38 43.21    -20 22 48.6   169778 1.0168 106.3  m  14?  21.09  41.1    7 123  31  86
   2024 06 25 09:00  23 38 52.70    -20 20 08.1   169232 1.0168 106.3  m  14?  20.71  38.7    9 124  31  86
   2024 06 25 09:10  23 39 01.52    -20 17 24.6   168685 1.0168 106.2  m  14?  20.39  36.1   10 126  31  86
   2024 06 25 09:20  23 39 09.69    -20 14 38.0   168138 1.0168 106.2  m  14?  20.15  33.5   12 128  31  86
   2024 06 25 09:30  23 39 17.23    -20 11 48.1   167592 1.0168 106.2  m  14?  19.96  30.9   14 129  31  86
   2024 06 25 09:40  23 39 24.15    -20 08 54.8   167047 1.0168 106.1  m  14?  19.85  28.2   15 131  31  86
   2024 06 25 09:50  23 39 30.47    -20 05 57.8   166502 1.0168 106.1  m  14?  19.80  25.6   17 133  31  86
   2024 06 25 10:00  23 39 36.21    -20 02 57.0   165959 1.0168 106.1  m  14?  19.82  23.0   18 135  31  86
   2024 06 25 10:10  23 39 41.38    -19 59 52.3   165417 1.0168 106.0  m  14?  19.91  20.5   19 137  31  86
   2024 06 25 10:20  23 39 46.02    -19 56 43.6   164877 1.0168 106.0 Am  14?  20.05  18.1   21 139  31  86
   2024 06 25 10:30  23 39 50.13    -19 53 30.6   164339 1.0168 106.0 Am  14?  20.25  15.8   22 141  31  86
   2024 06 25 10:40  23 39 53.75    -19 50 13.2   163803 1.0168 106.0 Am  14?  20.51  13.7   23 143  31  85
   2024 06 25 10:50  23 39 56.91    -19 46 51.4   163270 1.0168 105.9 Am  14?  20.81  11.7   25 146  31  85
   2024 06 25 11:00  23 39 59.62    -19 43 25.0   162739 1.0168 105.9 Am  14?  21.16   9.8   26 148  30  85
   2024 06 25 11:10  23 40 01.92    -19 39 53.9   162211 1.0168 105.9 Nm  14?  21.54   8.1   27 150  30  85
   2024 06 25 11:20  23 40 03.83    -19 36 17.9   161686 1.0168 105.9 Nm  14?  21.96   6.6   28 153  30  85
   2024 06 25 11:30  23 40 05.39    -19 32 37.0   161164 1.0168 105.8 Nm  14?  22.41   5.3   29 155  30  85
   2024 06 25 11:40  23 40 06.63    -19 28 51.0   160646 1.0168 105.8 Nm  14?  22.88   4.1   29 158  30  85
   2024 06 25 11:50  23 40 07.58    -19 25 00.0   160131 1.0168 105.8 Cm  14?  23.37   3.0   30 160  30  85
   2024 06 25 12:00  23 40 08.27    -19 21 03.7   159620 1.0168 105.8 Cm  14?  23.88   2.2   31 163  30  85
   ................
   2024 06 26 08:40  01 35 10.36    +02 52 59.5    49912 1.0164  71.9  r  12? 438.60  55.8    0  85  51  77
   2024 06 26 08:50  01 39 21.73    +03 35 36.3    47892 1.0164  70.6  m  12? 473.91  56.0    1  86  52  77
   2024 06 26 09:00  01 43 54.94    +04 21 33.3    45835 1.0164  69.3  m  12? 514.94  56.2    2  86  53  77
   2024 06 26 09:10  01 48 53.93    +05 11 18.5    43741 1.0164  67.8  m  12? 563.03  56.5    4  86  55  77
   2024 06 26 09:20  01 54 23.71    +06 05 25.4    41609 1.0164  66.2  m  11? 619.95  56.9    5  86  56  77
   2024 06 26 09:30  02 00 30.70    +07 04 34.3    39436 1.0164  64.5  m  11? 688.07  57.3    7  86  58  77
   2024 06 26 09:40  02 07 23.24    +08 09 34.1    37221 1.0164  62.5  m  11? 770.61  57.9    8  85  60  77
   2024 06 26 09:50  02 15 12.40    +09 21 24.1    34964 1.0164  60.2  m  11? 872.08  58.7    9  85  62  77
   2024 06 26 10:00  02 24 13.24    +10 41 16.1    32664 1.0164  57.7  m  11? 998.83  59.6   10  84  65  77
   2024 06 26 10:10  02 34 46.61    +12 10 36.4    30321 1.0164  54.8  m  11? 1160.1  60.7   11  83  68  77
   2024 06 26 10:20  02 47 22.33    +13 51 05.2    27938 1.0164  51.3  m  11? 1369.8  62.2   11  81  71  77
   2024 06 26 10:30  03 02 44.17    +15 44 29.8    25522 1.0164  47.2 Ae  11? 1648.7  64.1   11  78  75  77
   2024 06 26 10:40  03 21 58.50    +17 52 18.4    23084 1.0164  42.2 Am  11? 2029.7  66.5   11  75  80  77
   2024 06 26 10:50  03 46 48.76    +20 14 20.6    20650 1.0164  35.9 Am  11? 2564.2  69.8    9  71  86  77
   2024 06 26 11:00  04 19 58.41    +22 45 02.2    18266 1.0164  27.9 Am  11? 3330.9  74.4    7  66  94  76
   2024 06 26 11:10  05 05 36.95    +25 03 27.1    16023 1.0164  17.4 Nm  11? 4435.7  81.0    2  59 105  76
   ................
   2024 06 27 07:50  22 30 55.02    -34 14 23.8   150883 1.0172 125.8  m  15?  23.75  47.5    0 135  27  67
   2024 06 27 08:00  22 31 08.70    -34 11 42.1   151300 1.0172 125.8  m  15?  23.10  44.9    1 136  27  67
   2024 06 27 08:10  22 31 21.42    -34 08 57.3   151715 1.0172 125.7  m  15?  22.54  42.3    2 138  27  67
   2024 06 27 08:20  22 31 33.22    -34 06 09.2   152129 1.0172 125.7  m  15?  22.07  39.6    4 139  27  67
   2024 06 27 08:30  22 31 44.15    -34 03 17.6   152542 1.0172 125.7  m  15?  21.69  36.8    5 141  27  67
   2024 06 27 08:40  22 31 54.24    -34 00 22.3   152955 1.0172 125.6  m  15?  21.41  34.0    6 142  27  67
   2024 06 27 08:50  22 32 03.52    -33 57 23.2   153367 1.0172 125.6  m  15?  21.22  31.2    7 144  27  67
   2024 06 27 09:00  22 32 12.03    -33 54 19.9   153779 1.0172 125.6  m  15?  21.12  28.5    8 146  27  67
   2024 06 27 09:10  22 32 19.82    -33 51 12.4   154191 1.0172 125.5  m  15?  21.10  25.9   10 148  27  67
   2024 06 27 09:20  22 32 26.92    -33 48 00.6   154604 1.0172 125.5  m  15?  21.16  23.3   11 149  27  67
   2024 06 27 09:30  22 32 33.38    -33 44 44.2   155017 1.0172 125.5  m  15?  21.29  20.9   12 151  27  67
   2024 06 27 09:40  22 32 39.23    -33 41 23.2   155431 1.0172 125.5  m  15?  21.49  18.7   13 153  27  66
   2024 06 27 09:50  22 32 44.52    -33 37 57.4   155847 1.0172 125.5  m  15?  21.74  16.6   13 155  27  66
   2024 06 27 10:00  22 32 49.30    -33 34 26.8   156264 1.0172 125.4  m  15?  22.05  14.7   14 157  27  66
   2024 06 27 10:10  22 32 53.60    -33 30 51.3   156683 1.0172 125.4  m  15?  22.39  13.0   15 159  27  66
   2024 06 27 10:20  22 32 57.47    -33 27 10.8   157104 1.0172 125.4  m  15?  22.78  11.5   16 161  27  66
   2024 06 27 10:30  22 33 00.95    -33 23 25.2   157526 1.0172 125.4 Am  15?  23.19  10.1   16 163  27  66
   2024 06 27 10:40  22 33 04.09    -33 19 34.4   157951 1.0172 125.4 Am  15?  23.63   9.0   17 165  27  66
   2024 06 27 10:50  22 33 06.93    -33 15 38.6   158378 1.0172 125.4 Am  15?  24.09   8.0   17 167  27  66
   2024 06 27 11:00  22 33 09.52    -33 11 37.6   158808 1.0172 125.4 Am  15?  24.56   7.1   18 170  27  66
   2024 06 27 11:10  22 33 11.90    -33 07 31.4   159240 1.0172 125.4 Nm  15?  25.04   6.5   18 172  27  66
   2024 06 27 11:20  22 33 14.11    -33 03 20.1   159675 1.0172 125.3 Nm  15?  25.53   5.9   19 174  27  66
   2024 06 27 11:30  22 33 16.20    -32 59 03.6   160113 1.0172 125.3 Nm  15?  26.03   5.5   19 176  27  66
   2024 06 27 11:40  22 33 18.22    -32 54 42.1   160554 1.0172 125.3 Nm  15?  26.53   5.3   19 178  27  66
   2024 06 27 11:50  22 33 20.19    -32 50 15.5   160998 1.0172 125.3 Ct  15?  27.02   5.2   19 181  27  66
   2024 06 27 12:00  22 33 22.17    -32 45 43.9   161445 1.0172 125.3 Ce  15?  27.52   5.1   19 183  27  66
   ................
   2024 06 28 07:50  23 16 26.36    -25 03 39.6   186624 1.0171 115.3  m  15?  16.66  50.1    0 122  25  56
   2024 06 28 08:00  23 16 35.41    -25 01 51.3   186400 1.0171 115.3  m  15?  16.07  47.4    1 123  25  56
   2024 06 28 08:10  23 16 43.77    -25 00 01.1   186176 1.0171 115.2  m  15?  15.54  44.5    3 125  25  56
   2024 06 28 08:20  23 16 51.45    -24 58 08.6   185951 1.0171 115.2  m  15?  15.08  41.4    5 126  25  56
   2024 06 28 08:30  23 16 58.45    -24 56 13.8   185727 1.0171 115.2  m  15?  14.69  38.1    6 128  25  56
   2024 06 28 08:40  23 17 04.80    -24 54 16.5   185503 1.0171 115.1  m  15?  14.38  34.7    8 130  25  56
   2024 06 28 08:50  23 17 10.50    -24 52 16.5   185280 1.0171 115.1  m  15?  14.14  31.2    9 131  25  56
   2024 06 28 09:00  23 17 15.58    -24 50 13.6   185059 1.0171 115.1  m  15?  13.99  27.6   11 133  25  55
   2024 06 28 09:10  23 17 20.06    -24 48 07.7   184838 1.0171 115.1  m  15?  13.92  24.1   12 135  25  55
   2024 06 28 09:20  23 17 23.96    -24 45 58.6   184619 1.0171 115.1  m  15?  13.92  20.6   13 137  25  55
   2024 06 28 09:30  23 17 27.29    -24 43 46.2   184403 1.0171 115.0  m  15?  13.99  17.3   15 139  25  55
   2024 06 28 09:40  23 17 30.08    -24 41 30.4   184188 1.0171 115.0  m  15?  14.14  14.1   16 141  25  55
   2024 06 28 09:50  23 17 32.36    -24 39 10.9   183976 1.0171 115.0  m  15?  14.34  11.0   17 143  25  55
   2024 06 28 10:00  23 17 34.14    -24 36 47.8   183767 1.0171 115.0  m  15?  14.61   8.2   18 145  25  55
   2024 06 28 10:10  23 17 35.46    -24 34 20.8   183561 1.0171 115.0  m  15?  14.92   5.7   20 147  26  55
   2024 06 28 10:20  23 17 36.34    -24 31 49.9   183358 1.0171 115.0  m  15?  15.27   3.4   21 149  26  55
   2024 06 28 10:30  23 17 36.80    -24 29 14.9   183159 1.0171 115.0 Am  15?  15.66   1.3   22 151  26  55
   2024 06 28 10:40  23 17 36.89    -24 26 35.8   182963 1.0171 115.0 Am  15?  16.07 359.4   23 153  26  55
   2024 06 28 10:50  23 17 36.63    -24 23 52.4   182771 1.0171 115.0 Am  15?  16.51 357.9   24 156  26  55
   2024 06 28 11:00  23 17 36.04    -24 21 04.7   182583 1.0171 115.0 Am  15?  16.97 356.5   24 158  26  55
   2024 06 28 11:10  23 17 35.17    -24 18 12.6   182400 1.0171 115.0 Nm  15?  17.44 355.4   25 160  26  55
   2024 06 28 11:20  23 17 34.03    -24 15 16.1   182220 1.0171 115.0 Nm  15?  17.91 354.4   26 163  26  55
   2024 06 28 11:30  23 17 32.68    -24 12 15.0   182045 1.0171 115.0 Nm  15?  18.39 353.7   26 165  26  55
   2024 06 28 11:40  23 17 31.13    -24 09 09.3   181875 1.0171 115.0 Nm  15?  18.87 353.1   27 168  26  54
   2024 06 28 11:50  23 17 29.42    -24 05 59.1   181709 1.0171 115.0 Cm  15?  19.36 352.7   27 170  26  54
   2024 06 28 12:00  23 17 27.59    -24 02 44.3   181548 1.0171 115.0 Cm  15?  19.83 352.4   28 173  26  54
   ................
   2024 06 29 08:00  00 02 50.18    -15 01 18.6   137610 1.0168 102.7  m  14?  43.97  49.7    0 109  23  44
   2024 06 29 08:10  00 03 13.00    -14 56 30.7   136701 1.0168 102.6  m  14?  43.55  48.4    2 111  23  44
   2024 06 29 08:20  00 03 35.17    -14 51 38.2   135787 1.0168 102.5  m  14?  43.17  47.1    4 112  23  44
   2024 06 29 08:30  00 03 56.67    -14 46 40.8   134870 1.0168 102.4  m  14?  42.84  45.8    6 114  23  44
   2024 06 29 08:40  00 04 17.52    -14 41 38.3   133948 1.0168 102.3  m  14?  42.55  44.4    8 115  23  44
   2024 06 29 08:50  00 04 37.71    -14 36 30.3   133023 1.0168 102.2  m  14?  42.30  42.9   10 117  23  44
   2024 06 29 09:00  00 04 57.26    -14 31 16.7   132094 1.0168 102.1  m  14?  42.11  41.5   11 118  23  44
   2024 06 29 09:10  00 05 16.18    -14 25 57.2   131162 1.0168 102.0  m  14?  41.97  40.0   13 120  23  44
   2024 06 29 09:20  00 05 34.46    -14 20 31.6   130227 1.0168 101.9  m  14?  41.89  38.5   15 122  23  44
   2024 06 29 09:30  00 05 52.13    -14 14 59.6   129290 1.0168 101.8  m  14?  41.87  37.0   16 123  22  44
   2024 06 29 09:40  00 06 09.19    -14 09 20.9   128350 1.0168 101.7  m  14?  41.90  35.5   18 125  22  44
   2024 06 29 09:50  00 06 25.66    -14 03 35.3   127408 1.0168 101.6  m  14?  42.00  34.1   20 127  22  44
   2024 06 29 10:00  00 06 41.56    -13 57 42.5   126463 1.0168 101.6  m  14?  42.17  32.6   21 129  22  43
   2024 06 29 10:10  00 06 56.90    -13 51 42.3   125517 1.0168 101.5  m  14?  42.39  31.1   23 131  22  43
   2024 06 29 10:20  00 07 11.71    -13 45 34.5   124570 1.0168 101.4  m  14?  42.69  29.7   24 133  22  43
   2024 06 29 10:30  00 07 26.01    -13 39 18.6   123621 1.0168 101.3 Am  14?  43.04  28.4   26 135  22  43
   2024 06 29 10:40  00 07 39.82    -13 32 54.6   122670 1.0168 101.2 Am  13?  43.46  27.0   27 137  22  43
   2024 06 29 10:50  00 07 53.16    -13 26 22.1   121719 1.0168 101.1 Am  13?  43.94  25.8   29 139  22  43
   2024 06 29 11:00  00 08 06.08    -13 19 40.8   120766 1.0168 101.0 Am  13?  44.49  24.6   30 142  22  43
   2024 06 29 11:10  00 08 18.58    -13 12 50.6   119812 1.0168 101.0 Nm  13?  45.09  23.5   31 144  22  43
   2024 06 29 11:20  00 08 30.72    -13 05 51.1   118858 1.0168 100.9 Nm  13?  45.76  22.4   32 146  22  43
   2024 06 29 11:30  00 08 42.51    -12 58 42.0   117903 1.0168 100.8 Nm  13?  46.48  21.4   33 149  22  43
   2024 06 29 11:40  00 08 54.01    -12 51 23.2   116948 1.0168 100.7 Nm  13?  47.26  20.5   35 152  22  43
   2024 06 29 11:50  00 09 05.23    -12 43 54.4   115991 1.0168 100.6 Cm  13?  48.09  19.7   36 154  22  43
   2024 06 29 12:00  00 09 16.23    -12 36 15.2   115034 1.0168 100.6 Cm  13?  48.98  19.0   36 157  22  43
   ................
   2024 06 30 07:50  21 29 14.23    -44 28 27.1    86628 1.0171 139.1     14?  92.97  47.5    0 152  79  33
   2024 06 30 08:00  21 30 16.70    -44 18 04.1    87749 1.0171 139.0  m  14?  90.34  46.4    1 153  79  33
   2024 06 30 08:10  21 31 16.11    -44 07 45.0    88859 1.0171 138.8  m  14?  87.92  45.2    2 155  79  33
   2024 06 30 08:20  21 32 12.65    -43 57 29.3    89958 1.0171 138.7  m  14?  85.72  44.0    3 156  79  33
   2024 06 30 08:30  21 33 06.53    -43 47 16.6    91047 1.0171 138.6  m  14?  83.71  42.9    3 158  79  33
   2024 06 30 08:40  21 33 57.90    -43 37 06.3    92127 1.0171 138.5  m  14?  81.89  41.7    4 159  79  33
   2024 06 30 08:50  21 34 46.96    -43 26 58.1    93197 1.0171 138.4  m  14?  80.24  40.6    5 161  78  33
   2024 06 30 09:00  21 35 33.86    -43 16 51.7    94259 1.0171 138.3  m  14?  78.75  39.5    6 162  78  33
   2024 06 30 09:10  21 36 18.76    -43 06 46.6    95313 1.0171 138.3  m  14?  77.40  38.4    6 164  78  33
   2024 06 30 09:20  21 37 01.79    -42 56 42.6    96359 1.0172 138.2  m  14?  76.20  37.4    7 165  78  33
   2024 06 30 09:30  21 37 43.11    -42 46 39.4    97397 1.0172 138.1  m  14?  75.13  36.4    8 167  78  33
   2024 06 30 09:40  21 38 22.85    -42 36 36.7    98430 1.0172 138.0  m  14?  74.17  35.5    8 169  78  32
   2024 06 30 09:50  21 39 01.13    -42 26 34.5    99455 1.0172 138.0  m  14?  73.33  34.6    9 170  78  32
   2024 06 30 10:00  21 39 38.07    -42 16 32.4   100475 1.0172 137.9  m  14?  72.58  33.7    9 172  78  32
   2024 06 30 10:10  21 40 13.80    -42 06 30.4   101489 1.0172 137.8  m  14?  71.93  33.0    9 174  78  32
   2024 06 30 10:20  21 40 48.43    -41 56 28.3   102498 1.0172 137.7  m  14?  71.36  32.2   10 175  78  32
   2024 06 30 10:30  21 41 22.06    -41 46 26.1   103502 1.0172 137.7 Am  14?  70.86  31.6   10 177  77  32
   2024 06 30 10:40  21 41 54.79    -41 36 23.7   104501 1.0172 137.6 Am  14?  70.43  31.0   10 179  77  32
   2024 06 30 10:50  21 42 26.72    -41 26 21.0   105496 1.0172 137.6 At  14?  70.07  30.4   10 181  77  32
   2024 06 30 11:00  21 42 57.95    -41 16 18.0   106487 1.0172 137.5 Am  14?  69.76  30.0   11 183  77  32
   2024 06 30 11:10  21 43 28.56    -41 06 14.8   107473 1.0172 137.4 Nm  14?  69.50  29.6   11 185  77  32
   2024 06 30 11:20  21 43 58.64    -40 56 11.4   108456 1.0172 137.4 Ne  14?  69.29  29.2   11 186  77  32
   2024 06 30 11:30  21 44 28.26    -40 46 07.8   109436 1.0172 137.3 Nm  14?  69.11  28.9   10 188  77  32
   2024 06 30 11:40  21 44 57.51    -40 36 04.1   110412 1.0172 137.3 Nm  14?  68.97  28.7   10 190  77  32
   2024 06 30 11:50  21 45 26.46    -40 26 00.3   111385 1.0172 137.2 Cm  14?  68.86  28.5   10 192  77  32
   2024 06 30 12:00  21 45 55.18    -40 15 56.7   112356 1.0172 137.2 Cm  14?  68.78  28.4   10 194  77  32
   ................
   

MMS-3 (JPL-ID: -140484)

   Date (UTC) HH:MM   RA              Dec         delta   r     elong SM  mag  '/hr    PA   alt  az moo ill
   ---- -- -- -----  -------------   -----------  ------ ------ ----- --  --- ------ ------ --- --- --- ---
   2024 06 20 08:20  22 34 02.68    -33 35 07.3   155799 1.0167 119.2  m  14?  22.38  48.5    0 134  78  96
   2024 06 20 08:30  22 34 15.62    -33 32 37.5   156164 1.0167 119.2  m  14?  21.74  45.9    1 136  78  96
   2024 06 20 08:40  22 34 27.66    -33 30 04.7   156528 1.0167 119.1  m  15?  21.19  43.2    3 137  78  96
   2024 06 20 08:50  22 34 38.83    -33 27 28.5   156891 1.0167 119.1  m  15?  20.74  40.4    4 139  78  96
   2024 06 20 09:00  22 34 49.17    -33 24 48.9   157254 1.0167 119.0  m  15?  20.37  37.6    5 140  78  96
   2024 06 20 09:10  22 34 58.69    -33 22 05.5   157616 1.0167 119.0  m  15?  20.10  34.7    7 142  78  96
   2024 06 20 09:20  22 35 07.45    -33 19 18.4   157978 1.0167 119.0  m  15?  19.91  31.9    8 144  78  96
   2024 06 20 09:30  22 35 15.48    -33 16 27.2   158340 1.0167 118.9  m  15?  19.81  29.0    9 145  78  96
   2024 06 20 09:40  22 35 22.81    -33 13 31.8   158703 1.0167 118.9  m  15?  19.80  26.3   10 147  78  96
   2024 06 20 09:50  22 35 29.48    -33 10 32.0   159067 1.0167 118.9  m  15?  19.86  23.7   11 149  78  96
   2024 06 20 10:00  22 35 35.53    -33 07 27.8   159432 1.0167 118.9  m  15?  19.99  21.2   12 151  78  96
   2024 06 20 10:10  22 35 41.01    -33 04 19.0   159798 1.0167 118.8  m  15?  20.19  18.9   13 153  78  96
   2024 06 20 10:20  22 35 45.95    -33 01 05.6   160166 1.0167 118.8 Am  15?  20.44  16.7   14 155  78  96
   2024 06 20 10:30  22 35 50.38    -32 57 47.3   160536 1.0167 118.8 Am  15?  20.75  14.8   15 157  78  96
   2024 06 20 10:40  22 35 54.37    -32 54 24.1   160907 1.0167 118.8 Am  15?  21.09  13.0   16 159  78  96
   2024 06 20 10:50  22 35 57.93    -32 50 55.9   161281 1.0167 118.8 A   15?  21.48  11.4   16 161  77  96
   2024 06 20 11:00  22 36 01.13    -32 47 22.7   161657 1.0167 118.7 A   15?  21.89  10.0   17 163  77  96
   2024 06 20 11:10  22 36 03.99    -32 43 44.5   162035 1.0167 118.7 N   15?  22.33   8.8   18 165  77  96
   2024 06 20 11:20  22 36 06.57    -32 40 01.2   162416 1.0167 118.7 N   15?  22.79   7.8   18 167  77  96
   2024 06 20 11:30  22 36 08.90    -32 36 12.7   162800 1.0167 118.7 N   15?  23.26   6.9   18 169  77  96
   2024 06 20 11:40  22 36 11.02    -32 32 19.1   163187 1.0167 118.7 N   15?  23.74   6.2   19 172  77  96
   2024 06 20 11:50  22 36 12.99    -32 28 20.3   163577 1.0167 118.7 C   15?  24.24   5.7   19 174  77  96
   2024 06 20 12:00  22 36 14.84    -32 24 16.5   163970 1.0167 118.7 C   15?  24.73   5.3   19 176  77  96
   ................
   2024 06 21 08:20  23 19 11.02    -24 38 12.0   185805 1.0166 108.3  m  15?  17.37  50.9    0 121  78  99
   2024 06 21 08:30  23 19 20.51    -24 36 21.5   185543 1.0166 108.3  m  15?  16.77  48.3    2 123  78  99
   2024 06 21 08:40  23 19 29.30    -24 34 28.9   185281 1.0166 108.3  m  15?  16.23  45.5    3 125  78  99
   2024 06 21 08:50  23 19 37.42    -24 32 34.2   185019 1.0166 108.2  m  15?  15.75  42.6    5 126  78  99
   2024 06 21 09:00  23 19 44.86    -24 30 37.0   184757 1.0166 108.2  m  15?  15.35  39.5    6 128  78  99
   2024 06 21 09:10  23 19 51.65    -24 28 37.3   184495 1.0166 108.2  m  15?  15.02  36.3    8 129  78  99
   2024 06 21 09:20  23 19 57.80    -24 26 34.9   184234 1.0166 108.1  m  15?  14.76  32.9    9 131  78  99
   2024 06 21 09:30  23 20 03.33    -24 24 29.6   183975 1.0166 108.1  m  15?  14.58  29.5   11 133  78  99
   2024 06 21 09:40  23 20 08.25    -24 22 21.2   183716 1.0166 108.1  m  15?  14.47  26.1   12 135  78  99
   2024 06 21 09:50  23 20 12.59    -24 20 09.7   183460 1.0166 108.1  m  15?  14.45  22.8   14 136  78  99
   2024 06 21 10:00  23 20 16.37    -24 17 54.9   183205 1.0166 108.1  m  15?  14.49  19.5   15 138  78  99
   2024 06 21 10:10  23 20 19.61    -24 15 36.6   182953 1.0166 108.0  m  15?  14.60  16.4   16 140  78  99
   2024 06 21 10:20  23 20 22.33    -24 13 14.7   182703 1.0166 108.0 Am  15?  14.78  13.4   18 142  78  99
   2024 06 21 10:30  23 20 24.55    -24 10 49.1   182455 1.0166 108.0 Am  15?  15.02  10.6   19 144  78  99
   2024 06 21 10:40  23 20 26.31    -24 08 19.6   182211 1.0166 108.0 Am  15?  15.30   8.1   20 146  78  99
   2024 06 21 10:50  23 20 27.63    -24 05 46.1   181970 1.0166 108.0 Am  15?  15.63   5.8   21 149  77  99
   2024 06 21 11:00  23 20 28.54    -24 03 08.6   181732 1.0166 108.0 Am  15?  16.00   3.7   22 151  77  99
   2024 06 21 11:10  23 20 29.06    -24 00 26.9   181498 1.0166 108.0 Nm  15?  16.39   1.8   23 153  77  99
   2024 06 21 11:20  23 20 29.23    -23 57 40.9   181268 1.0166 108.0 Nm  15?  16.82   0.2   24 155  77  99
   2024 06 21 11:30  23 20 29.07    -23 54 50.6   181041 1.0166 107.9 Nm  15?  17.26 358.7   25 158  77  99
   2024 06 21 11:40  23 20 28.63    -23 51 55.8   180819 1.0166 107.9 N   15?  17.72 357.5   25 160  77  99
   2024 06 21 11:50  23 20 27.92    -23 48 56.6   180601 1.0166 107.9 C   15?  18.18 356.5   26 163  77  99
   2024 06 21 12:00  23 20 26.98    -23 45 52.8   180387 1.0166 107.9 C   14?  18.66 355.7   27 165  77  99
   ................
   2024 06 22 08:30  00 08 54.32    -14 06 02.6   129989 1.0164  94.6  m  13?  51.37  50.5    0 108  80  99
   2024 06 22 08:40  00 09 21.15    -14 00 33.2   129008 1.0164  94.4  m  13?  51.06  49.4    2 109  80  99
   2024 06 22 08:50  00 09 47.36    -13 54 58.1   128021 1.0164  94.3  m  13?  50.80  48.2    4 111  80  99
   2024 06 22 09:00  00 10 12.97    -13 49 17.0   127028 1.0164  94.2  m  13?  50.57  47.0    6 112  80  99
   2024 06 22 09:10  00 10 37.96    -13 43 29.5   126031 1.0164  94.1  m  13?  50.39  45.8    8 114  80  99
   2024 06 22 09:20  00 11 02.36    -13 37 35.4   125030 1.0164  93.9  m  13?  50.26  44.6    9 115  80  99
   2024 06 22 09:30  00 11 26.16    -13 31 34.4   124023 1.0164  93.8  m  13?  50.18  43.3   11 117  80  99
   2024 06 22 09:40  00 11 49.37    -13 25 26.2   123013 1.0164  93.7  m  13?  50.15  42.1   13 119  80  99
   2024 06 22 09:50  00 12 12.00    -13 19 10.5   121998 1.0164  93.6  m  13?  50.19  40.8   15 120  81  99
   2024 06 22 10:00  00 12 34.07    -13 12 46.9   120980 1.0164  93.5  m  13?  50.28  39.5   16 122  81  99
   2024 06 22 10:10  00 12 55.58    -13 06 15.2   119958 1.0164  93.3  m  13?  50.44  38.2   18 124  81  99
   2024 06 22 10:20  00 13 16.55    -12 59 35.1   118933 1.0164  93.2 Am  13?  50.66  36.9   20 125  81  99
   2024 06 22 10:30  00 13 37.01    -12 52 46.1   117905 1.0163  93.1 Am  13?  50.95  35.7   21 127  81  99
   2024 06 22 10:40  00 13 56.96    -12 45 48.0   116874 1.0163  93.0 Am  13?  51.31  34.4   23 129  81  99
   2024 06 22 10:50  00 14 16.44    -12 38 40.5   115839 1.0163  92.9 Am  13?  51.74  33.2   25 131  81  99
   2024 06 22 11:00  00 14 35.46    -12 31 23.2   114802 1.0163  92.8 Am  13?  52.23  32.0   26 133  81  99
   2024 06 22 11:10  00 14 54.05    -12 23 55.7   113763 1.0163  92.7 Nm  13?  52.80  30.9   28 135  81  99
   2024 06 22 11:20  00 15 12.23    -12 16 17.7   112721 1.0163  92.5 Nm  13?  53.45  29.8   29 137  81  99
   2024 06 22 11:30  00 15 30.05    -12 08 28.9   111677 1.0163  92.4 Nm  13?  54.16  28.7   30 140  81  99
   2024 06 22 11:40  00 15 47.52    -12 00 28.9   110630 1.0163  92.3 Nm  13?  54.95  27.8   32 142  81  99
   2024 06 22 11:50  00 16 04.69    -11 52 17.3   109581 1.0163  92.2 Cm  13?  55.81  26.8   33 144  81  99
   2024 06 22 12:00  00 16 21.59    -11 43 53.8   108530 1.0163  92.1 Cm  13?  56.74  26.0   34 147  81  99
   ................
   2024 06 23 08:10  21 41 27.91    -42 24 18.5    97400 1.0168 132.3  m  14?  69.98  48.4    0 148  31  97
   2024 06 23 08:20  21 42 14.30    -42 16 34.3    98385 1.0168 132.2  m  14?  68.17  47.0    1 149  31  97
   2024 06 23 08:30  21 42 58.46    -42 08 49.8    99360 1.0168 132.1  m  14?  66.53  45.7    2 151  31  97
   2024 06 23 08:40  21 43 40.52    -42 01 04.8   100328 1.0168 132.0  m  14?  65.05  44.3    3 152  31  97
   2024 06 23 08:50  21 44 20.60    -41 53 18.9   101288 1.0168 131.9  m  14?  63.71  42.9    4 154  31  97
   2024 06 23 09:00  21 44 58.83    -41 45 31.8   102241 1.0168 131.8  m  14?  62.51  41.6    5 155  31  97
   2024 06 23 09:10  21 45 35.32    -41 37 43.4   103188 1.0168 131.7  m  14?  61.45  40.2    5 157  31  97
   2024 06 23 09:20  21 46 10.18    -41 29 53.2   104128 1.0168 131.6  m  14?  60.52  38.9    6 158  31  97
   2024 06 23 09:30  21 46 43.53    -41 22 01.2   105063 1.0168 131.5  m  14?  59.70  37.6    7 160  31  97
   2024 06 23 09:40  21 47 15.47    -41 14 07.2   105992 1.0168 131.4  m  14?  58.99  36.4    8 162  31  97
   2024 06 23 09:50  21 47 46.11    -41 06 10.9   106916 1.0168 131.3  m  14?  58.39  35.2    8 163  31  97
   2024 06 23 10:00  21 48 15.53    -40 58 12.3   107836 1.0168 131.3  m  14?  57.88  34.0    9 165  31  97
   2024 06 23 10:10  21 48 43.85    -40 50 11.2   108751 1.0168 131.2  m  14?  57.46  32.9   10 167  31  97
   2024 06 23 10:20  21 49 11.14    -40 42 07.5   109662 1.0168 131.1 Am  14?  57.12  31.9   10 169  31  97
   2024 06 23 10:30  21 49 37.51    -40 34 01.3   110569 1.0168 131.0 Am  14?  56.86  31.0   11 170  31  97
   2024 06 23 10:40  21 50 03.04    -40 25 52.3   111473 1.0169 131.0 Am  14?  56.66  30.1   11 172  31  97
   2024 06 23 10:50  21 50 27.82    -40 17 40.6   112373 1.0169 130.9 Am  14?  56.52  29.3   11 174  31  97
   2024 06 23 11:00  21 50 51.93    -40 09 26.2   113271 1.0169 130.8 Am  14?  56.43  28.6   12 176  31  97
   2024 06 23 11:10  21 51 15.44    -40 01 09.2   114166 1.0169 130.8 Nm  14?  56.40  27.9   12 178  31  97
   2024 06 23 11:20  21 51 38.44    -39 52 49.4   115058 1.0169 130.7 Nt  14?  56.40  27.4   12 180  31  97
   2024 06 23 11:30  21 52 00.99    -39 44 27.1   115948 1.0169 130.6 Nm  14?  56.44  26.9   12 182  31  97
   2024 06 23 11:40  21 52 23.18    -39 36 02.2   116836 1.0169 130.6 Nm  14?  56.52  26.5   12 183  31  97
   2024 06 23 11:50  21 52 45.06    -39 27 34.8   117722 1.0169 130.5 Ce  14?  56.62  26.1   12 185  31  97
   2024 06 23 12:00  21 53 06.71    -39 19 05.1   118606 1.0169 130.5 Cm  14?  56.75  25.8   12 187  31  97
   ................
   2024 06 24 08:00  22 57 39.98    -28 59 13.6   180564 1.0170 116.8  r  15?  16.56  51.0    0 127  34  93
   2024 06 24 08:10  22 57 49.44    -28 57 28.0   180607 1.0170 116.7  m  15?  15.94  48.1    1 128  34  93
   2024 06 24 08:20  22 57 58.15    -28 55 40.1   180650 1.0170 116.7  m  15?  15.40  45.1    2 130  34  93
   2024 06 24 08:30  22 58 06.13    -28 53 49.7   180693 1.0170 116.7  m  15?  14.93  41.8    4 131  34  93
   2024 06 24 08:40  22 58 13.38    -28 51 56.7   180736 1.0170 116.7  m  15?  14.55  38.4    5 133  34  93
   2024 06 24 08:50  22 58 19.95    -28 50 00.8   180780 1.0170 116.6  m  15?  14.25  34.8    7 135  34  93
   2024 06 24 09:00  22 58 25.84    -28 48 01.9   180824 1.0170 116.6  m  15?  14.04  31.2    8 136  33  93
   2024 06 24 09:10  22 58 31.08    -28 45 59.8   180870 1.0170 116.6  m  15?  13.91  27.5    9 138  33  93
   2024 06 24 09:20  22 58 35.70    -28 43 54.3   180917 1.0170 116.6  m  15?  13.87  23.9   11 140  33  93
   2024 06 24 09:30  22 58 39.71    -28 41 45.4   180965 1.0170 116.6  m  15?  13.91  20.5   12 142  33  93
   2024 06 24 09:40  22 58 43.16    -28 39 32.8   181016 1.0170 116.5  m  15?  14.03  17.1   13 143  33  93
   2024 06 24 09:50  22 58 46.06    -28 37 16.4   181069 1.0170 116.5  m  15?  14.21  14.0   14 145  33  93
   2024 06 24 10:00  22 58 48.44    -28 34 56.0   181124 1.0170 116.5  m  15?  14.46  11.1   15 147  33  92
   2024 06 24 10:10  22 58 50.34    -28 32 31.7   181182 1.0170 116.5  m  15?  14.76   8.4   16 149  33  92
   2024 06 24 10:20  22 58 51.77    -28 30 03.2   181243 1.0170 116.5 Am  15?  15.10   6.0   17 151  33  92
   2024 06 24 10:30  22 58 52.79    -28 27 30.4   181307 1.0170 116.5 Am  15?  15.49   3.8   18 153  33  92
   2024 06 24 10:40  22 58 53.41    -28 24 53.2   181374 1.0170 116.5 Am  15?  15.90   1.9   19 156  33  92
   2024 06 24 10:50  22 58 53.68    -28 22 11.7   181445 1.0170 116.5 Am  15?  16.34   0.3   20 158  33  92
   2024 06 24 11:00  22 58 53.61    -28 19 25.6   181519 1.0170 116.5 Am  15?  16.80 358.9   21 160  33  92
   2024 06 24 11:10  22 58 53.26    -28 16 34.9   181598 1.0170 116.5 Nm  15?  17.27 357.7   21 162  33  92
   2024 06 24 11:20  22 58 52.65    -28 13 39.6   181680 1.0170 116.5 Nm  15?  17.75 356.7   22 165  33  92
   2024 06 24 11:30  22 58 51.82    -28 10 39.6   181767 1.0170 116.5 Nm  15?  18.23 356.0   23 167  33  92
   2024 06 24 11:40  22 58 50.80    -28 07 34.9   181857 1.0170 116.5 Nm  15?  18.72 355.4   23 169  33  92
   2024 06 24 11:50  22 58 49.64    -28 04 25.5   181952 1.0170 116.5 Cm  15?  19.21 355.0   23 172  33  92
   2024 06 24 12:00  22 58 48.35    -28 01 11.3   182052 1.0170 116.5 Cm  15?  19.69 354.7   24 174  33  92
   ................
   2024 06 25 08:10  23 38 01.83    -20 32 29.5   171874 1.0168 106.5  m  14?  23.19  50.0    0 116  31  86
   2024 06 25 08:20  23 38 14.08    -20 29 59.1   171331 1.0168 106.5  m  14?  22.60  48.0    2 118  31  86
   2024 06 25 08:30  23 38 25.63    -20 27 26.3   170786 1.0168 106.4  m  14?  22.05  45.8    4 119  31  86
   2024 06 25 08:40  23 38 36.49    -20 24 51.2   170240 1.0168 106.4  m  14?  21.55  43.6    6 121  31  86
   2024 06 25 08:50  23 38 46.66    -20 22 13.4   169693 1.0168 106.3  m  14?  21.11  41.2    7 123  31  86
   2024 06 25 09:00  23 38 56.16    -20 19 32.7   169145 1.0168 106.3  m  14?  20.73  38.7    9 124  31  86
   2024 06 25 09:10  23 39 05.00    -20 16 49.2   168597 1.0168 106.2  m  14?  20.42  36.2   10 126  31  86
   2024 06 25 09:20  23 39 13.19    -20 14 02.4   168050 1.0168 106.2  m  14?  20.17  33.6   12 128  31  86
   2024 06 25 09:30  23 39 20.74    -20 11 12.4   167502 1.0168 106.2  m  14?  19.99  30.9   14 129  31  86
   2024 06 25 09:40  23 39 27.68    -20 08 18.9   166956 1.0168 106.1  m  14?  19.87  28.3   15 131  31  86
   2024 06 25 09:50  23 39 34.01    -20 05 21.8   166410 1.0168 106.1  m  14?  19.83  25.7   17 133  31  86
   2024 06 25 10:00  23 39 39.76    -20 02 20.9   165866 1.0168 106.1  m  14?  19.84  23.1   18 135  31  86
   2024 06 25 10:10  23 39 44.95    -19 59 16.0   165323 1.0168 106.0  m  14?  19.93  20.6   19 137  31  86
   2024 06 25 10:20  23 39 49.60    -19 56 07.1   164782 1.0168 106.0 Am  14?  20.07  18.2   21 139  31  86
   2024 06 25 10:30  23 39 53.73    -19 52 54.0   164243 1.0168 106.0 Am  14?  20.27  15.9   22 141  31  86
   2024 06 25 10:40  23 39 57.36    -19 49 36.5   163706 1.0168 105.9 Am  14?  20.53  13.7   23 143  31  85
   2024 06 25 10:50  23 40 00.53    -19 46 14.5   163171 1.0168 105.9 Am  14?  20.83  11.7   25 146  31  85
   2024 06 25 11:00  23 40 03.25    -19 42 48.0   162639 1.0168 105.9 Am  14?  21.18   9.9   26 148  31  85
   2024 06 25 11:10  23 40 05.56    -19 39 16.7   162110 1.0168 105.9 Nm  14?  21.56   8.2   27 150  30  85
   2024 06 25 11:20  23 40 07.49    -19 35 40.5   161584 1.0168 105.9 Nm  14?  21.98   6.7   28 153  30  85
   2024 06 25 11:30  23 40 09.06    -19 31 59.4   161061 1.0168 105.8 Nm  14?  22.42   5.3   29 155  30  85
   2024 06 25 11:40  23 40 10.31    -19 28 13.3   160542 1.0168 105.8 Nm  14?  22.90   4.1   29 158  30  85
   2024 06 25 11:50  23 40 11.27    -19 24 22.1   160026 1.0168 105.8 Cm  14?  23.39   3.1   30 160  30  85
   2024 06 25 12:00  23 40 11.98    -19 20 25.6   159513 1.0168 105.8 Cm  14?  23.90   2.2   31 163  30  85
   ................
   2024 06 26 08:40  01 36 04.92    +03 01 32.8    49493 1.0164  71.6  r  12? 446.55  55.9    0  85  51  77
   2024 06 26 08:50  01 40 21.40    +03 44 49.7    47464 1.0164  70.4  m  12? 483.08  56.1    1  85  52  77
   2024 06 26 09:00  01 45 00.56    +04 31 32.4    45399 1.0164  69.0  m  12? 525.60  56.3    2  86  54  77
   2024 06 26 09:10  01 50 06.57    +05 22 09.8    43296 1.0164  67.5  m  12? 575.54  56.6    4  86  55  77
   2024 06 26 09:20  01 55 44.73    +06 17 16.9    41154 1.0164  65.9  m  11? 634.79  57.0    5  86  57  77
   2024 06 26 09:30  02 02 01.82    +07 17 35.5    38971 1.0164  64.0  m  11? 705.88  57.5    6  85  59  77
   2024 06 26 09:40  02 09 06.76    +08 23 56.5    36746 1.0164  62.0  m  11? 792.29  58.2    8  85  61  77
   2024 06 26 09:50  02 17 11.38    +09 37 21.6    34478 1.0164  59.7  m  11? 898.87  58.9    9  84  63  77
   2024 06 26 10:00  02 26 31.86    +10 59 05.5    32167 1.0164  57.1  m  11? 1032.5  59.9   10  83  65  77
   2024 06 26 10:10  02 37 30.77    +12 30 37.2    29814 1.0164  54.0  m  11? 1203.4  61.1   10  82  68  77
   2024 06 26 10:20  02 50 40.54    +14 13 38.7    27422 1.0164  50.4  m  11? 1426.6  62.7   11  80  72  77
   2024 06 26 10:30  03 06 49.13    +16 09 55.2    24998 1.0164  46.1 Ae  11? 1725.2  64.6   11  78  76  77
   2024 06 26 10:40  03 27 09.69    +18 20 40.8    22557 1.0164  40.9 Am  11? 2135.6  67.3   10  74  81  77
   2024 06 26 10:50  03 53 36.80    +20 44 57.2    20128 1.0164  34.3 Am  11? 2714.5  70.8    8  70  88  77
   2024 06 26 11:00  04 29 11.06    +23 14 50.7    17765 1.0164  25.8 Am  11? 3547.5  75.8    5  64  96  76
   2024 06 26 11:10  05 18 21.68    +25 23 18.6    15571 1.0164  14.5 Nm  11? 4742.6  82.9    0  57 108  76
   ................
   2024 06 27 07:50  22 31 01.58    -34 13 05.7   151021 1.0172 125.8  m  15?  23.69  47.5    0 135  27  67
   2024 06 27 08:00  22 31 15.21    -34 10 24.5   151436 1.0172 125.8  m  15?  23.04  44.9    1 136  27  67
   2024 06 27 08:10  22 31 27.90    -34 07 40.2   151850 1.0172 125.7  m  15?  22.47  42.3    2 138  27  67
   2024 06 27 08:20  22 31 39.67    -34 04 52.6   152263 1.0172 125.7  m  15?  22.01  39.6    4 139  27  67
   2024 06 27 08:30  22 31 50.57    -34 02 01.5   152674 1.0172 125.6  m  15?  21.63  36.8    5 141  27  67
   2024 06 27 08:40  22 32 00.62    -33 59 06.7   153085 1.0172 125.6  m  15?  21.35  34.0    6 142  27  67
   2024 06 27 08:50  22 32 09.87    -33 56 08.0   153496 1.0172 125.6  m  15?  21.16  31.2    7 144  27  67
   2024 06 27 09:00  22 32 18.35    -33 53 05.2   153906 1.0172 125.5  m  15?  21.06  28.5    8 146  27  67
   2024 06 27 09:10  22 32 26.11    -33 49 58.2   154317 1.0172 125.5  m  15?  21.04  25.9   10 148  27  67
   2024 06 27 09:20  22 32 33.18    -33 46 46.8   154728 1.0172 125.5  m  15?  21.10  23.3   11 149  27  67
   2024 06 27 09:30  22 32 39.61    -33 43 31.0   155141 1.0172 125.5  m  15?  21.24  20.9   12 151  27  67
   2024 06 27 09:40  22 32 45.43    -33 40 10.5   155554 1.0172 125.5  m  15?  21.43  18.7   13 153  27  66
   2024 06 27 09:50  22 32 50.69    -33 36 45.2   155968 1.0172 125.4  m  15?  21.69  16.6   13 155  27  66
   2024 06 27 10:00  22 32 55.44    -33 33 15.1   156384 1.0172 125.4  m  15?  21.99  14.7   14 157  27  66
   2024 06 27 10:10  22 32 59.71    -33 29 40.1   156801 1.0172 125.4  m  15?  22.34  13.0   15 159  27  66
   2024 06 27 10:20  22 33 03.56    -33 26 00.0   157220 1.0172 125.4  m  15?  22.72  11.4   16 161  27  66
   2024 06 27 10:30  22 33 07.01    -33 22 14.9   157642 1.0172 125.4 Am  15?  23.13  10.1   16 163  27  66
   2024 06 27 10:40  22 33 10.13    -33 18 24.7   158065 1.0172 125.4 Am  15?  23.57   8.9   17 165  27  66
   2024 06 27 10:50  22 33 12.94    -33 14 29.4   158491 1.0172 125.4 Am  15?  24.03   7.9   17 167  27  66
   2024 06 27 11:00  22 33 15.51    -33 10 28.9   158920 1.0172 125.3 Am  15?  24.51   7.1   18 170  27  66
   2024 06 27 11:10  22 33 17.86    -33 06 23.2   159351 1.0172 125.3 Nm  15?  24.99   6.4   18 172  27  66
   2024 06 27 11:20  22 33 20.04    -33 02 12.4   159784 1.0172 125.3 Nm  15?  25.48   5.9   19 174  27  66
   2024 06 27 11:30  22 33 22.11    -32 57 56.4   160221 1.0172 125.3 Nm  15?  25.98   5.5   19 176  27  66
   2024 06 27 11:40  22 33 24.09    -32 53 35.4   160661 1.0172 125.3 Nm  15?  26.47   5.2   19 178  27  66
   2024 06 27 11:50  22 33 26.04    -32 49 09.3   161103 1.0172 125.3 Ct  15?  26.97   5.1   19 181  27  66
   2024 06 27 12:00  22 33 28.00    -32 44 38.3   161549 1.0172 125.3 Ce  15?  27.47   5.1   19 183  27  66
   ................
   2024 06 28 07:50  23 16 29.89    -25 02 58.1   186609 1.0171 115.3  m  15?  16.66  50.1    0 122  25  56
   2024 06 28 08:00  23 16 38.95    -25 01 09.9   186385 1.0171 115.2  m  15?  16.07  47.4    1 123  25  56
   2024 06 28 08:10  23 16 47.32    -24 59 19.6   186159 1.0171 115.2  m  15?  15.54  44.5    3 125  25  56
   2024 06 28 08:20  23 16 55.00    -24 57 27.2   185934 1.0171 115.2  m  15?  15.08  41.4    5 126  25  56
   2024 06 28 08:30  23 17 02.00    -24 55 32.4   185708 1.0171 115.2  m  15?  14.69  38.1    6 128  25  56
   2024 06 28 08:40  23 17 08.35    -24 53 35.1   185484 1.0171 115.1  m  15?  14.38  34.7    8 130  25  56
   2024 06 28 08:50  23 17 14.06    -24 51 35.1   185260 1.0171 115.1  m  15?  14.14  31.2    9 131  25  56
   2024 06 28 09:00  23 17 19.15    -24 49 32.3   185037 1.0171 115.1  m  15?  13.99  27.7   11 133  25  55
   2024 06 28 09:10  23 17 23.63    -24 47 26.4   184815 1.0171 115.1  m  15?  13.91  24.1   12 135  25  55
   2024 06 28 09:20  23 17 27.53    -24 45 17.3   184596 1.0171 115.0  m  15?  13.92  20.6   13 137  25  55
   2024 06 28 09:30  23 17 30.86    -24 43 05.0   184378 1.0171 115.0  m  15?  13.99  17.3   15 139  25  55
   2024 06 28 09:40  23 17 33.65    -24 40 49.2   184162 1.0171 115.0  m  15?  14.14  14.1   16 141  25  55
   2024 06 28 09:50  23 17 35.93    -24 38 29.8   183950 1.0171 115.0  m  15?  14.34  11.1   17 143  25  55
   2024 06 28 10:00  23 17 37.72    -24 36 06.7   183739 1.0171 115.0  m  15?  14.60   8.3   19 145  25  55
   2024 06 28 10:10  23 17 39.04    -24 33 39.7   183532 1.0171 115.0  m  15?  14.92   5.7   20 147  25  55
   2024 06 28 10:20  23 17 39.92    -24 31 08.8   183328 1.0171 115.0  m  15?  15.27   3.4   21 149  26  55
   2024 06 28 10:30  23 17 40.39    -24 28 33.9   183128 1.0171 115.0 Am  15?  15.66   1.3   22 151  26  55
   2024 06 28 10:40  23 17 40.48    -24 25 54.8   182931 1.0171 115.0 Am  15?  16.07 359.4   23 153  26  55
   2024 06 28 10:50  23 17 40.22    -24 23 11.4   182738 1.0171 115.0 Am  15?  16.51 357.9   24 156  26  55
   2024 06 28 11:00  23 17 39.63    -24 20 23.8   182549 1.0171 115.0 Am  15?  16.96 356.5   24 158  26  55
   2024 06 28 11:10  23 17 38.76    -24 17 31.7   182364 1.0171 115.0 Nm  15?  17.43 355.4   25 160  26  55
   2024 06 28 11:20  23 17 37.63    -24 14 35.2   182184 1.0171 114.9 Nm  15?  17.91 354.4   26 163  26  55
   2024 06 28 11:30  23 17 36.27    -24 11 34.1   182008 1.0171 114.9 Nm  15?  18.39 353.7   26 165  26  55
   2024 06 28 11:40  23 17 34.72    -24 08 28.5   181836 1.0171 114.9 Nm  15?  18.87 353.1   27 168  26  54
   2024 06 28 11:50  23 17 33.02    -24 05 18.3   181669 1.0171 114.9 Cm  15?  19.35 352.7   27 170  26  54
   2024 06 28 12:00  23 17 31.19    -24 02 03.5   181507 1.0171 114.9 Cm  15?  19.83 352.4   28 173  26  54
   ................
   2024 06 29 08:00  00 02 56.88    -15 00 06.3   137419 1.0168 102.7  m  14?  44.11  49.7    0 109  23  44
   2024 06 29 08:10  00 03 19.79    -14 55 17.6   136508 1.0168 102.6  m  14?  43.70  48.4    2 111  23  44
   2024 06 29 08:20  00 03 42.03    -14 50 24.3   135593 1.0168 102.5  m  14?  43.32  47.1    4 112  23  44
   2024 06 29 08:30  00 04 03.62    -14 45 26.0   134673 1.0168 102.4  m  14?  42.99  45.8    6 114  23  44
   2024 06 29 08:40  00 04 24.55    -14 40 22.5   133750 1.0168 102.3  m  14?  42.70  44.4    8 115  23  44
   2024 06 29 08:50  00 04 44.83    -14 35 13.7   132823 1.0168 102.2  m  14?  42.46  43.0   10 117  23  44
   2024 06 29 09:00  00 05 04.46    -14 29 59.1   131892 1.0168 102.1  m  14?  42.26  41.5   11 118  23  44
   2024 06 29 09:10  00 05 23.46    -14 24 38.6   130958 1.0168 102.0  m  14?  42.13  40.1   13 120  23  44
   2024 06 29 09:20  00 05 41.83    -14 19 12.0   130021 1.0168 101.9  m  14?  42.05  38.6   15 122  22  44
   2024 06 29 09:30  00 05 59.58    -14 13 38.9   129082 1.0168 101.8  m  14?  42.03  37.1   16 123  22  44
   2024 06 29 09:40  00 06 16.73    -14 07 59.2   128140 1.0168 101.7  m  14?  42.07  35.6   18 125  22  44
   2024 06 29 09:50  00 06 33.29    -14 02 12.5   127195 1.0168 101.6  m  14?  42.17  34.1   20 127  22  44
   2024 06 29 10:00  00 06 49.28    -13 56 18.6   126249 1.0168 101.5  m  14?  42.33  32.7   21 129  22  43
   2024 06 29 10:10  00 07 04.72    -13 50 17.2   125301 1.0168 101.4  m  14?  42.56  31.2   23 131  22  43
   2024 06 29 10:20  00 07 19.62    -13 44 08.2   124351 1.0168 101.3  m  14?  42.86  29.8   24 133  22  43
   2024 06 29 10:30  00 07 34.00    -13 37 51.1   123399 1.0168 101.3 Am  14?  43.22  28.4   26 135  22  43
   2024 06 29 10:40  00 07 47.90    -13 31 25.8   122447 1.0168 101.2 Am  13?  43.64  27.1   27 137  22  43
   2024 06 29 10:50  00 08 01.34    -13 24 51.9   121493 1.0168 101.1 Am  13?  44.12  25.9   29 139  22  43
   2024 06 29 11:00  00 08 14.35    -13 18 09.3   120538 1.0168 101.0 Am  13?  44.67  24.7   30 141  22  43
   2024 06 29 11:10  00 08 26.95    -13 11 17.7   119582 1.0168 100.9 Nm  13?  45.28  23.6   31 144  22  43
   2024 06 29 11:20  00 08 39.18    -13 04 16.7   118625 1.0168 100.8 Nm  13?  45.95  22.5   32 146  22  43
   2024 06 29 11:30  00 08 51.07    -12 57 06.2   117668 1.0168 100.8 Nm  13?  46.67  21.5   34 149  22  43
   2024 06 29 11:40  00 09 02.66    -12 49 45.8   116710 1.0168 100.7 Nm  13?  47.46  20.6   35 151  22  43
   2024 06 29 11:50  00 09 13.98    -12 42 15.3   115751 1.0168 100.6 Cm  13?  48.29  19.8   36 154  22  43
   2024 06 29 12:00  00 09 25.08    -12 34 34.5   114792 1.0168 100.5 Cm  13?  49.19  19.1   36 157  22  43
   ................
   2024 06 30 07:50  21 29 43.82    -44 24 08.7    86971 1.0171 139.0     14?  92.05  47.5    0 152  79  33
   2024 06 30 08:00  21 30 45.55    -44 13 51.2    88088 1.0171 138.9  m  14?  89.45  46.3    1 153  79  33
   2024 06 30 08:10  21 31 44.25    -44 03 37.4    89193 1.0171 138.8  m  14?  87.08  45.1    2 155  79  33
   2024 06 30 08:20  21 32 40.13    -43 53 27.0    90288 1.0171 138.7  m  14?  84.91  44.0    3 156  79  33
   2024 06 30 08:30  21 33 33.37    -43 43 19.3    91373 1.0171 138.6  m  14?  82.94  42.8    3 157  79  33
   2024 06 30 08:40  21 34 24.15    -43 33 13.9    92449 1.0171 138.5  m  14?  81.14  41.7    4 159  78  33
   2024 06 30 08:50  21 35 12.63    -43 23 10.5    93515 1.0171 138.4  m  14?  79.52  40.5    5 160  78  33
   2024 06 30 09:00  21 35 58.98    -43 13 08.7    94573 1.0171 138.3  m  14?  78.05  39.4    6 162  78  33
   2024 06 30 09:10  21 36 43.35    -43 03 08.1    95623 1.0171 138.2  m  14?  76.74  38.3    6 164  78  33
   2024 06 30 09:20  21 37 25.88    -42 53 08.5    96665 1.0172 138.1  m  14?  75.56  37.3    7 165  78  33
   2024 06 30 09:30  21 38 06.72    -42 43 09.5    97700 1.0172 138.0  m  14?  74.51  36.3    8 167  78  33
   2024 06 30 09:40  21 38 45.99    -42 33 11.0    98729 1.0172 138.0  m  14?  73.57  35.4    8 168  78  32
   2024 06 30 09:50  21 39 23.83    -42 23 12.8    99751 1.0172 137.9  m  14?  72.74  34.5    9 170  78  32
   2024 06 30 10:00  21 40 00.35    -42 13 14.6   100767 1.0172 137.8  m  14?  72.02  33.6    9 172  78  32
   2024 06 30 10:10  21 40 35.66    -42 03 16.4   101778 1.0172 137.8  m  14?  71.38  32.8   10 174  78  32
   2024 06 30 10:20  21 41 09.89    -41 53 18.1   102784 1.0172 137.7  m  14?  70.83  32.1   10 175  77  32
   2024 06 30 10:30  21 41 43.13    -41 43 19.5   103784 1.0172 137.6 Am  14?  70.35  31.4   10 177  77  32
   2024 06 30 10:40  21 42 15.49    -41 33 20.6   104780 1.0172 137.6 Am  14?  69.94  30.8   10 179  77  32
   2024 06 30 10:50  21 42 47.06    -41 23 21.4   105772 1.0172 137.5 At  14?  69.59  30.3   10 181  77  32
   2024 06 30 11:00  21 43 17.93    -41 13 21.8   106760 1.0172 137.5 Am  14?  69.29  29.8   11 183  77  32
   2024 06 30 11:10  21 43 48.20    -41 03 21.9   107743 1.0172 137.4 Nm  14?  69.05  29.4   11 184  77  32
   2024 06 30 11:20  21 44 17.94    -40 53 21.6   108724 1.0172 137.3 Ne  14?  68.84  29.1   11 186  77  32
   2024 06 30 11:30  21 44 47.24    -40 43 21.2   109700 1.0172 137.3 Nm  14?  68.68  28.8   10 188  77  32
   2024 06 30 11:40  21 45 16.18    -40 33 20.5   110674 1.0172 137.2 Nm  14?  68.55  28.6   10 190  77  32
   2024 06 30 11:50  21 45 44.82    -40 23 19.7   111644 1.0172 137.2 Cm  14?  68.45  28.4   10 192  77  32
   2024 06 30 12:00  21 46 13.24    -40 13 18.9   112612 1.0172 137.1 Cm  14?  68.38  28.3   10 194  77  32
   ................
   

MMS-4 (JPL-ID: -140485)

   Date (UTC) HH:MM   RA              Dec         delta   r     elong SM  mag  '/hr    PA   alt  az moo ill
   ---- -- -- -----  -------------   -----------  ------ ------ ----- --  --- ------ ------ --- --- --- ---
   2024 06 20 08:20  22 33 55.67    -33 36 28.6   155658 1.0167 119.2  m  14?  22.44  48.5    0 134  78  96
   2024 06 20 08:30  22 34 08.65    -33 33 58.3   156025 1.0167 119.2  m  14?  21.80  45.9    1 136  78  96
   2024 06 20 08:40  22 34 20.73    -33 31 25.0   156390 1.0167 119.1  m  14?  21.25  43.2    3 137  78  96
   2024 06 20 08:50  22 34 31.93    -33 28 48.4   156755 1.0167 119.1  m  15?  20.79  40.4    4 139  78  96
   2024 06 20 09:00  22 34 42.29    -33 26 08.3   157119 1.0167 119.1  m  15?  20.43  37.6    5 140  78  96
   2024 06 20 09:10  22 34 51.85    -33 23 24.6   157482 1.0167 119.0  m  15?  20.15  34.7    7 142  78  96
   2024 06 20 09:20  22 35 00.64    -33 20 36.9   157846 1.0167 119.0  m  15?  19.97  31.9    8 144  78  96
   2024 06 20 09:30  22 35 08.69    -33 17 45.3   158210 1.0167 119.0  m  15?  19.87  29.1    9 145  78  96
   2024 06 20 09:40  22 35 16.05    -33 14 49.4   158574 1.0167 118.9  m  15?  19.85  26.3   10 147  78  96
   2024 06 20 09:50  22 35 22.75    -33 11 49.2   158939 1.0167 118.9  m  15?  19.92  23.7   11 149  78  96
   2024 06 20 10:00  22 35 28.83    -33 08 44.6   159306 1.0167 118.9  m  15?  20.05  21.2   12 151  78  96
   2024 06 20 10:10  22 35 34.33    -33 05 35.3   159673 1.0167 118.9  m  15?  20.24  18.9   13 153  78  96
   2024 06 20 10:20  22 35 39.30    -33 02 21.3   160043 1.0167 118.8 Am  15?  20.50  16.8   14 155  78  96
   2024 06 20 10:30  22 35 43.76    -32 59 02.6   160414 1.0167 118.8 Am  15?  20.80  14.8   15 157  78  96
   2024 06 20 10:40  22 35 47.77    -32 55 38.9   160786 1.0167 118.8 Am  15?  21.15  13.0   16 159  77  96
   2024 06 20 10:50  22 35 51.36    -32 52 10.3   161162 1.0167 118.8 A   15?  21.53  11.5   16 161  77  96
   2024 06 20 11:00  22 35 54.58    -32 48 36.6   161539 1.0167 118.8 A   15?  21.94  10.1   17 163  77  96
   2024 06 20 11:10  22 35 57.47    -32 44 57.9   161919 1.0167 118.8 N   15?  22.38   8.9   18 165  77  96
   2024 06 20 11:20  22 36 00.07    -32 41 14.0   162301 1.0167 118.7 N   15?  22.84   7.8   18 167  77  96
   2024 06 20 11:30  22 36 02.43    -32 37 25.1   162687 1.0167 118.7 N   15?  23.31   7.0   18 169  77  96
   2024 06 20 11:40  22 36 04.58    -32 33 31.0   163075 1.0167 118.7 N   15?  23.80   6.3   19 172  77  96
   2024 06 20 11:50  22 36 06.57    -32 29 31.8   163466 1.0167 118.7 C   15?  24.29   5.7   19 174  77  96
   2024 06 20 12:00  22 36 08.45    -32 25 27.4   163860 1.0167 118.7 C   15?  24.78   5.3   19 176  77  96
   ................
   2024 06 21 08:20  23 19 06.85    -24 38 59.4   185831 1.0166 108.3  m  15?  17.36  50.8    0 121  78  99
   2024 06 21 08:30  23 19 16.34    -24 37 08.8   185570 1.0166 108.3  m  15?  16.76  48.3    2 123  78  99
   2024 06 21 08:40  23 19 25.13    -24 35 16.3   185310 1.0166 108.3  m  15?  16.22  45.5    3 125  78  99
   2024 06 21 08:50  23 19 33.24    -24 33 21.5   185049 1.0166 108.2  m  15?  15.75  42.6    5 126  78  99
   2024 06 21 09:00  23 19 40.68    -24 31 24.3   184788 1.0166 108.2  m  15?  15.34  39.5    6 128  78  99
   2024 06 21 09:10  23 19 47.46    -24 29 24.6   184527 1.0166 108.2  m  15?  15.01  36.2    8 129  78  99
   2024 06 21 09:20  23 19 53.60    -24 27 22.2   184268 1.0166 108.2  m  15?  14.75  32.9    9 131  78  99
   2024 06 21 09:30  23 19 59.13    -24 25 16.9   184009 1.0166 108.1  m  15?  14.57  29.5   11 133  78  99
   2024 06 21 09:40  23 20 04.05    -24 23 08.6   183752 1.0166 108.1  m  15?  14.47  26.1   12 135  78  99
   2024 06 21 09:50  23 20 08.38    -24 20 57.1   183496 1.0166 108.1  m  15?  14.44  22.8   14 136  78  99
   2024 06 21 10:00  23 20 12.15    -24 18 42.2   183243 1.0166 108.1  m  15?  14.49  19.5   15 138  78  99
   2024 06 21 10:10  23 20 15.38    -24 16 23.9   182991 1.0166 108.1  m  15?  14.60  16.4   16 140  78  99
   2024 06 21 10:20  23 20 18.10    -24 14 02.0   182743 1.0166 108.0 Am  15?  14.78  13.4   18 142  78  99
   2024 06 21 10:30  23 20 20.32    -24 11 36.3   182497 1.0166 108.0 Am  15?  15.01  10.6   19 144  78  99
   2024 06 21 10:40  23 20 22.08    -24 09 06.9   182253 1.0166 108.0 Am  15?  15.30   8.1   20 146  77  99
   2024 06 21 10:50  23 20 23.39    -24 06 33.4   182013 1.0166 108.0 Am  15?  15.63   5.7   21 149  77  99
   2024 06 21 11:00  23 20 24.29    -24 03 55.8   181777 1.0166 108.0 Am  15?  16.00   3.7   22 151  77  99
   2024 06 21 11:10  23 20 24.81    -24 01 14.1   181544 1.0166 108.0 Nm  15?  16.39   1.8   23 153  77  99
   2024 06 21 11:20  23 20 24.98    -23 58 28.1   181315 1.0166 108.0 Nm  15?  16.82   0.2   24 155  77  99
   2024 06 21 11:30  23 20 24.82    -23 55 37.8   181090 1.0166 108.0 Nm  15?  17.26 358.7   25 158  77  99
   2024 06 21 11:40  23 20 24.37    -23 52 43.1   180869 1.0166 108.0 N   15?  17.72 357.5   25 160  77  99
   2024 06 21 11:50  23 20 23.66    -23 49 43.8   180652 1.0166 107.9 C   15?  18.19 356.5   26 163  77  99
   2024 06 21 12:00  23 20 22.72    -23 46 40.0   180439 1.0166 107.9 C   15?  18.66 355.7   27 165  77  99
   ................
   2024 06 22 08:30  00 08 45.56    -14 07 36.9   130222 1.0164  94.6  m  13?  51.15  50.4    0 108  80  99
   2024 06 22 08:40  00 09 12.26    -14 02 08.8   129243 1.0164  94.5  m  13?  50.84  49.3    2 109  80  99
   2024 06 22 08:50  00 09 38.36    -13 56 35.0   128258 1.0164  94.4  m  13?  50.57  48.2    4 111  80  99
   2024 06 22 09:00  00 10 03.84    -13 50 55.2   127268 1.0164  94.2  m  13?  50.34  47.0    6 112  80  99
   2024 06 22 09:10  00 10 28.71    -13 45 09.1   126273 1.0164  94.1  m  13?  50.16  45.8    8 114  80  99
   2024 06 22 09:20  00 10 52.97    -13 39 16.4   125274 1.0164  94.0  m  13?  50.02  44.6    9 115  80  99
   2024 06 22 09:30  00 11 16.64    -13 33 16.9   124270 1.0164  93.9  m  13?  49.94  43.3   11 117  80  99
   2024 06 22 09:40  00 11 39.72    -13 27 10.2   123262 1.0164  93.7  m  13?  49.91  42.0   13 119  80  99
   2024 06 22 09:50  00 12 02.22    -13 20 56.0   122250 1.0164  93.6  m  13?  49.94  40.7   15 120  80  99
   2024 06 22 10:00  00 12 24.15    -13 14 34.0   121235 1.0164  93.5  m  13?  50.03  39.4   16 122  81  99
   2024 06 22 10:10  00 12 45.53    -13 08 04.0   120216 1.0164  93.4  m  13?  50.18  38.1   18 124  81  99
   2024 06 22 10:20  00 13 06.37    -13 01 25.5   119193 1.0164  93.3 Am  13?  50.40  36.9   20 125  81  99
   2024 06 22 10:30  00 13 26.68    -12 54 38.3   118167 1.0163  93.2 Am  13?  50.68  35.6   21 127  81  99
   2024 06 22 10:40  00 13 46.49    -12 47 42.1   117139 1.0163  93.1 Am  13?  51.04  34.3   23 129  81  99
   2024 06 22 10:50  00 14 05.82    -12 40 36.4   116107 1.0163  92.9 Am  13?  51.46  33.1   25 131  81  99
   2024 06 22 11:00  00 14 24.69    -12 33 21.0   115073 1.0163  92.8 Am  13?  51.95  31.9   26 133  81  99
   2024 06 22 11:10  00 14 43.13    -12 25 55.6   114037 1.0163  92.7 Nm  13?  52.51  30.8   28 135  81  99
   2024 06 22 11:20  00 15 01.17    -12 18 19.7   112997 1.0163  92.6 Nm  13?  53.15  29.7   29 137  81  99
   2024 06 22 11:30  00 15 18.83    -12 10 33.0   111956 1.0163  92.5 Nm  13?  53.86  28.6   30 140  81  99
   2024 06 22 11:40  00 15 36.15    -12 02 35.3   110912 1.0163  92.4 Nm  13?  54.64  27.6   32 142  81  99
   2024 06 22 11:50  00 15 53.16    -11 54 26.0   109866 1.0163  92.3 Cm  13?  55.49  26.7   33 144  81  99
   2024 06 22 12:00  00 16 09.90    -11 46 04.9   108818 1.0163  92.2 Cm  13?  56.41  25.8   34 147  81  99
   ................
   2024 06 23 08:10  21 41 02.90    -42 28 07.9    97057 1.0168 132.4  m  14?  70.61  48.4    0 148  31  97
   2024 06 23 08:20  21 41 49.78    -42 20 19.8    98045 1.0168 132.3  m  14?  68.78  47.1    1 149  31  97
   2024 06 23 08:30  21 42 34.40    -42 12 31.5    99025 1.0168 132.2  m  14?  67.12  45.7    2 151  31  97
   2024 06 23 08:40  21 43 16.90    -42 04 42.7    99997 1.0168 132.1  m  14?  65.62  44.3    3 152  31  97
   2024 06 23 08:50  21 43 57.41    -41 56 53.2   100961 1.0168 131.9  m  14?  64.26  43.0    4 154  31  97
   2024 06 23 09:00  21 44 36.04    -41 49 02.5   101918 1.0168 131.8  m  14?  63.05  41.6    4 155  31  97
   2024 06 23 09:10  21 45 12.92    -41 41 10.5   102868 1.0168 131.7  m  14?  61.97  40.3    5 157  31  97
   2024 06 23 09:20  21 45 48.16    -41 33 16.9   103812 1.0168 131.7  m  14?  61.02  39.0    6 158  31  97
   2024 06 23 09:30  21 46 21.87    -41 25 21.6   104750 1.0168 131.6  m  14?  60.19  37.7    7 160  31  97
   2024 06 23 09:40  21 46 54.16    -41 17 24.2   105683 1.0168 131.5  m  14?  59.47  36.4    8 162  31  97
   2024 06 23 09:50  21 47 25.13    -41 09 24.7   106611 1.0168 131.4  m  14?  58.85  35.2    8 163  31  97
   2024 06 23 10:00  21 47 54.88    -41 01 22.9   107533 1.0168 131.3  m  14?  58.33  34.1    9 165  31  97
   2024 06 23 10:10  21 48 23.51    -40 53 18.7   108452 1.0168 131.2  m  14?  57.90  33.0   10 167  31  97
   2024 06 23 10:20  21 48 51.11    -40 45 12.0   109366 1.0168 131.2 Am  14?  57.55  32.0   10 169  31  97
   2024 06 23 10:30  21 49 17.78    -40 37 02.7   110276 1.0168 131.1 Am  14?  57.27  31.1   11 170  31  97
   2024 06 23 10:40  21 49 43.60    -40 28 50.8   111183 1.0169 131.0 Am  14?  57.06  30.2   11 172  31  97
   2024 06 23 10:50  21 50 08.66    -40 20 36.2   112087 1.0169 131.0 Am  14?  56.91  29.4   11 174  31  97
   2024 06 23 11:00  21 50 33.04    -40 12 19.0   112988 1.0169 130.9 Am  14?  56.82  28.7   12 176  31  97
   2024 06 23 11:10  21 50 56.82    -40 03 59.2   113886 1.0169 130.8 Nm  14?  56.77  28.1   12 178  31  97
   2024 06 23 11:20  21 51 20.08    -39 55 36.7   114781 1.0169 130.8 Nt  14?  56.77  27.5   12 180  31  97
   2024 06 23 11:30  21 51 42.89    -39 47 11.6   115674 1.0169 130.7 Nm  14?  56.80  27.0   12 182  31  97
   2024 06 23 11:40  21 52 05.32    -39 38 44.1   116565 1.0169 130.6 Nm  14?  56.87  26.6   12 183  31  97
   2024 06 23 11:50  21 52 27.45    -39 30 14.2   117454 1.0169 130.6 Ce  14?  56.97  26.2   12 185  31  97
   2024 06 23 12:00  21 52 49.34    -39 21 41.9   118341 1.0169 130.5 Cm  14?  57.09  26.0   12 187  31  97
   ................
   2024 06 24 08:00  22 57 34.60    -29 00 18.4   180497 1.0170 116.8  r  15?  16.58  51.0    0 127  34  93
   2024 06 24 08:10  22 57 44.07    -28 58 32.6   180542 1.0170 116.8  m  15?  15.96  48.1    1 128  34  93
   2024 06 24 08:20  22 57 52.79    -28 56 44.5   180587 1.0170 116.7  m  15?  15.42  45.0    2 130  34  93
   2024 06 24 08:30  22 58 00.77    -28 54 54.0   180631 1.0170 116.7  m  15?  14.95  41.8    4 131  34  93
   2024 06 24 08:40  22 58 08.03    -28 53 00.8   180675 1.0170 116.7  m  15?  14.57  38.4    5 133  34  93
   2024 06 24 08:50  22 58 14.60    -28 51 04.8   180720 1.0170 116.7  m  15?  14.27  34.8    7 135  33  93
   2024 06 24 09:00  22 58 20.50    -28 49 05.7   180766 1.0170 116.6  m  15?  14.06  31.2    8 136  33  93
   2024 06 24 09:10  22 58 25.75    -28 47 03.4   180813 1.0170 116.6  m  15?  13.93  27.5    9 138  33  93
   2024 06 24 09:20  22 58 30.37    -28 44 57.8   180861 1.0170 116.6  m  15?  13.89  23.9   11 140  33  93
   2024 06 24 09:30  22 58 34.39    -28 42 48.7   180911 1.0170 116.6  m  15?  13.93  20.5   12 142  33  93
   2024 06 24 09:40  22 58 37.84    -28 40 35.9   180963 1.0170 116.6  m  15?  14.05  17.1   13 143  33  93
   2024 06 24 09:50  22 58 40.75    -28 38 19.3   181017 1.0170 116.5  m  15?  14.23  14.0   14 145  33  93
   2024 06 24 10:00  22 58 43.13    -28 35 58.8   181074 1.0170 116.5  m  15?  14.48  11.1   15 147  33  92
   2024 06 24 10:10  22 58 45.04    -28 33 34.3   181133 1.0170 116.5  m  15?  14.78   8.4   16 149  33  92
   2024 06 24 10:20  22 58 46.48    -28 31 05.6   181195 1.0170 116.5 Am  15?  15.12   6.0   17 151  33  92
   2024 06 24 10:30  22 58 47.50    -28 28 32.6   181260 1.0170 116.5 Am  15?  15.51   3.9   18 153  33  92
   2024 06 24 10:40  22 58 48.13    -28 25 55.3   181329 1.0170 116.5 Am  15?  15.92   2.0   19 156  33  92
   2024 06 24 10:50  22 58 48.40    -28 23 13.5   181401 1.0170 116.5 Am  15?  16.36   0.3   20 158  33  92
   2024 06 24 11:00  22 58 48.34    -28 20 27.2   181477 1.0170 116.5 Am  15?  16.82 358.9   21 160  33  92
   2024 06 24 11:10  22 58 48.00    -28 17 36.3   181557 1.0170 116.5 Nm  15?  17.29 357.7   21 162  33  92
   2024 06 24 11:20  22 58 47.39    -28 14 40.8   181641 1.0170 116.5 Nm  15?  17.77 356.8   22 165  33  92
   2024 06 24 11:30  22 58 46.57    -28 11 40.7   181728 1.0170 116.5 Nm  15?  18.25 356.0   23 167  33  92
   2024 06 24 11:40  22 58 45.56    -28 08 35.8   181820 1.0170 116.5 Nm  15?  18.74 355.4   23 169  33  92
   2024 06 24 11:50  22 58 44.40    -28 05 26.1   181917 1.0170 116.5 Cm  15?  19.23 355.0   23 172  33  92
   2024 06 24 12:00  22 58 43.13    -28 02 11.8   182017 1.0170 116.5 Cm  15?  19.71 354.8   24 174  33  92
   ................
   2024 06 25 08:10  23 37 56.37    -20 33 30.9   171994 1.0168 106.5  m  14?  23.15  50.0    0 116  31  86
   2024 06 25 08:20  23 38 08.59    -20 31 00.7   171452 1.0168 106.5  m  14?  22.55  47.9    2 118  31  86
   2024 06 25 08:30  23 38 20.11    -20 28 28.2   170909 1.0168 106.4  m  14?  22.00  45.8    4 119  31  86
   2024 06 25 08:40  23 38 30.95    -20 25 53.3   170364 1.0168 106.4  m  14?  21.51  43.5    6 121  31  86
   2024 06 25 08:50  23 38 41.09    -20 23 15.7   169819 1.0168 106.3  m  14?  21.07  41.1    7 123  31  86
   2024 06 25 09:00  23 38 50.57    -20 20 35.3   169273 1.0168 106.3  m  14?  20.69  38.7    9 124  31  86
   2024 06 25 09:10  23 38 59.38    -20 17 52.0   168727 1.0168 106.3  m  14?  20.38  36.1   10 126  31  86
   2024 06 25 09:20  23 39 07.55    -20 15 05.5   168180 1.0168 106.2  m  14?  20.13  33.5   12 128  31  86
   2024 06 25 09:30  23 39 15.08    -20 12 15.7   167635 1.0168 106.2  m  14?  19.95  30.9   14 129  31  86
   2024 06 25 09:40  23 39 21.99    -20 09 22.5   167090 1.0168 106.1  m  14?  19.83  28.2   15 131  31  86
   2024 06 25 09:50  23 39 28.30    -20 06 25.6   166546 1.0168 106.1  m  14?  19.79  25.6   17 133  31  86
   2024 06 25 10:00  23 39 34.03    -20 03 25.0   166003 1.0168 106.1  m  14?  19.81  23.0   18 135  31  86
   2024 06 25 10:10  23 39 39.19    -20 00 20.4   165462 1.0168 106.0  m  14?  19.89  20.5   19 137  31  86
   2024 06 25 10:20  23 39 43.82    -19 57 11.7   164922 1.0168 106.0 Am  14?  20.04  18.1   21 139  31  86
   2024 06 25 10:30  23 39 47.92    -19 53 58.9   164385 1.0168 106.0 Am  14?  20.24  15.8   22 141  31  86
   2024 06 25 10:40  23 39 51.54    -19 50 41.7   163850 1.0168 106.0 Am  14?  20.49  13.7   23 143  31  85
   2024 06 25 10:50  23 39 54.68    -19 47 20.0   163317 1.0168 105.9 Am  14?  20.80  11.7   25 146  31  85
   2024 06 25 11:00  23 39 57.38    -19 43 53.7   162787 1.0168 105.9 Am  14?  21.14   9.8   26 148  30  85
   2024 06 25 11:10  23 39 59.67    -19 40 22.7   162259 1.0168 105.9 Nm  14?  21.53   8.1   27 150  30  85
   2024 06 25 11:20  23 40 01.58    -19 36 46.9   161735 1.0168 105.9 Nm  14?  21.94   6.6   28 153  30  85
   2024 06 25 11:30  23 40 03.13    -19 33 06.1   161214 1.0168 105.9 Nm  14?  22.39   5.2   29 155  30  85
   2024 06 25 11:40  23 40 04.36    -19 29 20.3   160696 1.0168 105.8 Nm  14?  22.86   4.0   29 158  30  85
   2024 06 25 11:50  23 40 05.30    -19 25 29.3   160181 1.0168 105.8 Cm  14?  23.35   3.0   30 160  30  85
   2024 06 25 12:00  23 40 05.99    -19 21 33.2   159671 1.0168 105.8 Cm  14?  23.86   2.1   31 163  30  85
   ................
   2024 06 26 08:40  01 34 43.73    +02 48 29.9    50111 1.0164  72.0  r  12? 434.83  55.8    0  86  51  77
   2024 06 26 08:50  01 38 52.71    +03 30 47.4    48095 1.0164  70.8  m  12? 469.58  55.9    1  86  52  77
   2024 06 26 09:00  01 43 23.12    +04 16 22.4    46042 1.0164  69.5  m  12? 509.92  56.1    2  86  53  77
   2024 06 26 09:10  01 48 18.82    +05 05 42.6    43953 1.0164  68.0  m  12? 557.16  56.4    4  86  55  77
   2024 06 26 09:20  01 53 44.70    +05 59 20.8    41824 1.0164  66.4  m  11? 613.01  56.8    5  86  56  77
   2024 06 26 09:30  01 59 46.99    +06 57 56.6    39656 1.0164  64.7  m  11? 679.76  57.2    7  86  58  77
   2024 06 26 09:40  02 06 33.77    +08 02 17.9    37446 1.0164  62.7  m  11? 760.54  57.8    8  86  60  77
   2024 06 26 09:50  02 14 15.80    +09 13 22.8    35194 1.0164  60.5  m  11? 859.68  58.6    9  85  62  77
   2024 06 26 10:00  02 23 07.60    +10 32 22.0    32899 1.0164  58.0  m  11? 983.30  59.5   10  84  64  77
   2024 06 26 10:10  02 33 29.28    +12 00 40.4    30561 1.0164  55.1  m  11? 1140.3  60.6   11  83  67  77
   2024 06 26 10:20  02 45 49.49    +13 39 57.3    28182 1.0164  51.7  m  11? 1343.8  62.0   11  81  71  77
   2024 06 26 10:30  03 00 50.18    +15 32 00.3    25769 1.0164  47.7 Ae  11? 1614.0  63.8   12  79  75  77
   2024 06 26 10:40  03 19 34.72    +17 38 23.2    23333 1.0164  42.8 Am  11? 1982.1  66.2   11  76  79  77
   2024 06 26 10:50  03 43 41.68    +19 59 14.6    20897 1.0164  36.7 Am  11? 2496.9  69.4   10  72  85  77
   2024 06 26 11:00  04 15 46.89    +22 29 56.5    18505 1.0164  28.9 Am  11? 3234.2  73.8    7  67  93  76
   2024 06 26 11:10  04 59 50.27    +24 52 03.0    16241 1.0164  18.7 Nm  11? 4297.9  80.1    3  60 104  76
   ................
   2024 06 27 07:50  22 30 52.01    -34 14 57.9   150819 1.0172 125.8  m  15?  23.78  47.5    0 135  27  67
   2024 06 27 08:00  22 31 05.70    -34 12 16.0   151237 1.0172 125.8  m  15?  23.12  44.9    1 136  27  67
   2024 06 27 08:10  22 31 18.44    -34 09 31.1   151653 1.0172 125.8  m  15?  22.56  42.3    2 138  27  67
   2024 06 27 08:20  22 31 30.26    -34 06 42.8   152067 1.0172 125.7  m  15?  22.09  39.6    4 139  27  67
   2024 06 27 08:30  22 31 41.20    -34 03 51.1   152481 1.0172 125.7  m  15?  21.72  36.8    5 141  27  67
   2024 06 27 08:40  22 31 51.30    -34 00 55.6   152894 1.0172 125.6  m  15?  21.44  34.0    6 143  27  67
   2024 06 27 08:50  22 32 00.59    -33 57 56.2   153307 1.0172 125.6  m  15?  21.25  31.2    7 144  27  67
   2024 06 27 09:00  22 32 09.11    -33 54 52.8   153719 1.0172 125.6  m  15?  21.14  28.5    8 146  27  67
   2024 06 27 09:10  22 32 16.91    -33 51 45.1   154132 1.0172 125.6  m  15?  21.13  25.9   10 148  27  67
   2024 06 27 09:20  22 32 24.03    -33 48 33.1   154545 1.0172 125.5  m  15?  21.18  23.4   11 149  27  67
   2024 06 27 09:30  22 32 30.49    -33 45 16.6   154959 1.0172 125.5  m  15?  21.32  21.0   12 151  27  67
   2024 06 27 09:40  22 32 36.36    -33 41 55.4   155374 1.0172 125.5  m  15?  21.51  18.7   13 153  27  66
   2024 06 27 09:50  22 32 41.66    -33 38 29.4   155791 1.0172 125.5  m  15?  21.76  16.6   13 155  27  66
   2024 06 27 10:00  22 32 46.45    -33 34 58.7   156208 1.0172 125.5  m  15?  22.07  14.8   14 157  27  66
   2024 06 27 10:10  22 32 50.76    -33 31 22.9   156628 1.0172 125.4  m  15?  22.41  13.0   15 159  27  66
   2024 06 27 10:20  22 32 54.64    -33 27 42.2   157049 1.0172 125.4  m  15?  22.80  11.5   16 161  27  66
   2024 06 27 10:30  22 32 58.13    -33 23 56.4   157472 1.0172 125.4 Am  15?  23.21  10.2   16 163  27  66
   2024 06 27 10:40  22 33 01.28    -33 20 05.5   157898 1.0172 125.4 Am  15?  23.65   9.0   17 165  27  66
   2024 06 27 10:50  22 33 04.14    -33 16 09.5   158325 1.0172 125.4 Am  15?  24.11   8.0   17 167  27  66
   2024 06 27 11:00  22 33 06.73    -33 12 08.3   158756 1.0172 125.4 Am  15?  24.58   7.2   18 170  27  66
   2024 06 27 11:10  22 33 09.12    -33 08 01.9   159189 1.0172 125.4 Nm  15?  25.06   6.5   18 172  27  66
   2024 06 27 11:20  22 33 11.35    -33 03 50.4   159624 1.0172 125.4 Nm  15?  25.55   6.0   19 174  27  66
   2024 06 27 11:30  22 33 13.45    -32 59 33.7   160063 1.0172 125.3 Nm  15?  26.05   5.6   19 176  27  66
   2024 06 27 11:40  22 33 15.47    -32 55 12.0   160504 1.0172 125.3 Nm  15?  26.55   5.3   19 178  27  66
   2024 06 27 11:50  22 33 17.46    -32 50 45.2   160949 1.0172 125.3 Ct  15?  27.04   5.2   19 181  27  66
   2024 06 27 12:00  22 33 19.45    -32 46 13.5   161396 1.0172 125.3 Ce  15?  27.54   5.2   19 183  27  66
   ................
   2024 06 28 07:50  23 16 24.56    -25 04 02.4   186628 1.0171 115.3  m  15?  16.65  50.1    0 122  25  56
   2024 06 28 08:00  23 16 33.62    -25 02 14.2   186405 1.0171 115.3  m  15?  16.06  47.4    1 123  25  56
   2024 06 28 08:10  23 16 41.97    -25 00 23.9   186181 1.0171 115.2  m  15?  15.54  44.4    3 125  25  56
   2024 06 28 08:20  23 16 49.64    -24 58 31.5   185957 1.0171 115.2  m  15?  15.07  41.3    5 126  25  56
   2024 06 28 08:30  23 16 56.64    -24 56 36.7   185733 1.0171 115.2  m  15?  14.69  38.1    6 128  25  56
   2024 06 28 08:40  23 17 02.99    -24 54 39.4   185510 1.0171 115.2  m  15?  14.37  34.7    8 130  25  56
   2024 06 28 08:50  23 17 08.69    -24 52 39.4   185287 1.0171 115.1  m  15?  14.14  31.2    9 131  25  56
   2024 06 28 09:00  23 17 13.77    -24 50 36.5   185066 1.0171 115.1  m  15?  13.99  27.6   11 133  25  55
   2024 06 28 09:10  23 17 18.25    -24 48 30.7   184846 1.0171 115.1  m  15?  13.91  24.1   12 135  25  55
   2024 06 28 09:20  23 17 22.14    -24 46 21.6   184627 1.0171 115.1  m  15?  13.91  20.6   13 137  25  55
   2024 06 28 09:30  23 17 25.47    -24 44 09.2   184411 1.0171 115.1  m  15?  13.99  17.2   15 139  25  55
   2024 06 28 09:40  23 17 28.26    -24 41 53.4   184197 1.0171 115.0  m  15?  14.14  14.0   16 141  25  55
   2024 06 28 09:50  23 17 30.53    -24 39 34.0   183986 1.0171 115.0  m  15?  14.34  11.0   17 143  25  55
   2024 06 28 10:00  23 17 32.31    -24 37 10.9   183777 1.0171 115.0  m  15?  14.60   8.2   18 145  25  55
   2024 06 28 10:10  23 17 33.63    -24 34 43.9   183572 1.0171 115.0  m  15?  14.92   5.7   20 147  26  55
   2024 06 28 10:20  23 17 34.50    -24 32 13.0   183369 1.0171 115.0  m  15?  15.27   3.4   21 149  26  55
   2024 06 28 10:30  23 17 34.97    -24 29 38.1   183170 1.0171 115.0 Am  15?  15.66   1.3   22 151  26  55
   2024 06 28 10:40  23 17 35.06    -24 26 59.0   182975 1.0171 115.0 Am  15?  16.07 359.4   23 153  26  55
   2024 06 28 10:50  23 17 34.79    -24 24 15.6   182783 1.0171 115.0 Am  15?  16.51 357.8   24 156  26  55
   2024 06 28 11:00  23 17 34.20    -24 21 27.9   182596 1.0171 115.0 Am  15?  16.97 356.5   24 158  26  55
   2024 06 28 11:10  23 17 33.33    -24 18 35.9   182413 1.0171 115.0 Nm  15?  17.43 355.4   25 160  26  55
   2024 06 28 11:20  23 17 32.19    -24 15 39.3   182234 1.0171 115.0 Nm  15?  17.91 354.4   26 163  26  55
   2024 06 28 11:30  23 17 30.83    -24 12 38.3   182059 1.0171 115.0 Nm  15?  18.39 353.7   26 165  26  55
   2024 06 28 11:40  23 17 29.28    -24 09 32.7   181889 1.0171 115.0 Nm  15?  18.87 353.1   27 168  26  54
   2024 06 28 11:50  23 17 27.58    -24 06 22.4   181724 1.0171 115.0 Cm  15?  19.35 352.7   27 170  26  54
   2024 06 28 12:00  23 17 25.74    -24 03 07.6   181563 1.0171 115.0 Cm  15?  19.83 352.4   28 173  26  54
   ................
   2024 06 29 08:00  00 02 46.98    -15 01 59.9   137688 1.0168 102.7  m  14?  43.90  49.7    0 109  23  44
   2024 06 29 08:10  00 03 09.77    -14 57 12.4   136779 1.0168 102.6  m  14?  43.49  48.4    2 111  23  44
   2024 06 29 08:20  00 03 31.90    -14 52 20.4   135867 1.0168 102.5  m  14?  43.11  47.1    4 112  23  44
   2024 06 29 08:30  00 03 53.37    -14 47 23.4   134950 1.0168 102.4  m  14?  42.77  45.7    6 114  23  44
   2024 06 29 08:40  00 04 14.18    -14 42 21.3   134029 1.0168 102.3  m  14?  42.47  44.4    8 115  23  44
   2024 06 29 08:50  00 04 34.34    -14 37 13.8   133105 1.0168 102.2  m  14?  42.23  42.9   10 117  23  44
   2024 06 29 09:00  00 04 53.85    -14 32 00.7   132177 1.0168 102.1  m  14?  42.04  41.5   11 118  23  44
   2024 06 29 09:10  00 05 12.73    -14 26 41.7   131246 1.0168 102.0  m  14?  41.90  40.0   13 120  23  44
   2024 06 29 09:20  00 05 30.97    -14 21 16.6   130312 1.0168 101.9  m  14?  41.81  38.5   15 122  23  44
   2024 06 29 09:30  00 05 48.60    -14 15 45.0   129375 1.0168 101.8  m  14?  41.79  37.0   16 123  23  44
   2024 06 29 09:40  00 06 05.62    -14 10 06.9   128436 1.0168 101.8  m  14?  41.83  35.5   18 125  22  44
   2024 06 29 09:50  00 06 22.06    -14 04 21.8   127495 1.0168 101.7  m  14?  41.93  34.0   20 127  22  44
   2024 06 29 10:00  00 06 37.92    -13 58 29.6   126551 1.0168 101.6  m  14?  42.09  32.6   21 129  22  43
   2024 06 29 10:10  00 06 53.22    -13 52 30.0   125606 1.0168 101.5  m  14?  42.32  31.1   23 131  22  43
   2024 06 29 10:20  00 07 07.99    -13 46 22.7   124659 1.0168 101.4  m  14?  42.61  29.7   24 133  22  43
   2024 06 29 10:30  00 07 22.25    -13 40 07.4   123711 1.0168 101.3 Am  14?  42.96  28.3   26 135  22  43
   2024 06 29 10:40  00 07 36.02    -13 33 44.0   122762 1.0168 101.2 Am  13?  43.38  27.0   27 137  22  43
   2024 06 29 10:50  00 07 49.33    -13 27 12.1   121811 1.0168 101.1 Am  13?  43.86  25.8   29 139  22  43
   2024 06 29 11:00  00 08 02.20    -13 20 31.5   120859 1.0168 101.1 Am  13?  44.40  24.6   30 142  22  43
   2024 06 29 11:10  00 08 14.67    -13 13 41.9   119907 1.0168 101.0 Nm  13?  45.01  23.4   31 144  22  43
   2024 06 29 11:20  00 08 26.76    -13 06 43.1   118953 1.0168 100.9 Nm  13?  45.67  22.4   32 146  22  43
   2024 06 29 11:30  00 08 38.51    -12 59 34.8   117999 1.0168 100.8 Nm  13?  46.39  21.4   33 149  22  43
   2024 06 29 11:40  00 08 49.97    -12 52 16.7   117045 1.0168 100.7 Nm  13?  47.17  20.5   35 152  22  43
   2024 06 29 11:50  00 09 01.15    -12 44 48.6   116090 1.0168 100.7 Cm  13?  48.00  19.7   36 154  22  43
   2024 06 29 12:00  00 09 12.11    -12 37 10.2   115134 1.0168 100.6 Cm  13?  48.88  18.9   36 157  22  43
   ................
   2024 06 30 07:50  21 29 02.85    -44 30 03.6    86490 1.0171 139.1     14?  93.33  47.6    0 152  79  33
   2024 06 30 08:00  21 30 05.60    -44 19 38.4    87613 1.0171 139.0  m  14?  90.68  46.4    1 153  79  33
   2024 06 30 08:10  21 31 05.28    -44 09 17.3    88725 1.0171 138.9  m  14?  88.25  45.2    2 155  79  33
   2024 06 30 08:20  21 32 02.08    -43 58 59.6    89826 1.0171 138.8  m  14?  86.03  44.1    3 156  79  33
   2024 06 30 08:30  21 32 56.20    -43 48 44.9    90917 1.0171 138.7  m  14?  84.01  42.9    3 158  79  33
   2024 06 30 08:40  21 33 47.81    -43 38 32.8    91998 1.0171 138.6  m  14?  82.18  41.8    4 159  79  33
   2024 06 30 08:50  21 34 37.09    -43 28 22.8    93070 1.0171 138.5  m  14?  80.52  40.6    5 161  78  33
   2024 06 30 09:00  21 35 24.20    -43 18 14.6    94133 1.0171 138.4  m  14?  79.01  39.5    6 162  78  33
   2024 06 30 09:10  21 36 09.29    -43 08 07.8    95189 1.0171 138.3  m  14?  77.66  38.5    6 164  78  33
   2024 06 30 09:20  21 36 52.52    -42 58 02.1    96236 1.0172 138.2  m  14?  76.45  37.4    7 165  78  33
   2024 06 30 09:30  21 37 34.03    -42 47 57.2    97276 1.0172 138.1  m  14?  75.37  36.5    8 167  78  33
   2024 06 30 09:40  21 38 13.94    -42 37 53.0    98310 1.0172 138.0  m  14?  74.40  35.5    8 169  78  32
   2024 06 30 09:50  21 38 52.39    -42 27 49.2    99337 1.0172 138.0  m  14?  73.55  34.6    9 170  78  32
   2024 06 30 10:00  21 39 29.50    -42 17 45.7   100358 1.0172 137.9  m  14?  72.79  33.8    9 172  78  32
   2024 06 30 10:10  21 40 05.39    -42 07 42.2   101374 1.0172 137.8  m  14?  72.13  33.0    9 174  78  32
   2024 06 30 10:20  21 40 40.17    -41 57 38.7   102384 1.0172 137.8  m  14?  71.56  32.3   10 176  78  32
   2024 06 30 10:30  21 41 13.94    -41 47 35.1   103389 1.0172 137.7 Am  14?  71.06  31.6   10 177  77  32
   2024 06 30 10:40  21 41 46.82    -41 37 31.4   104389 1.0172 137.6 Am  14?  70.62  31.0   10 179  77  32
   2024 06 30 10:50  21 42 18.89    -41 27 27.4   105386 1.0172 137.6 At  14?  70.25  30.5   10 181  77  32
   2024 06 30 11:00  21 42 50.25    -41 17 23.2   106377 1.0172 137.5 Am  14?  69.94  30.0   10 183  77  32
   2024 06 30 11:10  21 43 20.99    -41 07 18.8   107365 1.0172 137.5 Nm  14?  69.68  29.6   11 185  77  32
   2024 06 30 11:20  21 43 51.20    -40 57 14.1   108350 1.0172 137.4 Ne  14?  69.46  29.3   10 186  77  32
   2024 06 30 11:30  21 44 20.94    -40 47 09.4   109330 1.0172 137.3 Nm  14?  69.28  29.0   10 188  77  32
   2024 06 30 11:40  21 44 50.32    -40 37 04.5   110308 1.0172 137.3 Nm  14?  69.13  28.7   10 190  77  32
   2024 06 30 11:50  21 45 19.38    -40 26 59.6   111282 1.0172 137.2 Cm  14?  69.02  28.6   10 192  77  32
   2024 06 30 12:00  21 45 48.22    -40 16 54.9   112253 1.0172 137.2 Cm  14?  68.93  28.5   10 194  77  32
   ................
   

Bill Grays ephemeris for selected ARTSATs for this station you'll find for the next 72 hours here.

Website generated with AmrumHtml. Date: 06-19-2024